<?xml version="1.0" encoding="UTF-8" standalone="no" ?>
<gpx xmlns="http://www.topografix.com/GPX/1/1" xmlns:xsi="http://www.w3.org/2001/XMLSchema-instance" xsi:schemaLocation="http://www.topografix.com/GPX/1/1 http://www.topografix.com/GPX/1/1/gpx.xsd" version="1.1" creator="VisuGPX - https://www.visugpx.com">
  <metadata>
    <name>Toulouse - Avignonet-Lauragais - Toulouse</name>
    <desc><![CDATA[Rider40]]></desc>
  </metadata>
  <trk>
    <name><![CDATA[Toulouse - Avignonet-Lauragais - Toulouse_1]]></name>
    <trkseg>
      <trkpt lat="43.64352" lon="1.44489">
        <ele>135</ele>
        <time>2017-09-24T11:47:36Z</time>
      </trkpt>
      <trkpt lat="43.64334" lon="1.44537">
        <ele>136</ele>
        <time>2017-09-24T11:47:40Z</time>
      </trkpt>
      <trkpt lat="43.6432" lon="1.44557">
        <ele>136</ele>
        <time>2017-09-24T11:47:44Z</time>
      </trkpt>
      <trkpt lat="43.64308" lon="1.44556">
        <ele>136</ele>
        <time>2017-09-24T11:47:48Z</time>
      </trkpt>
      <trkpt lat="43.64289" lon="1.44558">
        <ele>136</ele>
        <time>2017-09-24T11:47:52Z</time>
      </trkpt>
      <trkpt lat="43.64279" lon="1.44559">
        <ele>136</ele>
        <time>2017-09-24T11:47:56Z</time>
      </trkpt>
      <trkpt lat="43.64275" lon="1.44587">
        <ele>136</ele>
        <time>2017-09-24T11:48:00Z</time>
      </trkpt>
      <trkpt lat="43.64273" lon="1.44595">
        <ele>136</ele>
        <time>2017-09-24T11:48:04Z</time>
      </trkpt>
      <trkpt lat="43.6427" lon="1.44605">
        <ele>136</ele>
        <time>2017-09-24T11:48:12Z</time>
      </trkpt>
      <trkpt lat="43.64277" lon="1.44619">
        <ele>136</ele>
        <time>2017-09-24T11:48:16Z</time>
      </trkpt>
      <trkpt lat="43.64293" lon="1.44622">
        <ele>136</ele>
        <time>2017-09-24T11:48:20Z</time>
      </trkpt>
      <trkpt lat="43.64311" lon="1.4463">
        <ele>136</ele>
        <time>2017-09-24T11:48:24Z</time>
      </trkpt>
      <trkpt lat="43.64333" lon="1.44613">
        <ele>136</ele>
        <time>2017-09-24T11:48:28Z</time>
      </trkpt>
      <trkpt lat="43.64353" lon="1.44604">
        <ele>136</ele>
        <time>2017-09-24T11:48:32Z</time>
      </trkpt>
      <trkpt lat="43.64371" lon="1.44587">
        <ele>136</ele>
        <time>2017-09-24T11:48:36Z</time>
      </trkpt>
      <trkpt lat="43.64388" lon="1.44566">
        <ele>136</ele>
        <time>2017-09-24T11:48:40Z</time>
      </trkpt>
      <trkpt lat="43.64407" lon="1.44544">
        <ele>136</ele>
        <time>2017-09-24T11:48:44Z</time>
      </trkpt>
      <trkpt lat="43.64424" lon="1.44523">
        <ele>136</ele>
        <time>2017-09-24T11:48:48Z</time>
      </trkpt>
      <trkpt lat="43.64439" lon="1.44497">
        <ele>136</ele>
        <time>2017-09-24T11:48:52Z</time>
      </trkpt>
      <trkpt lat="43.64446" lon="1.44464">
        <ele>135</ele>
        <time>2017-09-24T11:48:56Z</time>
      </trkpt>
      <trkpt lat="43.64451" lon="1.44433">
        <ele>136</ele>
        <time>2017-09-24T11:49:00Z</time>
      </trkpt>
      <trkpt lat="43.64467" lon="1.44413">
        <ele>136</ele>
        <time>2017-09-24T11:49:04Z</time>
      </trkpt>
      <trkpt lat="43.64488" lon="1.4441">
        <ele>136</ele>
        <time>2017-09-24T11:49:08Z</time>
      </trkpt>
      <trkpt lat="43.64511" lon="1.44409">
        <ele>136</ele>
        <time>2017-09-24T11:49:12Z</time>
      </trkpt>
      <trkpt lat="43.64536" lon="1.44405">
        <ele>136</ele>
        <time>2017-09-24T11:49:16Z</time>
      </trkpt>
      <trkpt lat="43.64555" lon="1.44416">
        <ele>136</ele>
        <time>2017-09-24T11:49:20Z</time>
      </trkpt>
      <trkpt lat="43.64572" lon="1.44438">
        <ele>136</ele>
        <time>2017-09-24T11:49:24Z</time>
      </trkpt>
      <trkpt lat="43.64588" lon="1.44461">
        <ele>136</ele>
        <time>2017-09-24T11:49:28Z</time>
      </trkpt>
      <trkpt lat="43.64602" lon="1.44486">
        <ele>136</ele>
        <time>2017-09-24T11:49:32Z</time>
      </trkpt>
      <trkpt lat="43.64617" lon="1.4451">
        <ele>136</ele>
        <time>2017-09-24T11:49:36Z</time>
      </trkpt>
      <trkpt lat="43.64632" lon="1.44536">
        <ele>136</ele>
        <time>2017-09-24T11:49:40Z</time>
      </trkpt>
      <trkpt lat="43.6463" lon="1.44566">
        <ele>136</ele>
        <time>2017-09-24T11:49:44Z</time>
      </trkpt>
      <trkpt lat="43.64613" lon="1.44589">
        <ele>136</ele>
        <time>2017-09-24T11:49:48Z</time>
      </trkpt>
      <trkpt lat="43.64611" lon="1.44624">
        <ele>136</ele>
        <time>2017-09-24T11:49:52Z</time>
      </trkpt>
      <trkpt lat="43.64611" lon="1.44659">
        <ele>136</ele>
        <time>2017-09-24T11:49:56Z</time>
      </trkpt>
      <trkpt lat="43.64609" lon="1.44694">
        <ele>137</ele>
        <time>2017-09-24T11:50:00Z</time>
      </trkpt>
      <trkpt lat="43.646" lon="1.44729">
        <ele>137</ele>
        <time>2017-09-24T11:50:04Z</time>
      </trkpt>
      <trkpt lat="43.64596" lon="1.44765">
        <ele>137</ele>
        <time>2017-09-24T11:50:08Z</time>
      </trkpt>
      <trkpt lat="43.64608" lon="1.44799">
        <ele>136</ele>
        <time>2017-09-24T11:50:12Z</time>
      </trkpt>
      <trkpt lat="43.6461" lon="1.44836">
        <ele>136</ele>
        <time>2017-09-24T11:50:16Z</time>
      </trkpt>
      <trkpt lat="43.64601" lon="1.44872">
        <ele>136</ele>
        <time>2017-09-24T11:50:20Z</time>
      </trkpt>
      <trkpt lat="43.64592" lon="1.44909">
        <ele>136</ele>
        <time>2017-09-24T11:50:24Z</time>
      </trkpt>
      <trkpt lat="43.64583" lon="1.44945">
        <ele>136</ele>
        <time>2017-09-24T11:50:28Z</time>
      </trkpt>
      <trkpt lat="43.64574" lon="1.44982">
        <ele>136</ele>
        <time>2017-09-24T11:50:32Z</time>
      </trkpt>
      <trkpt lat="43.64564" lon="1.45017">
        <ele>136</ele>
        <time>2017-09-24T11:50:36Z</time>
      </trkpt>
      <trkpt lat="43.64555" lon="1.45052">
        <ele>136</ele>
        <time>2017-09-24T11:50:40Z</time>
      </trkpt>
      <trkpt lat="43.64537" lon="1.4508">
        <ele>136</ele>
        <time>2017-09-24T11:50:44Z</time>
      </trkpt>
      <trkpt lat="43.6452" lon="1.45107">
        <ele>136</ele>
        <time>2017-09-24T11:50:48Z</time>
      </trkpt>
      <trkpt lat="43.64501" lon="1.45132">
        <ele>136</ele>
        <time>2017-09-24T11:50:52Z</time>
      </trkpt>
      <trkpt lat="43.64483" lon="1.4516">
        <ele>137</ele>
        <time>2017-09-24T11:50:56Z</time>
      </trkpt>
      <trkpt lat="43.64465" lon="1.45186">
        <ele>137</ele>
        <time>2017-09-24T11:51:00Z</time>
      </trkpt>
      <trkpt lat="43.64447" lon="1.45211">
        <ele>137</ele>
        <time>2017-09-24T11:51:04Z</time>
      </trkpt>
      <trkpt lat="43.64431" lon="1.45235">
        <ele>137</ele>
        <time>2017-09-24T11:51:08Z</time>
      </trkpt>
      <trkpt lat="43.64427" lon="1.45259">
        <ele>137</ele>
        <time>2017-09-24T11:51:12Z</time>
      </trkpt>
      <trkpt lat="43.64439" lon="1.45292">
        <ele>137</ele>
        <time>2017-09-24T11:51:16Z</time>
      </trkpt>
      <trkpt lat="43.64451" lon="1.45325">
        <ele>137</ele>
        <time>2017-09-24T11:51:20Z</time>
      </trkpt>
      <trkpt lat="43.64463" lon="1.45357">
        <ele>137</ele>
        <time>2017-09-24T11:51:24Z</time>
      </trkpt>
      <trkpt lat="43.64475" lon="1.45389">
        <ele>138</ele>
        <time>2017-09-24T11:51:28Z</time>
      </trkpt>
      <trkpt lat="43.64488" lon="1.45421">
        <ele>137</ele>
        <time>2017-09-24T11:51:32Z</time>
      </trkpt>
      <trkpt lat="43.645" lon="1.45453">
        <ele>137</ele>
        <time>2017-09-24T11:51:36Z</time>
      </trkpt>
      <trkpt lat="43.64504" lon="1.45477">
        <ele>137</ele>
        <time>2017-09-24T11:51:40Z</time>
      </trkpt>
      <trkpt lat="43.64485" lon="1.45484">
        <ele>137</ele>
        <time>2017-09-24T11:51:44Z</time>
      </trkpt>
      <trkpt lat="43.64461" lon="1.45487">
        <ele>137</ele>
        <time>2017-09-24T11:51:48Z</time>
      </trkpt>
      <trkpt lat="43.64435" lon="1.45493">
        <ele>137</ele>
        <time>2017-09-24T11:51:52Z</time>
      </trkpt>
      <trkpt lat="43.6441" lon="1.45507">
        <ele>137</ele>
        <time>2017-09-24T11:51:56Z</time>
      </trkpt>
      <trkpt lat="43.64386" lon="1.45522">
        <ele>137</ele>
        <time>2017-09-24T11:52:00Z</time>
      </trkpt>
      <trkpt lat="43.64363" lon="1.45536">
        <ele>137</ele>
        <time>2017-09-24T11:52:04Z</time>
      </trkpt>
      <trkpt lat="43.6434" lon="1.45549">
        <ele>137</ele>
        <time>2017-09-24T11:52:08Z</time>
      </trkpt>
      <trkpt lat="43.64328" lon="1.4556">
        <ele>137</ele>
        <time>2017-09-24T11:52:12Z</time>
      </trkpt>
      <trkpt lat="43.64334" lon="1.45579">
        <ele>137</ele>
        <time>2017-09-24T11:52:16Z</time>
      </trkpt>
      <trkpt lat="43.64339" lon="1.45601">
        <ele>137</ele>
        <time>2017-09-24T11:52:20Z</time>
      </trkpt>
      <trkpt lat="43.64322" lon="1.45609">
        <ele>137</ele>
        <time>2017-09-24T11:52:24Z</time>
      </trkpt>
      <trkpt lat="43.64309" lon="1.45627">
        <ele>137</ele>
        <time>2017-09-24T11:52:28Z</time>
      </trkpt>
      <trkpt lat="43.64302" lon="1.45659">
        <ele>138</ele>
        <time>2017-09-24T11:52:32Z</time>
      </trkpt>
      <trkpt lat="43.64297" lon="1.45692">
        <ele>138</ele>
        <time>2017-09-24T11:52:36Z</time>
      </trkpt>
      <trkpt lat="43.64291" lon="1.45725">
        <ele>138</ele>
        <time>2017-09-24T11:52:40Z</time>
      </trkpt>
      <trkpt lat="43.6429" lon="1.45759">
        <ele>138</ele>
        <time>2017-09-24T11:52:44Z</time>
      </trkpt>
      <trkpt lat="43.64291" lon="1.45794">
        <ele>138</ele>
        <time>2017-09-24T11:52:48Z</time>
      </trkpt>
      <trkpt lat="43.64293" lon="1.4583">
        <ele>138</ele>
        <time>2017-09-24T11:52:52Z</time>
      </trkpt>
      <trkpt lat="43.64294" lon="1.45868">
        <ele>138</ele>
        <time>2017-09-24T11:52:56Z</time>
      </trkpt>
      <trkpt lat="43.64295" lon="1.45906">
        <ele>138</ele>
        <time>2017-09-24T11:53:00Z</time>
      </trkpt>
      <trkpt lat="43.64296" lon="1.45945">
        <ele>138</ele>
        <time>2017-09-24T11:53:04Z</time>
      </trkpt>
      <trkpt lat="43.64298" lon="1.45983">
        <ele>138</ele>
        <time>2017-09-24T11:53:08Z</time>
      </trkpt>
      <trkpt lat="43.64299" lon="1.4602">
        <ele>138</ele>
        <time>2017-09-24T11:53:12Z</time>
      </trkpt>
      <trkpt lat="43.643" lon="1.46058">
        <ele>138</ele>
        <time>2017-09-24T11:53:16Z</time>
      </trkpt>
      <trkpt lat="43.64299" lon="1.46096">
        <ele>138</ele>
        <time>2017-09-24T11:53:20Z</time>
      </trkpt>
      <trkpt lat="43.6429" lon="1.46131">
        <ele>137</ele>
        <time>2017-09-24T11:53:24Z</time>
      </trkpt>
      <trkpt lat="43.64302" lon="1.46165">
        <ele>137</ele>
        <time>2017-09-24T11:53:28Z</time>
      </trkpt>
      <trkpt lat="43.64304" lon="1.46204">
        <ele>138</ele>
        <time>2017-09-24T11:53:32Z</time>
      </trkpt>
      <trkpt lat="43.64304" lon="1.46244">
        <ele>138</ele>
        <time>2017-09-24T11:53:36Z</time>
      </trkpt>
      <trkpt lat="43.64302" lon="1.46283">
        <ele>139</ele>
        <time>2017-09-24T11:53:40Z</time>
      </trkpt>
      <trkpt lat="43.64298" lon="1.46321">
        <ele>139</ele>
        <time>2017-09-24T11:53:44Z</time>
      </trkpt>
      <trkpt lat="43.64293" lon="1.46359">
        <ele>139</ele>
        <time>2017-09-24T11:53:48Z</time>
      </trkpt>
      <trkpt lat="43.64287" lon="1.46396">
        <ele>139</ele>
        <time>2017-09-24T11:53:52Z</time>
      </trkpt>
      <trkpt lat="43.64279" lon="1.46433">
        <ele>139</ele>
        <time>2017-09-24T11:53:56Z</time>
      </trkpt>
      <trkpt lat="43.6427" lon="1.46469">
        <ele>139</ele>
        <time>2017-09-24T11:54:00Z</time>
      </trkpt>
      <trkpt lat="43.6426" lon="1.46504">
        <ele>140</ele>
        <time>2017-09-24T11:54:04Z</time>
      </trkpt>
      <trkpt lat="43.64248" lon="1.46538">
        <ele>139</ele>
        <time>2017-09-24T11:54:08Z</time>
      </trkpt>
      <trkpt lat="43.64236" lon="1.46572">
        <ele>139</ele>
        <time>2017-09-24T11:54:12Z</time>
      </trkpt>
      <trkpt lat="43.64224" lon="1.46607">
        <ele>139</ele>
        <time>2017-09-24T11:54:16Z</time>
      </trkpt>
      <trkpt lat="43.64211" lon="1.4664">
        <ele>139</ele>
        <time>2017-09-24T11:54:20Z</time>
      </trkpt>
      <trkpt lat="43.64202" lon="1.46666">
        <ele>139</ele>
        <time>2017-09-24T11:54:24Z</time>
      </trkpt>
      <trkpt lat="43.64192" lon="1.46684">
        <ele>139</ele>
        <time>2017-09-24T11:54:28Z</time>
      </trkpt>
      <trkpt lat="43.6418" lon="1.46685">
        <ele>139</ele>
        <time>2017-09-24T11:54:32Z</time>
      </trkpt>
      <trkpt lat="43.64173" lon="1.46685">
        <ele>139</ele>
        <time>2017-09-24T11:54:36Z</time>
      </trkpt>
      <trkpt lat="43.64172" lon="1.46709">
        <ele>139</ele>
        <time>2017-09-24T11:54:40Z</time>
      </trkpt>
      <trkpt lat="43.64172" lon="1.46739">
        <ele>139</ele>
        <time>2017-09-24T11:54:44Z</time>
      </trkpt>
      <trkpt lat="43.64159" lon="1.46768">
        <ele>139</ele>
        <time>2017-09-24T11:54:48Z</time>
      </trkpt>
      <trkpt lat="43.64144" lon="1.46797">
        <ele>139</ele>
        <time>2017-09-24T11:54:52Z</time>
      </trkpt>
      <trkpt lat="43.64126" lon="1.46824">
        <ele>139</ele>
        <time>2017-09-24T11:54:56Z</time>
      </trkpt>
      <trkpt lat="43.64108" lon="1.46852">
        <ele>139</ele>
        <time>2017-09-24T11:55:00Z</time>
      </trkpt>
      <trkpt lat="43.64088" lon="1.46881">
        <ele>139</ele>
        <time>2017-09-24T11:55:04Z</time>
      </trkpt>
      <trkpt lat="43.64066" lon="1.46908">
        <ele>139</ele>
        <time>2017-09-24T11:55:08Z</time>
      </trkpt>
      <trkpt lat="43.64043" lon="1.46931">
        <ele>139</ele>
        <time>2017-09-24T11:55:12Z</time>
      </trkpt>
      <trkpt lat="43.64023" lon="1.46952">
        <ele>139</ele>
        <time>2017-09-24T11:55:16Z</time>
      </trkpt>
      <trkpt lat="43.64004" lon="1.4697">
        <ele>138</ele>
        <time>2017-09-24T11:55:20Z</time>
      </trkpt>
      <trkpt lat="43.63981" lon="1.46987">
        <ele>138</ele>
        <time>2017-09-24T11:55:24Z</time>
      </trkpt>
      <trkpt lat="43.63957" lon="1.47008">
        <ele>139</ele>
        <time>2017-09-24T11:55:28Z</time>
      </trkpt>
      <trkpt lat="43.63934" lon="1.4703">
        <ele>139</ele>
        <time>2017-09-24T11:55:32Z</time>
      </trkpt>
      <trkpt lat="43.63911" lon="1.47053">
        <ele>139</ele>
        <time>2017-09-24T11:55:36Z</time>
      </trkpt>
      <trkpt lat="43.63888" lon="1.47076">
        <ele>139</ele>
        <time>2017-09-24T11:55:40Z</time>
      </trkpt>
      <trkpt lat="43.63866" lon="1.47097">
        <ele>139</ele>
        <time>2017-09-24T11:55:44Z</time>
      </trkpt>
      <trkpt lat="43.63847" lon="1.47121">
        <ele>139</ele>
        <time>2017-09-24T11:55:48Z</time>
      </trkpt>
      <trkpt lat="43.63831" lon="1.47147">
        <ele>139</ele>
        <time>2017-09-24T11:55:52Z</time>
      </trkpt>
      <trkpt lat="43.63815" lon="1.47174">
        <ele>139</ele>
        <time>2017-09-24T11:55:56Z</time>
      </trkpt>
      <trkpt lat="43.63795" lon="1.47197">
        <ele>139</ele>
        <time>2017-09-24T11:56:00Z</time>
      </trkpt>
      <trkpt lat="43.63771" lon="1.47215">
        <ele>139</ele>
        <time>2017-09-24T11:56:04Z</time>
      </trkpt>
      <trkpt lat="43.63744" lon="1.47228">
        <ele>139</ele>
        <time>2017-09-24T11:56:08Z</time>
      </trkpt>
      <trkpt lat="43.63716" lon="1.47237">
        <ele>140</ele>
        <time>2017-09-24T11:56:12Z</time>
      </trkpt>
      <trkpt lat="43.63688" lon="1.47244">
        <ele>139</ele>
        <time>2017-09-24T11:56:16Z</time>
      </trkpt>
      <trkpt lat="43.6366" lon="1.47252">
        <ele>139</ele>
        <time>2017-09-24T11:56:20Z</time>
      </trkpt>
      <trkpt lat="43.63632" lon="1.4726">
        <ele>139</ele>
        <time>2017-09-24T11:56:24Z</time>
      </trkpt>
      <trkpt lat="43.63603" lon="1.47268">
        <ele>139</ele>
        <time>2017-09-24T11:56:28Z</time>
      </trkpt>
      <trkpt lat="43.63573" lon="1.47276">
        <ele>138</ele>
        <time>2017-09-24T11:56:32Z</time>
      </trkpt>
      <trkpt lat="43.63544" lon="1.47289">
        <ele>138</ele>
        <time>2017-09-24T11:56:36Z</time>
      </trkpt>
      <trkpt lat="43.63519" lon="1.47307">
        <ele>139</ele>
        <time>2017-09-24T11:56:40Z</time>
      </trkpt>
      <trkpt lat="43.63495" lon="1.4732">
        <ele>140</ele>
        <time>2017-09-24T11:56:44Z</time>
      </trkpt>
      <trkpt lat="43.63474" lon="1.4733">
        <ele>141</ele>
        <time>2017-09-24T11:56:48Z</time>
      </trkpt>
      <trkpt lat="43.63454" lon="1.4734">
        <ele>142</ele>
        <time>2017-09-24T11:56:52Z</time>
      </trkpt>
      <trkpt lat="43.63434" lon="1.47351">
        <ele>144</ele>
        <time>2017-09-24T11:56:56Z</time>
      </trkpt>
      <trkpt lat="43.63411" lon="1.47364">
        <ele>145</ele>
        <time>2017-09-24T11:57:00Z</time>
      </trkpt>
      <trkpt lat="43.6339" lon="1.47376">
        <ele>146</ele>
        <time>2017-09-24T11:57:04Z</time>
      </trkpt>
      <trkpt lat="43.6337" lon="1.47387">
        <ele>147</ele>
        <time>2017-09-24T11:57:08Z</time>
      </trkpt>
      <trkpt lat="43.63349" lon="1.47398">
        <ele>147</ele>
        <time>2017-09-24T11:57:12Z</time>
      </trkpt>
      <trkpt lat="43.63328" lon="1.4741">
        <ele>147</ele>
        <time>2017-09-24T11:57:16Z</time>
      </trkpt>
      <trkpt lat="43.63305" lon="1.47422">
        <ele>147</ele>
        <time>2017-09-24T11:57:20Z</time>
      </trkpt>
      <trkpt lat="43.63281" lon="1.47435">
        <ele>146</ele>
        <time>2017-09-24T11:57:24Z</time>
      </trkpt>
      <trkpt lat="43.63254" lon="1.4745">
        <ele>146</ele>
        <time>2017-09-24T11:57:28Z</time>
      </trkpt>
      <trkpt lat="43.63226" lon="1.47465">
        <ele>145</ele>
        <time>2017-09-24T11:57:32Z</time>
      </trkpt>
      <trkpt lat="43.63196" lon="1.47481">
        <ele>144</ele>
        <time>2017-09-24T11:57:36Z</time>
      </trkpt>
      <trkpt lat="43.63166" lon="1.47497">
        <ele>142</ele>
        <time>2017-09-24T11:57:40Z</time>
      </trkpt>
      <trkpt lat="43.63135" lon="1.47512">
        <ele>142</ele>
        <time>2017-09-24T11:57:44Z</time>
      </trkpt>
      <trkpt lat="43.63105" lon="1.47524">
        <ele>141</ele>
        <time>2017-09-24T11:57:48Z</time>
      </trkpt>
      <trkpt lat="43.63078" lon="1.4754">
        <ele>140</ele>
        <time>2017-09-24T11:57:52Z</time>
      </trkpt>
      <trkpt lat="43.63051" lon="1.4756">
        <ele>141</ele>
        <time>2017-09-24T11:57:56Z</time>
      </trkpt>
      <trkpt lat="43.63023" lon="1.47576">
        <ele>141</ele>
        <time>2017-09-24T11:58:00Z</time>
      </trkpt>
      <trkpt lat="43.62993" lon="1.47591">
        <ele>141</ele>
        <time>2017-09-24T11:58:04Z</time>
      </trkpt>
      <trkpt lat="43.62962" lon="1.47607">
        <ele>140</ele>
        <time>2017-09-24T11:58:08Z</time>
      </trkpt>
      <trkpt lat="43.62931" lon="1.47618">
        <ele>140</ele>
        <time>2017-09-24T11:58:12Z</time>
      </trkpt>
      <trkpt lat="43.62903" lon="1.47625">
        <ele>140</ele>
        <time>2017-09-24T11:58:16Z</time>
      </trkpt>
      <trkpt lat="43.62881" lon="1.4764">
        <ele>140</ele>
        <time>2017-09-24T11:58:20Z</time>
      </trkpt>
      <trkpt lat="43.62856" lon="1.47654">
        <ele>140</ele>
        <time>2017-09-24T11:58:24Z</time>
      </trkpt>
      <trkpt lat="43.6283" lon="1.47668">
        <ele>140</ele>
        <time>2017-09-24T11:58:28Z</time>
      </trkpt>
      <trkpt lat="43.62804" lon="1.47683">
        <ele>140</ele>
        <time>2017-09-24T11:58:32Z</time>
      </trkpt>
      <trkpt lat="43.62774" lon="1.47695">
        <ele>140</ele>
        <time>2017-09-24T11:58:36Z</time>
      </trkpt>
      <trkpt lat="43.62743" lon="1.47705">
        <ele>139</ele>
        <time>2017-09-24T11:58:40Z</time>
      </trkpt>
      <trkpt lat="43.62714" lon="1.4771">
        <ele>139</ele>
        <time>2017-09-24T11:58:44Z</time>
      </trkpt>
      <trkpt lat="43.62689" lon="1.47709">
        <ele>139</ele>
        <time>2017-09-24T11:58:48Z</time>
      </trkpt>
      <trkpt lat="43.62679" lon="1.47723">
        <ele>139</ele>
        <time>2017-09-24T11:58:52Z</time>
      </trkpt>
      <trkpt lat="43.62673" lon="1.47732">
        <ele>139</ele>
        <time>2017-09-24T11:59:16Z</time>
      </trkpt>
      <trkpt lat="43.62666" lon="1.47758">
        <ele>140</ele>
        <time>2017-09-24T11:59:20Z</time>
      </trkpt>
      <trkpt lat="43.62657" lon="1.47774">
        <ele>140</ele>
        <time>2017-09-24T11:59:24Z</time>
      </trkpt>
      <trkpt lat="43.62635" lon="1.47778">
        <ele>140</ele>
        <time>2017-09-24T11:59:28Z</time>
      </trkpt>
      <trkpt lat="43.62621" lon="1.47801">
        <ele>140</ele>
        <time>2017-09-24T11:59:32Z</time>
      </trkpt>
      <trkpt lat="43.62605" lon="1.47832">
        <ele>139</ele>
        <time>2017-09-24T11:59:36Z</time>
      </trkpt>
      <trkpt lat="43.62582" lon="1.47856">
        <ele>139</ele>
        <time>2017-09-24T11:59:40Z</time>
      </trkpt>
      <trkpt lat="43.62564" lon="1.47886">
        <ele>139</ele>
        <time>2017-09-24T11:59:44Z</time>
      </trkpt>
      <trkpt lat="43.62541" lon="1.47908">
        <ele>138</ele>
        <time>2017-09-24T11:59:48Z</time>
      </trkpt>
      <trkpt lat="43.62513" lon="1.47923">
        <ele>138</ele>
        <time>2017-09-24T11:59:52Z</time>
      </trkpt>
      <trkpt lat="43.62484" lon="1.47935">
        <ele>138</ele>
        <time>2017-09-24T11:59:56Z</time>
      </trkpt>
      <trkpt lat="43.62455" lon="1.47945">
        <ele>138</ele>
        <time>2017-09-24T12:00:00Z</time>
      </trkpt>
      <trkpt lat="43.62426" lon="1.47954">
        <ele>138</ele>
        <time>2017-09-24T12:00:04Z</time>
      </trkpt>
      <trkpt lat="43.62398" lon="1.47964">
        <ele>138</ele>
        <time>2017-09-24T12:00:08Z</time>
      </trkpt>
      <trkpt lat="43.62368" lon="1.47973">
        <ele>138</ele>
        <time>2017-09-24T12:00:12Z</time>
      </trkpt>
      <trkpt lat="43.6234" lon="1.47983">
        <ele>138</ele>
        <time>2017-09-24T12:00:16Z</time>
      </trkpt>
      <trkpt lat="43.62313" lon="1.48003">
        <ele>138</ele>
        <time>2017-09-24T12:00:20Z</time>
      </trkpt>
      <trkpt lat="43.62283" lon="1.48019">
        <ele>138</ele>
        <time>2017-09-24T12:00:24Z</time>
      </trkpt>
      <trkpt lat="43.62252" lon="1.48037">
        <ele>139</ele>
        <time>2017-09-24T12:00:28Z</time>
      </trkpt>
      <trkpt lat="43.62224" lon="1.48056">
        <ele>138</ele>
        <time>2017-09-24T12:00:32Z</time>
      </trkpt>
      <trkpt lat="43.62196" lon="1.48069">
        <ele>138</ele>
        <time>2017-09-24T12:00:36Z</time>
      </trkpt>
      <trkpt lat="43.62168" lon="1.4808">
        <ele>139</ele>
        <time>2017-09-24T12:00:40Z</time>
      </trkpt>
      <trkpt lat="43.6214" lon="1.48092">
        <ele>138</ele>
        <time>2017-09-24T12:00:44Z</time>
      </trkpt>
      <trkpt lat="43.62112" lon="1.48102">
        <ele>138</ele>
        <time>2017-09-24T12:00:48Z</time>
      </trkpt>
      <trkpt lat="43.62084" lon="1.4811">
        <ele>138</ele>
        <time>2017-09-24T12:00:52Z</time>
      </trkpt>
      <trkpt lat="43.62059" lon="1.48115">
        <ele>138</ele>
        <time>2017-09-24T12:00:56Z</time>
      </trkpt>
      <trkpt lat="43.62034" lon="1.4812">
        <ele>138</ele>
        <time>2017-09-24T12:01:00Z</time>
      </trkpt>
      <trkpt lat="43.62007" lon="1.48127">
        <ele>138</ele>
        <time>2017-09-24T12:01:04Z</time>
      </trkpt>
      <trkpt lat="43.61981" lon="1.48134">
        <ele>138</ele>
        <time>2017-09-24T12:01:08Z</time>
      </trkpt>
      <trkpt lat="43.6195" lon="1.48144">
        <ele>139</ele>
        <time>2017-09-24T12:01:12Z</time>
      </trkpt>
      <trkpt lat="43.61922" lon="1.48156">
        <ele>138</ele>
        <time>2017-09-24T12:01:16Z</time>
      </trkpt>
      <trkpt lat="43.61893" lon="1.48168">
        <ele>138</ele>
        <time>2017-09-24T12:01:20Z</time>
      </trkpt>
      <trkpt lat="43.61864" lon="1.48179">
        <ele>139</ele>
        <time>2017-09-24T12:01:24Z</time>
      </trkpt>
      <trkpt lat="43.61834" lon="1.48185">
        <ele>138</ele>
        <time>2017-09-24T12:01:28Z</time>
      </trkpt>
      <trkpt lat="43.61806" lon="1.48192">
        <ele>139</ele>
        <time>2017-09-24T12:01:32Z</time>
      </trkpt>
      <trkpt lat="43.61777" lon="1.48202">
        <ele>139</ele>
        <time>2017-09-24T12:01:36Z</time>
      </trkpt>
      <trkpt lat="43.61748" lon="1.48211">
        <ele>139</ele>
        <time>2017-09-24T12:01:40Z</time>
      </trkpt>
      <trkpt lat="43.61719" lon="1.4822">
        <ele>139</ele>
        <time>2017-09-24T12:01:44Z</time>
      </trkpt>
      <trkpt lat="43.61688" lon="1.48232">
        <ele>139</ele>
        <time>2017-09-24T12:01:48Z</time>
      </trkpt>
      <trkpt lat="43.61657" lon="1.48241">
        <ele>139</ele>
        <time>2017-09-24T12:01:52Z</time>
      </trkpt>
      <trkpt lat="43.61626" lon="1.48249">
        <ele>138</ele>
        <time>2017-09-24T12:01:56Z</time>
      </trkpt>
      <trkpt lat="43.61597" lon="1.48259">
        <ele>139</ele>
        <time>2017-09-24T12:02:00Z</time>
      </trkpt>
      <trkpt lat="43.61568" lon="1.48268">
        <ele>139</ele>
        <time>2017-09-24T12:02:04Z</time>
      </trkpt>
      <trkpt lat="43.61539" lon="1.48277">
        <ele>139</ele>
        <time>2017-09-24T12:02:08Z</time>
      </trkpt>
      <trkpt lat="43.61511" lon="1.48285">
        <ele>139</ele>
        <time>2017-09-24T12:02:12Z</time>
      </trkpt>
      <trkpt lat="43.61483" lon="1.48294">
        <ele>139</ele>
        <time>2017-09-24T12:02:16Z</time>
      </trkpt>
      <trkpt lat="43.61454" lon="1.48303">
        <ele>139</ele>
        <time>2017-09-24T12:02:20Z</time>
      </trkpt>
      <trkpt lat="43.61426" lon="1.48312">
        <ele>139</ele>
        <time>2017-09-24T12:02:24Z</time>
      </trkpt>
      <trkpt lat="43.61397" lon="1.48321">
        <ele>139</ele>
        <time>2017-09-24T12:02:28Z</time>
      </trkpt>
      <trkpt lat="43.61369" lon="1.48329">
        <ele>139</ele>
        <time>2017-09-24T12:02:32Z</time>
      </trkpt>
      <trkpt lat="43.61341" lon="1.48338">
        <ele>139</ele>
        <time>2017-09-24T12:02:36Z</time>
      </trkpt>
      <trkpt lat="43.61314" lon="1.48345">
        <ele>139</ele>
        <time>2017-09-24T12:02:40Z</time>
      </trkpt>
      <trkpt lat="43.61287" lon="1.48354">
        <ele>139</ele>
        <time>2017-09-24T12:02:44Z</time>
      </trkpt>
      <trkpt lat="43.61259" lon="1.48363">
        <ele>140</ele>
        <time>2017-09-24T12:02:48Z</time>
      </trkpt>
      <trkpt lat="43.61232" lon="1.48372">
        <ele>140</ele>
        <time>2017-09-24T12:02:52Z</time>
      </trkpt>
      <trkpt lat="43.61205" lon="1.48381">
        <ele>139</ele>
        <time>2017-09-24T12:02:56Z</time>
      </trkpt>
      <trkpt lat="43.61177" lon="1.48389">
        <ele>140</ele>
        <time>2017-09-24T12:03:00Z</time>
      </trkpt>
      <trkpt lat="43.61149" lon="1.48399">
        <ele>139</ele>
        <time>2017-09-24T12:03:04Z</time>
      </trkpt>
      <trkpt lat="43.61121" lon="1.48404">
        <ele>139</ele>
        <time>2017-09-24T12:03:08Z</time>
      </trkpt>
      <trkpt lat="43.61091" lon="1.48409">
        <ele>139</ele>
        <time>2017-09-24T12:03:12Z</time>
      </trkpt>
      <trkpt lat="43.61062" lon="1.4841">
        <ele>139</ele>
        <time>2017-09-24T12:03:16Z</time>
      </trkpt>
      <trkpt lat="43.61035" lon="1.4841">
        <ele>139</ele>
        <time>2017-09-24T12:03:20Z</time>
      </trkpt>
      <trkpt lat="43.61012" lon="1.48408">
        <ele>139</ele>
        <time>2017-09-24T12:03:24Z</time>
      </trkpt>
      <trkpt lat="43.60985" lon="1.48408">
        <ele>139</ele>
        <time>2017-09-24T12:03:28Z</time>
      </trkpt>
      <trkpt lat="43.60958" lon="1.48404">
        <ele>140</ele>
        <time>2017-09-24T12:03:32Z</time>
      </trkpt>
      <trkpt lat="43.60927" lon="1.48402">
        <ele>140</ele>
        <time>2017-09-24T12:03:36Z</time>
      </trkpt>
      <trkpt lat="43.60894" lon="1.48398">
        <ele>140</ele>
        <time>2017-09-24T12:03:40Z</time>
      </trkpt>
      <trkpt lat="43.60862" lon="1.48395">
        <ele>140</ele>
        <time>2017-09-24T12:03:44Z</time>
      </trkpt>
      <trkpt lat="43.60832" lon="1.48392">
        <ele>140</ele>
        <time>2017-09-24T12:03:48Z</time>
      </trkpt>
      <trkpt lat="43.60802" lon="1.48391">
        <ele>140</ele>
        <time>2017-09-24T12:03:52Z</time>
      </trkpt>
      <trkpt lat="43.60774" lon="1.48388">
        <ele>141</ele>
        <time>2017-09-24T12:03:56Z</time>
      </trkpt>
      <trkpt lat="43.60747" lon="1.48392">
        <ele>141</ele>
        <time>2017-09-24T12:04:00Z</time>
      </trkpt>
      <trkpt lat="43.6072" lon="1.4839">
        <ele>141</ele>
        <time>2017-09-24T12:04:04Z</time>
      </trkpt>
      <trkpt lat="43.60704" lon="1.48393">
        <ele>141</ele>
        <time>2017-09-24T12:04:08Z</time>
      </trkpt>
      <trkpt lat="43.60697" lon="1.48395">
        <ele>141</ele>
        <time>2017-09-24T12:04:36Z</time>
      </trkpt>
      <trkpt lat="43.60686" lon="1.48397">
        <ele>142</ele>
        <time>2017-09-24T12:04:56Z</time>
      </trkpt>
      <trkpt lat="43.60668" lon="1.48396">
        <ele>141</ele>
        <time>2017-09-24T12:05:00Z</time>
      </trkpt>
      <trkpt lat="43.60649" lon="1.48391">
        <ele>141</ele>
        <time>2017-09-24T12:05:04Z</time>
      </trkpt>
      <trkpt lat="43.60625" lon="1.48406">
        <ele>141</ele>
        <time>2017-09-24T12:05:08Z</time>
      </trkpt>
      <trkpt lat="43.606" lon="1.48421">
        <ele>141</ele>
        <time>2017-09-24T12:05:12Z</time>
      </trkpt>
      <trkpt lat="43.60573" lon="1.48431">
        <ele>142</ele>
        <time>2017-09-24T12:05:16Z</time>
      </trkpt>
      <trkpt lat="43.60545" lon="1.48439">
        <ele>141</ele>
        <time>2017-09-24T12:05:20Z</time>
      </trkpt>
      <trkpt lat="43.60516" lon="1.48439">
        <ele>141</ele>
        <time>2017-09-24T12:05:24Z</time>
      </trkpt>
      <trkpt lat="43.60487" lon="1.48441">
        <ele>142</ele>
        <time>2017-09-24T12:05:28Z</time>
      </trkpt>
      <trkpt lat="43.60459" lon="1.48453">
        <ele>142</ele>
        <time>2017-09-24T12:05:32Z</time>
      </trkpt>
      <trkpt lat="43.60431" lon="1.4847">
        <ele>142</ele>
        <time>2017-09-24T12:05:36Z</time>
      </trkpt>
      <trkpt lat="43.60403" lon="1.48489">
        <ele>141</ele>
        <time>2017-09-24T12:05:40Z</time>
      </trkpt>
      <trkpt lat="43.60375" lon="1.48513">
        <ele>141</ele>
        <time>2017-09-24T12:05:44Z</time>
      </trkpt>
      <trkpt lat="43.60349" lon="1.48537">
        <ele>141</ele>
        <time>2017-09-24T12:05:48Z</time>
      </trkpt>
      <trkpt lat="43.6032" lon="1.48559">
        <ele>141</ele>
        <time>2017-09-24T12:05:52Z</time>
      </trkpt>
      <trkpt lat="43.60292" lon="1.48584">
        <ele>140</ele>
        <time>2017-09-24T12:05:56Z</time>
      </trkpt>
      <trkpt lat="43.60264" lon="1.48609">
        <ele>140</ele>
        <time>2017-09-24T12:06:00Z</time>
      </trkpt>
      <trkpt lat="43.60239" lon="1.48636">
        <ele>141</ele>
        <time>2017-09-24T12:06:04Z</time>
      </trkpt>
      <trkpt lat="43.60214" lon="1.48661">
        <ele>141</ele>
        <time>2017-09-24T12:06:08Z</time>
      </trkpt>
      <trkpt lat="43.60192" lon="1.48687">
        <ele>141</ele>
        <time>2017-09-24T12:06:12Z</time>
      </trkpt>
      <trkpt lat="43.6017" lon="1.48715">
        <ele>141</ele>
        <time>2017-09-24T12:06:16Z</time>
      </trkpt>
      <trkpt lat="43.6015" lon="1.48745">
        <ele>141</ele>
        <time>2017-09-24T12:06:20Z</time>
      </trkpt>
      <trkpt lat="43.60129" lon="1.48774">
        <ele>141</ele>
        <time>2017-09-24T12:06:24Z</time>
      </trkpt>
      <trkpt lat="43.60109" lon="1.48804">
        <ele>140</ele>
        <time>2017-09-24T12:06:28Z</time>
      </trkpt>
      <trkpt lat="43.60088" lon="1.48834">
        <ele>141</ele>
        <time>2017-09-24T12:06:32Z</time>
      </trkpt>
      <trkpt lat="43.60069" lon="1.48865">
        <ele>141</ele>
        <time>2017-09-24T12:06:36Z</time>
      </trkpt>
      <trkpt lat="43.6005" lon="1.48895">
        <ele>141</ele>
        <time>2017-09-24T12:06:40Z</time>
      </trkpt>
      <trkpt lat="43.60031" lon="1.48927">
        <ele>141</ele>
        <time>2017-09-24T12:06:44Z</time>
      </trkpt>
      <trkpt lat="43.60011" lon="1.4896">
        <ele>141</ele>
        <time>2017-09-24T12:06:48Z</time>
      </trkpt>
      <trkpt lat="43.59988" lon="1.4899">
        <ele>141</ele>
        <time>2017-09-24T12:06:52Z</time>
      </trkpt>
      <trkpt lat="43.59964" lon="1.49019">
        <ele>141</ele>
        <time>2017-09-24T12:06:56Z</time>
      </trkpt>
      <trkpt lat="43.59937" lon="1.49044">
        <ele>141</ele>
        <time>2017-09-24T12:07:00Z</time>
      </trkpt>
      <trkpt lat="43.59907" lon="1.49057">
        <ele>141</ele>
        <time>2017-09-24T12:07:04Z</time>
      </trkpt>
      <trkpt lat="43.59877" lon="1.49065">
        <ele>141</ele>
        <time>2017-09-24T12:07:08Z</time>
      </trkpt>
      <trkpt lat="43.5985" lon="1.49077">
        <ele>141</ele>
        <time>2017-09-24T12:07:12Z</time>
      </trkpt>
      <trkpt lat="43.59823" lon="1.49091">
        <ele>141</ele>
        <time>2017-09-24T12:07:16Z</time>
      </trkpt>
      <trkpt lat="43.59797" lon="1.49102">
        <ele>141</ele>
        <time>2017-09-24T12:07:20Z</time>
      </trkpt>
      <trkpt lat="43.59769" lon="1.49111">
        <ele>141</ele>
        <time>2017-09-24T12:07:24Z</time>
      </trkpt>
      <trkpt lat="43.59741" lon="1.4912">
        <ele>141</ele>
        <time>2017-09-24T12:07:28Z</time>
      </trkpt>
      <trkpt lat="43.59714" lon="1.49127">
        <ele>142</ele>
        <time>2017-09-24T12:07:32Z</time>
      </trkpt>
      <trkpt lat="43.59688" lon="1.49134">
        <ele>142</ele>
        <time>2017-09-24T12:07:36Z</time>
      </trkpt>
      <trkpt lat="43.59663" lon="1.49141">
        <ele>142</ele>
        <time>2017-09-24T12:07:40Z</time>
      </trkpt>
      <trkpt lat="43.59635" lon="1.49151">
        <ele>142</ele>
        <time>2017-09-24T12:07:44Z</time>
      </trkpt>
      <trkpt lat="43.59608" lon="1.49161">
        <ele>143</ele>
        <time>2017-09-24T12:07:48Z</time>
      </trkpt>
      <trkpt lat="43.59583" lon="1.49168">
        <ele>143</ele>
        <time>2017-09-24T12:07:52Z</time>
      </trkpt>
      <trkpt lat="43.59558" lon="1.49174">
        <ele>144</ele>
        <time>2017-09-24T12:07:56Z</time>
      </trkpt>
      <trkpt lat="43.59533" lon="1.49182">
        <ele>144</ele>
        <time>2017-09-24T12:08:00Z</time>
      </trkpt>
      <trkpt lat="43.59508" lon="1.49188">
        <ele>144</ele>
        <time>2017-09-24T12:08:04Z</time>
      </trkpt>
      <trkpt lat="43.59484" lon="1.49196">
        <ele>144</ele>
        <time>2017-09-24T12:08:08Z</time>
      </trkpt>
      <trkpt lat="43.59458" lon="1.49205">
        <ele>144</ele>
        <time>2017-09-24T12:08:12Z</time>
      </trkpt>
      <trkpt lat="43.59433" lon="1.49213">
        <ele>144</ele>
        <time>2017-09-24T12:08:16Z</time>
      </trkpt>
      <trkpt lat="43.59408" lon="1.49221">
        <ele>144</ele>
        <time>2017-09-24T12:08:20Z</time>
      </trkpt>
      <trkpt lat="43.59381" lon="1.49217">
        <ele>143</ele>
        <time>2017-09-24T12:08:24Z</time>
      </trkpt>
      <trkpt lat="43.59349" lon="1.49222">
        <ele>143</ele>
        <time>2017-09-24T12:08:28Z</time>
      </trkpt>
      <trkpt lat="43.59317" lon="1.4923">
        <ele>142</ele>
        <time>2017-09-24T12:08:32Z</time>
      </trkpt>
      <trkpt lat="43.59289" lon="1.4924">
        <ele>143</ele>
        <time>2017-09-24T12:08:36Z</time>
      </trkpt>
      <trkpt lat="43.59262" lon="1.49249">
        <ele>143</ele>
        <time>2017-09-24T12:08:40Z</time>
      </trkpt>
      <trkpt lat="43.59234" lon="1.49259">
        <ele>142</ele>
        <time>2017-09-24T12:08:44Z</time>
      </trkpt>
      <trkpt lat="43.59206" lon="1.49269">
        <ele>142</ele>
        <time>2017-09-24T12:08:48Z</time>
      </trkpt>
      <trkpt lat="43.59178" lon="1.49278">
        <ele>142</ele>
        <time>2017-09-24T12:08:52Z</time>
      </trkpt>
      <trkpt lat="43.59149" lon="1.49287">
        <ele>142</ele>
        <time>2017-09-24T12:08:56Z</time>
      </trkpt>
      <trkpt lat="43.59119" lon="1.49296">
        <ele>143</ele>
        <time>2017-09-24T12:09:00Z</time>
      </trkpt>
      <trkpt lat="43.5909" lon="1.49306">
        <ele>143</ele>
        <time>2017-09-24T12:09:04Z</time>
      </trkpt>
      <trkpt lat="43.5906" lon="1.49315">
        <ele>143</ele>
        <time>2017-09-24T12:09:08Z</time>
      </trkpt>
      <trkpt lat="43.5903" lon="1.49324">
        <ele>143</ele>
        <time>2017-09-24T12:09:12Z</time>
      </trkpt>
      <trkpt lat="43.58999" lon="1.49333">
        <ele>143</ele>
        <time>2017-09-24T12:09:16Z</time>
      </trkpt>
      <trkpt lat="43.58969" lon="1.49343">
        <ele>142</ele>
        <time>2017-09-24T12:09:20Z</time>
      </trkpt>
      <trkpt lat="43.5894" lon="1.49352">
        <ele>142</ele>
        <time>2017-09-24T12:09:24Z</time>
      </trkpt>
      <trkpt lat="43.58911" lon="1.4936">
        <ele>142</ele>
        <time>2017-09-24T12:09:28Z</time>
      </trkpt>
      <trkpt lat="43.58882" lon="1.4937">
        <ele>142</ele>
        <time>2017-09-24T12:09:32Z</time>
      </trkpt>
      <trkpt lat="43.58853" lon="1.49378">
        <ele>142</ele>
        <time>2017-09-24T12:09:36Z</time>
      </trkpt>
      <trkpt lat="43.58826" lon="1.49387">
        <ele>143</ele>
        <time>2017-09-24T12:09:40Z</time>
      </trkpt>
      <trkpt lat="43.58797" lon="1.49396">
        <ele>143</ele>
        <time>2017-09-24T12:09:44Z</time>
      </trkpt>
      <trkpt lat="43.5877" lon="1.49404">
        <ele>143</ele>
        <time>2017-09-24T12:09:48Z</time>
      </trkpt>
      <trkpt lat="43.58743" lon="1.49413">
        <ele>143</ele>
        <time>2017-09-24T12:09:52Z</time>
      </trkpt>
      <trkpt lat="43.58715" lon="1.49421">
        <ele>143</ele>
        <time>2017-09-24T12:09:56Z</time>
      </trkpt>
      <trkpt lat="43.58686" lon="1.49427">
        <ele>143</ele>
        <time>2017-09-24T12:10:00Z</time>
      </trkpt>
      <trkpt lat="43.58657" lon="1.49436">
        <ele>143</ele>
        <time>2017-09-24T12:10:04Z</time>
      </trkpt>
      <trkpt lat="43.58629" lon="1.49445">
        <ele>144</ele>
        <time>2017-09-24T12:10:08Z</time>
      </trkpt>
      <trkpt lat="43.586" lon="1.49454">
        <ele>144</ele>
        <time>2017-09-24T12:10:12Z</time>
      </trkpt>
      <trkpt lat="43.58572" lon="1.49463">
        <ele>144</ele>
        <time>2017-09-24T12:10:16Z</time>
      </trkpt>
      <trkpt lat="43.58544" lon="1.49471">
        <ele>144</ele>
        <time>2017-09-24T12:10:20Z</time>
      </trkpt>
      <trkpt lat="43.58516" lon="1.4948">
        <ele>144</ele>
        <time>2017-09-24T12:10:24Z</time>
      </trkpt>
      <trkpt lat="43.58486" lon="1.4949">
        <ele>143</ele>
        <time>2017-09-24T12:10:28Z</time>
      </trkpt>
      <trkpt lat="43.58456" lon="1.49501">
        <ele>143</ele>
        <time>2017-09-24T12:10:32Z</time>
      </trkpt>
      <trkpt lat="43.58425" lon="1.49514">
        <ele>143</ele>
        <time>2017-09-24T12:10:36Z</time>
      </trkpt>
      <trkpt lat="43.58395" lon="1.49527">
        <ele>143</ele>
        <time>2017-09-24T12:10:40Z</time>
      </trkpt>
      <trkpt lat="43.58365" lon="1.49538">
        <ele>144</ele>
        <time>2017-09-24T12:10:44Z</time>
      </trkpt>
      <trkpt lat="43.58337" lon="1.49549">
        <ele>144</ele>
        <time>2017-09-24T12:10:48Z</time>
      </trkpt>
      <trkpt lat="43.58309" lon="1.4956">
        <ele>144</ele>
        <time>2017-09-24T12:10:52Z</time>
      </trkpt>
      <trkpt lat="43.58282" lon="1.4957">
        <ele>144</ele>
        <time>2017-09-24T12:10:56Z</time>
      </trkpt>
      <trkpt lat="43.58254" lon="1.4958">
        <ele>144</ele>
        <time>2017-09-24T12:11:00Z</time>
      </trkpt>
      <trkpt lat="43.58228" lon="1.49591">
        <ele>145</ele>
        <time>2017-09-24T12:11:04Z</time>
      </trkpt>
      <trkpt lat="43.58201" lon="1.49601">
        <ele>145</ele>
        <time>2017-09-24T12:11:08Z</time>
      </trkpt>
      <trkpt lat="43.58174" lon="1.49612">
        <ele>145</ele>
        <time>2017-09-24T12:11:12Z</time>
      </trkpt>
      <trkpt lat="43.58146" lon="1.49623">
        <ele>145</ele>
        <time>2017-09-24T12:11:16Z</time>
      </trkpt>
      <trkpt lat="43.58119" lon="1.49634">
        <ele>145</ele>
        <time>2017-09-24T12:11:20Z</time>
      </trkpt>
      <trkpt lat="43.58091" lon="1.49644">
        <ele>145</ele>
        <time>2017-09-24T12:11:24Z</time>
      </trkpt>
      <trkpt lat="43.58063" lon="1.49655">
        <ele>144</ele>
        <time>2017-09-24T12:11:28Z</time>
      </trkpt>
      <trkpt lat="43.58034" lon="1.49665">
        <ele>144</ele>
        <time>2017-09-24T12:11:32Z</time>
      </trkpt>
      <trkpt lat="43.58005" lon="1.49676">
        <ele>144</ele>
        <time>2017-09-24T12:11:36Z</time>
      </trkpt>
      <trkpt lat="43.57975" lon="1.49684">
        <ele>144</ele>
        <time>2017-09-24T12:11:40Z</time>
      </trkpt>
      <trkpt lat="43.57946" lon="1.49693">
        <ele>144</ele>
        <time>2017-09-24T12:11:44Z</time>
      </trkpt>
      <trkpt lat="43.57915" lon="1.49701">
        <ele>143</ele>
        <time>2017-09-24T12:11:48Z</time>
      </trkpt>
      <trkpt lat="43.57885" lon="1.49696">
        <ele>143</ele>
        <time>2017-09-24T12:11:52Z</time>
      </trkpt>
      <trkpt lat="43.57856" lon="1.49695">
        <ele>143</ele>
        <time>2017-09-24T12:11:56Z</time>
      </trkpt>
      <trkpt lat="43.57829" lon="1.49688">
        <ele>144</ele>
        <time>2017-09-24T12:12:00Z</time>
      </trkpt>
      <trkpt lat="43.57805" lon="1.4967">
        <ele>144</ele>
        <time>2017-09-24T12:12:04Z</time>
      </trkpt>
      <trkpt lat="43.57777" lon="1.49663">
        <ele>144</ele>
        <time>2017-09-24T12:12:08Z</time>
      </trkpt>
      <trkpt lat="43.5775" lon="1.49656">
        <ele>145</ele>
        <time>2017-09-24T12:12:12Z</time>
      </trkpt>
      <trkpt lat="43.57722" lon="1.4965">
        <ele>145</ele>
        <time>2017-09-24T12:12:16Z</time>
      </trkpt>
      <trkpt lat="43.57695" lon="1.49645">
        <ele>146</ele>
        <time>2017-09-24T12:12:20Z</time>
      </trkpt>
      <trkpt lat="43.57642" lon="1.49626">
        <ele>146</ele>
        <time>2017-09-24T12:12:28Z</time>
      </trkpt>
      <trkpt lat="43.57617" lon="1.49615">
        <ele>146</ele>
        <time>2017-09-24T12:12:32Z</time>
      </trkpt>
      <trkpt lat="43.57593" lon="1.49604">
        <ele>146</ele>
        <time>2017-09-24T12:12:36Z</time>
      </trkpt>
      <trkpt lat="43.57566" lon="1.49591">
        <ele>146</ele>
        <time>2017-09-24T12:12:40Z</time>
      </trkpt>
      <trkpt lat="43.57539" lon="1.49578">
        <ele>145</ele>
        <time>2017-09-24T12:12:44Z</time>
      </trkpt>
      <trkpt lat="43.57509" lon="1.49564">
        <ele>145</ele>
        <time>2017-09-24T12:12:48Z</time>
      </trkpt>
      <trkpt lat="43.57481" lon="1.49546">
        <ele>144</ele>
        <time>2017-09-24T12:12:52Z</time>
      </trkpt>
      <trkpt lat="43.57453" lon="1.49525">
        <ele>144</ele>
        <time>2017-09-24T12:12:56Z</time>
      </trkpt>
      <trkpt lat="43.5743" lon="1.49501">
        <ele>145</ele>
        <time>2017-09-24T12:13:00Z</time>
      </trkpt>
      <trkpt lat="43.57409" lon="1.49477">
        <ele>145</ele>
        <time>2017-09-24T12:13:04Z</time>
      </trkpt>
      <trkpt lat="43.57393" lon="1.49455">
        <ele>146</ele>
        <time>2017-09-24T12:13:08Z</time>
      </trkpt>
      <trkpt lat="43.5738" lon="1.49434">
        <ele>147</ele>
        <time>2017-09-24T12:13:12Z</time>
      </trkpt>
      <trkpt lat="43.57367" lon="1.49413">
        <ele>147</ele>
        <time>2017-09-24T12:13:16Z</time>
      </trkpt>
      <trkpt lat="43.57355" lon="1.4939">
        <ele>147</ele>
        <time>2017-09-24T12:13:20Z</time>
      </trkpt>
      <trkpt lat="43.57341" lon="1.49367">
        <ele>147</ele>
        <time>2017-09-24T12:13:24Z</time>
      </trkpt>
      <trkpt lat="43.57325" lon="1.49352">
        <ele>147</ele>
        <time>2017-09-24T12:13:28Z</time>
      </trkpt>
      <trkpt lat="43.57312" lon="1.49338">
        <ele>146</ele>
        <time>2017-09-24T12:13:32Z</time>
      </trkpt>
      <trkpt lat="43.57294" lon="1.49344">
        <ele>146</ele>
        <time>2017-09-24T12:13:36Z</time>
      </trkpt>
      <trkpt lat="43.57283" lon="1.49377">
        <ele>145</ele>
        <time>2017-09-24T12:13:40Z</time>
      </trkpt>
      <trkpt lat="43.57271" lon="1.49409">
        <ele>146</ele>
        <time>2017-09-24T12:13:44Z</time>
      </trkpt>
      <trkpt lat="43.57259" lon="1.4943">
        <ele>145</ele>
        <time>2017-09-24T12:13:48Z</time>
      </trkpt>
      <trkpt lat="43.57256" lon="1.49455">
        <ele>146</ele>
        <time>2017-09-24T12:13:52Z</time>
      </trkpt>
      <trkpt lat="43.57246" lon="1.49489">
        <ele>146</ele>
        <time>2017-09-24T12:13:56Z</time>
      </trkpt>
      <trkpt lat="43.57233" lon="1.49528">
        <ele>145</ele>
        <time>2017-09-24T12:14:00Z</time>
      </trkpt>
      <trkpt lat="43.57222" lon="1.49558">
        <ele>145</ele>
        <time>2017-09-24T12:14:04Z</time>
      </trkpt>
      <trkpt lat="43.57213" lon="1.49585">
        <ele>145</ele>
        <time>2017-09-24T12:14:08Z</time>
      </trkpt>
      <trkpt lat="43.57205" lon="1.49609">
        <ele>145</ele>
        <time>2017-09-24T12:14:12Z</time>
      </trkpt>
      <trkpt lat="43.57196" lon="1.49608">
        <ele>145</ele>
        <time>2017-09-24T12:14:16Z</time>
      </trkpt>
      <trkpt lat="43.57174" lon="1.49595">
        <ele>144</ele>
        <time>2017-09-24T12:14:20Z</time>
      </trkpt>
      <trkpt lat="43.57148" lon="1.49583">
        <ele>143</ele>
        <time>2017-09-24T12:14:24Z</time>
      </trkpt>
      <trkpt lat="43.57122" lon="1.49573">
        <ele>144</ele>
        <time>2017-09-24T12:14:28Z</time>
      </trkpt>
      <trkpt lat="43.57098" lon="1.49565">
        <ele>144</ele>
        <time>2017-09-24T12:14:32Z</time>
      </trkpt>
      <trkpt lat="43.57072" lon="1.49561">
        <ele>143</ele>
        <time>2017-09-24T12:14:36Z</time>
      </trkpt>
      <trkpt lat="43.57047" lon="1.49551">
        <ele>143</ele>
        <time>2017-09-24T12:14:40Z</time>
      </trkpt>
      <trkpt lat="43.5702" lon="1.49538">
        <ele>143</ele>
        <time>2017-09-24T12:14:44Z</time>
      </trkpt>
      <trkpt lat="43.56992" lon="1.49529">
        <ele>144</ele>
        <time>2017-09-24T12:14:48Z</time>
      </trkpt>
      <trkpt lat="43.56936" lon="1.49518">
        <ele>144</ele>
        <time>2017-09-24T12:14:56Z</time>
      </trkpt>
      <trkpt lat="43.56909" lon="1.49514">
        <ele>144</ele>
        <time>2017-09-24T12:15:00Z</time>
      </trkpt>
      <trkpt lat="43.56881" lon="1.49512">
        <ele>144</ele>
        <time>2017-09-24T12:15:04Z</time>
      </trkpt>
      <trkpt lat="43.56854" lon="1.4951">
        <ele>144</ele>
        <time>2017-09-24T12:15:08Z</time>
      </trkpt>
      <trkpt lat="43.56827" lon="1.49507">
        <ele>144</ele>
        <time>2017-09-24T12:15:12Z</time>
      </trkpt>
      <trkpt lat="43.56801" lon="1.49504">
        <ele>144</ele>
        <time>2017-09-24T12:15:16Z</time>
      </trkpt>
      <trkpt lat="43.56773" lon="1.495">
        <ele>144</ele>
        <time>2017-09-24T12:15:20Z</time>
      </trkpt>
      <trkpt lat="43.56746" lon="1.49498">
        <ele>144</ele>
        <time>2017-09-24T12:15:24Z</time>
      </trkpt>
      <trkpt lat="43.56718" lon="1.49496">
        <ele>144</ele>
        <time>2017-09-24T12:15:28Z</time>
      </trkpt>
      <trkpt lat="43.56692" lon="1.49492">
        <ele>144</ele>
        <time>2017-09-24T12:15:32Z</time>
      </trkpt>
      <trkpt lat="43.56665" lon="1.49488">
        <ele>144</ele>
        <time>2017-09-24T12:15:36Z</time>
      </trkpt>
      <trkpt lat="43.56638" lon="1.49482">
        <ele>144</ele>
        <time>2017-09-24T12:15:40Z</time>
      </trkpt>
      <trkpt lat="43.56613" lon="1.4948">
        <ele>144</ele>
        <time>2017-09-24T12:15:44Z</time>
      </trkpt>
      <trkpt lat="43.56591" lon="1.49493">
        <ele>144</ele>
        <time>2017-09-24T12:15:48Z</time>
      </trkpt>
      <trkpt lat="43.5657" lon="1.49495">
        <ele>143</ele>
        <time>2017-09-24T12:15:52Z</time>
      </trkpt>
      <trkpt lat="43.56546" lon="1.49482">
        <ele>143</ele>
        <time>2017-09-24T12:15:56Z</time>
      </trkpt>
      <trkpt lat="43.56519" lon="1.4948">
        <ele>144</ele>
        <time>2017-09-24T12:16:00Z</time>
      </trkpt>
      <trkpt lat="43.56495" lon="1.4948">
        <ele>145</ele>
        <time>2017-09-24T12:16:08Z</time>
      </trkpt>
      <trkpt lat="43.56446" lon="1.49484">
        <ele>146</ele>
        <time>2017-09-24T12:16:12Z</time>
      </trkpt>
      <trkpt lat="43.56421" lon="1.49485">
        <ele>146</ele>
        <time>2017-09-24T12:16:16Z</time>
      </trkpt>
      <trkpt lat="43.56398" lon="1.49489">
        <ele>146</ele>
        <time>2017-09-24T12:16:20Z</time>
      </trkpt>
      <trkpt lat="43.56393" lon="1.49483">
        <ele>147</ele>
        <time>2017-09-24T12:16:24Z</time>
      </trkpt>
      <trkpt lat="43.56398" lon="1.49463">
        <ele>147</ele>
        <time>2017-09-24T12:16:28Z</time>
      </trkpt>
      <trkpt lat="43.56404" lon="1.49435">
        <ele>147</ele>
        <time>2017-09-24T12:16:32Z</time>
      </trkpt>
      <trkpt lat="43.56411" lon="1.49403">
        <ele>147</ele>
        <time>2017-09-24T12:16:36Z</time>
      </trkpt>
      <trkpt lat="43.56419" lon="1.49372">
        <ele>147</ele>
        <time>2017-09-24T12:16:40Z</time>
      </trkpt>
      <trkpt lat="43.56428" lon="1.49355">
        <ele>147</ele>
        <time>2017-09-24T12:16:44Z</time>
      </trkpt>
      <trkpt lat="43.56434" lon="1.49309">
        <ele>146</ele>
        <time>2017-09-24T12:16:48Z</time>
      </trkpt>
      <trkpt lat="43.56432" lon="1.4927">
        <ele>146</ele>
        <time>2017-09-24T12:16:52Z</time>
      </trkpt>
      <trkpt lat="43.56426" lon="1.49231">
        <ele>146</ele>
        <time>2017-09-24T12:16:56Z</time>
      </trkpt>
      <trkpt lat="43.56421" lon="1.49194">
        <ele>146</ele>
        <time>2017-09-24T12:17:00Z</time>
      </trkpt>
      <trkpt lat="43.56418" lon="1.49161">
        <ele>146</ele>
        <time>2017-09-24T12:17:04Z</time>
      </trkpt>
      <trkpt lat="43.56404" lon="1.49154">
        <ele>146</ele>
        <time>2017-09-24T12:17:08Z</time>
      </trkpt>
      <trkpt lat="43.56386" lon="1.49151">
        <ele>146</ele>
        <time>2017-09-24T12:17:12Z</time>
      </trkpt>
      <trkpt lat="43.56366" lon="1.49166">
        <ele>146</ele>
        <time>2017-09-24T12:17:16Z</time>
      </trkpt>
      <trkpt lat="43.56348" lon="1.49188">
        <ele>146</ele>
        <time>2017-09-24T12:17:20Z</time>
      </trkpt>
      <trkpt lat="43.56328" lon="1.49211">
        <ele>146</ele>
        <time>2017-09-24T12:17:24Z</time>
      </trkpt>
      <trkpt lat="43.56307" lon="1.49235">
        <ele>146</ele>
        <time>2017-09-24T12:17:28Z</time>
      </trkpt>
      <trkpt lat="43.56281" lon="1.49251">
        <ele>146</ele>
        <time>2017-09-24T12:17:32Z</time>
      </trkpt>
      <trkpt lat="43.56252" lon="1.49256">
        <ele>146</ele>
        <time>2017-09-24T12:17:36Z</time>
      </trkpt>
      <trkpt lat="43.56222" lon="1.49259">
        <ele>145</ele>
        <time>2017-09-24T12:17:40Z</time>
      </trkpt>
      <trkpt lat="43.56194" lon="1.49262">
        <ele>145</ele>
        <time>2017-09-24T12:17:44Z</time>
      </trkpt>
      <trkpt lat="43.56166" lon="1.4926">
        <ele>145</ele>
        <time>2017-09-24T12:17:48Z</time>
      </trkpt>
      <trkpt lat="43.56142" lon="1.49241">
        <ele>145</ele>
        <time>2017-09-24T12:17:52Z</time>
      </trkpt>
      <trkpt lat="43.56118" lon="1.49217">
        <ele>145</ele>
        <time>2017-09-24T12:17:56Z</time>
      </trkpt>
      <trkpt lat="43.56101" lon="1.49185">
        <ele>145</ele>
        <time>2017-09-24T12:18:00Z</time>
      </trkpt>
      <trkpt lat="43.56082" lon="1.49154">
        <ele>145</ele>
        <time>2017-09-24T12:18:04Z</time>
      </trkpt>
      <trkpt lat="43.56062" lon="1.49125">
        <ele>145</ele>
        <time>2017-09-24T12:18:08Z</time>
      </trkpt>
      <trkpt lat="43.56044" lon="1.49092">
        <ele>144</ele>
        <time>2017-09-24T12:18:12Z</time>
      </trkpt>
      <trkpt lat="43.56034" lon="1.49054">
        <ele>144</ele>
        <time>2017-09-24T12:18:16Z</time>
      </trkpt>
      <trkpt lat="43.56032" lon="1.49015">
        <ele>144</ele>
        <time>2017-09-24T12:18:20Z</time>
      </trkpt>
      <trkpt lat="43.56021" lon="1.48979">
        <ele>144</ele>
        <time>2017-09-24T12:18:24Z</time>
      </trkpt>
      <trkpt lat="43.56009" lon="1.48943">
        <ele>144</ele>
        <time>2017-09-24T12:18:28Z</time>
      </trkpt>
      <trkpt lat="43.55999" lon="1.48913">
        <ele>144</ele>
        <time>2017-09-24T12:18:32Z</time>
      </trkpt>
      <trkpt lat="43.55981" lon="1.48888">
        <ele>144</ele>
        <time>2017-09-24T12:18:36Z</time>
      </trkpt>
      <trkpt lat="43.55956" lon="1.48888">
        <ele>145</ele>
        <time>2017-09-24T12:18:40Z</time>
      </trkpt>
      <trkpt lat="43.55931" lon="1.48889">
        <ele>145</ele>
        <time>2017-09-24T12:18:44Z</time>
      </trkpt>
      <trkpt lat="43.55913" lon="1.48873">
        <ele>146</ele>
        <time>2017-09-24T12:18:48Z</time>
      </trkpt>
      <trkpt lat="43.55895" lon="1.48857">
        <ele>146</ele>
        <time>2017-09-24T12:18:52Z</time>
      </trkpt>
      <trkpt lat="43.55873" lon="1.48847">
        <ele>146</ele>
        <time>2017-09-24T12:18:56Z</time>
      </trkpt>
      <trkpt lat="43.5585" lon="1.48836">
        <ele>146</ele>
        <time>2017-09-24T12:19:00Z</time>
      </trkpt>
      <trkpt lat="43.55827" lon="1.48821">
        <ele>146</ele>
        <time>2017-09-24T12:19:04Z</time>
      </trkpt>
      <trkpt lat="43.55804" lon="1.48802">
        <ele>146</ele>
        <time>2017-09-24T12:19:08Z</time>
      </trkpt>
      <trkpt lat="43.55782" lon="1.4878">
        <ele>145</ele>
        <time>2017-09-24T12:19:12Z</time>
      </trkpt>
      <trkpt lat="43.55763" lon="1.48755">
        <ele>145</ele>
        <time>2017-09-24T12:19:16Z</time>
      </trkpt>
      <trkpt lat="43.55746" lon="1.48725">
        <ele>146</ele>
        <time>2017-09-24T12:19:20Z</time>
      </trkpt>
      <trkpt lat="43.5573" lon="1.48696">
        <ele>146</ele>
        <time>2017-09-24T12:19:24Z</time>
      </trkpt>
      <trkpt lat="43.55718" lon="1.48665">
        <ele>147</ele>
        <time>2017-09-24T12:19:28Z</time>
      </trkpt>
      <trkpt lat="43.55706" lon="1.48633">
        <ele>147</ele>
        <time>2017-09-24T12:19:32Z</time>
      </trkpt>
      <trkpt lat="43.55694" lon="1.486">
        <ele>147</ele>
        <time>2017-09-24T12:19:36Z</time>
      </trkpt>
      <trkpt lat="43.55682" lon="1.48567">
        <ele>147</ele>
        <time>2017-09-24T12:19:40Z</time>
      </trkpt>
      <trkpt lat="43.55669" lon="1.48538">
        <ele>147</ele>
        <time>2017-09-24T12:19:44Z</time>
      </trkpt>
      <trkpt lat="43.55658" lon="1.48511">
        <ele>148</ele>
        <time>2017-09-24T12:19:48Z</time>
      </trkpt>
      <trkpt lat="43.55646" lon="1.48485">
        <ele>149</ele>
        <time>2017-09-24T12:19:52Z</time>
      </trkpt>
      <trkpt lat="43.55636" lon="1.48461">
        <ele>150</ele>
        <time>2017-09-24T12:19:56Z</time>
      </trkpt>
      <trkpt lat="43.55629" lon="1.48435">
        <ele>150</ele>
        <time>2017-09-24T12:20:00Z</time>
      </trkpt>
      <trkpt lat="43.5562" lon="1.484">
        <ele>150</ele>
        <time>2017-09-24T12:20:04Z</time>
      </trkpt>
      <trkpt lat="43.55609" lon="1.4836">
        <ele>149</ele>
        <time>2017-09-24T12:20:08Z</time>
      </trkpt>
      <trkpt lat="43.55599" lon="1.48322">
        <ele>148</ele>
        <time>2017-09-24T12:20:12Z</time>
      </trkpt>
      <trkpt lat="43.5559" lon="1.48285">
        <ele>148</ele>
        <time>2017-09-24T12:20:16Z</time>
      </trkpt>
      <trkpt lat="43.55607" lon="1.48258">
        <ele>149</ele>
        <time>2017-09-24T12:20:20Z</time>
      </trkpt>
      <trkpt lat="43.55632" lon="1.48245">
        <ele>149</ele>
        <time>2017-09-24T12:20:24Z</time>
      </trkpt>
      <trkpt lat="43.55657" lon="1.48231">
        <ele>148</ele>
        <time>2017-09-24T12:20:28Z</time>
      </trkpt>
      <trkpt lat="43.55676" lon="1.48209">
        <ele>149</ele>
        <time>2017-09-24T12:20:32Z</time>
      </trkpt>
      <trkpt lat="43.55675" lon="1.48185">
        <ele>149</ele>
        <time>2017-09-24T12:20:36Z</time>
      </trkpt>
      <trkpt lat="43.55664" lon="1.48163">
        <ele>149</ele>
        <time>2017-09-24T12:20:40Z</time>
      </trkpt>
      <trkpt lat="43.55651" lon="1.48139">
        <ele>149</ele>
        <time>2017-09-24T12:20:44Z</time>
      </trkpt>
      <trkpt lat="43.55637" lon="1.48114">
        <ele>150</ele>
        <time>2017-09-24T12:20:48Z</time>
      </trkpt>
      <trkpt lat="43.55624" lon="1.48086">
        <ele>149</ele>
        <time>2017-09-24T12:20:52Z</time>
      </trkpt>
      <trkpt lat="43.55613" lon="1.48064">
        <ele>149</ele>
        <time>2017-09-24T12:20:56Z</time>
      </trkpt>
      <trkpt lat="43.55599" lon="1.4807">
        <ele>150</ele>
        <time>2017-09-24T12:21:00Z</time>
      </trkpt>
      <trkpt lat="43.55571" lon="1.48078">
        <ele>150</ele>
        <time>2017-09-24T12:21:04Z</time>
      </trkpt>
      <trkpt lat="43.55539" lon="1.48088">
        <ele>149</ele>
        <time>2017-09-24T12:21:08Z</time>
      </trkpt>
      <trkpt lat="43.55512" lon="1.48101">
        <ele>149</ele>
        <time>2017-09-24T12:21:12Z</time>
      </trkpt>
      <trkpt lat="43.55479" lon="1.48116">
        <ele>149</ele>
        <time>2017-09-24T12:21:16Z</time>
      </trkpt>
      <trkpt lat="43.55451" lon="1.48122">
        <ele>150</ele>
        <time>2017-09-24T12:21:20Z</time>
      </trkpt>
      <trkpt lat="43.55421" lon="1.48123">
        <ele>150</ele>
        <time>2017-09-24T12:21:24Z</time>
      </trkpt>
      <trkpt lat="43.55389" lon="1.48123">
        <ele>150</ele>
        <time>2017-09-24T12:21:28Z</time>
      </trkpt>
      <trkpt lat="43.55361" lon="1.48126">
        <ele>150</ele>
        <time>2017-09-24T12:21:32Z</time>
      </trkpt>
      <trkpt lat="43.55332" lon="1.48131">
        <ele>150</ele>
        <time>2017-09-24T12:21:36Z</time>
      </trkpt>
      <trkpt lat="43.55303" lon="1.48139">
        <ele>150</ele>
        <time>2017-09-24T12:21:40Z</time>
      </trkpt>
      <trkpt lat="43.55276" lon="1.48149">
        <ele>150</ele>
        <time>2017-09-24T12:21:44Z</time>
      </trkpt>
      <trkpt lat="43.55249" lon="1.48157">
        <ele>150</ele>
        <time>2017-09-24T12:21:48Z</time>
      </trkpt>
      <trkpt lat="43.55223" lon="1.48166">
        <ele>150</ele>
        <time>2017-09-24T12:21:52Z</time>
      </trkpt>
      <trkpt lat="43.55196" lon="1.48175">
        <ele>150</ele>
        <time>2017-09-24T12:21:56Z</time>
      </trkpt>
      <trkpt lat="43.55169" lon="1.48183">
        <ele>150</ele>
        <time>2017-09-24T12:22:00Z</time>
      </trkpt>
      <trkpt lat="43.55141" lon="1.48191">
        <ele>150</ele>
        <time>2017-09-24T12:22:04Z</time>
      </trkpt>
      <trkpt lat="43.55114" lon="1.48203">
        <ele>150</ele>
        <time>2017-09-24T12:22:08Z</time>
      </trkpt>
      <trkpt lat="43.55088" lon="1.4821">
        <ele>151</ele>
        <time>2017-09-24T12:22:12Z</time>
      </trkpt>
      <trkpt lat="43.55064" lon="1.48228">
        <ele>151</ele>
        <time>2017-09-24T12:22:16Z</time>
      </trkpt>
      <trkpt lat="43.55045" lon="1.48243">
        <ele>151</ele>
        <time>2017-09-24T12:22:20Z</time>
      </trkpt>
      <trkpt lat="43.55023" lon="1.48262">
        <ele>151</ele>
        <time>2017-09-24T12:22:24Z</time>
      </trkpt>
      <trkpt lat="43.55002" lon="1.48285">
        <ele>151</ele>
        <time>2017-09-24T12:22:28Z</time>
      </trkpt>
      <trkpt lat="43.54982" lon="1.48309">
        <ele>151</ele>
        <time>2017-09-24T12:22:32Z</time>
      </trkpt>
      <trkpt lat="43.5496" lon="1.48332">
        <ele>151</ele>
        <time>2017-09-24T12:22:36Z</time>
      </trkpt>
      <trkpt lat="43.54937" lon="1.48358">
        <ele>152</ele>
        <time>2017-09-24T12:22:40Z</time>
      </trkpt>
      <trkpt lat="43.54912" lon="1.48381">
        <ele>152</ele>
        <time>2017-09-24T12:22:44Z</time>
      </trkpt>
      <trkpt lat="43.54888" lon="1.48401">
        <ele>152</ele>
        <time>2017-09-24T12:22:48Z</time>
      </trkpt>
      <trkpt lat="43.5487" lon="1.48417">
        <ele>152</ele>
        <time>2017-09-24T12:22:52Z</time>
      </trkpt>
      <trkpt lat="43.54857" lon="1.48429">
        <ele>152</ele>
        <time>2017-09-24T12:22:56Z</time>
      </trkpt>
      <trkpt lat="43.5484" lon="1.48445">
        <ele>153</ele>
        <time>2017-09-24T12:23:00Z</time>
      </trkpt>
      <trkpt lat="43.54825" lon="1.48463">
        <ele>153</ele>
        <time>2017-09-24T12:23:04Z</time>
      </trkpt>
      <trkpt lat="43.54826" lon="1.48475">
        <ele>151</ele>
        <time>2017-09-24T12:23:08Z</time>
      </trkpt>
      <trkpt lat="43.54833" lon="1.48471">
        <ele>150</ele>
        <time>2017-09-24T12:23:12Z</time>
      </trkpt>
      <trkpt lat="43.54822" lon="1.48465">
        <ele>149</ele>
        <time>2017-09-24T12:23:20Z</time>
      </trkpt>
      <trkpt lat="43.54804" lon="1.48472">
        <ele>149</ele>
        <time>2017-09-24T12:23:24Z</time>
      </trkpt>
      <trkpt lat="43.54782" lon="1.4849">
        <ele>150</ele>
        <time>2017-09-24T12:23:28Z</time>
      </trkpt>
      <trkpt lat="43.5476" lon="1.48503">
        <ele>150</ele>
        <time>2017-09-24T12:23:32Z</time>
      </trkpt>
      <trkpt lat="43.54734" lon="1.4852">
        <ele>150</ele>
        <time>2017-09-24T12:23:36Z</time>
      </trkpt>
      <trkpt lat="43.54706" lon="1.48542">
        <ele>149</ele>
        <time>2017-09-24T12:23:40Z</time>
      </trkpt>
      <trkpt lat="43.54679" lon="1.48563">
        <ele>149</ele>
        <time>2017-09-24T12:23:44Z</time>
      </trkpt>
      <trkpt lat="43.54655" lon="1.48585">
        <ele>150</ele>
        <time>2017-09-24T12:23:48Z</time>
      </trkpt>
      <trkpt lat="43.54633" lon="1.48609">
        <ele>150</ele>
        <time>2017-09-24T12:23:52Z</time>
      </trkpt>
      <trkpt lat="43.54614" lon="1.48637">
        <ele>150</ele>
        <time>2017-09-24T12:23:56Z</time>
      </trkpt>
      <trkpt lat="43.54596" lon="1.48667">
        <ele>150</ele>
        <time>2017-09-24T12:24:00Z</time>
      </trkpt>
      <trkpt lat="43.5458" lon="1.48701">
        <ele>149</ele>
        <time>2017-09-24T12:24:04Z</time>
      </trkpt>
      <trkpt lat="43.54566" lon="1.4874">
        <ele>150</ele>
        <time>2017-09-24T12:24:08Z</time>
      </trkpt>
      <trkpt lat="43.54553" lon="1.48778">
        <ele>150</ele>
        <time>2017-09-24T12:24:12Z</time>
      </trkpt>
      <trkpt lat="43.54539" lon="1.48816">
        <ele>150</ele>
        <time>2017-09-24T12:24:16Z</time>
      </trkpt>
      <trkpt lat="43.54527" lon="1.48852">
        <ele>149</ele>
        <time>2017-09-24T12:24:20Z</time>
      </trkpt>
      <trkpt lat="43.54514" lon="1.48886">
        <ele>149</ele>
        <time>2017-09-24T12:24:24Z</time>
      </trkpt>
      <trkpt lat="43.54501" lon="1.48921">
        <ele>150</ele>
        <time>2017-09-24T12:24:28Z</time>
      </trkpt>
      <trkpt lat="43.54488" lon="1.48952">
        <ele>150</ele>
        <time>2017-09-24T12:24:32Z</time>
      </trkpt>
      <trkpt lat="43.54473" lon="1.4898">
        <ele>150</ele>
        <time>2017-09-24T12:24:36Z</time>
      </trkpt>
      <trkpt lat="43.5446" lon="1.48998">
        <ele>151</ele>
        <time>2017-09-24T12:24:40Z</time>
      </trkpt>
      <trkpt lat="43.54442" lon="1.49011">
        <ele>150</ele>
        <time>2017-09-24T12:24:44Z</time>
      </trkpt>
      <trkpt lat="43.54424" lon="1.49021">
        <ele>150</ele>
        <time>2017-09-24T12:24:48Z</time>
      </trkpt>
      <trkpt lat="43.54397" lon="1.49032">
        <ele>150</ele>
        <time>2017-09-24T12:24:52Z</time>
      </trkpt>
      <trkpt lat="43.5437" lon="1.49044">
        <ele>149</ele>
        <time>2017-09-24T12:24:56Z</time>
      </trkpt>
      <trkpt lat="43.54341" lon="1.49057">
        <ele>149</ele>
        <time>2017-09-24T12:25:00Z</time>
      </trkpt>
      <trkpt lat="43.54314" lon="1.49069">
        <ele>150</ele>
        <time>2017-09-24T12:25:04Z</time>
      </trkpt>
      <trkpt lat="43.54283" lon="1.49082">
        <ele>149</ele>
        <time>2017-09-24T12:25:08Z</time>
      </trkpt>
      <trkpt lat="43.54252" lon="1.49096">
        <ele>150</ele>
        <time>2017-09-24T12:25:12Z</time>
      </trkpt>
      <trkpt lat="43.54224" lon="1.49113">
        <ele>150</ele>
        <time>2017-09-24T12:25:16Z</time>
      </trkpt>
      <trkpt lat="43.54197" lon="1.49129">
        <ele>150</ele>
        <time>2017-09-24T12:25:20Z</time>
      </trkpt>
      <trkpt lat="43.54177" lon="1.49143">
        <ele>150</ele>
        <time>2017-09-24T12:25:24Z</time>
      </trkpt>
      <trkpt lat="43.54156" lon="1.49157">
        <ele>149</ele>
        <time>2017-09-24T12:25:28Z</time>
      </trkpt>
      <trkpt lat="43.54127" lon="1.49172">
        <ele>149</ele>
        <time>2017-09-24T12:25:32Z</time>
      </trkpt>
      <trkpt lat="43.54098" lon="1.4919">
        <ele>150</ele>
        <time>2017-09-24T12:25:36Z</time>
      </trkpt>
      <trkpt lat="43.54065" lon="1.4921">
        <ele>149</ele>
        <time>2017-09-24T12:25:40Z</time>
      </trkpt>
      <trkpt lat="43.54034" lon="1.49227">
        <ele>149</ele>
        <time>2017-09-24T12:25:44Z</time>
      </trkpt>
      <trkpt lat="43.54001" lon="1.49238">
        <ele>149</ele>
        <time>2017-09-24T12:25:48Z</time>
      </trkpt>
      <trkpt lat="43.53972" lon="1.49247">
        <ele>149</ele>
        <time>2017-09-24T12:25:52Z</time>
      </trkpt>
      <trkpt lat="43.53945" lon="1.49253">
        <ele>149</ele>
        <time>2017-09-24T12:25:56Z</time>
      </trkpt>
      <trkpt lat="43.53914" lon="1.49265">
        <ele>150</ele>
        <time>2017-09-24T12:26:00Z</time>
      </trkpt>
      <trkpt lat="43.53888" lon="1.49284">
        <ele>150</ele>
        <time>2017-09-24T12:26:04Z</time>
      </trkpt>
      <trkpt lat="43.53873" lon="1.49311">
        <ele>150</ele>
        <time>2017-09-24T12:26:08Z</time>
      </trkpt>
      <trkpt lat="43.53868" lon="1.49346">
        <ele>151</ele>
        <time>2017-09-24T12:26:12Z</time>
      </trkpt>
      <trkpt lat="43.53869" lon="1.49388">
        <ele>151</ele>
        <time>2017-09-24T12:26:16Z</time>
      </trkpt>
      <trkpt lat="43.5387" lon="1.4943">
        <ele>151</ele>
        <time>2017-09-24T12:26:20Z</time>
      </trkpt>
      <trkpt lat="43.53872" lon="1.49469">
        <ele>151</ele>
        <time>2017-09-24T12:26:24Z</time>
      </trkpt>
      <trkpt lat="43.53875" lon="1.49508">
        <ele>151</ele>
        <time>2017-09-24T12:26:28Z</time>
      </trkpt>
      <trkpt lat="43.53877" lon="1.49547">
        <ele>152</ele>
        <time>2017-09-24T12:26:32Z</time>
      </trkpt>
      <trkpt lat="43.53881" lon="1.49587">
        <ele>151</ele>
        <time>2017-09-24T12:26:36Z</time>
      </trkpt>
      <trkpt lat="43.53885" lon="1.49625">
        <ele>151</ele>
        <time>2017-09-24T12:26:40Z</time>
      </trkpt>
      <trkpt lat="43.53889" lon="1.49663">
        <ele>151</ele>
        <time>2017-09-24T12:26:44Z</time>
      </trkpt>
      <trkpt lat="43.53896" lon="1.49705">
        <ele>151</ele>
        <time>2017-09-24T12:26:48Z</time>
      </trkpt>
      <trkpt lat="43.53897" lon="1.49745">
        <ele>151</ele>
        <time>2017-09-24T12:26:52Z</time>
      </trkpt>
      <trkpt lat="43.53897" lon="1.49787">
        <ele>151</ele>
        <time>2017-09-24T12:26:56Z</time>
      </trkpt>
      <trkpt lat="43.53894" lon="1.49825">
        <ele>151</ele>
        <time>2017-09-24T12:27:00Z</time>
      </trkpt>
      <trkpt lat="43.53886" lon="1.49863">
        <ele>151</ele>
        <time>2017-09-24T12:27:04Z</time>
      </trkpt>
      <trkpt lat="43.53878" lon="1.49896">
        <ele>151</ele>
        <time>2017-09-24T12:27:08Z</time>
      </trkpt>
      <trkpt lat="43.53866" lon="1.49927">
        <ele>151</ele>
        <time>2017-09-24T12:27:12Z</time>
      </trkpt>
      <trkpt lat="43.5385" lon="1.4996">
        <ele>151</ele>
        <time>2017-09-24T12:27:16Z</time>
      </trkpt>
      <trkpt lat="43.53835" lon="1.49989">
        <ele>151</ele>
        <time>2017-09-24T12:27:20Z</time>
      </trkpt>
      <trkpt lat="43.53817" lon="1.50019">
        <ele>151</ele>
        <time>2017-09-24T12:27:24Z</time>
      </trkpt>
      <trkpt lat="43.53799" lon="1.5005">
        <ele>151</ele>
        <time>2017-09-24T12:27:28Z</time>
      </trkpt>
      <trkpt lat="43.53781" lon="1.50083">
        <ele>151</ele>
        <time>2017-09-24T12:27:32Z</time>
      </trkpt>
      <trkpt lat="43.53765" lon="1.50116">
        <ele>151</ele>
        <time>2017-09-24T12:27:36Z</time>
      </trkpt>
      <trkpt lat="43.53751" lon="1.50154">
        <ele>151</ele>
        <time>2017-09-24T12:27:40Z</time>
      </trkpt>
      <trkpt lat="43.53731" lon="1.5019">
        <ele>151</ele>
        <time>2017-09-24T12:27:44Z</time>
      </trkpt>
      <trkpt lat="43.5371" lon="1.50221">
        <ele>150</ele>
        <time>2017-09-24T12:27:48Z</time>
      </trkpt>
      <trkpt lat="43.5369" lon="1.5025">
        <ele>151</ele>
        <time>2017-09-24T12:27:52Z</time>
      </trkpt>
      <trkpt lat="43.5367" lon="1.50277">
        <ele>151</ele>
        <time>2017-09-24T12:27:56Z</time>
      </trkpt>
      <trkpt lat="43.5365" lon="1.50302">
        <ele>151</ele>
        <time>2017-09-24T12:28:00Z</time>
      </trkpt>
      <trkpt lat="43.53632" lon="1.50327">
        <ele>151</ele>
        <time>2017-09-24T12:28:04Z</time>
      </trkpt>
      <trkpt lat="43.53615" lon="1.50348">
        <ele>151</ele>
        <time>2017-09-24T12:28:08Z</time>
      </trkpt>
      <trkpt lat="43.53594" lon="1.50371">
        <ele>151</ele>
        <time>2017-09-24T12:28:12Z</time>
      </trkpt>
      <trkpt lat="43.53572" lon="1.50391">
        <ele>150</ele>
        <time>2017-09-24T12:28:16Z</time>
      </trkpt>
      <trkpt lat="43.53547" lon="1.50413">
        <ele>150</ele>
        <time>2017-09-24T12:28:20Z</time>
      </trkpt>
      <trkpt lat="43.53521" lon="1.50438">
        <ele>150</ele>
        <time>2017-09-24T12:28:24Z</time>
      </trkpt>
      <trkpt lat="43.53495" lon="1.50463">
        <ele>150</ele>
        <time>2017-09-24T12:28:28Z</time>
      </trkpt>
      <trkpt lat="43.53469" lon="1.50483">
        <ele>150</ele>
        <time>2017-09-24T12:28:32Z</time>
      </trkpt>
      <trkpt lat="43.53441" lon="1.50502">
        <ele>150</ele>
        <time>2017-09-24T12:28:36Z</time>
      </trkpt>
      <trkpt lat="43.53413" lon="1.50518">
        <ele>150</ele>
        <time>2017-09-24T12:28:40Z</time>
      </trkpt>
      <trkpt lat="43.53383" lon="1.50528">
        <ele>150</ele>
        <time>2017-09-24T12:28:44Z</time>
      </trkpt>
      <trkpt lat="43.53352" lon="1.50536">
        <ele>150</ele>
        <time>2017-09-24T12:28:48Z</time>
      </trkpt>
      <trkpt lat="43.53324" lon="1.5054">
        <ele>150</ele>
        <time>2017-09-24T12:28:52Z</time>
      </trkpt>
      <trkpt lat="43.53293" lon="1.50545">
        <ele>150</ele>
        <time>2017-09-24T12:28:56Z</time>
      </trkpt>
      <trkpt lat="43.53264" lon="1.50549">
        <ele>150</ele>
        <time>2017-09-24T12:29:00Z</time>
      </trkpt>
      <trkpt lat="43.53234" lon="1.50555">
        <ele>150</ele>
        <time>2017-09-24T12:29:04Z</time>
      </trkpt>
      <trkpt lat="43.53206" lon="1.50561">
        <ele>150</ele>
        <time>2017-09-24T12:29:08Z</time>
      </trkpt>
      <trkpt lat="43.53178" lon="1.50571">
        <ele>150</ele>
        <time>2017-09-24T12:29:12Z</time>
      </trkpt>
      <trkpt lat="43.5315" lon="1.50584">
        <ele>150</ele>
        <time>2017-09-24T12:29:16Z</time>
      </trkpt>
      <trkpt lat="43.53125" lon="1.506">
        <ele>150</ele>
        <time>2017-09-24T12:29:20Z</time>
      </trkpt>
      <trkpt lat="43.53099" lon="1.50613">
        <ele>150</ele>
        <time>2017-09-24T12:29:24Z</time>
      </trkpt>
      <trkpt lat="43.5307" lon="1.50627">
        <ele>150</ele>
        <time>2017-09-24T12:29:28Z</time>
      </trkpt>
      <trkpt lat="43.53042" lon="1.50646">
        <ele>151</ele>
        <time>2017-09-24T12:29:32Z</time>
      </trkpt>
      <trkpt lat="43.5302" lon="1.50662">
        <ele>151</ele>
        <time>2017-09-24T12:29:36Z</time>
      </trkpt>
      <trkpt lat="43.53002" lon="1.5068">
        <ele>151</ele>
        <time>2017-09-24T12:29:40Z</time>
      </trkpt>
      <trkpt lat="43.5298" lon="1.50701">
        <ele>151</ele>
        <time>2017-09-24T12:29:44Z</time>
      </trkpt>
      <trkpt lat="43.5296" lon="1.50726">
        <ele>151</ele>
        <time>2017-09-24T12:29:48Z</time>
      </trkpt>
      <trkpt lat="43.52939" lon="1.50748">
        <ele>150</ele>
        <time>2017-09-24T12:29:52Z</time>
      </trkpt>
      <trkpt lat="43.52918" lon="1.50773">
        <ele>150</ele>
        <time>2017-09-24T12:29:56Z</time>
      </trkpt>
      <trkpt lat="43.52896" lon="1.50797">
        <ele>150</ele>
        <time>2017-09-24T12:30:00Z</time>
      </trkpt>
      <trkpt lat="43.5287" lon="1.50821">
        <ele>151</ele>
        <time>2017-09-24T12:30:04Z</time>
      </trkpt>
      <trkpt lat="43.52846" lon="1.5084">
        <ele>150</ele>
        <time>2017-09-24T12:30:08Z</time>
      </trkpt>
      <trkpt lat="43.52822" lon="1.50852">
        <ele>150</ele>
        <time>2017-09-24T12:30:12Z</time>
      </trkpt>
      <trkpt lat="43.528" lon="1.50866">
        <ele>150</ele>
        <time>2017-09-24T12:30:16Z</time>
      </trkpt>
      <trkpt lat="43.52779" lon="1.5088">
        <ele>150</ele>
        <time>2017-09-24T12:30:20Z</time>
      </trkpt>
      <trkpt lat="43.52759" lon="1.50906">
        <ele>150</ele>
        <time>2017-09-24T12:30:24Z</time>
      </trkpt>
      <trkpt lat="43.5274" lon="1.50938">
        <ele>151</ele>
        <time>2017-09-24T12:30:28Z</time>
      </trkpt>
      <trkpt lat="43.5272" lon="1.50968">
        <ele>151</ele>
        <time>2017-09-24T12:30:32Z</time>
      </trkpt>
      <trkpt lat="43.52704" lon="1.51001">
        <ele>151</ele>
        <time>2017-09-24T12:30:36Z</time>
      </trkpt>
      <trkpt lat="43.52691" lon="1.51034">
        <ele>150</ele>
        <time>2017-09-24T12:30:40Z</time>
      </trkpt>
      <trkpt lat="43.52679" lon="1.51072">
        <ele>150</ele>
        <time>2017-09-24T12:30:44Z</time>
      </trkpt>
      <trkpt lat="43.5267" lon="1.5111">
        <ele>150</ele>
        <time>2017-09-24T12:30:48Z</time>
      </trkpt>
      <trkpt lat="43.5266" lon="1.51152">
        <ele>150</ele>
        <time>2017-09-24T12:30:52Z</time>
      </trkpt>
      <trkpt lat="43.52655" lon="1.51191">
        <ele>150</ele>
        <time>2017-09-24T12:30:56Z</time>
      </trkpt>
      <trkpt lat="43.5265" lon="1.51226">
        <ele>150</ele>
        <time>2017-09-24T12:31:00Z</time>
      </trkpt>
      <trkpt lat="43.52647" lon="1.51262">
        <ele>150</ele>
        <time>2017-09-24T12:31:04Z</time>
      </trkpt>
      <trkpt lat="43.52648" lon="1.51287">
        <ele>150</ele>
        <time>2017-09-24T12:31:08Z</time>
      </trkpt>
      <trkpt lat="43.52647" lon="1.51311">
        <ele>150</ele>
        <time>2017-09-24T12:31:12Z</time>
      </trkpt>
      <trkpt lat="43.52644" lon="1.51333">
        <ele>150</ele>
        <time>2017-09-24T12:31:16Z</time>
      </trkpt>
      <trkpt lat="43.52643" lon="1.51354">
        <ele>150</ele>
        <time>2017-09-24T12:31:20Z</time>
      </trkpt>
      <trkpt lat="43.5264" lon="1.51385">
        <ele>149</ele>
        <time>2017-09-24T12:31:24Z</time>
      </trkpt>
      <trkpt lat="43.52635" lon="1.51433">
        <ele>150</ele>
        <time>2017-09-24T12:31:28Z</time>
      </trkpt>
      <trkpt lat="43.52628" lon="1.51482">
        <ele>150</ele>
        <time>2017-09-24T12:31:32Z</time>
      </trkpt>
      <trkpt lat="43.52622" lon="1.51529">
        <ele>149</ele>
        <time>2017-09-24T12:31:36Z</time>
      </trkpt>
      <trkpt lat="43.52612" lon="1.51565">
        <ele>149</ele>
        <time>2017-09-24T12:31:40Z</time>
      </trkpt>
      <trkpt lat="43.52603" lon="1.51604">
        <ele>149</ele>
        <time>2017-09-24T12:31:44Z</time>
      </trkpt>
      <trkpt lat="43.52592" lon="1.51644">
        <ele>150</ele>
        <time>2017-09-24T12:31:48Z</time>
      </trkpt>
      <trkpt lat="43.5258" lon="1.51683">
        <ele>150</ele>
        <time>2017-09-24T12:31:52Z</time>
      </trkpt>
      <trkpt lat="43.52565" lon="1.51718">
        <ele>150</ele>
        <time>2017-09-24T12:31:56Z</time>
      </trkpt>
      <trkpt lat="43.5255" lon="1.51749">
        <ele>150</ele>
        <time>2017-09-24T12:32:00Z</time>
      </trkpt>
      <trkpt lat="43.52535" lon="1.51776">
        <ele>150</ele>
        <time>2017-09-24T12:32:04Z</time>
      </trkpt>
      <trkpt lat="43.52513" lon="1.51798">
        <ele>151</ele>
        <time>2017-09-24T12:32:08Z</time>
      </trkpt>
      <trkpt lat="43.52485" lon="1.51825">
        <ele>150</ele>
        <time>2017-09-24T12:32:12Z</time>
      </trkpt>
      <trkpt lat="43.52461" lon="1.51844">
        <ele>150</ele>
        <time>2017-09-24T12:32:16Z</time>
      </trkpt>
      <trkpt lat="43.52437" lon="1.51861">
        <ele>151</ele>
        <time>2017-09-24T12:32:20Z</time>
      </trkpt>
      <trkpt lat="43.52412" lon="1.5187">
        <ele>154</ele>
        <time>2017-09-24T12:32:24Z</time>
      </trkpt>
      <trkpt lat="43.52388" lon="1.51876">
        <ele>154</ele>
        <time>2017-09-24T12:32:28Z</time>
      </trkpt>
      <trkpt lat="43.52364" lon="1.51883">
        <ele>154</ele>
        <time>2017-09-24T12:32:32Z</time>
      </trkpt>
      <trkpt lat="43.52342" lon="1.51888">
        <ele>153</ele>
        <time>2017-09-24T12:32:36Z</time>
      </trkpt>
      <trkpt lat="43.5232" lon="1.51903">
        <ele>154</ele>
        <time>2017-09-24T12:32:40Z</time>
      </trkpt>
      <trkpt lat="43.52292" lon="1.51914">
        <ele>155</ele>
        <time>2017-09-24T12:32:44Z</time>
      </trkpt>
      <trkpt lat="43.52265" lon="1.51928">
        <ele>155</ele>
        <time>2017-09-24T12:32:48Z</time>
      </trkpt>
      <trkpt lat="43.52238" lon="1.51939">
        <ele>154</ele>
        <time>2017-09-24T12:32:52Z</time>
      </trkpt>
      <trkpt lat="43.52208" lon="1.51944">
        <ele>154</ele>
        <time>2017-09-24T12:32:56Z</time>
      </trkpt>
      <trkpt lat="43.52179" lon="1.51947">
        <ele>154</ele>
        <time>2017-09-24T12:33:00Z</time>
      </trkpt>
      <trkpt lat="43.52146" lon="1.51949">
        <ele>154</ele>
        <time>2017-09-24T12:33:04Z</time>
      </trkpt>
      <trkpt lat="43.52115" lon="1.51954">
        <ele>154</ele>
        <time>2017-09-24T12:33:08Z</time>
      </trkpt>
      <trkpt lat="43.52086" lon="1.5197">
        <ele>154</ele>
        <time>2017-09-24T12:33:12Z</time>
      </trkpt>
      <trkpt lat="43.52065" lon="1.51982">
        <ele>154</ele>
        <time>2017-09-24T12:33:16Z</time>
      </trkpt>
      <trkpt lat="43.52036" lon="1.51999">
        <ele>155</ele>
        <time>2017-09-24T12:33:20Z</time>
      </trkpt>
      <trkpt lat="43.52006" lon="1.52009">
        <ele>155</ele>
        <time>2017-09-24T12:33:24Z</time>
      </trkpt>
      <trkpt lat="43.51974" lon="1.52013">
        <ele>154</ele>
        <time>2017-09-24T12:33:28Z</time>
      </trkpt>
      <trkpt lat="43.51942" lon="1.52009">
        <ele>154</ele>
        <time>2017-09-24T12:33:32Z</time>
      </trkpt>
      <trkpt lat="43.51912" lon="1.52">
        <ele>154</ele>
        <time>2017-09-24T12:33:36Z</time>
      </trkpt>
      <trkpt lat="43.51884" lon="1.51989">
        <ele>154</ele>
        <time>2017-09-24T12:33:40Z</time>
      </trkpt>
      <trkpt lat="43.51857" lon="1.51979">
        <ele>155</ele>
        <time>2017-09-24T12:33:44Z</time>
      </trkpt>
      <trkpt lat="43.51831" lon="1.51972">
        <ele>155</ele>
        <time>2017-09-24T12:33:48Z</time>
      </trkpt>
      <trkpt lat="43.51804" lon="1.51975">
        <ele>154</ele>
        <time>2017-09-24T12:33:52Z</time>
      </trkpt>
      <trkpt lat="43.5178" lon="1.51985">
        <ele>155</ele>
        <time>2017-09-24T12:33:56Z</time>
      </trkpt>
      <trkpt lat="43.51756" lon="1.52">
        <ele>154</ele>
        <time>2017-09-24T12:34:00Z</time>
      </trkpt>
      <trkpt lat="43.51733" lon="1.52015">
        <ele>154</ele>
        <time>2017-09-24T12:34:04Z</time>
      </trkpt>
      <trkpt lat="43.51707" lon="1.52027">
        <ele>154</ele>
        <time>2017-09-24T12:34:08Z</time>
      </trkpt>
      <trkpt lat="43.51679" lon="1.52044">
        <ele>155</ele>
        <time>2017-09-24T12:34:12Z</time>
      </trkpt>
      <trkpt lat="43.51647" lon="1.52052">
        <ele>155</ele>
        <time>2017-09-24T12:34:16Z</time>
      </trkpt>
      <trkpt lat="43.51613" lon="1.52051">
        <ele>155</ele>
        <time>2017-09-24T12:34:20Z</time>
      </trkpt>
      <trkpt lat="43.51586" lon="1.5203">
        <ele>155</ele>
        <time>2017-09-24T12:34:24Z</time>
      </trkpt>
      <trkpt lat="43.51562" lon="1.52001">
        <ele>155</ele>
        <time>2017-09-24T12:34:28Z</time>
      </trkpt>
      <trkpt lat="43.51536" lon="1.51973">
        <ele>155</ele>
        <time>2017-09-24T12:34:32Z</time>
      </trkpt>
      <trkpt lat="43.51512" lon="1.51946">
        <ele>154</ele>
        <time>2017-09-24T12:34:36Z</time>
      </trkpt>
      <trkpt lat="43.51495" lon="1.51908">
        <ele>154</ele>
        <time>2017-09-24T12:34:40Z</time>
      </trkpt>
      <trkpt lat="43.51487" lon="1.51862">
        <ele>155</ele>
        <time>2017-09-24T12:34:44Z</time>
      </trkpt>
      <trkpt lat="43.51485" lon="1.5182">
        <ele>155</ele>
        <time>2017-09-24T12:34:48Z</time>
      </trkpt>
      <trkpt lat="43.51493" lon="1.51782">
        <ele>155</ele>
        <time>2017-09-24T12:34:52Z</time>
      </trkpt>
      <trkpt lat="43.51492" lon="1.51741">
        <ele>155</ele>
        <time>2017-09-24T12:34:56Z</time>
      </trkpt>
      <trkpt lat="43.51479" lon="1.51705">
        <ele>155</ele>
        <time>2017-09-24T12:35:00Z</time>
      </trkpt>
      <trkpt lat="43.51457" lon="1.51673">
        <ele>155</ele>
        <time>2017-09-24T12:35:04Z</time>
      </trkpt>
      <trkpt lat="43.5143" lon="1.51659">
        <ele>155</ele>
        <time>2017-09-24T12:35:08Z</time>
      </trkpt>
      <trkpt lat="43.51401" lon="1.51663">
        <ele>155</ele>
        <time>2017-09-24T12:35:12Z</time>
      </trkpt>
      <trkpt lat="43.51374" lon="1.51672">
        <ele>155</ele>
        <time>2017-09-24T12:35:16Z</time>
      </trkpt>
      <trkpt lat="43.51351" lon="1.51679">
        <ele>155</ele>
        <time>2017-09-24T12:35:20Z</time>
      </trkpt>
      <trkpt lat="43.51325" lon="1.51686">
        <ele>155</ele>
        <time>2017-09-24T12:35:24Z</time>
      </trkpt>
      <trkpt lat="43.51293" lon="1.51692">
        <ele>155</ele>
        <time>2017-09-24T12:35:28Z</time>
      </trkpt>
      <trkpt lat="43.51259" lon="1.517">
        <ele>155</ele>
        <time>2017-09-24T12:35:32Z</time>
      </trkpt>
      <trkpt lat="43.51226" lon="1.51707">
        <ele>155</ele>
        <time>2017-09-24T12:35:36Z</time>
      </trkpt>
      <trkpt lat="43.51197" lon="1.51715">
        <ele>156</ele>
        <time>2017-09-24T12:35:40Z</time>
      </trkpt>
      <trkpt lat="43.5117" lon="1.51722">
        <ele>156</ele>
        <time>2017-09-24T12:35:44Z</time>
      </trkpt>
      <trkpt lat="43.51148" lon="1.51726">
        <ele>157</ele>
        <time>2017-09-24T12:35:48Z</time>
      </trkpt>
      <trkpt lat="43.51136" lon="1.51731">
        <ele>157</ele>
        <time>2017-09-24T12:35:52Z</time>
      </trkpt>
      <trkpt lat="43.51121" lon="1.51742">
        <ele>157</ele>
        <time>2017-09-24T12:35:56Z</time>
      </trkpt>
      <trkpt lat="43.51108" lon="1.51745">
        <ele>156</ele>
        <time>2017-09-24T12:36:00Z</time>
      </trkpt>
      <trkpt lat="43.51095" lon="1.51748">
        <ele>156</ele>
        <time>2017-09-24T12:36:04Z</time>
      </trkpt>
      <trkpt lat="43.51072" lon="1.51751">
        <ele>156</ele>
        <time>2017-09-24T12:36:08Z</time>
      </trkpt>
      <trkpt lat="43.5105" lon="1.51758">
        <ele>157</ele>
        <time>2017-09-24T12:36:12Z</time>
      </trkpt>
      <trkpt lat="43.51028" lon="1.51766">
        <ele>157</ele>
        <time>2017-09-24T12:36:16Z</time>
      </trkpt>
      <trkpt lat="43.51005" lon="1.51771">
        <ele>157</ele>
        <time>2017-09-24T12:36:20Z</time>
      </trkpt>
      <trkpt lat="43.50981" lon="1.51781">
        <ele>157</ele>
        <time>2017-09-24T12:36:24Z</time>
      </trkpt>
      <trkpt lat="43.50957" lon="1.51798">
        <ele>157</ele>
        <time>2017-09-24T12:36:28Z</time>
      </trkpt>
      <trkpt lat="43.50934" lon="1.51817">
        <ele>157</ele>
        <time>2017-09-24T12:36:32Z</time>
      </trkpt>
      <trkpt lat="43.50911" lon="1.51832">
        <ele>157</ele>
        <time>2017-09-24T12:36:36Z</time>
      </trkpt>
      <trkpt lat="43.5089" lon="1.51851">
        <ele>157</ele>
        <time>2017-09-24T12:36:40Z</time>
      </trkpt>
      <trkpt lat="43.50867" lon="1.51872">
        <ele>157</ele>
        <time>2017-09-24T12:36:44Z</time>
      </trkpt>
      <trkpt lat="43.50847" lon="1.51897">
        <ele>157</ele>
        <time>2017-09-24T12:36:48Z</time>
      </trkpt>
      <trkpt lat="43.50826" lon="1.51923">
        <ele>157</ele>
        <time>2017-09-24T12:36:52Z</time>
      </trkpt>
      <trkpt lat="43.50801" lon="1.51952">
        <ele>156</ele>
        <time>2017-09-24T12:36:56Z</time>
      </trkpt>
      <trkpt lat="43.50777" lon="1.51978">
        <ele>157</ele>
        <time>2017-09-24T12:37:00Z</time>
      </trkpt>
      <trkpt lat="43.50752" lon="1.52002">
        <ele>157</ele>
        <time>2017-09-24T12:37:04Z</time>
      </trkpt>
      <trkpt lat="43.50727" lon="1.52025">
        <ele>157</ele>
        <time>2017-09-24T12:37:08Z</time>
      </trkpt>
      <trkpt lat="43.50699" lon="1.52044">
        <ele>156</ele>
        <time>2017-09-24T12:37:12Z</time>
      </trkpt>
      <trkpt lat="43.5067" lon="1.52055">
        <ele>156</ele>
        <time>2017-09-24T12:37:16Z</time>
      </trkpt>
      <trkpt lat="43.50642" lon="1.52062">
        <ele>156</ele>
        <time>2017-09-24T12:37:20Z</time>
      </trkpt>
      <trkpt lat="43.50611" lon="1.52066">
        <ele>156</ele>
        <time>2017-09-24T12:37:24Z</time>
      </trkpt>
      <trkpt lat="43.5058" lon="1.52071">
        <ele>156</ele>
        <time>2017-09-24T12:37:28Z</time>
      </trkpt>
      <trkpt lat="43.5055" lon="1.52078">
        <ele>157</ele>
        <time>2017-09-24T12:37:32Z</time>
      </trkpt>
      <trkpt lat="43.50523" lon="1.52088">
        <ele>157</ele>
        <time>2017-09-24T12:37:36Z</time>
      </trkpt>
      <trkpt lat="43.50496" lon="1.52107">
        <ele>156</ele>
        <time>2017-09-24T12:37:40Z</time>
      </trkpt>
      <trkpt lat="43.50473" lon="1.52128">
        <ele>156</ele>
        <time>2017-09-24T12:37:44Z</time>
      </trkpt>
      <trkpt lat="43.50453" lon="1.52154">
        <ele>157</ele>
        <time>2017-09-24T12:37:48Z</time>
      </trkpt>
      <trkpt lat="43.50438" lon="1.52185">
        <ele>157</ele>
        <time>2017-09-24T12:37:52Z</time>
      </trkpt>
      <trkpt lat="43.5043" lon="1.5222">
        <ele>157</ele>
        <time>2017-09-24T12:37:56Z</time>
      </trkpt>
      <trkpt lat="43.50428" lon="1.52262">
        <ele>156</ele>
        <time>2017-09-24T12:38:00Z</time>
      </trkpt>
      <trkpt lat="43.50426" lon="1.52301">
        <ele>156</ele>
        <time>2017-09-24T12:38:04Z</time>
      </trkpt>
      <trkpt lat="43.50422" lon="1.52341">
        <ele>156</ele>
        <time>2017-09-24T12:38:08Z</time>
      </trkpt>
      <trkpt lat="43.50424" lon="1.52381">
        <ele>156</ele>
        <time>2017-09-24T12:38:12Z</time>
      </trkpt>
      <trkpt lat="43.50423" lon="1.52418">
        <ele>156</ele>
        <time>2017-09-24T12:38:16Z</time>
      </trkpt>
      <trkpt lat="43.50415" lon="1.52451">
        <ele>156</ele>
        <time>2017-09-24T12:38:20Z</time>
      </trkpt>
      <trkpt lat="43.50407" lon="1.52485">
        <ele>157</ele>
        <time>2017-09-24T12:38:24Z</time>
      </trkpt>
      <trkpt lat="43.50398" lon="1.52519">
        <ele>156</ele>
        <time>2017-09-24T12:38:28Z</time>
      </trkpt>
      <trkpt lat="43.50393" lon="1.52555">
        <ele>157</ele>
        <time>2017-09-24T12:38:32Z</time>
      </trkpt>
      <trkpt lat="43.50386" lon="1.52589">
        <ele>157</ele>
        <time>2017-09-24T12:38:36Z</time>
      </trkpt>
      <trkpt lat="43.50377" lon="1.5262">
        <ele>157</ele>
        <time>2017-09-24T12:38:40Z</time>
      </trkpt>
      <trkpt lat="43.50368" lon="1.52659">
        <ele>157</ele>
        <time>2017-09-24T12:38:44Z</time>
      </trkpt>
      <trkpt lat="43.50354" lon="1.52689">
        <ele>157</ele>
        <time>2017-09-24T12:38:48Z</time>
      </trkpt>
      <trkpt lat="43.50335" lon="1.52715">
        <ele>157</ele>
        <time>2017-09-24T12:38:52Z</time>
      </trkpt>
      <trkpt lat="43.50314" lon="1.52738">
        <ele>157</ele>
        <time>2017-09-24T12:38:56Z</time>
      </trkpt>
      <trkpt lat="43.50293" lon="1.52761">
        <ele>157</ele>
        <time>2017-09-24T12:39:00Z</time>
      </trkpt>
      <trkpt lat="43.50272" lon="1.52784">
        <ele>156</ele>
        <time>2017-09-24T12:39:04Z</time>
      </trkpt>
      <trkpt lat="43.50252" lon="1.52796">
        <ele>155</ele>
        <time>2017-09-24T12:39:08Z</time>
      </trkpt>
      <trkpt lat="43.50231" lon="1.52812">
        <ele>156</ele>
        <time>2017-09-24T12:39:12Z</time>
      </trkpt>
      <trkpt lat="43.5021" lon="1.52835">
        <ele>157</ele>
        <time>2017-09-24T12:39:16Z</time>
      </trkpt>
      <trkpt lat="43.50185" lon="1.52855">
        <ele>157</ele>
        <time>2017-09-24T12:39:20Z</time>
      </trkpt>
      <trkpt lat="43.50155" lon="1.52881">
        <ele>157</ele>
        <time>2017-09-24T12:39:24Z</time>
      </trkpt>
      <trkpt lat="43.50127" lon="1.52909">
        <ele>157</ele>
        <time>2017-09-24T12:39:28Z</time>
      </trkpt>
      <trkpt lat="43.50103" lon="1.52939">
        <ele>156</ele>
        <time>2017-09-24T12:39:32Z</time>
      </trkpt>
      <trkpt lat="43.50081" lon="1.52969">
        <ele>156</ele>
        <time>2017-09-24T12:39:36Z</time>
      </trkpt>
      <trkpt lat="43.5006" lon="1.52997">
        <ele>157</ele>
        <time>2017-09-24T12:39:40Z</time>
      </trkpt>
      <trkpt lat="43.50041" lon="1.5302">
        <ele>157</ele>
        <time>2017-09-24T12:39:44Z</time>
      </trkpt>
      <trkpt lat="43.50021" lon="1.53043">
        <ele>156</ele>
        <time>2017-09-24T12:39:48Z</time>
      </trkpt>
      <trkpt lat="43.5" lon="1.53065">
        <ele>156</ele>
        <time>2017-09-24T12:39:52Z</time>
      </trkpt>
      <trkpt lat="43.49979" lon="1.53087">
        <ele>157</ele>
        <time>2017-09-24T12:39:56Z</time>
      </trkpt>
      <trkpt lat="43.49957" lon="1.53108">
        <ele>157</ele>
        <time>2017-09-24T12:40:00Z</time>
      </trkpt>
      <trkpt lat="43.49936" lon="1.53127">
        <ele>157</ele>
        <time>2017-09-24T12:40:04Z</time>
      </trkpt>
      <trkpt lat="43.49914" lon="1.53148">
        <ele>157</ele>
        <time>2017-09-24T12:40:08Z</time>
      </trkpt>
      <trkpt lat="43.49885" lon="1.53174">
        <ele>156</ele>
        <time>2017-09-24T12:40:12Z</time>
      </trkpt>
      <trkpt lat="43.49862" lon="1.53196">
        <ele>156</ele>
        <time>2017-09-24T12:40:16Z</time>
      </trkpt>
      <trkpt lat="43.49842" lon="1.53218">
        <ele>156</ele>
        <time>2017-09-24T12:40:20Z</time>
      </trkpt>
      <trkpt lat="43.49822" lon="1.53238">
        <ele>157</ele>
        <time>2017-09-24T12:40:24Z</time>
      </trkpt>
      <trkpt lat="43.49803" lon="1.53261">
        <ele>157</ele>
        <time>2017-09-24T12:40:28Z</time>
      </trkpt>
      <trkpt lat="43.49786" lon="1.53291">
        <ele>157</ele>
        <time>2017-09-24T12:40:32Z</time>
      </trkpt>
      <trkpt lat="43.49767" lon="1.53325">
        <ele>157</ele>
        <time>2017-09-24T12:40:36Z</time>
      </trkpt>
      <trkpt lat="43.49748" lon="1.53358">
        <ele>157</ele>
        <time>2017-09-24T12:40:40Z</time>
      </trkpt>
      <trkpt lat="43.49729" lon="1.53398">
        <ele>157</ele>
        <time>2017-09-24T12:40:44Z</time>
      </trkpt>
      <trkpt lat="43.49709" lon="1.53429">
        <ele>157</ele>
        <time>2017-09-24T12:40:48Z</time>
      </trkpt>
      <trkpt lat="43.49688" lon="1.5346">
        <ele>157</ele>
        <time>2017-09-24T12:40:52Z</time>
      </trkpt>
      <trkpt lat="43.49668" lon="1.53489">
        <ele>157</ele>
        <time>2017-09-24T12:40:56Z</time>
      </trkpt>
      <trkpt lat="43.49644" lon="1.53517">
        <ele>157</ele>
        <time>2017-09-24T12:41:00Z</time>
      </trkpt>
      <trkpt lat="43.49622" lon="1.53543">
        <ele>158</ele>
        <time>2017-09-24T12:41:04Z</time>
      </trkpt>
      <trkpt lat="43.49609" lon="1.53559">
        <ele>159</ele>
        <time>2017-09-24T12:41:08Z</time>
      </trkpt>
      <trkpt lat="43.49585" lon="1.53577">
        <ele>157</ele>
        <time>2017-09-24T12:41:12Z</time>
      </trkpt>
      <trkpt lat="43.49558" lon="1.53591">
        <ele>157</ele>
        <time>2017-09-24T12:41:16Z</time>
      </trkpt>
      <trkpt lat="43.49528" lon="1.53601">
        <ele>156</ele>
        <time>2017-09-24T12:41:20Z</time>
      </trkpt>
      <trkpt lat="43.49495" lon="1.53613">
        <ele>157</ele>
        <time>2017-09-24T12:41:24Z</time>
      </trkpt>
      <trkpt lat="43.49463" lon="1.53623">
        <ele>158</ele>
        <time>2017-09-24T12:41:28Z</time>
      </trkpt>
      <trkpt lat="43.49433" lon="1.53631">
        <ele>158</ele>
        <time>2017-09-24T12:41:32Z</time>
      </trkpt>
      <trkpt lat="43.49405" lon="1.53638">
        <ele>158</ele>
        <time>2017-09-24T12:41:36Z</time>
      </trkpt>
      <trkpt lat="43.49376" lon="1.53645">
        <ele>157</ele>
        <time>2017-09-24T12:41:40Z</time>
      </trkpt>
      <trkpt lat="43.49343" lon="1.53651">
        <ele>157</ele>
        <time>2017-09-24T12:41:44Z</time>
      </trkpt>
      <trkpt lat="43.49313" lon="1.53654">
        <ele>158</ele>
        <time>2017-09-24T12:41:48Z</time>
      </trkpt>
      <trkpt lat="43.49281" lon="1.53658">
        <ele>158</ele>
        <time>2017-09-24T12:41:52Z</time>
      </trkpt>
      <trkpt lat="43.4925" lon="1.53659">
        <ele>158</ele>
        <time>2017-09-24T12:41:56Z</time>
      </trkpt>
      <trkpt lat="43.49219" lon="1.53658">
        <ele>158</ele>
        <time>2017-09-24T12:42:00Z</time>
      </trkpt>
      <trkpt lat="43.4919" lon="1.53656">
        <ele>158</ele>
        <time>2017-09-24T12:42:04Z</time>
      </trkpt>
      <trkpt lat="43.4916" lon="1.53652">
        <ele>158</ele>
        <time>2017-09-24T12:42:08Z</time>
      </trkpt>
      <trkpt lat="43.49128" lon="1.53643">
        <ele>157</ele>
        <time>2017-09-24T12:42:12Z</time>
      </trkpt>
      <trkpt lat="43.49098" lon="1.53634">
        <ele>157</ele>
        <time>2017-09-24T12:42:16Z</time>
      </trkpt>
      <trkpt lat="43.49067" lon="1.53624">
        <ele>157</ele>
        <time>2017-09-24T12:42:20Z</time>
      </trkpt>
      <trkpt lat="43.49038" lon="1.5362">
        <ele>157</ele>
        <time>2017-09-24T12:42:24Z</time>
      </trkpt>
      <trkpt lat="43.4901" lon="1.53627">
        <ele>158</ele>
        <time>2017-09-24T12:42:28Z</time>
      </trkpt>
      <trkpt lat="43.48989" lon="1.53644">
        <ele>158</ele>
        <time>2017-09-24T12:42:32Z</time>
      </trkpt>
      <trkpt lat="43.48976" lon="1.53668">
        <ele>158</ele>
        <time>2017-09-24T12:42:36Z</time>
      </trkpt>
      <trkpt lat="43.48966" lon="1.53702">
        <ele>159</ele>
        <time>2017-09-24T12:42:40Z</time>
      </trkpt>
      <trkpt lat="43.48962" lon="1.5374">
        <ele>159</ele>
        <time>2017-09-24T12:42:44Z</time>
      </trkpt>
      <trkpt lat="43.48961" lon="1.53778">
        <ele>159</ele>
        <time>2017-09-24T12:42:48Z</time>
      </trkpt>
      <trkpt lat="43.48963" lon="1.53813">
        <ele>159</ele>
        <time>2017-09-24T12:42:52Z</time>
      </trkpt>
      <trkpt lat="43.48967" lon="1.5385">
        <ele>159</ele>
        <time>2017-09-24T12:42:56Z</time>
      </trkpt>
      <trkpt lat="43.4897" lon="1.53888">
        <ele>159</ele>
        <time>2017-09-24T12:43:00Z</time>
      </trkpt>
      <trkpt lat="43.48972" lon="1.53927">
        <ele>159</ele>
        <time>2017-09-24T12:43:04Z</time>
      </trkpt>
      <trkpt lat="43.48974" lon="1.53964">
        <ele>158</ele>
        <time>2017-09-24T12:43:08Z</time>
      </trkpt>
      <trkpt lat="43.48973" lon="1.54002">
        <ele>158</ele>
        <time>2017-09-24T12:43:12Z</time>
      </trkpt>
      <trkpt lat="43.48972" lon="1.54041">
        <ele>158</ele>
        <time>2017-09-24T12:43:16Z</time>
      </trkpt>
      <trkpt lat="43.48971" lon="1.5408">
        <ele>159</ele>
        <time>2017-09-24T12:43:20Z</time>
      </trkpt>
      <trkpt lat="43.48968" lon="1.54114">
        <ele>159</ele>
        <time>2017-09-24T12:43:24Z</time>
      </trkpt>
      <trkpt lat="43.48963" lon="1.54151">
        <ele>159</ele>
        <time>2017-09-24T12:43:28Z</time>
      </trkpt>
      <trkpt lat="43.48956" lon="1.54184">
        <ele>159</ele>
        <time>2017-09-24T12:43:32Z</time>
      </trkpt>
      <trkpt lat="43.48946" lon="1.54221">
        <ele>158</ele>
        <time>2017-09-24T12:43:36Z</time>
      </trkpt>
      <trkpt lat="43.48933" lon="1.54254">
        <ele>159</ele>
        <time>2017-09-24T12:43:40Z</time>
      </trkpt>
      <trkpt lat="43.48918" lon="1.54284">
        <ele>159</ele>
        <time>2017-09-24T12:43:44Z</time>
      </trkpt>
      <trkpt lat="43.48901" lon="1.54307">
        <ele>158</ele>
        <time>2017-09-24T12:43:48Z</time>
      </trkpt>
      <trkpt lat="43.48883" lon="1.54332">
        <ele>157</ele>
        <time>2017-09-24T12:43:52Z</time>
      </trkpt>
      <trkpt lat="43.48863" lon="1.54358">
        <ele>158</ele>
        <time>2017-09-24T12:43:56Z</time>
      </trkpt>
      <trkpt lat="43.4884" lon="1.54386">
        <ele>158</ele>
        <time>2017-09-24T12:44:00Z</time>
      </trkpt>
      <trkpt lat="43.48821" lon="1.54415">
        <ele>159</ele>
        <time>2017-09-24T12:44:04Z</time>
      </trkpt>
      <trkpt lat="43.48804" lon="1.54443">
        <ele>160</ele>
        <time>2017-09-24T12:44:08Z</time>
      </trkpt>
      <trkpt lat="43.48785" lon="1.54474">
        <ele>159</ele>
        <time>2017-09-24T12:44:12Z</time>
      </trkpt>
      <trkpt lat="43.48767" lon="1.545">
        <ele>159</ele>
        <time>2017-09-24T12:44:16Z</time>
      </trkpt>
      <trkpt lat="43.48747" lon="1.54523">
        <ele>158</ele>
        <time>2017-09-24T12:44:20Z</time>
      </trkpt>
      <trkpt lat="43.48726" lon="1.54545">
        <ele>158</ele>
        <time>2017-09-24T12:44:24Z</time>
      </trkpt>
      <trkpt lat="43.48704" lon="1.5456">
        <ele>159</ele>
        <time>2017-09-24T12:44:28Z</time>
      </trkpt>
      <trkpt lat="43.48679" lon="1.54575">
        <ele>159</ele>
        <time>2017-09-24T12:44:32Z</time>
      </trkpt>
      <trkpt lat="43.48653" lon="1.54588">
        <ele>159</ele>
        <time>2017-09-24T12:44:36Z</time>
      </trkpt>
      <trkpt lat="43.48627" lon="1.54601">
        <ele>158</ele>
        <time>2017-09-24T12:44:40Z</time>
      </trkpt>
      <trkpt lat="43.486" lon="1.54611">
        <ele>158</ele>
        <time>2017-09-24T12:44:44Z</time>
      </trkpt>
      <trkpt lat="43.4857" lon="1.54619">
        <ele>158</ele>
        <time>2017-09-24T12:44:48Z</time>
      </trkpt>
      <trkpt lat="43.48542" lon="1.54624">
        <ele>158</ele>
        <time>2017-09-24T12:44:52Z</time>
      </trkpt>
      <trkpt lat="43.48517" lon="1.54629">
        <ele>159</ele>
        <time>2017-09-24T12:44:56Z</time>
      </trkpt>
      <trkpt lat="43.48494" lon="1.54639">
        <ele>159</ele>
        <time>2017-09-24T12:45:00Z</time>
      </trkpt>
      <trkpt lat="43.48472" lon="1.54648">
        <ele>159</ele>
        <time>2017-09-24T12:45:04Z</time>
      </trkpt>
      <trkpt lat="43.48446" lon="1.54659">
        <ele>159</ele>
        <time>2017-09-24T12:45:08Z</time>
      </trkpt>
      <trkpt lat="43.48422" lon="1.54668">
        <ele>159</ele>
        <time>2017-09-24T12:45:12Z</time>
      </trkpt>
      <trkpt lat="43.48395" lon="1.54671">
        <ele>159</ele>
        <time>2017-09-24T12:45:16Z</time>
      </trkpt>
      <trkpt lat="43.48368" lon="1.54665">
        <ele>159</ele>
        <time>2017-09-24T12:45:20Z</time>
      </trkpt>
      <trkpt lat="43.48335" lon="1.54658">
        <ele>159</ele>
        <time>2017-09-24T12:45:24Z</time>
      </trkpt>
      <trkpt lat="43.48308" lon="1.54664">
        <ele>159</ele>
        <time>2017-09-24T12:45:28Z</time>
      </trkpt>
      <trkpt lat="43.48288" lon="1.54679">
        <ele>159</ele>
        <time>2017-09-24T12:45:32Z</time>
      </trkpt>
      <trkpt lat="43.48268" lon="1.54694">
        <ele>159</ele>
        <time>2017-09-24T12:45:36Z</time>
      </trkpt>
      <trkpt lat="43.48243" lon="1.54719">
        <ele>159</ele>
        <time>2017-09-24T12:45:40Z</time>
      </trkpt>
      <trkpt lat="43.48215" lon="1.54739">
        <ele>159</ele>
        <time>2017-09-24T12:45:44Z</time>
      </trkpt>
      <trkpt lat="43.48185" lon="1.54756">
        <ele>159</ele>
        <time>2017-09-24T12:45:48Z</time>
      </trkpt>
      <trkpt lat="43.48158" lon="1.5477">
        <ele>158</ele>
        <time>2017-09-24T12:45:52Z</time>
      </trkpt>
      <trkpt lat="43.48123" lon="1.54791">
        <ele>157</ele>
        <time>2017-09-24T12:45:56Z</time>
      </trkpt>
      <trkpt lat="43.48102" lon="1.54824">
        <ele>157</ele>
        <time>2017-09-24T12:46:00Z</time>
      </trkpt>
      <trkpt lat="43.48094" lon="1.54871">
        <ele>158</ele>
        <time>2017-09-24T12:46:04Z</time>
      </trkpt>
      <trkpt lat="43.48087" lon="1.54907">
        <ele>159</ele>
        <time>2017-09-24T12:46:08Z</time>
      </trkpt>
      <trkpt lat="43.48074" lon="1.54947">
        <ele>159</ele>
        <time>2017-09-24T12:46:12Z</time>
      </trkpt>
      <trkpt lat="43.48058" lon="1.54984">
        <ele>159</ele>
        <time>2017-09-24T12:46:16Z</time>
      </trkpt>
      <trkpt lat="43.48037" lon="1.55012">
        <ele>159</ele>
        <time>2017-09-24T12:46:20Z</time>
      </trkpt>
      <trkpt lat="43.48014" lon="1.55037">
        <ele>159</ele>
        <time>2017-09-24T12:46:24Z</time>
      </trkpt>
      <trkpt lat="43.47988" lon="1.55057">
        <ele>159</ele>
        <time>2017-09-24T12:46:28Z</time>
      </trkpt>
      <trkpt lat="43.47964" lon="1.55071">
        <ele>160</ele>
        <time>2017-09-24T12:46:32Z</time>
      </trkpt>
      <trkpt lat="43.47938" lon="1.55089">
        <ele>159</ele>
        <time>2017-09-24T12:46:36Z</time>
      </trkpt>
      <trkpt lat="43.47911" lon="1.55107">
        <ele>158</ele>
        <time>2017-09-24T12:46:40Z</time>
      </trkpt>
      <trkpt lat="43.47885" lon="1.55126">
        <ele>159</ele>
        <time>2017-09-24T12:46:44Z</time>
      </trkpt>
      <trkpt lat="43.47863" lon="1.55146">
        <ele>159</ele>
        <time>2017-09-24T12:46:48Z</time>
      </trkpt>
      <trkpt lat="43.47845" lon="1.55165">
        <ele>159</ele>
        <time>2017-09-24T12:46:52Z</time>
      </trkpt>
      <trkpt lat="43.47827" lon="1.55188">
        <ele>159</ele>
        <time>2017-09-24T12:46:56Z</time>
      </trkpt>
      <trkpt lat="43.47804" lon="1.55221">
        <ele>159</ele>
        <time>2017-09-24T12:47:00Z</time>
      </trkpt>
      <trkpt lat="43.47778" lon="1.5525">
        <ele>158</ele>
        <time>2017-09-24T12:47:04Z</time>
      </trkpt>
      <trkpt lat="43.47766" lon="1.55268">
        <ele>159</ele>
        <time>2017-09-24T12:47:08Z</time>
      </trkpt>
      <trkpt lat="43.47746" lon="1.5529">
        <ele>158</ele>
        <time>2017-09-24T12:47:12Z</time>
      </trkpt>
      <trkpt lat="43.47722" lon="1.55318">
        <ele>158</ele>
        <time>2017-09-24T12:47:16Z</time>
      </trkpt>
      <trkpt lat="43.47697" lon="1.55343">
        <ele>158</ele>
        <time>2017-09-24T12:47:20Z</time>
      </trkpt>
      <trkpt lat="43.47679" lon="1.55359">
        <ele>158</ele>
        <time>2017-09-24T12:47:24Z</time>
      </trkpt>
      <trkpt lat="43.47661" lon="1.55374">
        <ele>159</ele>
        <time>2017-09-24T12:47:28Z</time>
      </trkpt>
      <trkpt lat="43.47642" lon="1.55389">
        <ele>159</ele>
        <time>2017-09-24T12:47:32Z</time>
      </trkpt>
      <trkpt lat="43.47624" lon="1.55402">
        <ele>157</ele>
        <time>2017-09-24T12:47:36Z</time>
      </trkpt>
      <trkpt lat="43.476" lon="1.5542">
        <ele>159</ele>
        <time>2017-09-24T12:47:40Z</time>
      </trkpt>
      <trkpt lat="43.47578" lon="1.55441">
        <ele>160</ele>
        <time>2017-09-24T12:47:44Z</time>
      </trkpt>
      <trkpt lat="43.47554" lon="1.55463">
        <ele>160</ele>
        <time>2017-09-24T12:47:48Z</time>
      </trkpt>
      <trkpt lat="43.47531" lon="1.55487">
        <ele>159</ele>
        <time>2017-09-24T12:47:52Z</time>
      </trkpt>
      <trkpt lat="43.47507" lon="1.55514">
        <ele>159</ele>
        <time>2017-09-24T12:47:56Z</time>
      </trkpt>
      <trkpt lat="43.47481" lon="1.55539">
        <ele>159</ele>
        <time>2017-09-24T12:48:00Z</time>
      </trkpt>
      <trkpt lat="43.47454" lon="1.55566">
        <ele>159</ele>
        <time>2017-09-24T12:48:04Z</time>
      </trkpt>
      <trkpt lat="43.47423" lon="1.55591">
        <ele>159</ele>
        <time>2017-09-24T12:48:08Z</time>
      </trkpt>
      <trkpt lat="43.47392" lon="1.55602">
        <ele>159</ele>
        <time>2017-09-24T12:48:12Z</time>
      </trkpt>
      <trkpt lat="43.47362" lon="1.55618">
        <ele>159</ele>
        <time>2017-09-24T12:48:16Z</time>
      </trkpt>
      <trkpt lat="43.47332" lon="1.5563">
        <ele>159</ele>
        <time>2017-09-24T12:48:20Z</time>
      </trkpt>
      <trkpt lat="43.47304" lon="1.55643">
        <ele>159</ele>
        <time>2017-09-24T12:48:24Z</time>
      </trkpt>
      <trkpt lat="43.47274" lon="1.55659">
        <ele>159</ele>
        <time>2017-09-24T12:48:28Z</time>
      </trkpt>
      <trkpt lat="43.47246" lon="1.5567">
        <ele>159</ele>
        <time>2017-09-24T12:48:32Z</time>
      </trkpt>
      <trkpt lat="43.47219" lon="1.55678">
        <ele>159</ele>
        <time>2017-09-24T12:48:36Z</time>
      </trkpt>
      <trkpt lat="43.47193" lon="1.55683">
        <ele>159</ele>
        <time>2017-09-24T12:48:40Z</time>
      </trkpt>
      <trkpt lat="43.47166" lon="1.55684">
        <ele>159</ele>
        <time>2017-09-24T12:48:44Z</time>
      </trkpt>
      <trkpt lat="43.47139" lon="1.55684">
        <ele>159</ele>
        <time>2017-09-24T12:48:48Z</time>
      </trkpt>
      <trkpt lat="43.47107" lon="1.55691">
        <ele>159</ele>
        <time>2017-09-24T12:48:52Z</time>
      </trkpt>
      <trkpt lat="43.47077" lon="1.55706">
        <ele>159</ele>
        <time>2017-09-24T12:48:56Z</time>
      </trkpt>
      <trkpt lat="43.47045" lon="1.55726">
        <ele>159</ele>
        <time>2017-09-24T12:49:00Z</time>
      </trkpt>
      <trkpt lat="43.47018" lon="1.55751">
        <ele>159</ele>
        <time>2017-09-24T12:49:04Z</time>
      </trkpt>
      <trkpt lat="43.46996" lon="1.55778">
        <ele>160</ele>
        <time>2017-09-24T12:49:08Z</time>
      </trkpt>
      <trkpt lat="43.46974" lon="1.55806">
        <ele>159</ele>
        <time>2017-09-24T12:49:12Z</time>
      </trkpt>
      <trkpt lat="43.46955" lon="1.55836">
        <ele>159</ele>
        <time>2017-09-24T12:49:16Z</time>
      </trkpt>
      <trkpt lat="43.46938" lon="1.5587">
        <ele>160</ele>
        <time>2017-09-24T12:49:20Z</time>
      </trkpt>
      <trkpt lat="43.4692" lon="1.55907">
        <ele>160</ele>
        <time>2017-09-24T12:49:24Z</time>
      </trkpt>
      <trkpt lat="43.46903" lon="1.55942">
        <ele>160</ele>
        <time>2017-09-24T12:49:28Z</time>
      </trkpt>
      <trkpt lat="43.46886" lon="1.5598">
        <ele>160</ele>
        <time>2017-09-24T12:49:32Z</time>
      </trkpt>
      <trkpt lat="43.4687" lon="1.56015">
        <ele>160</ele>
        <time>2017-09-24T12:49:36Z</time>
      </trkpt>
      <trkpt lat="43.46852" lon="1.56051">
        <ele>160</ele>
        <time>2017-09-24T12:49:40Z</time>
      </trkpt>
      <trkpt lat="43.4683" lon="1.56092">
        <ele>161</ele>
        <time>2017-09-24T12:49:44Z</time>
      </trkpt>
      <trkpt lat="43.4681" lon="1.56136">
        <ele>161</ele>
        <time>2017-09-24T12:49:48Z</time>
      </trkpt>
      <trkpt lat="43.46791" lon="1.56176">
        <ele>161</ele>
        <time>2017-09-24T12:49:52Z</time>
      </trkpt>
      <trkpt lat="43.46773" lon="1.56214">
        <ele>160</ele>
        <time>2017-09-24T12:49:56Z</time>
      </trkpt>
      <trkpt lat="43.46757" lon="1.5625">
        <ele>160</ele>
        <time>2017-09-24T12:50:00Z</time>
      </trkpt>
      <trkpt lat="43.46739" lon="1.56287">
        <ele>160</ele>
        <time>2017-09-24T12:50:04Z</time>
      </trkpt>
      <trkpt lat="43.46724" lon="1.56326">
        <ele>160</ele>
        <time>2017-09-24T12:50:08Z</time>
      </trkpt>
      <trkpt lat="43.46708" lon="1.56363">
        <ele>161</ele>
        <time>2017-09-24T12:50:12Z</time>
      </trkpt>
      <trkpt lat="43.46693" lon="1.56394">
        <ele>161</ele>
        <time>2017-09-24T12:50:16Z</time>
      </trkpt>
      <trkpt lat="43.4668" lon="1.56427">
        <ele>161</ele>
        <time>2017-09-24T12:50:20Z</time>
      </trkpt>
      <trkpt lat="43.46665" lon="1.56469">
        <ele>161</ele>
        <time>2017-09-24T12:50:24Z</time>
      </trkpt>
      <trkpt lat="43.46651" lon="1.56505">
        <ele>161</ele>
        <time>2017-09-24T12:50:28Z</time>
      </trkpt>
      <trkpt lat="43.46636" lon="1.56544">
        <ele>161</ele>
        <time>2017-09-24T12:50:32Z</time>
      </trkpt>
      <trkpt lat="43.46624" lon="1.5658">
        <ele>161</ele>
        <time>2017-09-24T12:50:36Z</time>
      </trkpt>
      <trkpt lat="43.46611" lon="1.56617">
        <ele>161</ele>
        <time>2017-09-24T12:50:40Z</time>
      </trkpt>
      <trkpt lat="43.46597" lon="1.56651">
        <ele>161</ele>
        <time>2017-09-24T12:50:44Z</time>
      </trkpt>
      <trkpt lat="43.46584" lon="1.56681">
        <ele>161</ele>
        <time>2017-09-24T12:50:48Z</time>
      </trkpt>
      <trkpt lat="43.46567" lon="1.56714">
        <ele>161</ele>
        <time>2017-09-24T12:50:52Z</time>
      </trkpt>
      <trkpt lat="43.46552" lon="1.56746">
        <ele>161</ele>
        <time>2017-09-24T12:50:56Z</time>
      </trkpt>
      <trkpt lat="43.46536" lon="1.56776">
        <ele>161</ele>
        <time>2017-09-24T12:51:00Z</time>
      </trkpt>
      <trkpt lat="43.46518" lon="1.56809">
        <ele>162</ele>
        <time>2017-09-24T12:51:04Z</time>
      </trkpt>
      <trkpt lat="43.46501" lon="1.5684">
        <ele>162</ele>
        <time>2017-09-24T12:51:08Z</time>
      </trkpt>
      <trkpt lat="43.46485" lon="1.56875">
        <ele>162</ele>
        <time>2017-09-24T12:51:12Z</time>
      </trkpt>
      <trkpt lat="43.46468" lon="1.56907">
        <ele>162</ele>
        <time>2017-09-24T12:51:16Z</time>
      </trkpt>
      <trkpt lat="43.46456" lon="1.56932">
        <ele>163</ele>
        <time>2017-09-24T12:51:20Z</time>
      </trkpt>
      <trkpt lat="43.46443" lon="1.56955">
        <ele>162</ele>
        <time>2017-09-24T12:51:24Z</time>
      </trkpt>
      <trkpt lat="43.46421" lon="1.5698">
        <ele>162</ele>
        <time>2017-09-24T12:51:28Z</time>
      </trkpt>
      <trkpt lat="43.46396" lon="1.57006">
        <ele>161</ele>
        <time>2017-09-24T12:51:32Z</time>
      </trkpt>
      <trkpt lat="43.46372" lon="1.57031">
        <ele>161</ele>
        <time>2017-09-24T12:51:36Z</time>
      </trkpt>
      <trkpt lat="43.46348" lon="1.57053">
        <ele>161</ele>
        <time>2017-09-24T12:51:40Z</time>
      </trkpt>
      <trkpt lat="43.46325" lon="1.57071">
        <ele>162</ele>
        <time>2017-09-24T12:51:44Z</time>
      </trkpt>
      <trkpt lat="43.46304" lon="1.57081">
        <ele>162</ele>
        <time>2017-09-24T12:51:48Z</time>
      </trkpt>
      <trkpt lat="43.46291" lon="1.57088">
        <ele>162</ele>
        <time>2017-09-24T12:51:52Z</time>
      </trkpt>
      <trkpt lat="43.46274" lon="1.57102">
        <ele>162</ele>
        <time>2017-09-24T12:51:56Z</time>
      </trkpt>
      <trkpt lat="43.46254" lon="1.57119">
        <ele>162</ele>
        <time>2017-09-24T12:52:00Z</time>
      </trkpt>
      <trkpt lat="43.46235" lon="1.57136">
        <ele>163</ele>
        <time>2017-09-24T12:52:04Z</time>
      </trkpt>
      <trkpt lat="43.46218" lon="1.57151">
        <ele>164</ele>
        <time>2017-09-24T12:52:08Z</time>
      </trkpt>
      <trkpt lat="43.46207" lon="1.57163">
        <ele>165</ele>
        <time>2017-09-24T12:52:12Z</time>
      </trkpt>
      <trkpt lat="43.46193" lon="1.57183">
        <ele>165</ele>
        <time>2017-09-24T12:52:16Z</time>
      </trkpt>
      <trkpt lat="43.46174" lon="1.57204">
        <ele>165</ele>
        <time>2017-09-24T12:52:20Z</time>
      </trkpt>
      <trkpt lat="43.46156" lon="1.57229">
        <ele>165</ele>
        <time>2017-09-24T12:52:24Z</time>
      </trkpt>
      <trkpt lat="43.46137" lon="1.5726">
        <ele>165</ele>
        <time>2017-09-24T12:52:28Z</time>
      </trkpt>
      <trkpt lat="43.46119" lon="1.57287">
        <ele>165</ele>
        <time>2017-09-24T12:52:32Z</time>
      </trkpt>
      <trkpt lat="43.46104" lon="1.57309">
        <ele>165</ele>
        <time>2017-09-24T12:52:36Z</time>
      </trkpt>
      <trkpt lat="43.4609" lon="1.57334">
        <ele>165</ele>
        <time>2017-09-24T12:52:40Z</time>
      </trkpt>
      <trkpt lat="43.46073" lon="1.57366">
        <ele>165</ele>
        <time>2017-09-24T12:52:44Z</time>
      </trkpt>
      <trkpt lat="43.46054" lon="1.57402">
        <ele>165</ele>
        <time>2017-09-24T12:52:48Z</time>
      </trkpt>
      <trkpt lat="43.46036" lon="1.57439">
        <ele>164</ele>
        <time>2017-09-24T12:52:52Z</time>
      </trkpt>
      <trkpt lat="43.46016" lon="1.57478">
        <ele>165</ele>
        <time>2017-09-24T12:52:56Z</time>
      </trkpt>
      <trkpt lat="43.45994" lon="1.57523">
        <ele>164</ele>
        <time>2017-09-24T12:53:00Z</time>
      </trkpt>
      <trkpt lat="43.45974" lon="1.57563">
        <ele>165</ele>
        <time>2017-09-24T12:53:04Z</time>
      </trkpt>
      <trkpt lat="43.45954" lon="1.576">
        <ele>164</ele>
        <time>2017-09-24T12:53:08Z</time>
      </trkpt>
      <trkpt lat="43.45934" lon="1.5764">
        <ele>164</ele>
        <time>2017-09-24T12:53:12Z</time>
      </trkpt>
      <trkpt lat="43.45916" lon="1.57678">
        <ele>165</ele>
        <time>2017-09-24T12:53:16Z</time>
      </trkpt>
      <trkpt lat="43.45901" lon="1.57711">
        <ele>165</ele>
        <time>2017-09-24T12:53:20Z</time>
      </trkpt>
      <trkpt lat="43.45889" lon="1.57742">
        <ele>165</ele>
        <time>2017-09-24T12:53:24Z</time>
      </trkpt>
      <trkpt lat="43.45878" lon="1.5777">
        <ele>166</ele>
        <time>2017-09-24T12:53:28Z</time>
      </trkpt>
      <trkpt lat="43.45866" lon="1.57812">
        <ele>166</ele>
        <time>2017-09-24T12:53:32Z</time>
      </trkpt>
      <trkpt lat="43.45852" lon="1.57853">
        <ele>166</ele>
        <time>2017-09-24T12:53:36Z</time>
      </trkpt>
      <trkpt lat="43.45838" lon="1.57889">
        <ele>166</ele>
        <time>2017-09-24T12:53:40Z</time>
      </trkpt>
      <trkpt lat="43.45823" lon="1.57927">
        <ele>164</ele>
        <time>2017-09-24T12:53:44Z</time>
      </trkpt>
      <trkpt lat="43.45805" lon="1.5797">
        <ele>164</ele>
        <time>2017-09-24T12:53:48Z</time>
      </trkpt>
      <trkpt lat="43.45785" lon="1.58009">
        <ele>164</ele>
        <time>2017-09-24T12:53:52Z</time>
      </trkpt>
      <trkpt lat="43.45765" lon="1.58044">
        <ele>164</ele>
        <time>2017-09-24T12:53:56Z</time>
      </trkpt>
      <trkpt lat="43.45744" lon="1.58076">
        <ele>163</ele>
        <time>2017-09-24T12:54:00Z</time>
      </trkpt>
      <trkpt lat="43.45723" lon="1.58104">
        <ele>164</ele>
        <time>2017-09-24T12:54:04Z</time>
      </trkpt>
      <trkpt lat="43.45702" lon="1.58134">
        <ele>164</ele>
        <time>2017-09-24T12:54:08Z</time>
      </trkpt>
      <trkpt lat="43.45684" lon="1.58165">
        <ele>165</ele>
        <time>2017-09-24T12:54:12Z</time>
      </trkpt>
      <trkpt lat="43.45663" lon="1.58194">
        <ele>164</ele>
        <time>2017-09-24T12:54:16Z</time>
      </trkpt>
      <trkpt lat="43.45642" lon="1.58225">
        <ele>164</ele>
        <time>2017-09-24T12:54:20Z</time>
      </trkpt>
      <trkpt lat="43.45621" lon="1.58252">
        <ele>164</ele>
        <time>2017-09-24T12:54:24Z</time>
      </trkpt>
      <trkpt lat="43.45604" lon="1.58286">
        <ele>164</ele>
        <time>2017-09-24T12:54:28Z</time>
      </trkpt>
      <trkpt lat="43.45591" lon="1.5832">
        <ele>164</ele>
        <time>2017-09-24T12:54:32Z</time>
      </trkpt>
      <trkpt lat="43.45582" lon="1.58358">
        <ele>164</ele>
        <time>2017-09-24T12:54:36Z</time>
      </trkpt>
      <trkpt lat="43.45575" lon="1.58399">
        <ele>164</ele>
        <time>2017-09-24T12:54:40Z</time>
      </trkpt>
      <trkpt lat="43.4557" lon="1.5844">
        <ele>164</ele>
        <time>2017-09-24T12:54:44Z</time>
      </trkpt>
      <trkpt lat="43.45568" lon="1.58477">
        <ele>164</ele>
        <time>2017-09-24T12:54:48Z</time>
      </trkpt>
      <trkpt lat="43.45567" lon="1.58518">
        <ele>164</ele>
        <time>2017-09-24T12:54:52Z</time>
      </trkpt>
      <trkpt lat="43.45567" lon="1.58554">
        <ele>164</ele>
        <time>2017-09-24T12:54:56Z</time>
      </trkpt>
      <trkpt lat="43.45567" lon="1.58595">
        <ele>164</ele>
        <time>2017-09-24T12:55:00Z</time>
      </trkpt>
      <trkpt lat="43.45568" lon="1.58637">
        <ele>164</ele>
        <time>2017-09-24T12:55:04Z</time>
      </trkpt>
      <trkpt lat="43.45569" lon="1.58677">
        <ele>164</ele>
        <time>2017-09-24T12:55:08Z</time>
      </trkpt>
      <trkpt lat="43.45573" lon="1.5871">
        <ele>164</ele>
        <time>2017-09-24T12:55:12Z</time>
      </trkpt>
      <trkpt lat="43.45575" lon="1.58746">
        <ele>164</ele>
        <time>2017-09-24T12:55:16Z</time>
      </trkpt>
      <trkpt lat="43.45576" lon="1.58785">
        <ele>164</ele>
        <time>2017-09-24T12:55:20Z</time>
      </trkpt>
      <trkpt lat="43.45577" lon="1.5882">
        <ele>164</ele>
        <time>2017-09-24T12:55:24Z</time>
      </trkpt>
      <trkpt lat="43.45577" lon="1.58865">
        <ele>164</ele>
        <time>2017-09-24T12:55:28Z</time>
      </trkpt>
      <trkpt lat="43.45576" lon="1.58907">
        <ele>164</ele>
        <time>2017-09-24T12:55:32Z</time>
      </trkpt>
      <trkpt lat="43.45574" lon="1.58947">
        <ele>164</ele>
        <time>2017-09-24T12:55:36Z</time>
      </trkpt>
      <trkpt lat="43.45571" lon="1.58989">
        <ele>163</ele>
        <time>2017-09-24T12:55:40Z</time>
      </trkpt>
      <trkpt lat="43.45568" lon="1.59032">
        <ele>164</ele>
        <time>2017-09-24T12:55:44Z</time>
      </trkpt>
      <trkpt lat="43.45567" lon="1.59074">
        <ele>164</ele>
        <time>2017-09-24T12:55:48Z</time>
      </trkpt>
      <trkpt lat="43.45564" lon="1.59106">
        <ele>165</ele>
        <time>2017-09-24T12:55:52Z</time>
      </trkpt>
      <trkpt lat="43.45555" lon="1.59142">
        <ele>164</ele>
        <time>2017-09-24T12:55:56Z</time>
      </trkpt>
      <trkpt lat="43.45545" lon="1.59181">
        <ele>163</ele>
        <time>2017-09-24T12:56:00Z</time>
      </trkpt>
      <trkpt lat="43.4553" lon="1.59215">
        <ele>163</ele>
        <time>2017-09-24T12:56:04Z</time>
      </trkpt>
      <trkpt lat="43.45511" lon="1.59247">
        <ele>163</ele>
        <time>2017-09-24T12:56:08Z</time>
      </trkpt>
      <trkpt lat="43.45488" lon="1.59276">
        <ele>163</ele>
        <time>2017-09-24T12:56:12Z</time>
      </trkpt>
      <trkpt lat="43.45462" lon="1.59294">
        <ele>164</ele>
        <time>2017-09-24T12:56:16Z</time>
      </trkpt>
      <trkpt lat="43.45434" lon="1.59302">
        <ele>164</ele>
        <time>2017-09-24T12:56:20Z</time>
      </trkpt>
      <trkpt lat="43.45408" lon="1.59307">
        <ele>163</ele>
        <time>2017-09-24T12:56:24Z</time>
      </trkpt>
      <trkpt lat="43.45379" lon="1.59316">
        <ele>163</ele>
        <time>2017-09-24T12:56:28Z</time>
      </trkpt>
      <trkpt lat="43.45352" lon="1.59327">
        <ele>163</ele>
        <time>2017-09-24T12:56:32Z</time>
      </trkpt>
      <trkpt lat="43.45326" lon="1.59335">
        <ele>163</ele>
        <time>2017-09-24T12:56:36Z</time>
      </trkpt>
      <trkpt lat="43.45298" lon="1.59347">
        <ele>163</ele>
        <time>2017-09-24T12:56:40Z</time>
      </trkpt>
      <trkpt lat="43.45272" lon="1.59357">
        <ele>163</ele>
        <time>2017-09-24T12:56:44Z</time>
      </trkpt>
      <trkpt lat="43.45246" lon="1.59376">
        <ele>163</ele>
        <time>2017-09-24T12:56:48Z</time>
      </trkpt>
      <trkpt lat="43.4522" lon="1.59398">
        <ele>163</ele>
        <time>2017-09-24T12:56:52Z</time>
      </trkpt>
      <trkpt lat="43.45196" lon="1.59425">
        <ele>163</ele>
        <time>2017-09-24T12:56:56Z</time>
      </trkpt>
      <trkpt lat="43.45171" lon="1.59454">
        <ele>163</ele>
        <time>2017-09-24T12:57:00Z</time>
      </trkpt>
      <trkpt lat="43.4515" lon="1.59478">
        <ele>164</ele>
        <time>2017-09-24T12:57:04Z</time>
      </trkpt>
      <trkpt lat="43.45131" lon="1.59513">
        <ele>164</ele>
        <time>2017-09-24T12:57:08Z</time>
      </trkpt>
      <trkpt lat="43.45115" lon="1.59553">
        <ele>164</ele>
        <time>2017-09-24T12:57:12Z</time>
      </trkpt>
      <trkpt lat="43.45102" lon="1.59592">
        <ele>164</ele>
        <time>2017-09-24T12:57:16Z</time>
      </trkpt>
      <trkpt lat="43.45089" lon="1.59626">
        <ele>163</ele>
        <time>2017-09-24T12:57:20Z</time>
      </trkpt>
      <trkpt lat="43.45077" lon="1.59654">
        <ele>164</ele>
        <time>2017-09-24T12:57:24Z</time>
      </trkpt>
      <trkpt lat="43.45062" lon="1.59692">
        <ele>164</ele>
        <time>2017-09-24T12:57:28Z</time>
      </trkpt>
      <trkpt lat="43.45045" lon="1.59724">
        <ele>164</ele>
        <time>2017-09-24T12:57:32Z</time>
      </trkpt>
      <trkpt lat="43.45028" lon="1.59754">
        <ele>164</ele>
        <time>2017-09-24T12:57:36Z</time>
      </trkpt>
      <trkpt lat="43.45013" lon="1.59783">
        <ele>164</ele>
        <time>2017-09-24T12:57:40Z</time>
      </trkpt>
      <trkpt lat="43.44997" lon="1.59807">
        <ele>165</ele>
        <time>2017-09-24T12:57:44Z</time>
      </trkpt>
      <trkpt lat="43.44978" lon="1.59828">
        <ele>166</ele>
        <time>2017-09-24T12:57:48Z</time>
      </trkpt>
      <trkpt lat="43.4496" lon="1.59845">
        <ele>166</ele>
        <time>2017-09-24T12:57:52Z</time>
      </trkpt>
      <trkpt lat="43.44935" lon="1.59858">
        <ele>166</ele>
        <time>2017-09-24T12:57:56Z</time>
      </trkpt>
      <trkpt lat="43.44909" lon="1.59869">
        <ele>165</ele>
        <time>2017-09-24T12:58:00Z</time>
      </trkpt>
      <trkpt lat="43.44886" lon="1.59875">
        <ele>165</ele>
        <time>2017-09-24T12:58:04Z</time>
      </trkpt>
      <trkpt lat="43.44857" lon="1.59883">
        <ele>165</ele>
        <time>2017-09-24T12:58:08Z</time>
      </trkpt>
      <trkpt lat="43.44831" lon="1.59891">
        <ele>165</ele>
        <time>2017-09-24T12:58:12Z</time>
      </trkpt>
      <trkpt lat="43.44804" lon="1.59897">
        <ele>164</ele>
        <time>2017-09-24T12:58:16Z</time>
      </trkpt>
      <trkpt lat="43.44772" lon="1.599">
        <ele>163</ele>
        <time>2017-09-24T12:58:20Z</time>
      </trkpt>
      <trkpt lat="43.44739" lon="1.59912">
        <ele>165</ele>
        <time>2017-09-24T12:58:24Z</time>
      </trkpt>
      <trkpt lat="43.44714" lon="1.59916">
        <ele>167</ele>
        <time>2017-09-24T12:58:28Z</time>
      </trkpt>
      <trkpt lat="43.44694" lon="1.59922">
        <ele>166</ele>
        <time>2017-09-24T12:58:32Z</time>
      </trkpt>
      <trkpt lat="43.4467" lon="1.59932">
        <ele>167</ele>
        <time>2017-09-24T12:58:36Z</time>
      </trkpt>
      <trkpt lat="43.44648" lon="1.5994">
        <ele>166</ele>
        <time>2017-09-24T12:58:40Z</time>
      </trkpt>
      <trkpt lat="43.44627" lon="1.59948">
        <ele>166</ele>
        <time>2017-09-24T12:58:44Z</time>
      </trkpt>
      <trkpt lat="43.44605" lon="1.59964">
        <ele>166</ele>
        <time>2017-09-24T12:58:48Z</time>
      </trkpt>
      <trkpt lat="43.44585" lon="1.59988">
        <ele>166</ele>
        <time>2017-09-24T12:58:52Z</time>
      </trkpt>
      <trkpt lat="43.44566" lon="1.60014">
        <ele>167</ele>
        <time>2017-09-24T12:58:56Z</time>
      </trkpt>
      <trkpt lat="43.44552" lon="1.6004">
        <ele>166</ele>
        <time>2017-09-24T12:59:00Z</time>
      </trkpt>
      <trkpt lat="43.44539" lon="1.60072">
        <ele>167</ele>
        <time>2017-09-24T12:59:04Z</time>
      </trkpt>
      <trkpt lat="43.4453" lon="1.6011">
        <ele>166</ele>
        <time>2017-09-24T12:59:08Z</time>
      </trkpt>
      <trkpt lat="43.44533" lon="1.60149">
        <ele>167</ele>
        <time>2017-09-24T12:59:12Z</time>
      </trkpt>
      <trkpt lat="43.44533" lon="1.60185">
        <ele>168</ele>
        <time>2017-09-24T12:59:16Z</time>
      </trkpt>
      <trkpt lat="43.44539" lon="1.60222">
        <ele>168</ele>
        <time>2017-09-24T12:59:20Z</time>
      </trkpt>
      <trkpt lat="43.44545" lon="1.60262">
        <ele>168</ele>
        <time>2017-09-24T12:59:24Z</time>
      </trkpt>
      <trkpt lat="43.44552" lon="1.603">
        <ele>168</ele>
        <time>2017-09-24T12:59:28Z</time>
      </trkpt>
      <trkpt lat="43.4456" lon="1.60338">
        <ele>169</ele>
        <time>2017-09-24T12:59:32Z</time>
      </trkpt>
      <trkpt lat="43.44564" lon="1.60376">
        <ele>169</ele>
        <time>2017-09-24T12:59:36Z</time>
      </trkpt>
      <trkpt lat="43.44565" lon="1.60414">
        <ele>169</ele>
        <time>2017-09-24T12:59:40Z</time>
      </trkpt>
      <trkpt lat="43.44562" lon="1.60451">
        <ele>168</ele>
        <time>2017-09-24T12:59:44Z</time>
      </trkpt>
      <trkpt lat="43.44553" lon="1.60491">
        <ele>168</ele>
        <time>2017-09-24T12:59:48Z</time>
      </trkpt>
      <trkpt lat="43.44537" lon="1.60526">
        <ele>168</ele>
        <time>2017-09-24T12:59:52Z</time>
      </trkpt>
      <trkpt lat="43.44518" lon="1.60556">
        <ele>168</ele>
        <time>2017-09-24T12:59:56Z</time>
      </trkpt>
      <trkpt lat="43.44498" lon="1.6058">
        <ele>168</ele>
        <time>2017-09-24T13:00:00Z</time>
      </trkpt>
      <trkpt lat="43.44477" lon="1.60606">
        <ele>169</ele>
        <time>2017-09-24T13:00:04Z</time>
      </trkpt>
      <trkpt lat="43.44457" lon="1.6063">
        <ele>169</ele>
        <time>2017-09-24T13:00:08Z</time>
      </trkpt>
      <trkpt lat="43.44439" lon="1.60652">
        <ele>169</ele>
        <time>2017-09-24T13:00:12Z</time>
      </trkpt>
      <trkpt lat="43.4442" lon="1.60677">
        <ele>169</ele>
        <time>2017-09-24T13:00:16Z</time>
      </trkpt>
      <trkpt lat="43.44401" lon="1.60699">
        <ele>169</ele>
        <time>2017-09-24T13:00:20Z</time>
      </trkpt>
      <trkpt lat="43.44381" lon="1.60715">
        <ele>169</ele>
        <time>2017-09-24T13:00:24Z</time>
      </trkpt>
      <trkpt lat="43.44358" lon="1.60728">
        <ele>169</ele>
        <time>2017-09-24T13:00:28Z</time>
      </trkpt>
      <trkpt lat="43.44333" lon="1.60745">
        <ele>169</ele>
        <time>2017-09-24T13:00:32Z</time>
      </trkpt>
      <trkpt lat="43.4431" lon="1.60761">
        <ele>169</ele>
        <time>2017-09-24T13:00:36Z</time>
      </trkpt>
      <trkpt lat="43.44288" lon="1.60777">
        <ele>168</ele>
        <time>2017-09-24T13:00:40Z</time>
      </trkpt>
      <trkpt lat="43.44268" lon="1.60802">
        <ele>168</ele>
        <time>2017-09-24T13:00:44Z</time>
      </trkpt>
      <trkpt lat="43.44247" lon="1.60831">
        <ele>168</ele>
        <time>2017-09-24T13:00:48Z</time>
      </trkpt>
      <trkpt lat="43.44226" lon="1.6086">
        <ele>168</ele>
        <time>2017-09-24T13:00:52Z</time>
      </trkpt>
      <trkpt lat="43.44206" lon="1.6089">
        <ele>168</ele>
        <time>2017-09-24T13:00:56Z</time>
      </trkpt>
      <trkpt lat="43.44188" lon="1.60923">
        <ele>168</ele>
        <time>2017-09-24T13:01:00Z</time>
      </trkpt>
      <trkpt lat="43.44171" lon="1.60955">
        <ele>168</ele>
        <time>2017-09-24T13:01:04Z</time>
      </trkpt>
      <trkpt lat="43.44158" lon="1.60989">
        <ele>168</ele>
        <time>2017-09-24T13:01:08Z</time>
      </trkpt>
      <trkpt lat="43.44146" lon="1.61025">
        <ele>169</ele>
        <time>2017-09-24T13:01:12Z</time>
      </trkpt>
      <trkpt lat="43.44134" lon="1.61058">
        <ele>169</ele>
        <time>2017-09-24T13:01:16Z</time>
      </trkpt>
      <trkpt lat="43.44124" lon="1.6109">
        <ele>169</ele>
        <time>2017-09-24T13:01:20Z</time>
      </trkpt>
      <trkpt lat="43.44113" lon="1.61119">
        <ele>169</ele>
        <time>2017-09-24T13:01:24Z</time>
      </trkpt>
      <trkpt lat="43.44099" lon="1.61149">
        <ele>169</ele>
        <time>2017-09-24T13:01:28Z</time>
      </trkpt>
      <trkpt lat="43.44082" lon="1.61173">
        <ele>169</ele>
        <time>2017-09-24T13:01:32Z</time>
      </trkpt>
      <trkpt lat="43.4406" lon="1.61197">
        <ele>169</ele>
        <time>2017-09-24T13:01:36Z</time>
      </trkpt>
      <trkpt lat="43.44037" lon="1.61217">
        <ele>169</ele>
        <time>2017-09-24T13:01:40Z</time>
      </trkpt>
      <trkpt lat="43.44012" lon="1.61235">
        <ele>169</ele>
        <time>2017-09-24T13:01:44Z</time>
      </trkpt>
      <trkpt lat="43.43987" lon="1.61242">
        <ele>169</ele>
        <time>2017-09-24T13:01:48Z</time>
      </trkpt>
      <trkpt lat="43.43968" lon="1.61249">
        <ele>170</ele>
        <time>2017-09-24T13:01:52Z</time>
      </trkpt>
      <trkpt lat="43.43949" lon="1.61256">
        <ele>170</ele>
        <time>2017-09-24T13:01:56Z</time>
      </trkpt>
      <trkpt lat="43.43929" lon="1.6127">
        <ele>170</ele>
        <time>2017-09-24T13:02:00Z</time>
      </trkpt>
      <trkpt lat="43.4391" lon="1.61288">
        <ele>170</ele>
        <time>2017-09-24T13:02:04Z</time>
      </trkpt>
      <trkpt lat="43.4389" lon="1.61297">
        <ele>170</ele>
        <time>2017-09-24T13:02:08Z</time>
      </trkpt>
      <trkpt lat="43.43869" lon="1.61311">
        <ele>170</ele>
        <time>2017-09-24T13:02:12Z</time>
      </trkpt>
      <trkpt lat="43.4385" lon="1.6133">
        <ele>170</ele>
        <time>2017-09-24T13:02:16Z</time>
      </trkpt>
      <trkpt lat="43.43832" lon="1.61352">
        <ele>171</ele>
        <time>2017-09-24T13:02:20Z</time>
      </trkpt>
      <trkpt lat="43.43814" lon="1.61375">
        <ele>171</ele>
        <time>2017-09-24T13:02:24Z</time>
      </trkpt>
      <trkpt lat="43.43797" lon="1.61396">
        <ele>171</ele>
        <time>2017-09-24T13:02:28Z</time>
      </trkpt>
      <trkpt lat="43.43778" lon="1.6142">
        <ele>171</ele>
        <time>2017-09-24T13:02:32Z</time>
      </trkpt>
      <trkpt lat="43.43761" lon="1.61444">
        <ele>171</ele>
        <time>2017-09-24T13:02:36Z</time>
      </trkpt>
      <trkpt lat="43.43743" lon="1.61471">
        <ele>170</ele>
        <time>2017-09-24T13:02:40Z</time>
      </trkpt>
      <trkpt lat="43.43722" lon="1.615">
        <ele>170</ele>
        <time>2017-09-24T13:02:44Z</time>
      </trkpt>
      <trkpt lat="43.43702" lon="1.61527">
        <ele>170</ele>
        <time>2017-09-24T13:02:48Z</time>
      </trkpt>
      <trkpt lat="43.43686" lon="1.61537">
        <ele>170</ele>
        <time>2017-09-24T13:02:52Z</time>
      </trkpt>
      <trkpt lat="43.43666" lon="1.61553">
        <ele>171</ele>
        <time>2017-09-24T13:02:56Z</time>
      </trkpt>
      <trkpt lat="43.43641" lon="1.61581">
        <ele>171</ele>
        <time>2017-09-24T13:03:00Z</time>
      </trkpt>
      <trkpt lat="43.43615" lon="1.61615">
        <ele>171</ele>
        <time>2017-09-24T13:03:04Z</time>
      </trkpt>
      <trkpt lat="43.43589" lon="1.61646">
        <ele>171</ele>
        <time>2017-09-24T13:03:08Z</time>
      </trkpt>
      <trkpt lat="43.43566" lon="1.61674">
        <ele>170</ele>
        <time>2017-09-24T13:03:12Z</time>
      </trkpt>
      <trkpt lat="43.43545" lon="1.617">
        <ele>171</ele>
        <time>2017-09-24T13:03:16Z</time>
      </trkpt>
      <trkpt lat="43.43526" lon="1.61729">
        <ele>171</ele>
        <time>2017-09-24T13:03:20Z</time>
      </trkpt>
      <trkpt lat="43.43507" lon="1.61758">
        <ele>171</ele>
        <time>2017-09-24T13:03:24Z</time>
      </trkpt>
      <trkpt lat="43.43488" lon="1.61788">
        <ele>171</ele>
        <time>2017-09-24T13:03:28Z</time>
      </trkpt>
      <trkpt lat="43.43469" lon="1.6182">
        <ele>171</ele>
        <time>2017-09-24T13:03:32Z</time>
      </trkpt>
      <trkpt lat="43.4345" lon="1.6185">
        <ele>171</ele>
        <time>2017-09-24T13:03:36Z</time>
      </trkpt>
      <trkpt lat="43.43426" lon="1.61883">
        <ele>170</ele>
        <time>2017-09-24T13:03:40Z</time>
      </trkpt>
      <trkpt lat="43.43405" lon="1.61912">
        <ele>170</ele>
        <time>2017-09-24T13:03:44Z</time>
      </trkpt>
      <trkpt lat="43.43386" lon="1.61936">
        <ele>170</ele>
        <time>2017-09-24T13:03:48Z</time>
      </trkpt>
      <trkpt lat="43.43363" lon="1.61961">
        <ele>170</ele>
        <time>2017-09-24T13:03:52Z</time>
      </trkpt>
      <trkpt lat="43.43338" lon="1.61987">
        <ele>170</ele>
        <time>2017-09-24T13:03:56Z</time>
      </trkpt>
      <trkpt lat="43.43314" lon="1.62011">
        <ele>170</ele>
        <time>2017-09-24T13:04:00Z</time>
      </trkpt>
      <trkpt lat="43.43291" lon="1.62035">
        <ele>170</ele>
        <time>2017-09-24T13:04:04Z</time>
      </trkpt>
      <trkpt lat="43.43263" lon="1.62057">
        <ele>170</ele>
        <time>2017-09-24T13:04:08Z</time>
      </trkpt>
      <trkpt lat="43.43237" lon="1.62071">
        <ele>170</ele>
        <time>2017-09-24T13:04:12Z</time>
      </trkpt>
      <trkpt lat="43.43209" lon="1.6208">
        <ele>170</ele>
        <time>2017-09-24T13:04:16Z</time>
      </trkpt>
      <trkpt lat="43.43182" lon="1.6208">
        <ele>171</ele>
        <time>2017-09-24T13:04:20Z</time>
      </trkpt>
      <trkpt lat="43.43154" lon="1.62078">
        <ele>171</ele>
        <time>2017-09-24T13:04:24Z</time>
      </trkpt>
      <trkpt lat="43.43127" lon="1.62072">
        <ele>171</ele>
        <time>2017-09-24T13:04:28Z</time>
      </trkpt>
      <trkpt lat="43.431" lon="1.6207">
        <ele>171</ele>
        <time>2017-09-24T13:04:32Z</time>
      </trkpt>
      <trkpt lat="43.43071" lon="1.62071">
        <ele>171</ele>
        <time>2017-09-24T13:04:36Z</time>
      </trkpt>
      <trkpt lat="43.43045" lon="1.62076">
        <ele>171</ele>
        <time>2017-09-24T13:04:40Z</time>
      </trkpt>
      <trkpt lat="43.4302" lon="1.6208">
        <ele>172</ele>
        <time>2017-09-24T13:04:44Z</time>
      </trkpt>
      <trkpt lat="43.42998" lon="1.6209">
        <ele>171</ele>
        <time>2017-09-24T13:04:48Z</time>
      </trkpt>
      <trkpt lat="43.42978" lon="1.62111">
        <ele>171</ele>
        <time>2017-09-24T13:04:52Z</time>
      </trkpt>
      <trkpt lat="43.42959" lon="1.62138">
        <ele>172</ele>
        <time>2017-09-24T13:04:56Z</time>
      </trkpt>
      <trkpt lat="43.42939" lon="1.62167">
        <ele>172</ele>
        <time>2017-09-24T13:05:00Z</time>
      </trkpt>
      <trkpt lat="43.42921" lon="1.62196">
        <ele>172</ele>
        <time>2017-09-24T13:05:04Z</time>
      </trkpt>
      <trkpt lat="43.42903" lon="1.62225">
        <ele>172</ele>
        <time>2017-09-24T13:05:08Z</time>
      </trkpt>
      <trkpt lat="43.42883" lon="1.6225">
        <ele>173</ele>
        <time>2017-09-24T13:05:12Z</time>
      </trkpt>
      <trkpt lat="43.42867" lon="1.62274">
        <ele>173</ele>
        <time>2017-09-24T13:05:16Z</time>
      </trkpt>
      <trkpt lat="43.42851" lon="1.62298">
        <ele>173</ele>
        <time>2017-09-24T13:05:20Z</time>
      </trkpt>
      <trkpt lat="43.42835" lon="1.62322">
        <ele>172</ele>
        <time>2017-09-24T13:05:24Z</time>
      </trkpt>
      <trkpt lat="43.42818" lon="1.62346">
        <ele>172</ele>
        <time>2017-09-24T13:05:28Z</time>
      </trkpt>
      <trkpt lat="43.42798" lon="1.62373">
        <ele>172</ele>
        <time>2017-09-24T13:05:32Z</time>
      </trkpt>
      <trkpt lat="43.42779" lon="1.62405">
        <ele>172</ele>
        <time>2017-09-24T13:05:36Z</time>
      </trkpt>
      <trkpt lat="43.42762" lon="1.62439">
        <ele>172</ele>
        <time>2017-09-24T13:05:40Z</time>
      </trkpt>
      <trkpt lat="43.42746" lon="1.62468">
        <ele>172</ele>
        <time>2017-09-24T13:05:44Z</time>
      </trkpt>
      <trkpt lat="43.42732" lon="1.62499">
        <ele>172</ele>
        <time>2017-09-24T13:05:48Z</time>
      </trkpt>
      <trkpt lat="43.42721" lon="1.62531">
        <ele>172</ele>
        <time>2017-09-24T13:05:52Z</time>
      </trkpt>
      <trkpt lat="43.42707" lon="1.62568">
        <ele>172</ele>
        <time>2017-09-24T13:05:56Z</time>
      </trkpt>
      <trkpt lat="43.42694" lon="1.62606">
        <ele>172</ele>
        <time>2017-09-24T13:06:00Z</time>
      </trkpt>
      <trkpt lat="43.42682" lon="1.62649">
        <ele>171</ele>
        <time>2017-09-24T13:06:04Z</time>
      </trkpt>
      <trkpt lat="43.4267" lon="1.62691">
        <ele>171</ele>
        <time>2017-09-24T13:06:08Z</time>
      </trkpt>
      <trkpt lat="43.42661" lon="1.62717">
        <ele>172</ele>
        <time>2017-09-24T13:06:12Z</time>
      </trkpt>
      <trkpt lat="43.4265" lon="1.6275">
        <ele>173</ele>
        <time>2017-09-24T13:06:16Z</time>
      </trkpt>
      <trkpt lat="43.4264" lon="1.62783">
        <ele>172</ele>
        <time>2017-09-24T13:06:20Z</time>
      </trkpt>
      <trkpt lat="43.4263" lon="1.62819">
        <ele>172</ele>
        <time>2017-09-24T13:06:24Z</time>
      </trkpt>
      <trkpt lat="43.42617" lon="1.62856">
        <ele>171</ele>
        <time>2017-09-24T13:06:28Z</time>
      </trkpt>
      <trkpt lat="43.42611" lon="1.62895">
        <ele>173</ele>
        <time>2017-09-24T13:06:32Z</time>
      </trkpt>
      <trkpt lat="43.42604" lon="1.62935">
        <ele>172</ele>
        <time>2017-09-24T13:06:36Z</time>
      </trkpt>
      <trkpt lat="43.42608" lon="1.62967">
        <ele>172</ele>
        <time>2017-09-24T13:06:40Z</time>
      </trkpt>
      <trkpt lat="43.42616" lon="1.63004">
        <ele>172</ele>
        <time>2017-09-24T13:06:44Z</time>
      </trkpt>
      <trkpt lat="43.42625" lon="1.63044">
        <ele>172</ele>
        <time>2017-09-24T13:06:48Z</time>
      </trkpt>
      <trkpt lat="43.4264" lon="1.63081">
        <ele>172</ele>
        <time>2017-09-24T13:06:52Z</time>
      </trkpt>
      <trkpt lat="43.42654" lon="1.63116">
        <ele>172</ele>
        <time>2017-09-24T13:06:56Z</time>
      </trkpt>
      <trkpt lat="43.42671" lon="1.6315">
        <ele>173</ele>
        <time>2017-09-24T13:07:00Z</time>
      </trkpt>
      <trkpt lat="43.42683" lon="1.6318">
        <ele>173</ele>
        <time>2017-09-24T13:07:04Z</time>
      </trkpt>
      <trkpt lat="43.42697" lon="1.63213">
        <ele>173</ele>
        <time>2017-09-24T13:07:08Z</time>
      </trkpt>
      <trkpt lat="43.42705" lon="1.63251">
        <ele>173</ele>
        <time>2017-09-24T13:07:12Z</time>
      </trkpt>
      <trkpt lat="43.42709" lon="1.63288">
        <ele>173</ele>
        <time>2017-09-24T13:07:16Z</time>
      </trkpt>
      <trkpt lat="43.42705" lon="1.63313">
        <ele>173</ele>
        <time>2017-09-24T13:07:20Z</time>
      </trkpt>
      <trkpt lat="43.42693" lon="1.63345">
        <ele>172</ele>
        <time>2017-09-24T13:07:24Z</time>
      </trkpt>
      <trkpt lat="43.42675" lon="1.63368">
        <ele>172</ele>
        <time>2017-09-24T13:07:28Z</time>
      </trkpt>
      <trkpt lat="43.42647" lon="1.63385">
        <ele>172</ele>
        <time>2017-09-24T13:07:32Z</time>
      </trkpt>
      <trkpt lat="43.42614" lon="1.63389">
        <ele>173</ele>
        <time>2017-09-24T13:07:36Z</time>
      </trkpt>
      <trkpt lat="43.42584" lon="1.63385">
        <ele>172</ele>
        <time>2017-09-24T13:07:40Z</time>
      </trkpt>
      <trkpt lat="43.42553" lon="1.63387">
        <ele>172</ele>
        <time>2017-09-24T13:07:44Z</time>
      </trkpt>
      <trkpt lat="43.42535" lon="1.63402">
        <ele>173</ele>
        <time>2017-09-24T13:07:48Z</time>
      </trkpt>
      <trkpt lat="43.42515" lon="1.63435">
        <ele>173</ele>
        <time>2017-09-24T13:07:52Z</time>
      </trkpt>
      <trkpt lat="43.42493" lon="1.63471">
        <ele>173</ele>
        <time>2017-09-24T13:07:56Z</time>
      </trkpt>
      <trkpt lat="43.42474" lon="1.63503">
        <ele>173</ele>
        <time>2017-09-24T13:08:00Z</time>
      </trkpt>
      <trkpt lat="43.42454" lon="1.63537">
        <ele>173</ele>
        <time>2017-09-24T13:08:04Z</time>
      </trkpt>
      <trkpt lat="43.42433" lon="1.63567">
        <ele>173</ele>
        <time>2017-09-24T13:08:08Z</time>
      </trkpt>
      <trkpt lat="43.42415" lon="1.63596">
        <ele>173</ele>
        <time>2017-09-24T13:08:12Z</time>
      </trkpt>
      <trkpt lat="43.42396" lon="1.63625">
        <ele>173</ele>
        <time>2017-09-24T13:08:16Z</time>
      </trkpt>
      <trkpt lat="43.42377" lon="1.63653">
        <ele>173</ele>
        <time>2017-09-24T13:08:20Z</time>
      </trkpt>
      <trkpt lat="43.42354" lon="1.63678">
        <ele>173</ele>
        <time>2017-09-24T13:08:24Z</time>
      </trkpt>
      <trkpt lat="43.42331" lon="1.63698">
        <ele>173</ele>
        <time>2017-09-24T13:08:28Z</time>
      </trkpt>
      <trkpt lat="43.42307" lon="1.6372">
        <ele>173</ele>
        <time>2017-09-24T13:08:32Z</time>
      </trkpt>
      <trkpt lat="43.42283" lon="1.63742">
        <ele>173</ele>
        <time>2017-09-24T13:08:36Z</time>
      </trkpt>
      <trkpt lat="43.42262" lon="1.63761">
        <ele>174</ele>
        <time>2017-09-24T13:08:40Z</time>
      </trkpt>
      <trkpt lat="43.42239" lon="1.63785">
        <ele>173</ele>
        <time>2017-09-24T13:08:44Z</time>
      </trkpt>
      <trkpt lat="43.42217" lon="1.6381">
        <ele>174</ele>
        <time>2017-09-24T13:08:48Z</time>
      </trkpt>
      <trkpt lat="43.42193" lon="1.63834">
        <ele>174</ele>
        <time>2017-09-24T13:08:52Z</time>
      </trkpt>
      <trkpt lat="43.42173" lon="1.63856">
        <ele>174</ele>
        <time>2017-09-24T13:08:56Z</time>
      </trkpt>
      <trkpt lat="43.42154" lon="1.63872">
        <ele>174</ele>
        <time>2017-09-24T13:09:00Z</time>
      </trkpt>
      <trkpt lat="43.42133" lon="1.63895">
        <ele>175</ele>
        <time>2017-09-24T13:09:04Z</time>
      </trkpt>
      <trkpt lat="43.4211" lon="1.63924">
        <ele>175</ele>
        <time>2017-09-24T13:09:08Z</time>
      </trkpt>
      <trkpt lat="43.42084" lon="1.6395">
        <ele>175</ele>
        <time>2017-09-24T13:09:12Z</time>
      </trkpt>
      <trkpt lat="43.42056" lon="1.63972">
        <ele>174</ele>
        <time>2017-09-24T13:09:16Z</time>
      </trkpt>
      <trkpt lat="43.42029" lon="1.63991">
        <ele>175</ele>
        <time>2017-09-24T13:09:20Z</time>
      </trkpt>
      <trkpt lat="43.42005" lon="1.64006">
        <ele>176</ele>
        <time>2017-09-24T13:09:24Z</time>
      </trkpt>
      <trkpt lat="43.41981" lon="1.64022">
        <ele>176</ele>
        <time>2017-09-24T13:09:28Z</time>
      </trkpt>
      <trkpt lat="43.41958" lon="1.64036">
        <ele>175</ele>
        <time>2017-09-24T13:09:32Z</time>
      </trkpt>
      <trkpt lat="43.41932" lon="1.64054">
        <ele>174</ele>
        <time>2017-09-24T13:09:36Z</time>
      </trkpt>
      <trkpt lat="43.41902" lon="1.64072">
        <ele>174</ele>
        <time>2017-09-24T13:09:40Z</time>
      </trkpt>
      <trkpt lat="43.41881" lon="1.64089">
        <ele>175</ele>
        <time>2017-09-24T13:09:44Z</time>
      </trkpt>
      <trkpt lat="43.41869" lon="1.64116">
        <ele>175</ele>
        <time>2017-09-24T13:09:48Z</time>
      </trkpt>
      <trkpt lat="43.41848" lon="1.64127">
        <ele>175</ele>
        <time>2017-09-24T13:09:52Z</time>
      </trkpt>
      <trkpt lat="43.41826" lon="1.64134">
        <ele>175</ele>
        <time>2017-09-24T13:09:56Z</time>
      </trkpt>
      <trkpt lat="43.41805" lon="1.64148">
        <ele>175</ele>
        <time>2017-09-24T13:10:00Z</time>
      </trkpt>
      <trkpt lat="43.41784" lon="1.64165">
        <ele>175</ele>
        <time>2017-09-24T13:10:04Z</time>
      </trkpt>
      <trkpt lat="43.41763" lon="1.6419">
        <ele>175</ele>
        <time>2017-09-24T13:10:08Z</time>
      </trkpt>
      <trkpt lat="43.41737" lon="1.6421">
        <ele>175</ele>
        <time>2017-09-24T13:10:12Z</time>
      </trkpt>
      <trkpt lat="43.41712" lon="1.64227">
        <ele>175</ele>
        <time>2017-09-24T13:10:16Z</time>
      </trkpt>
      <trkpt lat="43.4169" lon="1.64247">
        <ele>175</ele>
        <time>2017-09-24T13:10:20Z</time>
      </trkpt>
      <trkpt lat="43.41668" lon="1.64267">
        <ele>176</ele>
        <time>2017-09-24T13:10:24Z</time>
      </trkpt>
      <trkpt lat="43.41649" lon="1.64286">
        <ele>175</ele>
        <time>2017-09-24T13:10:28Z</time>
      </trkpt>
      <trkpt lat="43.41631" lon="1.6431">
        <ele>175</ele>
        <time>2017-09-24T13:10:32Z</time>
      </trkpt>
      <trkpt lat="43.41611" lon="1.64333">
        <ele>175</ele>
        <time>2017-09-24T13:10:36Z</time>
      </trkpt>
      <trkpt lat="43.41593" lon="1.64354">
        <ele>176</ele>
        <time>2017-09-24T13:10:40Z</time>
      </trkpt>
      <trkpt lat="43.41581" lon="1.64377">
        <ele>176</ele>
        <time>2017-09-24T13:10:44Z</time>
      </trkpt>
      <trkpt lat="43.41566" lon="1.64406">
        <ele>176</ele>
        <time>2017-09-24T13:10:48Z</time>
      </trkpt>
      <trkpt lat="43.41553" lon="1.64436">
        <ele>176</ele>
        <time>2017-09-24T13:10:52Z</time>
      </trkpt>
      <trkpt lat="43.41536" lon="1.64468">
        <ele>176</ele>
        <time>2017-09-24T13:10:56Z</time>
      </trkpt>
      <trkpt lat="43.41521" lon="1.645">
        <ele>176</ele>
        <time>2017-09-24T13:11:00Z</time>
      </trkpt>
      <trkpt lat="43.41507" lon="1.64528">
        <ele>176</ele>
        <time>2017-09-24T13:11:04Z</time>
      </trkpt>
      <trkpt lat="43.41493" lon="1.64555">
        <ele>176</ele>
        <time>2017-09-24T13:11:08Z</time>
      </trkpt>
      <trkpt lat="43.41476" lon="1.64586">
        <ele>176</ele>
        <time>2017-09-24T13:11:12Z</time>
      </trkpt>
      <trkpt lat="43.41458" lon="1.64615">
        <ele>176</ele>
        <time>2017-09-24T13:11:16Z</time>
      </trkpt>
      <trkpt lat="43.41441" lon="1.64637">
        <ele>176</ele>
        <time>2017-09-24T13:11:20Z</time>
      </trkpt>
      <trkpt lat="43.41416" lon="1.64666">
        <ele>176</ele>
        <time>2017-09-24T13:11:24Z</time>
      </trkpt>
      <trkpt lat="43.41387" lon="1.64693">
        <ele>177</ele>
        <time>2017-09-24T13:11:28Z</time>
      </trkpt>
      <trkpt lat="43.41359" lon="1.64709">
        <ele>177</ele>
        <time>2017-09-24T13:11:32Z</time>
      </trkpt>
      <trkpt lat="43.41333" lon="1.64714">
        <ele>177</ele>
        <time>2017-09-24T13:11:36Z</time>
      </trkpt>
      <trkpt lat="43.41309" lon="1.64724">
        <ele>177</ele>
        <time>2017-09-24T13:11:40Z</time>
      </trkpt>
      <trkpt lat="43.41281" lon="1.64737">
        <ele>177</ele>
        <time>2017-09-24T13:11:44Z</time>
      </trkpt>
      <trkpt lat="43.41254" lon="1.64747">
        <ele>178</ele>
        <time>2017-09-24T13:11:48Z</time>
      </trkpt>
      <trkpt lat="43.41228" lon="1.6477">
        <ele>178</ele>
        <time>2017-09-24T13:11:52Z</time>
      </trkpt>
      <trkpt lat="43.41207" lon="1.64799">
        <ele>178</ele>
        <time>2017-09-24T13:11:56Z</time>
      </trkpt>
      <trkpt lat="43.41192" lon="1.64828">
        <ele>178</ele>
        <time>2017-09-24T13:12:00Z</time>
      </trkpt>
      <trkpt lat="43.41177" lon="1.64865">
        <ele>177</ele>
        <time>2017-09-24T13:12:04Z</time>
      </trkpt>
      <trkpt lat="43.41165" lon="1.64902">
        <ele>177</ele>
        <time>2017-09-24T13:12:08Z</time>
      </trkpt>
      <trkpt lat="43.41154" lon="1.64941">
        <ele>177</ele>
        <time>2017-09-24T13:12:12Z</time>
      </trkpt>
      <trkpt lat="43.41142" lon="1.64984">
        <ele>178</ele>
        <time>2017-09-24T13:12:16Z</time>
      </trkpt>
      <trkpt lat="43.41133" lon="1.65023">
        <ele>177</ele>
        <time>2017-09-24T13:12:20Z</time>
      </trkpt>
      <trkpt lat="43.41128" lon="1.65064">
        <ele>177</ele>
        <time>2017-09-24T13:12:24Z</time>
      </trkpt>
      <trkpt lat="43.41125" lon="1.65105">
        <ele>177</ele>
        <time>2017-09-24T13:12:28Z</time>
      </trkpt>
      <trkpt lat="43.41121" lon="1.65142">
        <ele>176</ele>
        <time>2017-09-24T13:12:32Z</time>
      </trkpt>
      <trkpt lat="43.41123" lon="1.65164">
        <ele>177</ele>
        <time>2017-09-24T13:12:36Z</time>
      </trkpt>
      <trkpt lat="43.41121" lon="1.65204">
        <ele>178</ele>
        <time>2017-09-24T13:12:40Z</time>
      </trkpt>
      <trkpt lat="43.41126" lon="1.65241">
        <ele>178</ele>
        <time>2017-09-24T13:12:44Z</time>
      </trkpt>
      <trkpt lat="43.4113" lon="1.65265">
        <ele>178</ele>
        <time>2017-09-24T13:12:48Z</time>
      </trkpt>
      <trkpt lat="43.41134" lon="1.65294">
        <ele>179</ele>
        <time>2017-09-24T13:12:52Z</time>
      </trkpt>
      <trkpt lat="43.41142" lon="1.65329">
        <ele>179</ele>
        <time>2017-09-24T13:12:56Z</time>
      </trkpt>
      <trkpt lat="43.41153" lon="1.65364">
        <ele>179</ele>
        <time>2017-09-24T13:13:00Z</time>
      </trkpt>
      <trkpt lat="43.41164" lon="1.654">
        <ele>179</ele>
        <time>2017-09-24T13:13:04Z</time>
      </trkpt>
      <trkpt lat="43.41169" lon="1.65448">
        <ele>177</ele>
        <time>2017-09-24T13:13:08Z</time>
      </trkpt>
      <trkpt lat="43.41175" lon="1.65495">
        <ele>177</ele>
        <time>2017-09-24T13:13:12Z</time>
      </trkpt>
      <trkpt lat="43.41172" lon="1.65557">
        <ele>178</ele>
        <time>2017-09-24T13:13:16Z</time>
      </trkpt>
      <trkpt lat="43.41176" lon="1.65602">
        <ele>178</ele>
        <time>2017-09-24T13:13:20Z</time>
      </trkpt>
      <trkpt lat="43.41184" lon="1.65641">
        <ele>178</ele>
        <time>2017-09-24T13:13:24Z</time>
      </trkpt>
      <trkpt lat="43.41195" lon="1.65678">
        <ele>179</ele>
        <time>2017-09-24T13:13:28Z</time>
      </trkpt>
      <trkpt lat="43.41203" lon="1.65714">
        <ele>177</ele>
        <time>2017-09-24T13:13:32Z</time>
      </trkpt>
      <trkpt lat="43.4121" lon="1.65764">
        <ele>176</ele>
        <time>2017-09-24T13:13:36Z</time>
      </trkpt>
      <trkpt lat="43.41213" lon="1.65817">
        <ele>175</ele>
        <time>2017-09-24T13:13:40Z</time>
      </trkpt>
      <trkpt lat="43.41212" lon="1.65869">
        <ele>176</ele>
        <time>2017-09-24T13:13:44Z</time>
      </trkpt>
      <trkpt lat="43.4121" lon="1.65912">
        <ele>177</ele>
        <time>2017-09-24T13:13:48Z</time>
      </trkpt>
      <trkpt lat="43.41204" lon="1.65956">
        <ele>177</ele>
        <time>2017-09-24T13:13:52Z</time>
      </trkpt>
      <trkpt lat="43.41192" lon="1.65993">
        <ele>177</ele>
        <time>2017-09-24T13:13:56Z</time>
      </trkpt>
      <trkpt lat="43.41179" lon="1.66028">
        <ele>177</ele>
        <time>2017-09-24T13:14:00Z</time>
      </trkpt>
      <trkpt lat="43.41163" lon="1.66063">
        <ele>177</ele>
        <time>2017-09-24T13:14:04Z</time>
      </trkpt>
      <trkpt lat="43.41147" lon="1.66095">
        <ele>177</ele>
        <time>2017-09-24T13:14:08Z</time>
      </trkpt>
      <trkpt lat="43.41128" lon="1.66125">
        <ele>177</ele>
        <time>2017-09-24T13:14:12Z</time>
      </trkpt>
      <trkpt lat="43.4111" lon="1.66151">
        <ele>177</ele>
        <time>2017-09-24T13:14:16Z</time>
      </trkpt>
      <trkpt lat="43.4109" lon="1.66178">
        <ele>177</ele>
        <time>2017-09-24T13:14:20Z</time>
      </trkpt>
      <trkpt lat="43.4107" lon="1.66205">
        <ele>177</ele>
        <time>2017-09-24T13:14:24Z</time>
      </trkpt>
      <trkpt lat="43.4105" lon="1.66229">
        <ele>176</ele>
        <time>2017-09-24T13:14:28Z</time>
      </trkpt>
      <trkpt lat="43.41029" lon="1.66253">
        <ele>177</ele>
        <time>2017-09-24T13:14:32Z</time>
      </trkpt>
      <trkpt lat="43.41009" lon="1.66277">
        <ele>177</ele>
        <time>2017-09-24T13:14:36Z</time>
      </trkpt>
      <trkpt lat="43.40987" lon="1.66301">
        <ele>177</ele>
        <time>2017-09-24T13:14:40Z</time>
      </trkpt>
      <trkpt lat="43.40967" lon="1.66321">
        <ele>177</ele>
        <time>2017-09-24T13:14:44Z</time>
      </trkpt>
      <trkpt lat="43.40947" lon="1.66339">
        <ele>177</ele>
        <time>2017-09-24T13:14:48Z</time>
      </trkpt>
      <trkpt lat="43.40924" lon="1.66359">
        <ele>177</ele>
        <time>2017-09-24T13:14:52Z</time>
      </trkpt>
      <trkpt lat="43.409" lon="1.66381">
        <ele>177</ele>
        <time>2017-09-24T13:14:56Z</time>
      </trkpt>
      <trkpt lat="43.40878" lon="1.664">
        <ele>177</ele>
        <time>2017-09-24T13:15:00Z</time>
      </trkpt>
      <trkpt lat="43.40855" lon="1.66415">
        <ele>177</ele>
        <time>2017-09-24T13:15:04Z</time>
      </trkpt>
      <trkpt lat="43.40831" lon="1.66436">
        <ele>177</ele>
        <time>2017-09-24T13:15:08Z</time>
      </trkpt>
      <trkpt lat="43.40807" lon="1.66455">
        <ele>177</ele>
        <time>2017-09-24T13:15:12Z</time>
      </trkpt>
      <trkpt lat="43.40782" lon="1.66474">
        <ele>177</ele>
        <time>2017-09-24T13:15:16Z</time>
      </trkpt>
      <trkpt lat="43.40754" lon="1.66494">
        <ele>177</ele>
        <time>2017-09-24T13:15:20Z</time>
      </trkpt>
      <trkpt lat="43.4073" lon="1.66509">
        <ele>177</ele>
        <time>2017-09-24T13:15:24Z</time>
      </trkpt>
      <trkpt lat="43.40703" lon="1.66523">
        <ele>177</ele>
        <time>2017-09-24T13:15:28Z</time>
      </trkpt>
      <trkpt lat="43.40676" lon="1.66536">
        <ele>177</ele>
        <time>2017-09-24T13:15:32Z</time>
      </trkpt>
      <trkpt lat="43.40649" lon="1.66551">
        <ele>177</ele>
        <time>2017-09-24T13:15:36Z</time>
      </trkpt>
      <trkpt lat="43.40624" lon="1.6656">
        <ele>177</ele>
        <time>2017-09-24T13:15:40Z</time>
      </trkpt>
      <trkpt lat="43.40596" lon="1.66575">
        <ele>176</ele>
        <time>2017-09-24T13:15:44Z</time>
      </trkpt>
      <trkpt lat="43.4057" lon="1.66595">
        <ele>177</ele>
        <time>2017-09-24T13:15:48Z</time>
      </trkpt>
      <trkpt lat="43.4055" lon="1.66611">
        <ele>177</ele>
        <time>2017-09-24T13:15:52Z</time>
      </trkpt>
      <trkpt lat="43.40529" lon="1.66627">
        <ele>176</ele>
        <time>2017-09-24T13:15:56Z</time>
      </trkpt>
      <trkpt lat="43.40502" lon="1.66656">
        <ele>176</ele>
        <time>2017-09-24T13:16:00Z</time>
      </trkpt>
      <trkpt lat="43.40479" lon="1.66683">
        <ele>177</ele>
        <time>2017-09-24T13:16:04Z</time>
      </trkpt>
      <trkpt lat="43.40457" lon="1.6671">
        <ele>177</ele>
        <time>2017-09-24T13:16:08Z</time>
      </trkpt>
      <trkpt lat="43.40439" lon="1.66735">
        <ele>177</ele>
        <time>2017-09-24T13:16:12Z</time>
      </trkpt>
      <trkpt lat="43.40421" lon="1.66766">
        <ele>177</ele>
        <time>2017-09-24T13:16:16Z</time>
      </trkpt>
      <trkpt lat="43.40406" lon="1.66796">
        <ele>177</ele>
        <time>2017-09-24T13:16:20Z</time>
      </trkpt>
      <trkpt lat="43.40392" lon="1.66827">
        <ele>177</ele>
        <time>2017-09-24T13:16:24Z</time>
      </trkpt>
      <trkpt lat="43.40378" lon="1.66854">
        <ele>177</ele>
        <time>2017-09-24T13:16:28Z</time>
      </trkpt>
      <trkpt lat="43.40363" lon="1.66884">
        <ele>177</ele>
        <time>2017-09-24T13:16:32Z</time>
      </trkpt>
      <trkpt lat="43.4035" lon="1.66922">
        <ele>177</ele>
        <time>2017-09-24T13:16:36Z</time>
      </trkpt>
      <trkpt lat="43.40336" lon="1.66958">
        <ele>177</ele>
        <time>2017-09-24T13:16:40Z</time>
      </trkpt>
      <trkpt lat="43.40323" lon="1.66991">
        <ele>177</ele>
        <time>2017-09-24T13:16:44Z</time>
      </trkpt>
      <trkpt lat="43.40313" lon="1.67026">
        <ele>177</ele>
        <time>2017-09-24T13:16:48Z</time>
      </trkpt>
      <trkpt lat="43.403" lon="1.6706">
        <ele>178</ele>
        <time>2017-09-24T13:16:52Z</time>
      </trkpt>
      <trkpt lat="43.40288" lon="1.67093">
        <ele>178</ele>
        <time>2017-09-24T13:16:56Z</time>
      </trkpt>
      <trkpt lat="43.40277" lon="1.67128">
        <ele>178</ele>
        <time>2017-09-24T13:17:00Z</time>
      </trkpt>
      <trkpt lat="43.40266" lon="1.67161">
        <ele>178</ele>
        <time>2017-09-24T13:17:04Z</time>
      </trkpt>
      <trkpt lat="43.40254" lon="1.67195">
        <ele>177</ele>
        <time>2017-09-24T13:17:08Z</time>
      </trkpt>
      <trkpt lat="43.40244" lon="1.67231">
        <ele>177</ele>
        <time>2017-09-24T13:17:12Z</time>
      </trkpt>
      <trkpt lat="43.40232" lon="1.67266">
        <ele>177</ele>
        <time>2017-09-24T13:17:16Z</time>
      </trkpt>
      <trkpt lat="43.40222" lon="1.67299">
        <ele>177</ele>
        <time>2017-09-24T13:17:20Z</time>
      </trkpt>
      <trkpt lat="43.40213" lon="1.67338">
        <ele>177</ele>
        <time>2017-09-24T13:17:24Z</time>
      </trkpt>
      <trkpt lat="43.40203" lon="1.67373">
        <ele>177</ele>
        <time>2017-09-24T13:17:28Z</time>
      </trkpt>
      <trkpt lat="43.40193" lon="1.67407">
        <ele>177</ele>
        <time>2017-09-24T13:17:32Z</time>
      </trkpt>
      <trkpt lat="43.40182" lon="1.67441">
        <ele>177</ele>
        <time>2017-09-24T13:17:36Z</time>
      </trkpt>
      <trkpt lat="43.40167" lon="1.67478">
        <ele>177</ele>
        <time>2017-09-24T13:17:40Z</time>
      </trkpt>
      <trkpt lat="43.40149" lon="1.67516">
        <ele>177</ele>
        <time>2017-09-24T13:17:44Z</time>
      </trkpt>
      <trkpt lat="43.40133" lon="1.6755">
        <ele>176</ele>
        <time>2017-09-24T13:17:48Z</time>
      </trkpt>
      <trkpt lat="43.40115" lon="1.67588">
        <ele>177</ele>
        <time>2017-09-24T13:17:52Z</time>
      </trkpt>
      <trkpt lat="43.40096" lon="1.67625">
        <ele>177</ele>
        <time>2017-09-24T13:17:56Z</time>
      </trkpt>
      <trkpt lat="43.40079" lon="1.67656">
        <ele>177</ele>
        <time>2017-09-24T13:18:00Z</time>
      </trkpt>
      <trkpt lat="43.40062" lon="1.67691">
        <ele>177</ele>
        <time>2017-09-24T13:18:04Z</time>
      </trkpt>
      <trkpt lat="43.40046" lon="1.67727">
        <ele>177</ele>
        <time>2017-09-24T13:18:08Z</time>
      </trkpt>
      <trkpt lat="43.40028" lon="1.67763">
        <ele>177</ele>
        <time>2017-09-24T13:18:12Z</time>
      </trkpt>
      <trkpt lat="43.4001" lon="1.67797">
        <ele>177</ele>
        <time>2017-09-24T13:18:16Z</time>
      </trkpt>
      <trkpt lat="43.39994" lon="1.67829">
        <ele>179</ele>
        <time>2017-09-24T13:18:20Z</time>
      </trkpt>
      <trkpt lat="43.39978" lon="1.6786">
        <ele>178</ele>
        <time>2017-09-24T13:18:24Z</time>
      </trkpt>
      <trkpt lat="43.39961" lon="1.67887">
        <ele>179</ele>
        <time>2017-09-24T13:18:28Z</time>
      </trkpt>
      <trkpt lat="43.39942" lon="1.67912">
        <ele>178</ele>
        <time>2017-09-24T13:18:32Z</time>
      </trkpt>
      <trkpt lat="43.39922" lon="1.67933">
        <ele>178</ele>
        <time>2017-09-24T13:18:36Z</time>
      </trkpt>
      <trkpt lat="43.39901" lon="1.67945">
        <ele>178</ele>
        <time>2017-09-24T13:18:40Z</time>
      </trkpt>
      <trkpt lat="43.39881" lon="1.6795">
        <ele>179</ele>
        <time>2017-09-24T13:18:44Z</time>
      </trkpt>
      <trkpt lat="43.39864" lon="1.67958">
        <ele>180</ele>
        <time>2017-09-24T13:18:48Z</time>
      </trkpt>
      <trkpt lat="43.39846" lon="1.67969">
        <ele>181</ele>
        <time>2017-09-24T13:18:52Z</time>
      </trkpt>
      <trkpt lat="43.39829" lon="1.67983">
        <ele>181</ele>
        <time>2017-09-24T13:18:56Z</time>
      </trkpt>
      <trkpt lat="43.39818" lon="1.67997">
        <ele>182</ele>
        <time>2017-09-24T13:19:00Z</time>
      </trkpt>
      <trkpt lat="43.39807" lon="1.68019">
        <ele>183</ele>
        <time>2017-09-24T13:19:04Z</time>
      </trkpt>
      <trkpt lat="43.39794" lon="1.68047">
        <ele>183</ele>
        <time>2017-09-24T13:19:08Z</time>
      </trkpt>
      <trkpt lat="43.39783" lon="1.68077">
        <ele>183</ele>
        <time>2017-09-24T13:19:12Z</time>
      </trkpt>
      <trkpt lat="43.39775" lon="1.68109">
        <ele>183</ele>
        <time>2017-09-24T13:19:16Z</time>
      </trkpt>
      <trkpt lat="43.39766" lon="1.68141">
        <ele>183</ele>
        <time>2017-09-24T13:19:20Z</time>
      </trkpt>
      <trkpt lat="43.39758" lon="1.68173">
        <ele>183</ele>
        <time>2017-09-24T13:19:24Z</time>
      </trkpt>
      <trkpt lat="43.39749" lon="1.68204">
        <ele>183</ele>
        <time>2017-09-24T13:19:28Z</time>
      </trkpt>
      <trkpt lat="43.39736" lon="1.68235">
        <ele>183</ele>
        <time>2017-09-24T13:19:32Z</time>
      </trkpt>
      <trkpt lat="43.39718" lon="1.68268">
        <ele>184</ele>
        <time>2017-09-24T13:19:36Z</time>
      </trkpt>
      <trkpt lat="43.39697" lon="1.68292">
        <ele>183</ele>
        <time>2017-09-24T13:19:40Z</time>
      </trkpt>
      <trkpt lat="43.39675" lon="1.68308">
        <ele>183</ele>
        <time>2017-09-24T13:19:44Z</time>
      </trkpt>
      <trkpt lat="43.39652" lon="1.68325">
        <ele>183</ele>
        <time>2017-09-24T13:19:48Z</time>
      </trkpt>
      <trkpt lat="43.39626" lon="1.68343">
        <ele>183</ele>
        <time>2017-09-24T13:19:52Z</time>
      </trkpt>
      <trkpt lat="43.39604" lon="1.68362">
        <ele>183</ele>
        <time>2017-09-24T13:19:56Z</time>
      </trkpt>
      <trkpt lat="43.39583" lon="1.68394">
        <ele>183</ele>
        <time>2017-09-24T13:20:00Z</time>
      </trkpt>
      <trkpt lat="43.39571" lon="1.68427">
        <ele>183</ele>
        <time>2017-09-24T13:20:04Z</time>
      </trkpt>
      <trkpt lat="43.39563" lon="1.68466">
        <ele>183</ele>
        <time>2017-09-24T13:20:08Z</time>
      </trkpt>
      <trkpt lat="43.39559" lon="1.68514">
        <ele>183</ele>
        <time>2017-09-24T13:20:12Z</time>
      </trkpt>
      <trkpt lat="43.39557" lon="1.68554">
        <ele>184</ele>
        <time>2017-09-24T13:20:16Z</time>
      </trkpt>
      <trkpt lat="43.39559" lon="1.68588">
        <ele>184</ele>
        <time>2017-09-24T13:20:20Z</time>
      </trkpt>
      <trkpt lat="43.39557" lon="1.68624">
        <ele>184</ele>
        <time>2017-09-24T13:20:24Z</time>
      </trkpt>
      <trkpt lat="43.39556" lon="1.68659">
        <ele>184</ele>
        <time>2017-09-24T13:20:28Z</time>
      </trkpt>
      <trkpt lat="43.39557" lon="1.68694">
        <ele>185</ele>
        <time>2017-09-24T13:20:32Z</time>
      </trkpt>
      <trkpt lat="43.39555" lon="1.68729">
        <ele>184</ele>
        <time>2017-09-24T13:20:36Z</time>
      </trkpt>
      <trkpt lat="43.39548" lon="1.68765">
        <ele>183</ele>
        <time>2017-09-24T13:20:40Z</time>
      </trkpt>
      <trkpt lat="43.39531" lon="1.688">
        <ele>183</ele>
        <time>2017-09-24T13:20:44Z</time>
      </trkpt>
      <trkpt lat="43.39505" lon="1.68816">
        <ele>183</ele>
        <time>2017-09-24T13:20:48Z</time>
      </trkpt>
      <trkpt lat="43.39476" lon="1.68815">
        <ele>183</ele>
        <time>2017-09-24T13:20:52Z</time>
      </trkpt>
      <trkpt lat="43.39449" lon="1.68807">
        <ele>183</ele>
        <time>2017-09-24T13:20:56Z</time>
      </trkpt>
      <trkpt lat="43.39426" lon="1.688">
        <ele>184</ele>
        <time>2017-09-24T13:21:00Z</time>
      </trkpt>
      <trkpt lat="43.39403" lon="1.68795">
        <ele>182</ele>
        <time>2017-09-24T13:21:04Z</time>
      </trkpt>
      <trkpt lat="43.39372" lon="1.68792">
        <ele>181</ele>
        <time>2017-09-24T13:21:08Z</time>
      </trkpt>
      <trkpt lat="43.39354" lon="1.68824">
        <ele>182</ele>
        <time>2017-09-24T13:21:12Z</time>
      </trkpt>
      <trkpt lat="43.39337" lon="1.68854">
        <ele>183</ele>
        <time>2017-09-24T13:21:16Z</time>
      </trkpt>
      <trkpt lat="43.39317" lon="1.68887">
        <ele>183</ele>
        <time>2017-09-24T13:21:20Z</time>
      </trkpt>
      <trkpt lat="43.393" lon="1.68922">
        <ele>182</ele>
        <time>2017-09-24T13:21:24Z</time>
      </trkpt>
      <trkpt lat="43.39285" lon="1.68957">
        <ele>182</ele>
        <time>2017-09-24T13:21:28Z</time>
      </trkpt>
      <trkpt lat="43.39273" lon="1.68993">
        <ele>183</ele>
        <time>2017-09-24T13:21:32Z</time>
      </trkpt>
      <trkpt lat="43.39261" lon="1.6903">
        <ele>183</ele>
        <time>2017-09-24T13:21:36Z</time>
      </trkpt>
      <trkpt lat="43.3925" lon="1.69063">
        <ele>183</ele>
        <time>2017-09-24T13:21:40Z</time>
      </trkpt>
      <trkpt lat="43.39238" lon="1.69095">
        <ele>183</ele>
        <time>2017-09-24T13:21:44Z</time>
      </trkpt>
      <trkpt lat="43.39226" lon="1.69123">
        <ele>183</ele>
        <time>2017-09-24T13:21:48Z</time>
      </trkpt>
      <trkpt lat="43.39209" lon="1.69147">
        <ele>183</ele>
        <time>2017-09-24T13:21:52Z</time>
      </trkpt>
      <trkpt lat="43.39196" lon="1.69164">
        <ele>184</ele>
        <time>2017-09-24T13:21:56Z</time>
      </trkpt>
      <trkpt lat="43.39184" lon="1.69176">
        <ele>184</ele>
        <time>2017-09-24T13:22:00Z</time>
      </trkpt>
      <trkpt lat="43.39169" lon="1.6919">
        <ele>183</ele>
        <time>2017-09-24T13:22:04Z</time>
      </trkpt>
      <trkpt lat="43.39152" lon="1.69212">
        <ele>183</ele>
        <time>2017-09-24T13:22:08Z</time>
      </trkpt>
      <trkpt lat="43.39135" lon="1.69234">
        <ele>184</ele>
        <time>2017-09-24T13:22:12Z</time>
      </trkpt>
      <trkpt lat="43.39119" lon="1.69259">
        <ele>184</ele>
        <time>2017-09-24T13:22:16Z</time>
      </trkpt>
      <trkpt lat="43.39106" lon="1.6928">
        <ele>185</ele>
        <time>2017-09-24T13:22:20Z</time>
      </trkpt>
      <trkpt lat="43.39094" lon="1.69293">
        <ele>184</ele>
        <time>2017-09-24T13:22:24Z</time>
      </trkpt>
      <trkpt lat="43.39079" lon="1.69309">
        <ele>185</ele>
        <time>2017-09-24T13:22:28Z</time>
      </trkpt>
      <trkpt lat="43.39061" lon="1.6933">
        <ele>184</ele>
        <time>2017-09-24T13:22:32Z</time>
      </trkpt>
      <trkpt lat="43.39043" lon="1.69353">
        <ele>185</ele>
        <time>2017-09-24T13:22:36Z</time>
      </trkpt>
      <trkpt lat="43.39026" lon="1.69373">
        <ele>186</ele>
        <time>2017-09-24T13:22:40Z</time>
      </trkpt>
      <trkpt lat="43.39017" lon="1.69393">
        <ele>186</ele>
        <time>2017-09-24T13:22:44Z</time>
      </trkpt>
      <trkpt lat="43.39006" lon="1.69421">
        <ele>185</ele>
        <time>2017-09-24T13:22:48Z</time>
      </trkpt>
      <trkpt lat="43.38997" lon="1.69454">
        <ele>185</ele>
        <time>2017-09-24T13:22:52Z</time>
      </trkpt>
      <trkpt lat="43.38991" lon="1.69485">
        <ele>186</ele>
        <time>2017-09-24T13:22:56Z</time>
      </trkpt>
      <trkpt lat="43.38985" lon="1.69518">
        <ele>186</ele>
        <time>2017-09-24T13:23:00Z</time>
      </trkpt>
      <trkpt lat="43.38985" lon="1.69558">
        <ele>186</ele>
        <time>2017-09-24T13:23:04Z</time>
      </trkpt>
      <trkpt lat="43.38997" lon="1.69593">
        <ele>186</ele>
        <time>2017-09-24T13:23:08Z</time>
      </trkpt>
      <trkpt lat="43.3901" lon="1.69627">
        <ele>185</ele>
        <time>2017-09-24T13:23:12Z</time>
      </trkpt>
      <trkpt lat="43.39024" lon="1.69662">
        <ele>185</ele>
        <time>2017-09-24T13:23:16Z</time>
      </trkpt>
      <trkpt lat="43.39038" lon="1.69699">
        <ele>185</ele>
        <time>2017-09-24T13:23:20Z</time>
      </trkpt>
      <trkpt lat="43.39042" lon="1.69741">
        <ele>185</ele>
        <time>2017-09-24T13:23:24Z</time>
      </trkpt>
      <trkpt lat="43.39041" lon="1.69777">
        <ele>185</ele>
        <time>2017-09-24T13:23:28Z</time>
      </trkpt>
      <trkpt lat="43.3904" lon="1.69817">
        <ele>185</ele>
        <time>2017-09-24T13:23:32Z</time>
      </trkpt>
      <trkpt lat="43.39037" lon="1.69857">
        <ele>185</ele>
        <time>2017-09-24T13:23:36Z</time>
      </trkpt>
      <trkpt lat="43.39031" lon="1.69897">
        <ele>184</ele>
        <time>2017-09-24T13:23:40Z</time>
      </trkpt>
      <trkpt lat="43.39016" lon="1.6993">
        <ele>184</ele>
        <time>2017-09-24T13:23:44Z</time>
      </trkpt>
      <trkpt lat="43.38993" lon="1.69953">
        <ele>184</ele>
        <time>2017-09-24T13:23:48Z</time>
      </trkpt>
      <trkpt lat="43.38969" lon="1.69955">
        <ele>185</ele>
        <time>2017-09-24T13:23:52Z</time>
      </trkpt>
      <trkpt lat="43.38944" lon="1.69949">
        <ele>185</ele>
        <time>2017-09-24T13:23:56Z</time>
      </trkpt>
      <trkpt lat="43.38917" lon="1.69947">
        <ele>185</ele>
        <time>2017-09-24T13:24:00Z</time>
      </trkpt>
      <trkpt lat="43.38889" lon="1.69952">
        <ele>185</ele>
        <time>2017-09-24T13:24:04Z</time>
      </trkpt>
      <trkpt lat="43.38865" lon="1.69957">
        <ele>185</ele>
        <time>2017-09-24T13:24:08Z</time>
      </trkpt>
      <trkpt lat="43.38844" lon="1.69962">
        <ele>185</ele>
        <time>2017-09-24T13:24:12Z</time>
      </trkpt>
      <trkpt lat="43.3882" lon="1.69978">
        <ele>185</ele>
        <time>2017-09-24T13:24:16Z</time>
      </trkpt>
      <trkpt lat="43.38794" lon="1.70001">
        <ele>185</ele>
        <time>2017-09-24T13:24:20Z</time>
      </trkpt>
      <trkpt lat="43.38769" lon="1.7002">
        <ele>185</ele>
        <time>2017-09-24T13:24:24Z</time>
      </trkpt>
      <trkpt lat="43.38744" lon="1.70041">
        <ele>185</ele>
        <time>2017-09-24T13:24:28Z</time>
      </trkpt>
      <trkpt lat="43.38719" lon="1.70062">
        <ele>186</ele>
        <time>2017-09-24T13:24:32Z</time>
      </trkpt>
      <trkpt lat="43.38696" lon="1.7008">
        <ele>185</ele>
        <time>2017-09-24T13:24:36Z</time>
      </trkpt>
      <trkpt lat="43.38673" lon="1.70105">
        <ele>186</ele>
        <time>2017-09-24T13:24:40Z</time>
      </trkpt>
      <trkpt lat="43.38653" lon="1.70132">
        <ele>186</ele>
        <time>2017-09-24T13:24:44Z</time>
      </trkpt>
      <trkpt lat="43.38634" lon="1.70163">
        <ele>186</ele>
        <time>2017-09-24T13:24:48Z</time>
      </trkpt>
      <trkpt lat="43.38616" lon="1.70192">
        <ele>186</ele>
        <time>2017-09-24T13:24:52Z</time>
      </trkpt>
      <trkpt lat="43.38597" lon="1.70218">
        <ele>186</ele>
        <time>2017-09-24T13:24:56Z</time>
      </trkpt>
      <trkpt lat="43.3858" lon="1.70244">
        <ele>185</ele>
        <time>2017-09-24T13:25:00Z</time>
      </trkpt>
      <trkpt lat="43.38564" lon="1.70275">
        <ele>185</ele>
        <time>2017-09-24T13:25:04Z</time>
      </trkpt>
      <trkpt lat="43.38545" lon="1.70313">
        <ele>186</ele>
        <time>2017-09-24T13:25:08Z</time>
      </trkpt>
      <trkpt lat="43.38528" lon="1.70344">
        <ele>186</ele>
        <time>2017-09-24T13:25:12Z</time>
      </trkpt>
      <trkpt lat="43.38513" lon="1.7038">
        <ele>186</ele>
        <time>2017-09-24T13:25:16Z</time>
      </trkpt>
      <trkpt lat="43.38499" lon="1.70415">
        <ele>185</ele>
        <time>2017-09-24T13:25:20Z</time>
      </trkpt>
      <trkpt lat="43.3849" lon="1.70457">
        <ele>185</ele>
        <time>2017-09-24T13:25:24Z</time>
      </trkpt>
      <trkpt lat="43.38496" lon="1.70499">
        <ele>185</ele>
        <time>2017-09-24T13:25:28Z</time>
      </trkpt>
      <trkpt lat="43.38507" lon="1.70541">
        <ele>185</ele>
        <time>2017-09-24T13:25:32Z</time>
      </trkpt>
      <trkpt lat="43.38519" lon="1.70576">
        <ele>185</ele>
        <time>2017-09-24T13:25:36Z</time>
      </trkpt>
      <trkpt lat="43.3853" lon="1.70615">
        <ele>185</ele>
        <time>2017-09-24T13:25:40Z</time>
      </trkpt>
      <trkpt lat="43.38541" lon="1.70654">
        <ele>185</ele>
        <time>2017-09-24T13:25:44Z</time>
      </trkpt>
      <trkpt lat="43.38548" lon="1.70684">
        <ele>185</ele>
        <time>2017-09-24T13:25:48Z</time>
      </trkpt>
      <trkpt lat="43.38559" lon="1.70714">
        <ele>185</ele>
        <time>2017-09-24T13:25:52Z</time>
      </trkpt>
      <trkpt lat="43.38571" lon="1.70744">
        <ele>186</ele>
        <time>2017-09-24T13:25:56Z</time>
      </trkpt>
      <trkpt lat="43.38581" lon="1.70779">
        <ele>185</ele>
        <time>2017-09-24T13:26:00Z</time>
      </trkpt>
      <trkpt lat="43.38588" lon="1.70814">
        <ele>185</ele>
        <time>2017-09-24T13:26:04Z</time>
      </trkpt>
      <trkpt lat="43.38598" lon="1.70857">
        <ele>184</ele>
        <time>2017-09-24T13:26:08Z</time>
      </trkpt>
      <trkpt lat="43.38621" lon="1.70892">
        <ele>185</ele>
        <time>2017-09-24T13:26:12Z</time>
      </trkpt>
      <trkpt lat="43.38642" lon="1.70919">
        <ele>184</ele>
        <time>2017-09-24T13:26:16Z</time>
      </trkpt>
      <trkpt lat="43.38666" lon="1.70941">
        <ele>184</ele>
        <time>2017-09-24T13:26:20Z</time>
      </trkpt>
      <trkpt lat="43.38691" lon="1.70961">
        <ele>185</ele>
        <time>2017-09-24T13:26:24Z</time>
      </trkpt>
      <trkpt lat="43.38719" lon="1.70972">
        <ele>185</ele>
        <time>2017-09-24T13:26:28Z</time>
      </trkpt>
      <trkpt lat="43.38746" lon="1.70987">
        <ele>184</ele>
        <time>2017-09-24T13:26:32Z</time>
      </trkpt>
      <trkpt lat="43.38769" lon="1.71006">
        <ele>183</ele>
        <time>2017-09-24T13:26:36Z</time>
      </trkpt>
      <trkpt lat="43.38793" lon="1.71026">
        <ele>183</ele>
        <time>2017-09-24T13:26:40Z</time>
      </trkpt>
      <trkpt lat="43.38814" lon="1.71046">
        <ele>183</ele>
        <time>2017-09-24T13:26:44Z</time>
      </trkpt>
      <trkpt lat="43.38839" lon="1.71065">
        <ele>183</ele>
        <time>2017-09-24T13:26:48Z</time>
      </trkpt>
      <trkpt lat="43.38864" lon="1.71078">
        <ele>183</ele>
        <time>2017-09-24T13:26:52Z</time>
      </trkpt>
      <trkpt lat="43.38891" lon="1.71092">
        <ele>183</ele>
        <time>2017-09-24T13:26:56Z</time>
      </trkpt>
      <trkpt lat="43.38916" lon="1.71105">
        <ele>183</ele>
        <time>2017-09-24T13:27:00Z</time>
      </trkpt>
      <trkpt lat="43.38942" lon="1.71116">
        <ele>183</ele>
        <time>2017-09-24T13:27:04Z</time>
      </trkpt>
      <trkpt lat="43.38965" lon="1.71127">
        <ele>182</ele>
        <time>2017-09-24T13:27:08Z</time>
      </trkpt>
      <trkpt lat="43.38979" lon="1.71132">
        <ele>182</ele>
        <time>2017-09-24T13:27:12Z</time>
      </trkpt>
      <trkpt lat="43.38978" lon="1.7114">
        <ele>183</ele>
        <time>2017-09-24T13:27:16Z</time>
      </trkpt>
      <trkpt lat="43.38977" lon="1.71147">
        <ele>185</ele>
        <time>2017-09-24T13:27:20Z</time>
      </trkpt>
      <trkpt lat="43.38985" lon="1.71163">
        <ele>185</ele>
        <time>2017-09-24T13:27:24Z</time>
      </trkpt>
      <trkpt lat="43.38999" lon="1.71177">
        <ele>185</ele>
        <time>2017-09-24T13:27:28Z</time>
      </trkpt>
      <trkpt lat="43.39016" lon="1.71191">
        <ele>185</ele>
        <time>2017-09-24T13:27:32Z</time>
      </trkpt>
      <trkpt lat="43.39034" lon="1.71207">
        <ele>185</ele>
        <time>2017-09-24T13:27:36Z</time>
      </trkpt>
      <trkpt lat="43.39049" lon="1.71228">
        <ele>185</ele>
        <time>2017-09-24T13:27:40Z</time>
      </trkpt>
      <trkpt lat="43.39059" lon="1.71252">
        <ele>185</ele>
        <time>2017-09-24T13:27:44Z</time>
      </trkpt>
      <trkpt lat="43.39068" lon="1.71276">
        <ele>185</ele>
        <time>2017-09-24T13:27:48Z</time>
      </trkpt>
      <trkpt lat="43.39077" lon="1.71304">
        <ele>185</ele>
        <time>2017-09-24T13:27:52Z</time>
      </trkpt>
      <trkpt lat="43.39082" lon="1.71336">
        <ele>185</ele>
        <time>2017-09-24T13:27:56Z</time>
      </trkpt>
      <trkpt lat="43.39084" lon="1.71366">
        <ele>185</ele>
        <time>2017-09-24T13:28:00Z</time>
      </trkpt>
      <trkpt lat="43.39082" lon="1.71401">
        <ele>185</ele>
        <time>2017-09-24T13:28:04Z</time>
      </trkpt>
      <trkpt lat="43.39078" lon="1.71435">
        <ele>185</ele>
        <time>2017-09-24T13:28:08Z</time>
      </trkpt>
      <trkpt lat="43.39074" lon="1.7147">
        <ele>185</ele>
        <time>2017-09-24T13:28:12Z</time>
      </trkpt>
      <trkpt lat="43.3907" lon="1.71502">
        <ele>185</ele>
        <time>2017-09-24T13:28:16Z</time>
      </trkpt>
      <trkpt lat="43.39065" lon="1.71537">
        <ele>185</ele>
        <time>2017-09-24T13:28:20Z</time>
      </trkpt>
      <trkpt lat="43.39062" lon="1.71569">
        <ele>185</ele>
        <time>2017-09-24T13:28:24Z</time>
      </trkpt>
      <trkpt lat="43.39059" lon="1.71604">
        <ele>185</ele>
        <time>2017-09-24T13:28:28Z</time>
      </trkpt>
      <trkpt lat="43.39055" lon="1.71644">
        <ele>185</ele>
        <time>2017-09-24T13:28:32Z</time>
      </trkpt>
      <trkpt lat="43.39052" lon="1.71676">
        <ele>185</ele>
        <time>2017-09-24T13:28:36Z</time>
      </trkpt>
      <trkpt lat="43.39051" lon="1.71708">
        <ele>185</ele>
        <time>2017-09-24T13:28:40Z</time>
      </trkpt>
      <trkpt lat="43.39045" lon="1.71746">
        <ele>185</ele>
        <time>2017-09-24T13:28:44Z</time>
      </trkpt>
      <trkpt lat="43.39036" lon="1.71786">
        <ele>185</ele>
        <time>2017-09-24T13:28:48Z</time>
      </trkpt>
      <trkpt lat="43.39025" lon="1.71828">
        <ele>185</ele>
        <time>2017-09-24T13:28:52Z</time>
      </trkpt>
      <trkpt lat="43.39012" lon="1.71866">
        <ele>185</ele>
        <time>2017-09-24T13:28:56Z</time>
      </trkpt>
      <trkpt lat="43.38997" lon="1.71902">
        <ele>185</ele>
        <time>2017-09-24T13:29:00Z</time>
      </trkpt>
      <trkpt lat="43.38978" lon="1.71933">
        <ele>185</ele>
        <time>2017-09-24T13:29:04Z</time>
      </trkpt>
      <trkpt lat="43.38958" lon="1.71959">
        <ele>185</ele>
        <time>2017-09-24T13:29:08Z</time>
      </trkpt>
      <trkpt lat="43.38935" lon="1.71976">
        <ele>185</ele>
        <time>2017-09-24T13:29:12Z</time>
      </trkpt>
      <trkpt lat="43.38907" lon="1.71992">
        <ele>184</ele>
        <time>2017-09-24T13:29:16Z</time>
      </trkpt>
      <trkpt lat="43.38879" lon="1.72003">
        <ele>185</ele>
        <time>2017-09-24T13:29:20Z</time>
      </trkpt>
      <trkpt lat="43.38851" lon="1.72012">
        <ele>185</ele>
        <time>2017-09-24T13:29:24Z</time>
      </trkpt>
      <trkpt lat="43.38823" lon="1.72019">
        <ele>185</ele>
        <time>2017-09-24T13:29:28Z</time>
      </trkpt>
      <trkpt lat="43.38795" lon="1.72022">
        <ele>184</ele>
        <time>2017-09-24T13:29:32Z</time>
      </trkpt>
      <trkpt lat="43.38768" lon="1.7203">
        <ele>185</ele>
        <time>2017-09-24T13:29:36Z</time>
      </trkpt>
      <trkpt lat="43.38741" lon="1.7204">
        <ele>184</ele>
        <time>2017-09-24T13:29:40Z</time>
      </trkpt>
      <trkpt lat="43.38714" lon="1.72053">
        <ele>184</ele>
        <time>2017-09-24T13:29:44Z</time>
      </trkpt>
      <trkpt lat="43.38691" lon="1.7207">
        <ele>184</ele>
        <time>2017-09-24T13:29:48Z</time>
      </trkpt>
      <trkpt lat="43.38672" lon="1.72092">
        <ele>184</ele>
        <time>2017-09-24T13:29:52Z</time>
      </trkpt>
      <trkpt lat="43.38654" lon="1.72118">
        <ele>185</ele>
        <time>2017-09-24T13:29:56Z</time>
      </trkpt>
      <trkpt lat="43.38637" lon="1.72146">
        <ele>185</ele>
        <time>2017-09-24T13:30:00Z</time>
      </trkpt>
      <trkpt lat="43.3862" lon="1.72176">
        <ele>185</ele>
        <time>2017-09-24T13:30:04Z</time>
      </trkpt>
      <trkpt lat="43.38604" lon="1.722">
        <ele>184</ele>
        <time>2017-09-24T13:30:08Z</time>
      </trkpt>
      <trkpt lat="43.38589" lon="1.72223">
        <ele>184</ele>
        <time>2017-09-24T13:30:12Z</time>
      </trkpt>
      <trkpt lat="43.38571" lon="1.72253">
        <ele>184</ele>
        <time>2017-09-24T13:30:16Z</time>
      </trkpt>
      <trkpt lat="43.38552" lon="1.72287">
        <ele>184</ele>
        <time>2017-09-24T13:30:20Z</time>
      </trkpt>
      <trkpt lat="43.38533" lon="1.72322">
        <ele>185</ele>
        <time>2017-09-24T13:30:24Z</time>
      </trkpt>
      <trkpt lat="43.38513" lon="1.72359">
        <ele>185</ele>
        <time>2017-09-24T13:30:28Z</time>
      </trkpt>
      <trkpt lat="43.38494" lon="1.72395">
        <ele>185</ele>
        <time>2017-09-24T13:30:32Z</time>
      </trkpt>
      <trkpt lat="43.38477" lon="1.72429">
        <ele>185</ele>
        <time>2017-09-24T13:30:36Z</time>
      </trkpt>
      <trkpt lat="43.38461" lon="1.72463">
        <ele>184</ele>
        <time>2017-09-24T13:30:40Z</time>
      </trkpt>
      <trkpt lat="43.38446" lon="1.72495">
        <ele>185</ele>
        <time>2017-09-24T13:30:44Z</time>
      </trkpt>
      <trkpt lat="43.38433" lon="1.72525">
        <ele>185</ele>
        <time>2017-09-24T13:30:48Z</time>
      </trkpt>
      <trkpt lat="43.38421" lon="1.72554">
        <ele>185</ele>
        <time>2017-09-24T13:30:52Z</time>
      </trkpt>
      <trkpt lat="43.38409" lon="1.72587">
        <ele>185</ele>
        <time>2017-09-24T13:30:56Z</time>
      </trkpt>
      <trkpt lat="43.38399" lon="1.72612">
        <ele>185</ele>
        <time>2017-09-24T13:31:00Z</time>
      </trkpt>
      <trkpt lat="43.38391" lon="1.7263">
        <ele>185</ele>
        <time>2017-09-24T13:31:04Z</time>
      </trkpt>
      <trkpt lat="43.38378" lon="1.72656">
        <ele>185</ele>
        <time>2017-09-24T13:31:08Z</time>
      </trkpt>
      <trkpt lat="43.38362" lon="1.72691">
        <ele>185</ele>
        <time>2017-09-24T13:31:12Z</time>
      </trkpt>
      <trkpt lat="43.38348" lon="1.72725">
        <ele>186</ele>
        <time>2017-09-24T13:31:16Z</time>
      </trkpt>
      <trkpt lat="43.38332" lon="1.72747">
        <ele>186</ele>
        <time>2017-09-24T13:31:20Z</time>
      </trkpt>
      <trkpt lat="43.38321" lon="1.72761">
        <ele>186</ele>
        <time>2017-09-24T13:31:24Z</time>
      </trkpt>
      <trkpt lat="43.38307" lon="1.72784">
        <ele>186</ele>
        <time>2017-09-24T13:31:28Z</time>
      </trkpt>
      <trkpt lat="43.38292" lon="1.72806">
        <ele>187</ele>
        <time>2017-09-24T13:31:32Z</time>
      </trkpt>
      <trkpt lat="43.38283" lon="1.72832">
        <ele>187</ele>
        <time>2017-09-24T13:31:36Z</time>
      </trkpt>
      <trkpt lat="43.38268" lon="1.72854">
        <ele>188</ele>
        <time>2017-09-24T13:31:40Z</time>
      </trkpt>
      <trkpt lat="43.38254" lon="1.72878">
        <ele>189</ele>
        <time>2017-09-24T13:31:44Z</time>
      </trkpt>
      <trkpt lat="43.38242" lon="1.72899">
        <ele>189</ele>
        <time>2017-09-24T13:31:48Z</time>
      </trkpt>
      <trkpt lat="43.3823" lon="1.7292">
        <ele>189</ele>
        <time>2017-09-24T13:31:52Z</time>
      </trkpt>
      <trkpt lat="43.38216" lon="1.72947">
        <ele>188</ele>
        <time>2017-09-24T13:31:56Z</time>
      </trkpt>
      <trkpt lat="43.38204" lon="1.72971">
        <ele>189</ele>
        <time>2017-09-24T13:32:00Z</time>
      </trkpt>
      <trkpt lat="43.38188" lon="1.73003">
        <ele>189</ele>
        <time>2017-09-24T13:32:04Z</time>
      </trkpt>
      <trkpt lat="43.38174" lon="1.73039">
        <ele>189</ele>
        <time>2017-09-24T13:32:08Z</time>
      </trkpt>
      <trkpt lat="43.3816" lon="1.73077">
        <ele>188</ele>
        <time>2017-09-24T13:32:12Z</time>
      </trkpt>
      <trkpt lat="43.38144" lon="1.73119">
        <ele>188</ele>
        <time>2017-09-24T13:32:16Z</time>
      </trkpt>
      <trkpt lat="43.38129" lon="1.73163">
        <ele>188</ele>
        <time>2017-09-24T13:32:20Z</time>
      </trkpt>
      <trkpt lat="43.38118" lon="1.73203">
        <ele>188</ele>
        <time>2017-09-24T13:32:24Z</time>
      </trkpt>
      <trkpt lat="43.38108" lon="1.73246">
        <ele>188</ele>
        <time>2017-09-24T13:32:28Z</time>
      </trkpt>
      <trkpt lat="43.38102" lon="1.73285">
        <ele>188</ele>
        <time>2017-09-24T13:32:32Z</time>
      </trkpt>
      <trkpt lat="43.38093" lon="1.73324">
        <ele>188</ele>
        <time>2017-09-24T13:32:36Z</time>
      </trkpt>
      <trkpt lat="43.38086" lon="1.73358">
        <ele>189</ele>
        <time>2017-09-24T13:32:40Z</time>
      </trkpt>
      <trkpt lat="43.38075" lon="1.73395">
        <ele>189</ele>
        <time>2017-09-24T13:32:44Z</time>
      </trkpt>
      <trkpt lat="43.38063" lon="1.7343">
        <ele>189</ele>
        <time>2017-09-24T13:32:48Z</time>
      </trkpt>
      <trkpt lat="43.3805" lon="1.73465">
        <ele>189</ele>
        <time>2017-09-24T13:32:52Z</time>
      </trkpt>
      <trkpt lat="43.38037" lon="1.735">
        <ele>189</ele>
        <time>2017-09-24T13:32:56Z</time>
      </trkpt>
      <trkpt lat="43.38022" lon="1.73538">
        <ele>189</ele>
        <time>2017-09-24T13:33:00Z</time>
      </trkpt>
      <trkpt lat="43.38007" lon="1.73579">
        <ele>189</ele>
        <time>2017-09-24T13:33:04Z</time>
      </trkpt>
      <trkpt lat="43.3799" lon="1.73623">
        <ele>188</ele>
        <time>2017-09-24T13:33:08Z</time>
      </trkpt>
      <trkpt lat="43.37974" lon="1.73663">
        <ele>188</ele>
        <time>2017-09-24T13:33:12Z</time>
      </trkpt>
      <trkpt lat="43.37961" lon="1.73698">
        <ele>189</ele>
        <time>2017-09-24T13:33:16Z</time>
      </trkpt>
      <trkpt lat="43.37949" lon="1.73731">
        <ele>189</ele>
        <time>2017-09-24T13:33:20Z</time>
      </trkpt>
      <trkpt lat="43.37938" lon="1.73762">
        <ele>188</ele>
        <time>2017-09-24T13:33:24Z</time>
      </trkpt>
      <trkpt lat="43.37924" lon="1.73792">
        <ele>189</ele>
        <time>2017-09-24T13:33:28Z</time>
      </trkpt>
      <trkpt lat="43.37908" lon="1.73819">
        <ele>189</ele>
        <time>2017-09-24T13:33:32Z</time>
      </trkpt>
      <trkpt lat="43.37893" lon="1.7385">
        <ele>189</ele>
        <time>2017-09-24T13:33:36Z</time>
      </trkpt>
      <trkpt lat="43.37875" lon="1.73882">
        <ele>189</ele>
        <time>2017-09-24T13:33:40Z</time>
      </trkpt>
      <trkpt lat="43.37856" lon="1.73913">
        <ele>189</ele>
        <time>2017-09-24T13:33:44Z</time>
      </trkpt>
      <trkpt lat="43.37836" lon="1.7394">
        <ele>189</ele>
        <time>2017-09-24T13:33:48Z</time>
      </trkpt>
      <trkpt lat="43.37815" lon="1.73964">
        <ele>189</ele>
        <time>2017-09-24T13:33:52Z</time>
      </trkpt>
      <trkpt lat="43.37794" lon="1.73985">
        <ele>189</ele>
        <time>2017-09-24T13:33:56Z</time>
      </trkpt>
      <trkpt lat="43.37773" lon="1.74006">
        <ele>189</ele>
        <time>2017-09-24T13:34:00Z</time>
      </trkpt>
      <trkpt lat="43.37752" lon="1.74028">
        <ele>189</ele>
        <time>2017-09-24T13:34:04Z</time>
      </trkpt>
      <trkpt lat="43.37732" lon="1.74051">
        <ele>190</ele>
        <time>2017-09-24T13:34:08Z</time>
      </trkpt>
      <trkpt lat="43.37713" lon="1.74073">
        <ele>190</ele>
        <time>2017-09-24T13:34:12Z</time>
      </trkpt>
      <trkpt lat="43.37693" lon="1.74097">
        <ele>189</ele>
        <time>2017-09-24T13:34:16Z</time>
      </trkpt>
      <trkpt lat="43.37676" lon="1.74125">
        <ele>189</ele>
        <time>2017-09-24T13:34:20Z</time>
      </trkpt>
      <trkpt lat="43.37663" lon="1.74157">
        <ele>189</ele>
        <time>2017-09-24T13:34:24Z</time>
      </trkpt>
      <trkpt lat="43.37652" lon="1.74189">
        <ele>189</ele>
        <time>2017-09-24T13:34:28Z</time>
      </trkpt>
      <trkpt lat="43.37638" lon="1.74225">
        <ele>189</ele>
        <time>2017-09-24T13:34:32Z</time>
      </trkpt>
      <trkpt lat="43.37627" lon="1.74258">
        <ele>188</ele>
        <time>2017-09-24T13:34:36Z</time>
      </trkpt>
      <trkpt lat="43.37615" lon="1.74294">
        <ele>189</ele>
        <time>2017-09-24T13:34:40Z</time>
      </trkpt>
      <trkpt lat="43.37601" lon="1.74332">
        <ele>189</ele>
        <time>2017-09-24T13:34:44Z</time>
      </trkpt>
      <trkpt lat="43.37592" lon="1.74365">
        <ele>189</ele>
        <time>2017-09-24T13:34:48Z</time>
      </trkpt>
      <trkpt lat="43.37584" lon="1.74401">
        <ele>189</ele>
        <time>2017-09-24T13:34:52Z</time>
      </trkpt>
      <trkpt lat="43.37573" lon="1.74437">
        <ele>189</ele>
        <time>2017-09-24T13:34:56Z</time>
      </trkpt>
      <trkpt lat="43.37563" lon="1.7447">
        <ele>189</ele>
        <time>2017-09-24T13:35:00Z</time>
      </trkpt>
      <trkpt lat="43.37552" lon="1.74504">
        <ele>189</ele>
        <time>2017-09-24T13:35:04Z</time>
      </trkpt>
      <trkpt lat="43.37541" lon="1.74541">
        <ele>188</ele>
        <time>2017-09-24T13:35:08Z</time>
      </trkpt>
      <trkpt lat="43.3753" lon="1.74575">
        <ele>188</ele>
        <time>2017-09-24T13:35:12Z</time>
      </trkpt>
      <trkpt lat="43.37516" lon="1.74609">
        <ele>188</ele>
        <time>2017-09-24T13:35:16Z</time>
      </trkpt>
      <trkpt lat="43.37504" lon="1.74639">
        <ele>189</ele>
        <time>2017-09-24T13:35:20Z</time>
      </trkpt>
      <trkpt lat="43.37492" lon="1.7467">
        <ele>189</ele>
        <time>2017-09-24T13:35:24Z</time>
      </trkpt>
      <trkpt lat="43.37478" lon="1.74701">
        <ele>189</ele>
        <time>2017-09-24T13:35:28Z</time>
      </trkpt>
      <trkpt lat="43.37465" lon="1.74731">
        <ele>189</ele>
        <time>2017-09-24T13:35:32Z</time>
      </trkpt>
      <trkpt lat="43.37449" lon="1.74758">
        <ele>190</ele>
        <time>2017-09-24T13:35:36Z</time>
      </trkpt>
      <trkpt lat="43.37433" lon="1.74784">
        <ele>189</ele>
        <time>2017-09-24T13:35:40Z</time>
      </trkpt>
      <trkpt lat="43.37415" lon="1.74815">
        <ele>189</ele>
        <time>2017-09-24T13:35:44Z</time>
      </trkpt>
      <trkpt lat="43.37397" lon="1.74841">
        <ele>189</ele>
        <time>2017-09-24T13:35:48Z</time>
      </trkpt>
      <trkpt lat="43.37378" lon="1.74869">
        <ele>189</ele>
        <time>2017-09-24T13:35:52Z</time>
      </trkpt>
      <trkpt lat="43.3736" lon="1.74892">
        <ele>190</ele>
        <time>2017-09-24T13:35:56Z</time>
      </trkpt>
      <trkpt lat="43.37341" lon="1.74917">
        <ele>190</ele>
        <time>2017-09-24T13:36:00Z</time>
      </trkpt>
      <trkpt lat="43.37323" lon="1.74946">
        <ele>190</ele>
        <time>2017-09-24T13:36:04Z</time>
      </trkpt>
      <trkpt lat="43.37306" lon="1.74974">
        <ele>189</ele>
        <time>2017-09-24T13:36:08Z</time>
      </trkpt>
      <trkpt lat="43.3729" lon="1.75002">
        <ele>189</ele>
        <time>2017-09-24T13:36:12Z</time>
      </trkpt>
      <trkpt lat="43.37276" lon="1.75026">
        <ele>189</ele>
        <time>2017-09-24T13:36:16Z</time>
      </trkpt>
      <trkpt lat="43.37263" lon="1.75053">
        <ele>189</ele>
        <time>2017-09-24T13:36:20Z</time>
      </trkpt>
      <trkpt lat="43.37252" lon="1.7508">
        <ele>189</ele>
        <time>2017-09-24T13:36:24Z</time>
      </trkpt>
      <trkpt lat="43.3724" lon="1.75105">
        <ele>189</ele>
        <time>2017-09-24T13:36:28Z</time>
      </trkpt>
      <trkpt lat="43.37229" lon="1.75136">
        <ele>189</ele>
        <time>2017-09-24T13:36:32Z</time>
      </trkpt>
      <trkpt lat="43.37218" lon="1.75171">
        <ele>189</ele>
        <time>2017-09-24T13:36:36Z</time>
      </trkpt>
      <trkpt lat="43.37207" lon="1.752">
        <ele>188</ele>
        <time>2017-09-24T13:36:40Z</time>
      </trkpt>
      <trkpt lat="43.37197" lon="1.75224">
        <ele>188</ele>
        <time>2017-09-24T13:36:44Z</time>
      </trkpt>
      <trkpt lat="43.37186" lon="1.75255">
        <ele>189</ele>
        <time>2017-09-24T13:36:48Z</time>
      </trkpt>
      <trkpt lat="43.37173" lon="1.75289">
        <ele>189</ele>
        <time>2017-09-24T13:36:52Z</time>
      </trkpt>
      <trkpt lat="43.37158" lon="1.75327">
        <ele>189</ele>
        <time>2017-09-24T13:36:56Z</time>
      </trkpt>
      <trkpt lat="43.37139" lon="1.7536">
        <ele>189</ele>
        <time>2017-09-24T13:37:00Z</time>
      </trkpt>
      <trkpt lat="43.37119" lon="1.75391">
        <ele>189</ele>
        <time>2017-09-24T13:37:04Z</time>
      </trkpt>
      <trkpt lat="43.37099" lon="1.75415">
        <ele>190</ele>
        <time>2017-09-24T13:37:08Z</time>
      </trkpt>
      <trkpt lat="43.37077" lon="1.75438">
        <ele>189</ele>
        <time>2017-09-24T13:37:12Z</time>
      </trkpt>
      <trkpt lat="43.37053" lon="1.75459">
        <ele>189</ele>
        <time>2017-09-24T13:37:16Z</time>
      </trkpt>
      <trkpt lat="43.3703" lon="1.75482">
        <ele>189</ele>
        <time>2017-09-24T13:37:20Z</time>
      </trkpt>
      <trkpt lat="43.37006" lon="1.75508">
        <ele>189</ele>
        <time>2017-09-24T13:37:24Z</time>
      </trkpt>
      <trkpt lat="43.36984" lon="1.75529">
        <ele>190</ele>
        <time>2017-09-24T13:37:28Z</time>
      </trkpt>
      <trkpt lat="43.36964" lon="1.7555">
        <ele>190</ele>
        <time>2017-09-24T13:37:32Z</time>
      </trkpt>
      <trkpt lat="43.36944" lon="1.75572">
        <ele>190</ele>
        <time>2017-09-24T13:37:36Z</time>
      </trkpt>
      <trkpt lat="43.36923" lon="1.75592">
        <ele>190</ele>
        <time>2017-09-24T13:37:40Z</time>
      </trkpt>
      <trkpt lat="43.36902" lon="1.75606">
        <ele>191</ele>
        <time>2017-09-24T13:37:44Z</time>
      </trkpt>
      <trkpt lat="43.36885" lon="1.75625">
        <ele>191</ele>
        <time>2017-09-24T13:37:48Z</time>
      </trkpt>
      <trkpt lat="43.36868" lon="1.75645">
        <ele>191</ele>
        <time>2017-09-24T13:37:52Z</time>
      </trkpt>
      <trkpt lat="43.36852" lon="1.75664">
        <ele>191</ele>
        <time>2017-09-24T13:37:56Z</time>
      </trkpt>
      <trkpt lat="43.36836" lon="1.75685">
        <ele>192</ele>
        <time>2017-09-24T13:38:00Z</time>
      </trkpt>
      <trkpt lat="43.3682" lon="1.75705">
        <ele>192</ele>
        <time>2017-09-24T13:38:04Z</time>
      </trkpt>
      <trkpt lat="43.36807" lon="1.75724">
        <ele>193</ele>
        <time>2017-09-24T13:38:08Z</time>
      </trkpt>
      <trkpt lat="43.36792" lon="1.75743">
        <ele>194</ele>
        <time>2017-09-24T13:38:12Z</time>
      </trkpt>
      <trkpt lat="43.36777" lon="1.75764">
        <ele>194</ele>
        <time>2017-09-24T13:38:16Z</time>
      </trkpt>
      <trkpt lat="43.36761" lon="1.75787">
        <ele>194</ele>
        <time>2017-09-24T13:38:20Z</time>
      </trkpt>
      <trkpt lat="43.36745" lon="1.7581">
        <ele>194</ele>
        <time>2017-09-24T13:38:24Z</time>
      </trkpt>
      <trkpt lat="43.36731" lon="1.75836">
        <ele>193</ele>
        <time>2017-09-24T13:38:28Z</time>
      </trkpt>
      <trkpt lat="43.3672" lon="1.7586">
        <ele>194</ele>
        <time>2017-09-24T13:38:32Z</time>
      </trkpt>
      <trkpt lat="43.36709" lon="1.75887">
        <ele>195</ele>
        <time>2017-09-24T13:38:36Z</time>
      </trkpt>
      <trkpt lat="43.36696" lon="1.75919">
        <ele>195</ele>
        <time>2017-09-24T13:38:40Z</time>
      </trkpt>
      <trkpt lat="43.36683" lon="1.7595">
        <ele>195</ele>
        <time>2017-09-24T13:38:44Z</time>
      </trkpt>
      <trkpt lat="43.3667" lon="1.75979">
        <ele>195</ele>
        <time>2017-09-24T13:38:48Z</time>
      </trkpt>
      <trkpt lat="43.36659" lon="1.76007">
        <ele>195</ele>
        <time>2017-09-24T13:38:52Z</time>
      </trkpt>
      <trkpt lat="43.36649" lon="1.76032">
        <ele>195</ele>
        <time>2017-09-24T13:38:56Z</time>
      </trkpt>
      <trkpt lat="43.36637" lon="1.76061">
        <ele>194</ele>
        <time>2017-09-24T13:39:00Z</time>
      </trkpt>
      <trkpt lat="43.36624" lon="1.76099">
        <ele>194</ele>
        <time>2017-09-24T13:39:04Z</time>
      </trkpt>
      <trkpt lat="43.36614" lon="1.76134">
        <ele>194</ele>
        <time>2017-09-24T13:39:08Z</time>
      </trkpt>
      <trkpt lat="43.36605" lon="1.76169">
        <ele>195</ele>
        <time>2017-09-24T13:39:12Z</time>
      </trkpt>
      <trkpt lat="43.36597" lon="1.76206">
        <ele>194</ele>
        <time>2017-09-24T13:39:16Z</time>
      </trkpt>
      <trkpt lat="43.36589" lon="1.7625">
        <ele>194</ele>
        <time>2017-09-24T13:39:20Z</time>
      </trkpt>
      <trkpt lat="43.36584" lon="1.76289">
        <ele>193</ele>
        <time>2017-09-24T13:39:24Z</time>
      </trkpt>
      <trkpt lat="43.3658" lon="1.76322">
        <ele>194</ele>
        <time>2017-09-24T13:39:28Z</time>
      </trkpt>
      <trkpt lat="43.36573" lon="1.76353">
        <ele>194</ele>
        <time>2017-09-24T13:39:32Z</time>
      </trkpt>
      <trkpt lat="43.36568" lon="1.76383">
        <ele>194</ele>
        <time>2017-09-24T13:39:36Z</time>
      </trkpt>
      <trkpt lat="43.36561" lon="1.76413">
        <ele>195</ele>
        <time>2017-09-24T13:39:40Z</time>
      </trkpt>
      <trkpt lat="43.36549" lon="1.76442">
        <ele>194</ele>
        <time>2017-09-24T13:39:44Z</time>
      </trkpt>
      <trkpt lat="43.36532" lon="1.76474">
        <ele>193</ele>
        <time>2017-09-24T13:39:48Z</time>
      </trkpt>
      <trkpt lat="43.36516" lon="1.76508">
        <ele>193</ele>
        <time>2017-09-24T13:39:52Z</time>
      </trkpt>
      <trkpt lat="43.36502" lon="1.76542">
        <ele>193</ele>
        <time>2017-09-24T13:39:56Z</time>
      </trkpt>
      <trkpt lat="43.36491" lon="1.76569">
        <ele>193</ele>
        <time>2017-09-24T13:40:00Z</time>
      </trkpt>
      <trkpt lat="43.3648" lon="1.76604">
        <ele>193</ele>
        <time>2017-09-24T13:40:04Z</time>
      </trkpt>
      <trkpt lat="43.36468" lon="1.76638">
        <ele>193</ele>
        <time>2017-09-24T13:40:08Z</time>
      </trkpt>
      <trkpt lat="43.36456" lon="1.76671">
        <ele>192</ele>
        <time>2017-09-24T13:40:12Z</time>
      </trkpt>
      <trkpt lat="43.36444" lon="1.76704">
        <ele>192</ele>
        <time>2017-09-24T13:40:16Z</time>
      </trkpt>
      <trkpt lat="43.36433" lon="1.76736">
        <ele>193</ele>
        <time>2017-09-24T13:40:20Z</time>
      </trkpt>
      <trkpt lat="43.36424" lon="1.76768">
        <ele>192</ele>
        <time>2017-09-24T13:40:24Z</time>
      </trkpt>
      <trkpt lat="43.36415" lon="1.768">
        <ele>192</ele>
        <time>2017-09-24T13:40:28Z</time>
      </trkpt>
      <trkpt lat="43.36411" lon="1.7682">
        <ele>192</ele>
        <time>2017-09-24T13:40:32Z</time>
      </trkpt>
      <trkpt lat="43.36415" lon="1.76816">
        <ele>192</ele>
        <time>2017-09-24T13:44:28Z</time>
      </trkpt>
      <trkpt lat="43.3642" lon="1.76795">
        <ele>194</ele>
        <time>2017-09-24T13:44:32Z</time>
      </trkpt>
      <trkpt lat="43.36427" lon="1.76772">
        <ele>190</ele>
        <time>2017-09-24T13:44:36Z</time>
      </trkpt>
      <trkpt lat="43.36436" lon="1.76742">
        <ele>192</ele>
        <time>2017-09-24T13:44:44Z</time>
      </trkpt>
      <trkpt lat="43.36454" lon="1.7668">
        <ele>193</ele>
        <time>2017-09-24T13:44:48Z</time>
      </trkpt>
      <trkpt lat="43.36466" lon="1.76648">
        <ele>193</ele>
        <time>2017-09-24T13:44:52Z</time>
      </trkpt>
      <trkpt lat="43.36478" lon="1.76613">
        <ele>193</ele>
        <time>2017-09-24T13:44:56Z</time>
      </trkpt>
      <trkpt lat="43.36491" lon="1.76577">
        <ele>192</ele>
        <time>2017-09-24T13:45:00Z</time>
      </trkpt>
      <trkpt lat="43.36504" lon="1.76544">
        <ele>193</ele>
        <time>2017-09-24T13:45:04Z</time>
      </trkpt>
      <trkpt lat="43.36518" lon="1.76511">
        <ele>193</ele>
        <time>2017-09-24T13:45:08Z</time>
      </trkpt>
      <trkpt lat="43.36533" lon="1.7648">
        <ele>193</ele>
        <time>2017-09-24T13:45:12Z</time>
      </trkpt>
      <trkpt lat="43.36548" lon="1.76453">
        <ele>193</ele>
        <time>2017-09-24T13:45:16Z</time>
      </trkpt>
      <trkpt lat="43.3656" lon="1.76424">
        <ele>194</ele>
        <time>2017-09-24T13:45:20Z</time>
      </trkpt>
      <trkpt lat="43.36569" lon="1.76391">
        <ele>195</ele>
        <time>2017-09-24T13:45:24Z</time>
      </trkpt>
      <trkpt lat="43.36576" lon="1.76356">
        <ele>195</ele>
        <time>2017-09-24T13:45:28Z</time>
      </trkpt>
      <trkpt lat="43.36581" lon="1.7632">
        <ele>194</ele>
        <time>2017-09-24T13:45:32Z</time>
      </trkpt>
      <trkpt lat="43.36585" lon="1.7628">
        <ele>194</ele>
        <time>2017-09-24T13:45:36Z</time>
      </trkpt>
      <trkpt lat="43.36592" lon="1.76236">
        <ele>193</ele>
        <time>2017-09-24T13:45:40Z</time>
      </trkpt>
      <trkpt lat="43.366" lon="1.76197">
        <ele>193</ele>
        <time>2017-09-24T13:45:44Z</time>
      </trkpt>
      <trkpt lat="43.36608" lon="1.76162">
        <ele>194</ele>
        <time>2017-09-24T13:45:48Z</time>
      </trkpt>
      <trkpt lat="43.36617" lon="1.76127">
        <ele>194</ele>
        <time>2017-09-24T13:45:56Z</time>
      </trkpt>
      <trkpt lat="43.36628" lon="1.7609">
        <ele>194</ele>
        <time>2017-09-24T13:46:00Z</time>
      </trkpt>
      <trkpt lat="43.36654" lon="1.76027">
        <ele>195</ele>
        <time>2017-09-24T13:46:04Z</time>
      </trkpt>
      <trkpt lat="43.36668" lon="1.75993">
        <ele>195</ele>
        <time>2017-09-24T13:46:08Z</time>
      </trkpt>
      <trkpt lat="43.36682" lon="1.75958">
        <ele>195</ele>
        <time>2017-09-24T13:46:12Z</time>
      </trkpt>
      <trkpt lat="43.36696" lon="1.75925">
        <ele>194</ele>
        <time>2017-09-24T13:46:16Z</time>
      </trkpt>
      <trkpt lat="43.36709" lon="1.75893">
        <ele>194</ele>
        <time>2017-09-24T13:46:20Z</time>
      </trkpt>
      <trkpt lat="43.36723" lon="1.7586">
        <ele>194</ele>
        <time>2017-09-24T13:46:24Z</time>
      </trkpt>
      <trkpt lat="43.3674" lon="1.75827">
        <ele>193</ele>
        <time>2017-09-24T13:46:28Z</time>
      </trkpt>
      <trkpt lat="43.36759" lon="1.75797">
        <ele>193</ele>
        <time>2017-09-24T13:46:32Z</time>
      </trkpt>
      <trkpt lat="43.36778" lon="1.75771">
        <ele>193</ele>
        <time>2017-09-24T13:46:36Z</time>
      </trkpt>
      <trkpt lat="43.36799" lon="1.75746">
        <ele>193</ele>
        <time>2017-09-24T13:46:40Z</time>
      </trkpt>
      <trkpt lat="43.36817" lon="1.75719">
        <ele>193</ele>
        <time>2017-09-24T13:46:44Z</time>
      </trkpt>
      <trkpt lat="43.36839" lon="1.75689">
        <ele>191</ele>
        <time>2017-09-24T13:46:48Z</time>
      </trkpt>
      <trkpt lat="43.36862" lon="1.7566">
        <ele>191</ele>
        <time>2017-09-24T13:46:52Z</time>
      </trkpt>
      <trkpt lat="43.36886" lon="1.75635">
        <ele>191</ele>
        <time>2017-09-24T13:46:56Z</time>
      </trkpt>
      <trkpt lat="43.36911" lon="1.75616">
        <ele>190</ele>
        <time>2017-09-24T13:47:00Z</time>
      </trkpt>
      <trkpt lat="43.36936" lon="1.75595">
        <ele>189</ele>
        <time>2017-09-24T13:47:04Z</time>
      </trkpt>
      <trkpt lat="43.36959" lon="1.75573">
        <ele>190</ele>
        <time>2017-09-24T13:47:12Z</time>
      </trkpt>
      <trkpt lat="43.3701" lon="1.75525">
        <ele>189</ele>
        <time>2017-09-24T13:47:16Z</time>
      </trkpt>
      <trkpt lat="43.37036" lon="1.75497">
        <ele>189</ele>
        <time>2017-09-24T13:47:20Z</time>
      </trkpt>
      <trkpt lat="43.37061" lon="1.75474">
        <ele>188</ele>
        <time>2017-09-24T13:47:24Z</time>
      </trkpt>
      <trkpt lat="43.37083" lon="1.75455">
        <ele>188</ele>
        <time>2017-09-24T13:47:28Z</time>
      </trkpt>
      <trkpt lat="43.37106" lon="1.75431">
        <ele>189</ele>
        <time>2017-09-24T13:47:32Z</time>
      </trkpt>
      <trkpt lat="43.37131" lon="1.75403">
        <ele>189</ele>
        <time>2017-09-24T13:47:36Z</time>
      </trkpt>
      <trkpt lat="43.37152" lon="1.75368">
        <ele>189</ele>
        <time>2017-09-24T13:47:40Z</time>
      </trkpt>
      <trkpt lat="43.37169" lon="1.75334">
        <ele>189</ele>
        <time>2017-09-24T13:47:44Z</time>
      </trkpt>
      <trkpt lat="43.37182" lon="1.75301">
        <ele>189</ele>
        <time>2017-09-24T13:47:48Z</time>
      </trkpt>
      <trkpt lat="43.37196" lon="1.75266">
        <ele>189</ele>
        <time>2017-09-24T13:47:52Z</time>
      </trkpt>
      <trkpt lat="43.37209" lon="1.75227">
        <ele>188</ele>
        <time>2017-09-24T13:47:56Z</time>
      </trkpt>
      <trkpt lat="43.37222" lon="1.75188">
        <ele>188</ele>
        <time>2017-09-24T13:48:00Z</time>
      </trkpt>
      <trkpt lat="43.37235" lon="1.75157">
        <ele>188</ele>
        <time>2017-09-24T13:48:04Z</time>
      </trkpt>
      <trkpt lat="43.37245" lon="1.75122">
        <ele>188</ele>
        <time>2017-09-24T13:48:08Z</time>
      </trkpt>
      <trkpt lat="43.37256" lon="1.75085">
        <ele>188</ele>
        <time>2017-09-24T13:48:12Z</time>
      </trkpt>
      <trkpt lat="43.37272" lon="1.75053">
        <ele>188</ele>
        <time>2017-09-24T13:48:16Z</time>
      </trkpt>
      <trkpt lat="43.37289" lon="1.75019">
        <ele>188</ele>
        <time>2017-09-24T13:48:20Z</time>
      </trkpt>
      <trkpt lat="43.37306" lon="1.74988">
        <ele>188</ele>
        <time>2017-09-24T13:48:24Z</time>
      </trkpt>
      <trkpt lat="43.37326" lon="1.74963">
        <ele>188</ele>
        <time>2017-09-24T13:48:28Z</time>
      </trkpt>
      <trkpt lat="43.37345" lon="1.74939">
        <ele>189</ele>
        <time>2017-09-24T13:48:32Z</time>
      </trkpt>
      <trkpt lat="43.37363" lon="1.74916">
        <ele>189</ele>
        <time>2017-09-24T13:48:36Z</time>
      </trkpt>
      <trkpt lat="43.37384" lon="1.74889">
        <ele>189</ele>
        <time>2017-09-24T13:48:40Z</time>
      </trkpt>
      <trkpt lat="43.37405" lon="1.74863">
        <ele>189</ele>
        <time>2017-09-24T13:48:44Z</time>
      </trkpt>
      <trkpt lat="43.37425" lon="1.74835">
        <ele>189</ele>
        <time>2017-09-24T13:48:48Z</time>
      </trkpt>
      <trkpt lat="43.37444" lon="1.74807">
        <ele>189</ele>
        <time>2017-09-24T13:48:52Z</time>
      </trkpt>
      <trkpt lat="43.37462" lon="1.74781">
        <ele>189</ele>
        <time>2017-09-24T13:48:56Z</time>
      </trkpt>
      <trkpt lat="43.37475" lon="1.74743">
        <ele>189</ele>
        <time>2017-09-24T13:49:00Z</time>
      </trkpt>
      <trkpt lat="43.37491" lon="1.74708">
        <ele>188</ele>
        <time>2017-09-24T13:49:04Z</time>
      </trkpt>
      <trkpt lat="43.37506" lon="1.74669">
        <ele>188</ele>
        <time>2017-09-24T13:49:08Z</time>
      </trkpt>
      <trkpt lat="43.37518" lon="1.74631">
        <ele>188</ele>
        <time>2017-09-24T13:49:12Z</time>
      </trkpt>
      <trkpt lat="43.37531" lon="1.74593">
        <ele>188</ele>
        <time>2017-09-24T13:49:16Z</time>
      </trkpt>
      <trkpt lat="43.37542" lon="1.74555">
        <ele>188</ele>
        <time>2017-09-24T13:49:20Z</time>
      </trkpt>
      <trkpt lat="43.37553" lon="1.74519">
        <ele>188</ele>
        <time>2017-09-24T13:49:24Z</time>
      </trkpt>
      <trkpt lat="43.37564" lon="1.74486">
        <ele>188</ele>
        <time>2017-09-24T13:49:28Z</time>
      </trkpt>
      <trkpt lat="43.37574" lon="1.74451">
        <ele>188</ele>
        <time>2017-09-24T13:49:32Z</time>
      </trkpt>
      <trkpt lat="43.37584" lon="1.74416">
        <ele>188</ele>
        <time>2017-09-24T13:49:36Z</time>
      </trkpt>
      <trkpt lat="43.37593" lon="1.74378">
        <ele>188</ele>
        <time>2017-09-24T13:49:40Z</time>
      </trkpt>
      <trkpt lat="43.37603" lon="1.74341">
        <ele>189</ele>
        <time>2017-09-24T13:49:44Z</time>
      </trkpt>
      <trkpt lat="43.37615" lon="1.74304">
        <ele>189</ele>
        <time>2017-09-24T13:49:48Z</time>
      </trkpt>
      <trkpt lat="43.37627" lon="1.74268">
        <ele>188</ele>
        <time>2017-09-24T13:49:52Z</time>
      </trkpt>
      <trkpt lat="43.3764" lon="1.74231">
        <ele>188</ele>
        <time>2017-09-24T13:50:00Z</time>
      </trkpt>
      <trkpt lat="43.37664" lon="1.74162">
        <ele>188</ele>
        <time>2017-09-24T13:50:04Z</time>
      </trkpt>
      <trkpt lat="43.37679" lon="1.74132">
        <ele>189</ele>
        <time>2017-09-24T13:50:08Z</time>
      </trkpt>
      <trkpt lat="43.37698" lon="1.7411">
        <ele>189</ele>
        <time>2017-09-24T13:50:12Z</time>
      </trkpt>
      <trkpt lat="43.37718" lon="1.74092">
        <ele>189</ele>
        <time>2017-09-24T13:50:16Z</time>
      </trkpt>
      <trkpt lat="43.37739" lon="1.74072">
        <ele>189</ele>
        <time>2017-09-24T13:50:20Z</time>
      </trkpt>
      <trkpt lat="43.37764" lon="1.74049">
        <ele>189</ele>
        <time>2017-09-24T13:50:24Z</time>
      </trkpt>
      <trkpt lat="43.37786" lon="1.74024">
        <ele>189</ele>
        <time>2017-09-24T13:50:28Z</time>
      </trkpt>
      <trkpt lat="43.37809" lon="1.74">
        <ele>188</ele>
        <time>2017-09-24T13:50:32Z</time>
      </trkpt>
      <trkpt lat="43.37829" lon="1.73977">
        <ele>189</ele>
        <time>2017-09-24T13:50:36Z</time>
      </trkpt>
      <trkpt lat="43.3785" lon="1.73952">
        <ele>189</ele>
        <time>2017-09-24T13:50:40Z</time>
      </trkpt>
      <trkpt lat="43.37868" lon="1.73926">
        <ele>189</ele>
        <time>2017-09-24T13:50:44Z</time>
      </trkpt>
      <trkpt lat="43.37886" lon="1.73898">
        <ele>189</ele>
        <time>2017-09-24T13:50:48Z</time>
      </trkpt>
      <trkpt lat="43.37901" lon="1.73865">
        <ele>189</ele>
        <time>2017-09-24T13:50:52Z</time>
      </trkpt>
      <trkpt lat="43.37915" lon="1.73834">
        <ele>189</ele>
        <time>2017-09-24T13:50:56Z</time>
      </trkpt>
      <trkpt lat="43.3793" lon="1.73802">
        <ele>189</ele>
        <time>2017-09-24T13:51:00Z</time>
      </trkpt>
      <trkpt lat="43.37943" lon="1.73767">
        <ele>189</ele>
        <time>2017-09-24T13:51:04Z</time>
      </trkpt>
      <trkpt lat="43.37957" lon="1.73731">
        <ele>189</ele>
        <time>2017-09-24T13:51:12Z</time>
      </trkpt>
      <trkpt lat="43.37971" lon="1.73694">
        <ele>188</ele>
        <time>2017-09-24T13:51:16Z</time>
      </trkpt>
      <trkpt lat="43.37998" lon="1.73621">
        <ele>188</ele>
        <time>2017-09-24T13:51:20Z</time>
      </trkpt>
      <trkpt lat="43.38011" lon="1.73584">
        <ele>188</ele>
        <time>2017-09-24T13:51:24Z</time>
      </trkpt>
      <trkpt lat="43.38023" lon="1.73552">
        <ele>188</ele>
        <time>2017-09-24T13:51:28Z</time>
      </trkpt>
      <trkpt lat="43.38034" lon="1.73523">
        <ele>189</ele>
        <time>2017-09-24T13:51:32Z</time>
      </trkpt>
      <trkpt lat="43.38046" lon="1.73493">
        <ele>189</ele>
        <time>2017-09-24T13:51:36Z</time>
      </trkpt>
      <trkpt lat="43.38059" lon="1.7346">
        <ele>189</ele>
        <time>2017-09-24T13:51:40Z</time>
      </trkpt>
      <trkpt lat="43.38074" lon="1.73429">
        <ele>188</ele>
        <time>2017-09-24T13:51:44Z</time>
      </trkpt>
      <trkpt lat="43.38086" lon="1.73394">
        <ele>188</ele>
        <time>2017-09-24T13:51:48Z</time>
      </trkpt>
      <trkpt lat="43.38093" lon="1.73356">
        <ele>189</ele>
        <time>2017-09-24T13:51:52Z</time>
      </trkpt>
      <trkpt lat="43.381" lon="1.73317">
        <ele>189</ele>
        <time>2017-09-24T13:51:56Z</time>
      </trkpt>
      <trkpt lat="43.38107" lon="1.73276">
        <ele>188</ele>
        <time>2017-09-24T13:52:00Z</time>
      </trkpt>
      <trkpt lat="43.38116" lon="1.73238">
        <ele>188</ele>
        <time>2017-09-24T13:52:04Z</time>
      </trkpt>
      <trkpt lat="43.38126" lon="1.73201">
        <ele>188</ele>
        <time>2017-09-24T13:52:08Z</time>
      </trkpt>
      <trkpt lat="43.38137" lon="1.7316">
        <ele>188</ele>
        <time>2017-09-24T13:52:12Z</time>
      </trkpt>
      <trkpt lat="43.38149" lon="1.73124">
        <ele>188</ele>
        <time>2017-09-24T13:52:16Z</time>
      </trkpt>
      <trkpt lat="43.38161" lon="1.73094">
        <ele>188</ele>
        <time>2017-09-24T13:52:20Z</time>
      </trkpt>
      <trkpt lat="43.38175" lon="1.73061">
        <ele>189</ele>
        <time>2017-09-24T13:52:24Z</time>
      </trkpt>
      <trkpt lat="43.3819" lon="1.73034">
        <ele>189</ele>
        <time>2017-09-24T13:52:28Z</time>
      </trkpt>
      <trkpt lat="43.38204" lon="1.73005">
        <ele>189</ele>
        <time>2017-09-24T13:52:32Z</time>
      </trkpt>
      <trkpt lat="43.38219" lon="1.7297">
        <ele>189</ele>
        <time>2017-09-24T13:52:36Z</time>
      </trkpt>
      <trkpt lat="43.38233" lon="1.72938">
        <ele>189</ele>
        <time>2017-09-24T13:52:40Z</time>
      </trkpt>
      <trkpt lat="43.38246" lon="1.72908">
        <ele>189</ele>
        <time>2017-09-24T13:52:44Z</time>
      </trkpt>
      <trkpt lat="43.38263" lon="1.72879">
        <ele>189</ele>
        <time>2017-09-24T13:52:48Z</time>
      </trkpt>
      <trkpt lat="43.3828" lon="1.72848">
        <ele>189</ele>
        <time>2017-09-24T13:52:52Z</time>
      </trkpt>
      <trkpt lat="43.38299" lon="1.72808">
        <ele>187</ele>
        <time>2017-09-24T13:52:56Z</time>
      </trkpt>
      <trkpt lat="43.38317" lon="1.72774">
        <ele>187</ele>
        <time>2017-09-24T13:53:00Z</time>
      </trkpt>
      <trkpt lat="43.38335" lon="1.72758">
        <ele>187</ele>
        <time>2017-09-24T13:53:04Z</time>
      </trkpt>
      <trkpt lat="43.38352" lon="1.72724">
        <ele>186</ele>
        <time>2017-09-24T13:53:08Z</time>
      </trkpt>
      <trkpt lat="43.38365" lon="1.72689">
        <ele>186</ele>
        <time>2017-09-24T13:53:12Z</time>
      </trkpt>
      <trkpt lat="43.38378" lon="1.72657">
        <ele>185</ele>
        <time>2017-09-24T13:53:16Z</time>
      </trkpt>
      <trkpt lat="43.38394" lon="1.72629">
        <ele>185</ele>
        <time>2017-09-24T13:53:20Z</time>
      </trkpt>
      <trkpt lat="43.38408" lon="1.72599">
        <ele>185</ele>
        <time>2017-09-24T13:53:24Z</time>
      </trkpt>
      <trkpt lat="43.38423" lon="1.7257">
        <ele>185</ele>
        <time>2017-09-24T13:53:28Z</time>
      </trkpt>
      <trkpt lat="43.38436" lon="1.7254">
        <ele>185</ele>
        <time>2017-09-24T13:53:32Z</time>
      </trkpt>
      <trkpt lat="43.38446" lon="1.72508">
        <ele>185</ele>
        <time>2017-09-24T13:53:36Z</time>
      </trkpt>
      <trkpt lat="43.38461" lon="1.72477">
        <ele>185</ele>
        <time>2017-09-24T13:53:40Z</time>
      </trkpt>
      <trkpt lat="43.38478" lon="1.72448">
        <ele>185</ele>
        <time>2017-09-24T13:53:44Z</time>
      </trkpt>
      <trkpt lat="43.38492" lon="1.72429">
        <ele>184</ele>
        <time>2017-09-24T13:53:48Z</time>
      </trkpt>
      <trkpt lat="43.38507" lon="1.72405">
        <ele>184</ele>
        <time>2017-09-24T13:53:52Z</time>
      </trkpt>
      <trkpt lat="43.38526" lon="1.72379">
        <ele>185</ele>
        <time>2017-09-24T13:53:56Z</time>
      </trkpt>
      <trkpt lat="43.38543" lon="1.72347">
        <ele>185</ele>
        <time>2017-09-24T13:54:00Z</time>
      </trkpt>
      <trkpt lat="43.38565" lon="1.72316">
        <ele>185</ele>
        <time>2017-09-24T13:54:04Z</time>
      </trkpt>
      <trkpt lat="43.38587" lon="1.72285">
        <ele>185</ele>
        <time>2017-09-24T13:54:08Z</time>
      </trkpt>
      <trkpt lat="43.38603" lon="1.72256">
        <ele>185</ele>
        <time>2017-09-24T13:54:12Z</time>
      </trkpt>
      <trkpt lat="43.38617" lon="1.72227">
        <ele>185</ele>
        <time>2017-09-24T13:54:16Z</time>
      </trkpt>
      <trkpt lat="43.38633" lon="1.72195">
        <ele>185</ele>
        <time>2017-09-24T13:54:20Z</time>
      </trkpt>
      <trkpt lat="43.38651" lon="1.72162">
        <ele>185</ele>
        <time>2017-09-24T13:54:24Z</time>
      </trkpt>
      <trkpt lat="43.38671" lon="1.72131">
        <ele>185</ele>
        <time>2017-09-24T13:54:28Z</time>
      </trkpt>
      <trkpt lat="43.38694" lon="1.72106">
        <ele>185</ele>
        <time>2017-09-24T13:54:32Z</time>
      </trkpt>
      <trkpt lat="43.38716" lon="1.72087">
        <ele>185</ele>
        <time>2017-09-24T13:54:36Z</time>
      </trkpt>
      <trkpt lat="43.38742" lon="1.72073">
        <ele>185</ele>
        <time>2017-09-24T13:54:44Z</time>
      </trkpt>
      <trkpt lat="43.38764" lon="1.72058">
        <ele>185</ele>
        <time>2017-09-24T13:54:48Z</time>
      </trkpt>
      <trkpt lat="43.38812" lon="1.72039">
        <ele>185</ele>
        <time>2017-09-24T13:54:52Z</time>
      </trkpt>
      <trkpt lat="43.38842" lon="1.72031">
        <ele>185</ele>
        <time>2017-09-24T13:54:56Z</time>
      </trkpt>
      <trkpt lat="43.38872" lon="1.72023">
        <ele>185</ele>
        <time>2017-09-24T13:55:00Z</time>
      </trkpt>
      <trkpt lat="43.389" lon="1.72012">
        <ele>185</ele>
        <time>2017-09-24T13:55:04Z</time>
      </trkpt>
      <trkpt lat="43.38929" lon="1.71997">
        <ele>185</ele>
        <time>2017-09-24T13:55:08Z</time>
      </trkpt>
      <trkpt lat="43.38955" lon="1.71982">
        <ele>185</ele>
        <time>2017-09-24T13:55:12Z</time>
      </trkpt>
      <trkpt lat="43.38979" lon="1.7196">
        <ele>185</ele>
        <time>2017-09-24T13:55:16Z</time>
      </trkpt>
      <trkpt lat="43.38997" lon="1.71929">
        <ele>185</ele>
        <time>2017-09-24T13:55:20Z</time>
      </trkpt>
      <trkpt lat="43.39012" lon="1.71895">
        <ele>185</ele>
        <time>2017-09-24T13:55:24Z</time>
      </trkpt>
      <trkpt lat="43.39024" lon="1.7186">
        <ele>185</ele>
        <time>2017-09-24T13:55:28Z</time>
      </trkpt>
      <trkpt lat="43.39034" lon="1.71824">
        <ele>185</ele>
        <time>2017-09-24T13:55:32Z</time>
      </trkpt>
      <trkpt lat="43.39042" lon="1.71788">
        <ele>185</ele>
        <time>2017-09-24T13:55:36Z</time>
      </trkpt>
      <trkpt lat="43.39046" lon="1.71752">
        <ele>185</ele>
        <time>2017-09-24T13:55:40Z</time>
      </trkpt>
      <trkpt lat="43.39048" lon="1.71714">
        <ele>185</ele>
        <time>2017-09-24T13:55:44Z</time>
      </trkpt>
      <trkpt lat="43.39052" lon="1.71676">
        <ele>185</ele>
        <time>2017-09-24T13:55:48Z</time>
      </trkpt>
      <trkpt lat="43.39056" lon="1.71639">
        <ele>186</ele>
        <time>2017-09-24T13:55:56Z</time>
      </trkpt>
      <trkpt lat="43.39068" lon="1.71567">
        <ele>186</ele>
        <time>2017-09-24T13:56:00Z</time>
      </trkpt>
      <trkpt lat="43.39076" lon="1.7153">
        <ele>185</ele>
        <time>2017-09-24T13:56:04Z</time>
      </trkpt>
      <trkpt lat="43.39084" lon="1.71492">
        <ele>185</ele>
        <time>2017-09-24T13:56:08Z</time>
      </trkpt>
      <trkpt lat="43.39092" lon="1.71457">
        <ele>185</ele>
        <time>2017-09-24T13:56:12Z</time>
      </trkpt>
      <trkpt lat="43.39099" lon="1.7142">
        <ele>185</ele>
        <time>2017-09-24T13:56:16Z</time>
      </trkpt>
      <trkpt lat="43.39103" lon="1.71387">
        <ele>185</ele>
        <time>2017-09-24T13:56:20Z</time>
      </trkpt>
      <trkpt lat="43.39099" lon="1.71351">
        <ele>185</ele>
        <time>2017-09-24T13:56:24Z</time>
      </trkpt>
      <trkpt lat="43.39089" lon="1.71319">
        <ele>186</ele>
        <time>2017-09-24T13:56:28Z</time>
      </trkpt>
      <trkpt lat="43.39078" lon="1.7129">
        <ele>185</ele>
        <time>2017-09-24T13:56:32Z</time>
      </trkpt>
      <trkpt lat="43.39064" lon="1.71265">
        <ele>186</ele>
        <time>2017-09-24T13:56:36Z</time>
      </trkpt>
      <trkpt lat="43.39043" lon="1.71239">
        <ele>185</ele>
        <time>2017-09-24T13:56:40Z</time>
      </trkpt>
      <trkpt lat="43.39022" lon="1.71217">
        <ele>185</ele>
        <time>2017-09-24T13:56:44Z</time>
      </trkpt>
      <trkpt lat="43.38999" lon="1.71193">
        <ele>185</ele>
        <time>2017-09-24T13:56:48Z</time>
      </trkpt>
      <trkpt lat="43.38994" lon="1.71166">
        <ele>185</ele>
        <time>2017-09-24T13:56:52Z</time>
      </trkpt>
      <trkpt lat="43.38994" lon="1.71142">
        <ele>183</ele>
        <time>2017-09-24T13:56:56Z</time>
      </trkpt>
      <trkpt lat="43.38979" lon="1.71136">
        <ele>183</ele>
        <time>2017-09-24T13:57:00Z</time>
      </trkpt>
      <trkpt lat="43.38957" lon="1.71127">
        <ele>183</ele>
        <time>2017-09-24T13:57:04Z</time>
      </trkpt>
      <trkpt lat="43.38932" lon="1.71115">
        <ele>183</ele>
        <time>2017-09-24T13:57:12Z</time>
      </trkpt>
      <trkpt lat="43.38907" lon="1.71099">
        <ele>183</ele>
        <time>2017-09-24T13:57:16Z</time>
      </trkpt>
      <trkpt lat="43.38862" lon="1.71076">
        <ele>183</ele>
        <time>2017-09-24T13:57:20Z</time>
      </trkpt>
      <trkpt lat="43.3884" lon="1.71059">
        <ele>182</ele>
        <time>2017-09-24T13:57:24Z</time>
      </trkpt>
      <trkpt lat="43.38816" lon="1.7104">
        <ele>183</ele>
        <time>2017-09-24T13:57:28Z</time>
      </trkpt>
      <trkpt lat="43.38792" lon="1.7102">
        <ele>183</ele>
        <time>2017-09-24T13:57:32Z</time>
      </trkpt>
      <trkpt lat="43.38769" lon="1.71002">
        <ele>183</ele>
        <time>2017-09-24T13:57:36Z</time>
      </trkpt>
      <trkpt lat="43.38746" lon="1.70983">
        <ele>183</ele>
        <time>2017-09-24T13:57:40Z</time>
      </trkpt>
      <trkpt lat="43.3872" lon="1.70971">
        <ele>184</ele>
        <time>2017-09-24T13:57:44Z</time>
      </trkpt>
      <trkpt lat="43.38696" lon="1.70955">
        <ele>185</ele>
        <time>2017-09-24T13:57:48Z</time>
      </trkpt>
      <trkpt lat="43.38675" lon="1.70934">
        <ele>184</ele>
        <time>2017-09-24T13:57:52Z</time>
      </trkpt>
      <trkpt lat="43.38654" lon="1.7092">
        <ele>184</ele>
        <time>2017-09-24T13:57:56Z</time>
      </trkpt>
      <trkpt lat="43.38638" lon="1.70897">
        <ele>185</ele>
        <time>2017-09-24T13:58:00Z</time>
      </trkpt>
      <trkpt lat="43.38625" lon="1.70869">
        <ele>185</ele>
        <time>2017-09-24T13:58:04Z</time>
      </trkpt>
      <trkpt lat="43.3862" lon="1.70836">
        <ele>185</ele>
        <time>2017-09-24T13:58:08Z</time>
      </trkpt>
      <trkpt lat="43.38616" lon="1.70811">
        <ele>185</ele>
        <time>2017-09-24T13:58:12Z</time>
      </trkpt>
      <trkpt lat="43.38606" lon="1.70787">
        <ele>186</ele>
        <time>2017-09-24T13:58:16Z</time>
      </trkpt>
      <trkpt lat="43.38598" lon="1.7076">
        <ele>185</ele>
        <time>2017-09-24T13:58:20Z</time>
      </trkpt>
      <trkpt lat="43.38589" lon="1.70739">
        <ele>186</ele>
        <time>2017-09-24T13:58:28Z</time>
      </trkpt>
      <trkpt lat="43.38573" lon="1.70688">
        <ele>186</ele>
        <time>2017-09-24T13:58:32Z</time>
      </trkpt>
      <trkpt lat="43.3856" lon="1.70649">
        <ele>186</ele>
        <time>2017-09-24T13:58:36Z</time>
      </trkpt>
      <trkpt lat="43.38548" lon="1.70613">
        <ele>186</ele>
        <time>2017-09-24T13:58:40Z</time>
      </trkpt>
      <trkpt lat="43.38537" lon="1.70581">
        <ele>186</ele>
        <time>2017-09-24T13:58:44Z</time>
      </trkpt>
      <trkpt lat="43.38525" lon="1.70549">
        <ele>186</ele>
        <time>2017-09-24T13:58:48Z</time>
      </trkpt>
      <trkpt lat="43.38513" lon="1.7052">
        <ele>186</ele>
        <time>2017-09-24T13:58:52Z</time>
      </trkpt>
      <trkpt lat="43.38505" lon="1.7049">
        <ele>186</ele>
        <time>2017-09-24T13:58:56Z</time>
      </trkpt>
      <trkpt lat="43.38508" lon="1.70456">
        <ele>187</ele>
        <time>2017-09-24T13:59:00Z</time>
      </trkpt>
      <trkpt lat="43.38517" lon="1.70427">
        <ele>187</ele>
        <time>2017-09-24T13:59:04Z</time>
      </trkpt>
      <trkpt lat="43.38529" lon="1.70399">
        <ele>187</ele>
        <time>2017-09-24T13:59:08Z</time>
      </trkpt>
      <trkpt lat="43.38543" lon="1.70372">
        <ele>187</ele>
        <time>2017-09-24T13:59:12Z</time>
      </trkpt>
      <trkpt lat="43.38558" lon="1.70345">
        <ele>187</ele>
        <time>2017-09-24T13:59:16Z</time>
      </trkpt>
      <trkpt lat="43.38574" lon="1.70317">
        <ele>187</ele>
        <time>2017-09-24T13:59:20Z</time>
      </trkpt>
      <trkpt lat="43.3859" lon="1.70289">
        <ele>187</ele>
        <time>2017-09-24T13:59:24Z</time>
      </trkpt>
      <trkpt lat="43.38608" lon="1.70259">
        <ele>187</ele>
        <time>2017-09-24T13:59:28Z</time>
      </trkpt>
      <trkpt lat="43.38627" lon="1.70232">
        <ele>187</ele>
        <time>2017-09-24T13:59:32Z</time>
      </trkpt>
      <trkpt lat="43.38649" lon="1.70202">
        <ele>187</ele>
        <time>2017-09-24T13:59:36Z</time>
      </trkpt>
      <trkpt lat="43.38669" lon="1.70178">
        <ele>187</ele>
        <time>2017-09-24T13:59:40Z</time>
      </trkpt>
      <trkpt lat="43.38717" lon="1.70136">
        <ele>187</ele>
        <time>2017-09-24T13:59:48Z</time>
      </trkpt>
      <trkpt lat="43.38745" lon="1.70116">
        <ele>187</ele>
        <time>2017-09-24T13:59:52Z</time>
      </trkpt>
      <trkpt lat="43.38771" lon="1.70093">
        <ele>187</ele>
        <time>2017-09-24T13:59:56Z</time>
      </trkpt>
      <trkpt lat="43.38793" lon="1.7007">
        <ele>187</ele>
        <time>2017-09-24T14:00:00Z</time>
      </trkpt>
      <trkpt lat="43.3882" lon="1.7005">
        <ele>188</ele>
        <time>2017-09-24T14:00:04Z</time>
      </trkpt>
      <trkpt lat="43.38847" lon="1.70029">
        <ele>188</ele>
        <time>2017-09-24T14:00:08Z</time>
      </trkpt>
      <trkpt lat="43.38871" lon="1.70014">
        <ele>188</ele>
        <time>2017-09-24T14:00:12Z</time>
      </trkpt>
      <trkpt lat="43.38896" lon="1.70008">
        <ele>188</ele>
        <time>2017-09-24T14:00:16Z</time>
      </trkpt>
      <trkpt lat="43.38922" lon="1.70008">
        <ele>188</ele>
        <time>2017-09-24T14:00:20Z</time>
      </trkpt>
      <trkpt lat="43.38946" lon="1.70004">
        <ele>188</ele>
        <time>2017-09-24T14:00:24Z</time>
      </trkpt>
      <trkpt lat="43.38969" lon="1.6999">
        <ele>188</ele>
        <time>2017-09-24T14:00:28Z</time>
      </trkpt>
      <trkpt lat="43.38993" lon="1.69969">
        <ele>188</ele>
        <time>2017-09-24T14:00:32Z</time>
      </trkpt>
      <trkpt lat="43.39012" lon="1.69936">
        <ele>186</ele>
        <time>2017-09-24T14:00:36Z</time>
      </trkpt>
      <trkpt lat="43.39023" lon="1.699">
        <ele>187</ele>
        <time>2017-09-24T14:00:40Z</time>
      </trkpt>
      <trkpt lat="43.39034" lon="1.69858">
        <ele>188</ele>
        <time>2017-09-24T14:00:44Z</time>
      </trkpt>
      <trkpt lat="43.39041" lon="1.69817">
        <ele>188</ele>
        <time>2017-09-24T14:00:48Z</time>
      </trkpt>
      <trkpt lat="43.39045" lon="1.69778">
        <ele>188</ele>
        <time>2017-09-24T14:00:52Z</time>
      </trkpt>
      <trkpt lat="43.39046" lon="1.69739">
        <ele>188</ele>
        <time>2017-09-24T14:00:56Z</time>
      </trkpt>
      <trkpt lat="43.39036" lon="1.69705">
        <ele>188</ele>
        <time>2017-09-24T14:01:00Z</time>
      </trkpt>
      <trkpt lat="43.39021" lon="1.69672">
        <ele>188</ele>
        <time>2017-09-24T14:01:04Z</time>
      </trkpt>
      <trkpt lat="43.39007" lon="1.69645">
        <ele>188</ele>
        <time>2017-09-24T14:01:08Z</time>
      </trkpt>
      <trkpt lat="43.38993" lon="1.69616">
        <ele>189</ele>
        <time>2017-09-24T14:01:12Z</time>
      </trkpt>
      <trkpt lat="43.38986" lon="1.69581">
        <ele>189</ele>
        <time>2017-09-24T14:01:16Z</time>
      </trkpt>
      <trkpt lat="43.38988" lon="1.69543">
        <ele>189</ele>
        <time>2017-09-24T14:01:20Z</time>
      </trkpt>
      <trkpt lat="43.38993" lon="1.6951">
        <ele>189</ele>
        <time>2017-09-24T14:01:24Z</time>
      </trkpt>
      <trkpt lat="43.39" lon="1.69479">
        <ele>188</ele>
        <time>2017-09-24T14:01:28Z</time>
      </trkpt>
      <trkpt lat="43.39011" lon="1.69451">
        <ele>188</ele>
        <time>2017-09-24T14:01:32Z</time>
      </trkpt>
      <trkpt lat="43.39024" lon="1.69427">
        <ele>188</ele>
        <time>2017-09-24T14:01:36Z</time>
      </trkpt>
      <trkpt lat="43.39037" lon="1.694">
        <ele>188</ele>
        <time>2017-09-24T14:01:40Z</time>
      </trkpt>
      <trkpt lat="43.39058" lon="1.69374">
        <ele>188</ele>
        <time>2017-09-24T14:01:44Z</time>
      </trkpt>
      <trkpt lat="43.39076" lon="1.69347">
        <ele>187</ele>
        <time>2017-09-24T14:01:48Z</time>
      </trkpt>
      <trkpt lat="43.39096" lon="1.69321">
        <ele>187</ele>
        <time>2017-09-24T14:01:52Z</time>
      </trkpt>
      <trkpt lat="43.39115" lon="1.69297">
        <ele>188</ele>
        <time>2017-09-24T14:01:56Z</time>
      </trkpt>
      <trkpt lat="43.39133" lon="1.69267">
        <ele>187</ele>
        <time>2017-09-24T14:02:00Z</time>
      </trkpt>
      <trkpt lat="43.39154" lon="1.69237">
        <ele>186</ele>
        <time>2017-09-24T14:02:04Z</time>
      </trkpt>
      <trkpt lat="43.39175" lon="1.69213">
        <ele>186</ele>
        <time>2017-09-24T14:02:08Z</time>
      </trkpt>
      <trkpt lat="43.39187" lon="1.69201">
        <ele>187</ele>
        <time>2017-09-24T14:02:12Z</time>
      </trkpt>
      <trkpt lat="43.39193" lon="1.69195">
        <ele>187</ele>
        <time>2017-09-24T14:02:16Z</time>
      </trkpt>
      <trkpt lat="43.3921" lon="1.69177">
        <ele>187</ele>
        <time>2017-09-24T14:02:20Z</time>
      </trkpt>
      <trkpt lat="43.39231" lon="1.69153">
        <ele>185</ele>
        <time>2017-09-24T14:02:24Z</time>
      </trkpt>
      <trkpt lat="43.39246" lon="1.69108">
        <ele>185</ele>
        <time>2017-09-24T14:02:28Z</time>
      </trkpt>
      <trkpt lat="43.39261" lon="1.69066">
        <ele>186</ele>
        <time>2017-09-24T14:02:32Z</time>
      </trkpt>
      <trkpt lat="43.39274" lon="1.69024">
        <ele>186</ele>
        <time>2017-09-24T14:02:36Z</time>
      </trkpt>
      <trkpt lat="43.39289" lon="1.68986">
        <ele>186</ele>
        <time>2017-09-24T14:02:40Z</time>
      </trkpt>
      <trkpt lat="43.39303" lon="1.6895">
        <ele>186</ele>
        <time>2017-09-24T14:02:44Z</time>
      </trkpt>
      <trkpt lat="43.39317" lon="1.68916">
        <ele>186</ele>
        <time>2017-09-24T14:02:48Z</time>
      </trkpt>
      <trkpt lat="43.39336" lon="1.6889">
        <ele>186</ele>
        <time>2017-09-24T14:02:52Z</time>
      </trkpt>
      <trkpt lat="43.39352" lon="1.68862">
        <ele>187</ele>
        <time>2017-09-24T14:02:56Z</time>
      </trkpt>
      <trkpt lat="43.39366" lon="1.68827">
        <ele>186</ele>
        <time>2017-09-24T14:03:00Z</time>
      </trkpt>
      <trkpt lat="43.39392" lon="1.68824">
        <ele>185</ele>
        <time>2017-09-24T14:03:04Z</time>
      </trkpt>
      <trkpt lat="43.39413" lon="1.68828">
        <ele>186</ele>
        <time>2017-09-24T14:03:08Z</time>
      </trkpt>
      <trkpt lat="43.39438" lon="1.6883">
        <ele>187</ele>
        <time>2017-09-24T14:03:12Z</time>
      </trkpt>
      <trkpt lat="43.39466" lon="1.68835">
        <ele>187</ele>
        <time>2017-09-24T14:03:16Z</time>
      </trkpt>
      <trkpt lat="43.39494" lon="1.68837">
        <ele>187</ele>
        <time>2017-09-24T14:03:20Z</time>
      </trkpt>
      <trkpt lat="43.39521" lon="1.68827">
        <ele>187</ele>
        <time>2017-09-24T14:03:24Z</time>
      </trkpt>
      <trkpt lat="43.39542" lon="1.68802">
        <ele>187</ele>
        <time>2017-09-24T14:03:28Z</time>
      </trkpt>
      <trkpt lat="43.39556" lon="1.68772">
        <ele>187</ele>
        <time>2017-09-24T14:03:32Z</time>
      </trkpt>
      <trkpt lat="43.39565" lon="1.68744">
        <ele>188</ele>
        <time>2017-09-24T14:03:36Z</time>
      </trkpt>
      <trkpt lat="43.39574" lon="1.68718">
        <ele>188</ele>
        <time>2017-09-24T14:03:44Z</time>
      </trkpt>
      <trkpt lat="43.39579" lon="1.68653">
        <ele>188</ele>
        <time>2017-09-24T14:03:48Z</time>
      </trkpt>
      <trkpt lat="43.3958" lon="1.68617">
        <ele>188</ele>
        <time>2017-09-24T14:03:52Z</time>
      </trkpt>
      <trkpt lat="43.39577" lon="1.68583">
        <ele>188</ele>
        <time>2017-09-24T14:03:56Z</time>
      </trkpt>
      <trkpt lat="43.39573" lon="1.6855">
        <ele>187</ele>
        <time>2017-09-24T14:04:00Z</time>
      </trkpt>
      <trkpt lat="43.39567" lon="1.68514">
        <ele>187</ele>
        <time>2017-09-24T14:04:04Z</time>
      </trkpt>
      <trkpt lat="43.39572" lon="1.68478">
        <ele>187</ele>
        <time>2017-09-24T14:04:08Z</time>
      </trkpt>
      <trkpt lat="43.39584" lon="1.68442">
        <ele>187</ele>
        <time>2017-09-24T14:04:12Z</time>
      </trkpt>
      <trkpt lat="43.39605" lon="1.68413">
        <ele>187</ele>
        <time>2017-09-24T14:04:16Z</time>
      </trkpt>
      <trkpt lat="43.3963" lon="1.68392">
        <ele>187</ele>
        <time>2017-09-24T14:04:20Z</time>
      </trkpt>
      <trkpt lat="43.39655" lon="1.68375">
        <ele>187</ele>
        <time>2017-09-24T14:04:24Z</time>
      </trkpt>
      <trkpt lat="43.39677" lon="1.68358">
        <ele>187</ele>
        <time>2017-09-24T14:04:28Z</time>
      </trkpt>
      <trkpt lat="43.39697" lon="1.68342">
        <ele>187</ele>
        <time>2017-09-24T14:04:32Z</time>
      </trkpt>
      <trkpt lat="43.39718" lon="1.68313">
        <ele>187</ele>
        <time>2017-09-24T14:04:36Z</time>
      </trkpt>
      <trkpt lat="43.3974" lon="1.68285">
        <ele>187</ele>
        <time>2017-09-24T14:04:40Z</time>
      </trkpt>
      <trkpt lat="43.39755" lon="1.68253">
        <ele>187</ele>
        <time>2017-09-24T14:04:44Z</time>
      </trkpt>
      <trkpt lat="43.39764" lon="1.68218">
        <ele>187</ele>
        <time>2017-09-24T14:04:48Z</time>
      </trkpt>
      <trkpt lat="43.39773" lon="1.6818">
        <ele>187</ele>
        <time>2017-09-24T14:04:56Z</time>
      </trkpt>
      <trkpt lat="43.39793" lon="1.68111">
        <ele>187</ele>
        <time>2017-09-24T14:05:00Z</time>
      </trkpt>
      <trkpt lat="43.39806" lon="1.68076">
        <ele>187</ele>
        <time>2017-09-24T14:05:04Z</time>
      </trkpt>
      <trkpt lat="43.39823" lon="1.68044">
        <ele>186</ele>
        <time>2017-09-24T14:05:08Z</time>
      </trkpt>
      <trkpt lat="43.39846" lon="1.68018">
        <ele>185</ele>
        <time>2017-09-24T14:05:12Z</time>
      </trkpt>
      <trkpt lat="43.39868" lon="1.67999">
        <ele>184</ele>
        <time>2017-09-24T14:05:16Z</time>
      </trkpt>
      <trkpt lat="43.3988" lon="1.67987">
        <ele>184</ele>
        <time>2017-09-24T14:05:20Z</time>
      </trkpt>
      <trkpt lat="43.39899" lon="1.67974">
        <ele>182</ele>
        <time>2017-09-24T14:05:24Z</time>
      </trkpt>
      <trkpt lat="43.39922" lon="1.67952">
        <ele>182</ele>
        <time>2017-09-24T14:05:28Z</time>
      </trkpt>
      <trkpt lat="43.39945" lon="1.67926">
        <ele>183</ele>
        <time>2017-09-24T14:05:32Z</time>
      </trkpt>
      <trkpt lat="43.39965" lon="1.67901">
        <ele>183</ele>
        <time>2017-09-24T14:05:36Z</time>
      </trkpt>
      <trkpt lat="43.39986" lon="1.67872">
        <ele>181</ele>
        <time>2017-09-24T14:05:40Z</time>
      </trkpt>
      <trkpt lat="43.40006" lon="1.67839">
        <ele>181</ele>
        <time>2017-09-24T14:05:44Z</time>
      </trkpt>
      <trkpt lat="43.40025" lon="1.67805">
        <ele>182</ele>
        <time>2017-09-24T14:05:48Z</time>
      </trkpt>
      <trkpt lat="43.40042" lon="1.6777">
        <ele>182</ele>
        <time>2017-09-24T14:05:52Z</time>
      </trkpt>
      <trkpt lat="43.40058" lon="1.67737">
        <ele>182</ele>
        <time>2017-09-24T14:05:56Z</time>
      </trkpt>
      <trkpt lat="43.40074" lon="1.67703">
        <ele>182</ele>
        <time>2017-09-24T14:06:04Z</time>
      </trkpt>
      <trkpt lat="43.4009" lon="1.67676">
        <ele>182</ele>
        <time>2017-09-24T14:06:08Z</time>
      </trkpt>
      <trkpt lat="43.40123" lon="1.6762">
        <ele>181</ele>
        <time>2017-09-24T14:06:12Z</time>
      </trkpt>
      <trkpt lat="43.40137" lon="1.67593">
        <ele>181</ele>
        <time>2017-09-24T14:06:16Z</time>
      </trkpt>
      <trkpt lat="43.40152" lon="1.67561">
        <ele>182</ele>
        <time>2017-09-24T14:06:20Z</time>
      </trkpt>
      <trkpt lat="43.40167" lon="1.67529">
        <ele>181</ele>
        <time>2017-09-24T14:06:24Z</time>
      </trkpt>
      <trkpt lat="43.40182" lon="1.67499">
        <ele>181</ele>
        <time>2017-09-24T14:06:28Z</time>
      </trkpt>
      <trkpt lat="43.40195" lon="1.67469">
        <ele>181</ele>
        <time>2017-09-24T14:06:32Z</time>
      </trkpt>
      <trkpt lat="43.40205" lon="1.67435">
        <ele>182</ele>
        <time>2017-09-24T14:06:36Z</time>
      </trkpt>
      <trkpt lat="43.40216" lon="1.67401">
        <ele>181</ele>
        <time>2017-09-24T14:06:40Z</time>
      </trkpt>
      <trkpt lat="43.40226" lon="1.67365">
        <ele>182</ele>
        <time>2017-09-24T14:06:44Z</time>
      </trkpt>
      <trkpt lat="43.40236" lon="1.67333">
        <ele>181</ele>
        <time>2017-09-24T14:06:48Z</time>
      </trkpt>
      <trkpt lat="43.40246" lon="1.673">
        <ele>182</ele>
        <time>2017-09-24T14:06:52Z</time>
      </trkpt>
      <trkpt lat="43.40256" lon="1.67263">
        <ele>181</ele>
        <time>2017-09-24T14:06:56Z</time>
      </trkpt>
      <trkpt lat="43.40267" lon="1.67231">
        <ele>182</ele>
        <time>2017-09-24T14:07:00Z</time>
      </trkpt>
      <trkpt lat="43.4028" lon="1.67201">
        <ele>182</ele>
        <time>2017-09-24T14:07:04Z</time>
      </trkpt>
      <trkpt lat="43.40293" lon="1.6717">
        <ele>182</ele>
        <time>2017-09-24T14:07:08Z</time>
      </trkpt>
      <trkpt lat="43.40305" lon="1.67136">
        <ele>182</ele>
        <time>2017-09-24T14:07:12Z</time>
      </trkpt>
      <trkpt lat="43.40319" lon="1.67106">
        <ele>182</ele>
        <time>2017-09-24T14:07:16Z</time>
      </trkpt>
      <trkpt lat="43.40332" lon="1.67074">
        <ele>181</ele>
        <time>2017-09-24T14:07:24Z</time>
      </trkpt>
      <trkpt lat="43.40343" lon="1.67043">
        <ele>181</ele>
        <time>2017-09-24T14:07:28Z</time>
      </trkpt>
      <trkpt lat="43.40364" lon="1.66972">
        <ele>182</ele>
        <time>2017-09-24T14:07:32Z</time>
      </trkpt>
      <trkpt lat="43.40377" lon="1.6694">
        <ele>181</ele>
        <time>2017-09-24T14:07:36Z</time>
      </trkpt>
      <trkpt lat="43.40389" lon="1.66903">
        <ele>182</ele>
        <time>2017-09-24T14:07:40Z</time>
      </trkpt>
      <trkpt lat="43.40401" lon="1.66863">
        <ele>182</ele>
        <time>2017-09-24T14:07:44Z</time>
      </trkpt>
      <trkpt lat="43.40415" lon="1.66828">
        <ele>182</ele>
        <time>2017-09-24T14:07:48Z</time>
      </trkpt>
      <trkpt lat="43.40431" lon="1.66796">
        <ele>182</ele>
        <time>2017-09-24T14:07:52Z</time>
      </trkpt>
      <trkpt lat="43.40448" lon="1.66768">
        <ele>181</ele>
        <time>2017-09-24T14:07:56Z</time>
      </trkpt>
      <trkpt lat="43.40467" lon="1.66743">
        <ele>181</ele>
        <time>2017-09-24T14:08:00Z</time>
      </trkpt>
      <trkpt lat="43.4049" lon="1.66716">
        <ele>181</ele>
        <time>2017-09-24T14:08:04Z</time>
      </trkpt>
      <trkpt lat="43.40516" lon="1.66685">
        <ele>180</ele>
        <time>2017-09-24T14:08:08Z</time>
      </trkpt>
      <trkpt lat="43.40534" lon="1.66666">
        <ele>181</ele>
        <time>2017-09-24T14:08:12Z</time>
      </trkpt>
      <trkpt lat="43.40556" lon="1.66648">
        <ele>181</ele>
        <time>2017-09-24T14:08:16Z</time>
      </trkpt>
      <trkpt lat="43.40582" lon="1.66626">
        <ele>181</ele>
        <time>2017-09-24T14:08:20Z</time>
      </trkpt>
      <trkpt lat="43.40606" lon="1.66606">
        <ele>181</ele>
        <time>2017-09-24T14:08:24Z</time>
      </trkpt>
      <trkpt lat="43.40629" lon="1.66589">
        <ele>181</ele>
        <time>2017-09-24T14:08:28Z</time>
      </trkpt>
      <trkpt lat="43.40654" lon="1.66573">
        <ele>181</ele>
        <time>2017-09-24T14:08:32Z</time>
      </trkpt>
      <trkpt lat="43.4068" lon="1.66559">
        <ele>181</ele>
        <time>2017-09-24T14:08:40Z</time>
      </trkpt>
      <trkpt lat="43.40731" lon="1.66533">
        <ele>181</ele>
        <time>2017-09-24T14:08:44Z</time>
      </trkpt>
      <trkpt lat="43.40754" lon="1.66517">
        <ele>181</ele>
        <time>2017-09-24T14:08:48Z</time>
      </trkpt>
      <trkpt lat="43.40778" lon="1.66499">
        <ele>181</ele>
        <time>2017-09-24T14:08:52Z</time>
      </trkpt>
      <trkpt lat="43.40801" lon="1.66481">
        <ele>181</ele>
        <time>2017-09-24T14:08:56Z</time>
      </trkpt>
      <trkpt lat="43.40822" lon="1.66465">
        <ele>182</ele>
        <time>2017-09-24T14:09:00Z</time>
      </trkpt>
      <trkpt lat="43.40844" lon="1.66447">
        <ele>181</ele>
        <time>2017-09-24T14:09:04Z</time>
      </trkpt>
      <trkpt lat="43.40862" lon="1.66433">
        <ele>181</ele>
        <time>2017-09-24T14:09:08Z</time>
      </trkpt>
      <trkpt lat="43.40887" lon="1.6641">
        <ele>181</ele>
        <time>2017-09-24T14:09:12Z</time>
      </trkpt>
      <trkpt lat="43.40914" lon="1.66388">
        <ele>181</ele>
        <time>2017-09-24T14:09:16Z</time>
      </trkpt>
      <trkpt lat="43.40938" lon="1.66368">
        <ele>181</ele>
        <time>2017-09-24T14:09:20Z</time>
      </trkpt>
      <trkpt lat="43.40959" lon="1.66348">
        <ele>181</ele>
        <time>2017-09-24T14:09:24Z</time>
      </trkpt>
      <trkpt lat="43.40982" lon="1.66325">
        <ele>182</ele>
        <time>2017-09-24T14:09:28Z</time>
      </trkpt>
      <trkpt lat="43.41005" lon="1.66301">
        <ele>182</ele>
        <time>2017-09-24T14:09:32Z</time>
      </trkpt>
      <trkpt lat="43.41027" lon="1.66278">
        <ele>181</ele>
        <time>2017-09-24T14:09:36Z</time>
      </trkpt>
      <trkpt lat="43.41049" lon="1.66253">
        <ele>181</ele>
        <time>2017-09-24T14:09:40Z</time>
      </trkpt>
      <trkpt lat="43.41069" lon="1.66227">
        <ele>181</ele>
        <time>2017-09-24T14:09:44Z</time>
      </trkpt>
      <trkpt lat="43.41092" lon="1.66202">
        <ele>181</ele>
        <time>2017-09-24T14:09:52Z</time>
      </trkpt>
      <trkpt lat="43.41114" lon="1.66174">
        <ele>181</ele>
        <time>2017-09-24T14:09:56Z</time>
      </trkpt>
      <trkpt lat="43.41149" lon="1.66116">
        <ele>181</ele>
        <time>2017-09-24T14:10:00Z</time>
      </trkpt>
      <trkpt lat="43.41165" lon="1.66086">
        <ele>181</ele>
        <time>2017-09-24T14:10:04Z</time>
      </trkpt>
      <trkpt lat="43.4118" lon="1.66052">
        <ele>181</ele>
        <time>2017-09-24T14:10:08Z</time>
      </trkpt>
      <trkpt lat="43.41195" lon="1.6602">
        <ele>181</ele>
        <time>2017-09-24T14:10:12Z</time>
      </trkpt>
      <trkpt lat="43.41207" lon="1.6599">
        <ele>182</ele>
        <time>2017-09-24T14:10:16Z</time>
      </trkpt>
      <trkpt lat="43.41219" lon="1.65961">
        <ele>181</ele>
        <time>2017-09-24T14:10:20Z</time>
      </trkpt>
      <trkpt lat="43.41225" lon="1.65925">
        <ele>182</ele>
        <time>2017-09-24T14:10:24Z</time>
      </trkpt>
      <trkpt lat="43.41229" lon="1.65884">
        <ele>181</ele>
        <time>2017-09-24T14:10:28Z</time>
      </trkpt>
      <trkpt lat="43.41231" lon="1.65836">
        <ele>180</ele>
        <time>2017-09-24T14:10:32Z</time>
      </trkpt>
      <trkpt lat="43.41232" lon="1.65795">
        <ele>180</ele>
        <time>2017-09-24T14:10:36Z</time>
      </trkpt>
      <trkpt lat="43.41231" lon="1.65758">
        <ele>181</ele>
        <time>2017-09-24T14:10:40Z</time>
      </trkpt>
      <trkpt lat="43.41228" lon="1.65726">
        <ele>181</ele>
        <time>2017-09-24T14:10:44Z</time>
      </trkpt>
      <trkpt lat="43.41226" lon="1.657">
        <ele>183</ele>
        <time>2017-09-24T14:10:48Z</time>
      </trkpt>
      <trkpt lat="43.41218" lon="1.65668">
        <ele>183</ele>
        <time>2017-09-24T14:10:52Z</time>
      </trkpt>
      <trkpt lat="43.41213" lon="1.65638">
        <ele>183</ele>
        <time>2017-09-24T14:10:56Z</time>
      </trkpt>
      <trkpt lat="43.41206" lon="1.65606">
        <ele>183</ele>
        <time>2017-09-24T14:11:00Z</time>
      </trkpt>
      <trkpt lat="43.41199" lon="1.65574">
        <ele>183</ele>
        <time>2017-09-24T14:11:04Z</time>
      </trkpt>
      <trkpt lat="43.41191" lon="1.6554">
        <ele>183</ele>
        <time>2017-09-24T14:11:12Z</time>
      </trkpt>
      <trkpt lat="43.41184" lon="1.65508">
        <ele>182</ele>
        <time>2017-09-24T14:11:16Z</time>
      </trkpt>
      <trkpt lat="43.41176" lon="1.65475">
        <ele>182</ele>
        <time>2017-09-24T14:11:20Z</time>
      </trkpt>
      <trkpt lat="43.41162" lon="1.65409">
        <ele>183</ele>
        <time>2017-09-24T14:11:24Z</time>
      </trkpt>
      <trkpt lat="43.41158" lon="1.65381">
        <ele>184</ele>
        <time>2017-09-24T14:11:28Z</time>
      </trkpt>
      <trkpt lat="43.41152" lon="1.65348">
        <ele>184</ele>
        <time>2017-09-24T14:11:32Z</time>
      </trkpt>
      <trkpt lat="43.41144" lon="1.6531">
        <ele>184</ele>
        <time>2017-09-24T14:11:36Z</time>
      </trkpt>
      <trkpt lat="43.41139" lon="1.65267">
        <ele>184</ele>
        <time>2017-09-24T14:11:40Z</time>
      </trkpt>
      <trkpt lat="43.41135" lon="1.65226">
        <ele>183</ele>
        <time>2017-09-24T14:11:44Z</time>
      </trkpt>
      <trkpt lat="43.41133" lon="1.65183">
        <ele>182</ele>
        <time>2017-09-24T14:11:48Z</time>
      </trkpt>
      <trkpt lat="43.41132" lon="1.65137">
        <ele>181</ele>
        <time>2017-09-24T14:11:52Z</time>
      </trkpt>
      <trkpt lat="43.41135" lon="1.65093">
        <ele>182</ele>
        <time>2017-09-24T14:11:56Z</time>
      </trkpt>
      <trkpt lat="43.41137" lon="1.65053">
        <ele>182</ele>
        <time>2017-09-24T14:12:00Z</time>
      </trkpt>
      <trkpt lat="43.41142" lon="1.6502">
        <ele>182</ele>
        <time>2017-09-24T14:12:04Z</time>
      </trkpt>
      <trkpt lat="43.41148" lon="1.64984">
        <ele>182</ele>
        <time>2017-09-24T14:12:08Z</time>
      </trkpt>
      <trkpt lat="43.41156" lon="1.64949">
        <ele>182</ele>
        <time>2017-09-24T14:12:12Z</time>
      </trkpt>
      <trkpt lat="43.41166" lon="1.64919">
        <ele>182</ele>
        <time>2017-09-24T14:12:16Z</time>
      </trkpt>
      <trkpt lat="43.41175" lon="1.64884">
        <ele>183</ele>
        <time>2017-09-24T14:12:20Z</time>
      </trkpt>
      <trkpt lat="43.41184" lon="1.64857">
        <ele>183</ele>
        <time>2017-09-24T14:12:24Z</time>
      </trkpt>
      <trkpt lat="43.41197" lon="1.64829">
        <ele>183</ele>
        <time>2017-09-24T14:12:32Z</time>
      </trkpt>
      <trkpt lat="43.41235" lon="1.64786">
        <ele>183</ele>
        <time>2017-09-24T14:12:36Z</time>
      </trkpt>
      <trkpt lat="43.41256" lon="1.64769">
        <ele>183</ele>
        <time>2017-09-24T14:12:40Z</time>
      </trkpt>
      <trkpt lat="43.41283" lon="1.64754">
        <ele>182</ele>
        <time>2017-09-24T14:12:44Z</time>
      </trkpt>
      <trkpt lat="43.41312" lon="1.64742">
        <ele>182</ele>
        <time>2017-09-24T14:12:48Z</time>
      </trkpt>
      <trkpt lat="43.41341" lon="1.6473">
        <ele>182</ele>
        <time>2017-09-24T14:12:52Z</time>
      </trkpt>
      <trkpt lat="43.41368" lon="1.64717">
        <ele>182</ele>
        <time>2017-09-24T14:12:56Z</time>
      </trkpt>
      <trkpt lat="43.41397" lon="1.64701">
        <ele>182</ele>
        <time>2017-09-24T14:13:00Z</time>
      </trkpt>
      <trkpt lat="43.41421" lon="1.64678">
        <ele>182</ele>
        <time>2017-09-24T14:13:04Z</time>
      </trkpt>
      <trkpt lat="43.41445" lon="1.6465">
        <ele>182</ele>
        <time>2017-09-24T14:13:08Z</time>
      </trkpt>
      <trkpt lat="43.41464" lon="1.64619">
        <ele>182</ele>
        <time>2017-09-24T14:13:12Z</time>
      </trkpt>
      <trkpt lat="43.41481" lon="1.64589">
        <ele>182</ele>
        <time>2017-09-24T14:13:16Z</time>
      </trkpt>
      <trkpt lat="43.41497" lon="1.64559">
        <ele>183</ele>
        <time>2017-09-24T14:13:20Z</time>
      </trkpt>
      <trkpt lat="43.41512" lon="1.64528">
        <ele>182</ele>
        <time>2017-09-24T14:13:24Z</time>
      </trkpt>
      <trkpt lat="43.41528" lon="1.64495">
        <ele>182</ele>
        <time>2017-09-24T14:13:28Z</time>
      </trkpt>
      <trkpt lat="43.41545" lon="1.64463">
        <ele>182</ele>
        <time>2017-09-24T14:13:32Z</time>
      </trkpt>
      <trkpt lat="43.41565" lon="1.6443">
        <ele>182</ele>
        <time>2017-09-24T14:13:36Z</time>
      </trkpt>
      <trkpt lat="43.41579" lon="1.64397">
        <ele>182</ele>
        <time>2017-09-24T14:13:40Z</time>
      </trkpt>
      <trkpt lat="43.41599" lon="1.64368">
        <ele>182</ele>
        <time>2017-09-24T14:13:44Z</time>
      </trkpt>
      <trkpt lat="43.41622" lon="1.64335">
        <ele>181</ele>
        <time>2017-09-24T14:13:48Z</time>
      </trkpt>
      <trkpt lat="43.41645" lon="1.64304">
        <ele>181</ele>
        <time>2017-09-24T14:13:52Z</time>
      </trkpt>
      <trkpt lat="43.41668" lon="1.64279">
        <ele>181</ele>
        <time>2017-09-24T14:13:56Z</time>
      </trkpt>
      <trkpt lat="43.41694" lon="1.64252">
        <ele>180</ele>
        <time>2017-09-24T14:14:00Z</time>
      </trkpt>
      <trkpt lat="43.41722" lon="1.64229">
        <ele>180</ele>
        <time>2017-09-24T14:14:04Z</time>
      </trkpt>
      <trkpt lat="43.41749" lon="1.64207">
        <ele>180</ele>
        <time>2017-09-24T14:14:08Z</time>
      </trkpt>
      <trkpt lat="43.41769" lon="1.64186">
        <ele>180</ele>
        <time>2017-09-24T14:14:12Z</time>
      </trkpt>
      <trkpt lat="43.41792" lon="1.64172">
        <ele>180</ele>
        <time>2017-09-24T14:14:16Z</time>
      </trkpt>
      <trkpt lat="43.41815" lon="1.64159">
        <ele>181</ele>
        <time>2017-09-24T14:14:20Z</time>
      </trkpt>
      <trkpt lat="43.41842" lon="1.64154">
        <ele>181</ele>
        <time>2017-09-24T14:14:24Z</time>
      </trkpt>
      <trkpt lat="43.41863" lon="1.64134">
        <ele>180</ele>
        <time>2017-09-24T14:14:28Z</time>
      </trkpt>
      <trkpt lat="43.41883" lon="1.6411">
        <ele>180</ele>
        <time>2017-09-24T14:14:32Z</time>
      </trkpt>
      <trkpt lat="43.41911" lon="1.64093">
        <ele>178</ele>
        <time>2017-09-24T14:14:36Z</time>
      </trkpt>
      <trkpt lat="43.41939" lon="1.64079">
        <ele>179</ele>
        <time>2017-09-24T14:14:40Z</time>
      </trkpt>
      <trkpt lat="43.4196" lon="1.64064">
        <ele>180</ele>
        <time>2017-09-24T14:14:44Z</time>
      </trkpt>
      <trkpt lat="43.41981" lon="1.6405">
        <ele>180</ele>
        <time>2017-09-24T14:14:48Z</time>
      </trkpt>
      <trkpt lat="43.42006" lon="1.64033">
        <ele>180</ele>
        <time>2017-09-24T14:14:52Z</time>
      </trkpt>
      <trkpt lat="43.42029" lon="1.64016">
        <ele>180</ele>
        <time>2017-09-24T14:14:56Z</time>
      </trkpt>
      <trkpt lat="43.42051" lon="1.63999">
        <ele>180</ele>
        <time>2017-09-24T14:15:00Z</time>
      </trkpt>
      <trkpt lat="43.42074" lon="1.63979">
        <ele>180</ele>
        <time>2017-09-24T14:15:04Z</time>
      </trkpt>
      <trkpt lat="43.42093" lon="1.63958">
        <ele>181</ele>
        <time>2017-09-24T14:15:08Z</time>
      </trkpt>
      <trkpt lat="43.42115" lon="1.63936">
        <ele>181</ele>
        <time>2017-09-24T14:15:12Z</time>
      </trkpt>
      <trkpt lat="43.42138" lon="1.63913">
        <ele>180</ele>
        <time>2017-09-24T14:15:16Z</time>
      </trkpt>
      <trkpt lat="43.42161" lon="1.63893">
        <ele>180</ele>
        <time>2017-09-24T14:15:20Z</time>
      </trkpt>
      <trkpt lat="43.42183" lon="1.63872">
        <ele>179</ele>
        <time>2017-09-24T14:15:24Z</time>
      </trkpt>
      <trkpt lat="43.42204" lon="1.63852">
        <ele>178</ele>
        <time>2017-09-24T14:15:28Z</time>
      </trkpt>
      <trkpt lat="43.42227" lon="1.63832">
        <ele>179</ele>
        <time>2017-09-24T14:15:32Z</time>
      </trkpt>
      <trkpt lat="43.42254" lon="1.63807">
        <ele>179</ele>
        <time>2017-09-24T14:15:36Z</time>
      </trkpt>
      <trkpt lat="43.42281" lon="1.6378">
        <ele>178</ele>
        <time>2017-09-24T14:15:40Z</time>
      </trkpt>
      <trkpt lat="43.42306" lon="1.63756">
        <ele>179</ele>
        <time>2017-09-24T14:15:44Z</time>
      </trkpt>
      <trkpt lat="43.42328" lon="1.63732">
        <ele>178</ele>
        <time>2017-09-24T14:15:48Z</time>
      </trkpt>
      <trkpt lat="43.42348" lon="1.63709">
        <ele>178</ele>
        <time>2017-09-24T14:15:52Z</time>
      </trkpt>
      <trkpt lat="43.42369" lon="1.6368">
        <ele>179</ele>
        <time>2017-09-24T14:15:56Z</time>
      </trkpt>
      <trkpt lat="43.42385" lon="1.63649">
        <ele>179</ele>
        <time>2017-09-24T14:16:00Z</time>
      </trkpt>
      <trkpt lat="43.42405" lon="1.63623">
        <ele>179</ele>
        <time>2017-09-24T14:16:04Z</time>
      </trkpt>
      <trkpt lat="43.42426" lon="1.63597">
        <ele>179</ele>
        <time>2017-09-24T14:16:08Z</time>
      </trkpt>
      <trkpt lat="43.42444" lon="1.63568">
        <ele>178</ele>
        <time>2017-09-24T14:16:12Z</time>
      </trkpt>
      <trkpt lat="43.42462" lon="1.63543">
        <ele>177</ele>
        <time>2017-09-24T14:16:16Z</time>
      </trkpt>
      <trkpt lat="43.42477" lon="1.63522">
        <ele>178</ele>
        <time>2017-09-24T14:16:24Z</time>
      </trkpt>
      <trkpt lat="43.42516" lon="1.63465">
        <ele>179</ele>
        <time>2017-09-24T14:16:28Z</time>
      </trkpt>
      <trkpt lat="43.42538" lon="1.6344">
        <ele>178</ele>
        <time>2017-09-24T14:16:32Z</time>
      </trkpt>
      <trkpt lat="43.42568" lon="1.6343">
        <ele>177</ele>
        <time>2017-09-24T14:16:36Z</time>
      </trkpt>
      <trkpt lat="43.42597" lon="1.63432">
        <ele>177</ele>
        <time>2017-09-24T14:16:40Z</time>
      </trkpt>
      <trkpt lat="43.42624" lon="1.6343">
        <ele>178</ele>
        <time>2017-09-24T14:16:44Z</time>
      </trkpt>
      <trkpt lat="43.4265" lon="1.63417">
        <ele>177</ele>
        <time>2017-09-24T14:16:48Z</time>
      </trkpt>
      <trkpt lat="43.42673" lon="1.63393">
        <ele>178</ele>
        <time>2017-09-24T14:16:52Z</time>
      </trkpt>
      <trkpt lat="43.42694" lon="1.63367">
        <ele>178</ele>
        <time>2017-09-24T14:16:56Z</time>
      </trkpt>
      <trkpt lat="43.42708" lon="1.63336">
        <ele>178</ele>
        <time>2017-09-24T14:17:00Z</time>
      </trkpt>
      <trkpt lat="43.4272" lon="1.63302">
        <ele>178</ele>
        <time>2017-09-24T14:17:04Z</time>
      </trkpt>
      <trkpt lat="43.4272" lon="1.63258">
        <ele>178</ele>
        <time>2017-09-24T14:17:08Z</time>
      </trkpt>
      <trkpt lat="43.42712" lon="1.63221">
        <ele>178</ele>
        <time>2017-09-24T14:17:12Z</time>
      </trkpt>
      <trkpt lat="43.42701" lon="1.63188">
        <ele>178</ele>
        <time>2017-09-24T14:17:16Z</time>
      </trkpt>
      <trkpt lat="43.42684" lon="1.6315">
        <ele>178</ele>
        <time>2017-09-24T14:17:20Z</time>
      </trkpt>
      <trkpt lat="43.42667" lon="1.63115">
        <ele>178</ele>
        <time>2017-09-24T14:17:24Z</time>
      </trkpt>
      <trkpt lat="43.42651" lon="1.63081">
        <ele>178</ele>
        <time>2017-09-24T14:17:32Z</time>
      </trkpt>
      <trkpt lat="43.42636" lon="1.63044">
        <ele>179</ele>
        <time>2017-09-24T14:17:36Z</time>
      </trkpt>
      <trkpt lat="43.42626" lon="1.63004">
        <ele>178</ele>
        <time>2017-09-24T14:17:40Z</time>
      </trkpt>
      <trkpt lat="43.42621" lon="1.62964">
        <ele>179</ele>
        <time>2017-09-24T14:17:44Z</time>
      </trkpt>
      <trkpt lat="43.42626" lon="1.6289">
        <ele>179</ele>
        <time>2017-09-24T14:17:48Z</time>
      </trkpt>
      <trkpt lat="43.42637" lon="1.62856">
        <ele>178</ele>
        <time>2017-09-24T14:17:52Z</time>
      </trkpt>
      <trkpt lat="43.42647" lon="1.62825">
        <ele>179</ele>
        <time>2017-09-24T14:17:56Z</time>
      </trkpt>
      <trkpt lat="43.42658" lon="1.62795">
        <ele>179</ele>
        <time>2017-09-24T14:18:00Z</time>
      </trkpt>
      <trkpt lat="43.42668" lon="1.62762">
        <ele>179</ele>
        <time>2017-09-24T14:18:04Z</time>
      </trkpt>
      <trkpt lat="43.42678" lon="1.62725">
        <ele>178</ele>
        <time>2017-09-24T14:18:08Z</time>
      </trkpt>
      <trkpt lat="43.4269" lon="1.62681">
        <ele>176</ele>
        <time>2017-09-24T14:18:12Z</time>
      </trkpt>
      <trkpt lat="43.42701" lon="1.62643">
        <ele>177</ele>
        <time>2017-09-24T14:18:16Z</time>
      </trkpt>
      <trkpt lat="43.4271" lon="1.62612">
        <ele>178</ele>
        <time>2017-09-24T14:18:20Z</time>
      </trkpt>
      <trkpt lat="43.42719" lon="1.62581">
        <ele>178</ele>
        <time>2017-09-24T14:18:24Z</time>
      </trkpt>
      <trkpt lat="43.42728" lon="1.6255">
        <ele>179</ele>
        <time>2017-09-24T14:18:28Z</time>
      </trkpt>
      <trkpt lat="43.4274" lon="1.62516">
        <ele>179</ele>
        <time>2017-09-24T14:18:32Z</time>
      </trkpt>
      <trkpt lat="43.42752" lon="1.62483">
        <ele>178</ele>
        <time>2017-09-24T14:18:36Z</time>
      </trkpt>
      <trkpt lat="43.42769" lon="1.62451">
        <ele>178</ele>
        <time>2017-09-24T14:18:44Z</time>
      </trkpt>
      <trkpt lat="43.42786" lon="1.6242">
        <ele>179</ele>
        <time>2017-09-24T14:18:48Z</time>
      </trkpt>
      <trkpt lat="43.42804" lon="1.62393">
        <ele>179</ele>
        <time>2017-09-24T14:18:52Z</time>
      </trkpt>
      <trkpt lat="43.4282" lon="1.6237">
        <ele>179</ele>
        <time>2017-09-24T14:18:56Z</time>
      </trkpt>
      <trkpt lat="43.42855" lon="1.62321">
        <ele>179</ele>
        <time>2017-09-24T14:19:00Z</time>
      </trkpt>
      <trkpt lat="43.42876" lon="1.6229">
        <ele>179</ele>
        <time>2017-09-24T14:19:04Z</time>
      </trkpt>
      <trkpt lat="43.42898" lon="1.62259">
        <ele>179</ele>
        <time>2017-09-24T14:19:08Z</time>
      </trkpt>
      <trkpt lat="43.42917" lon="1.62226">
        <ele>179</ele>
        <time>2017-09-24T14:19:12Z</time>
      </trkpt>
      <trkpt lat="43.42939" lon="1.62196">
        <ele>179</ele>
        <time>2017-09-24T14:19:16Z</time>
      </trkpt>
      <trkpt lat="43.42956" lon="1.62166">
        <ele>179</ele>
        <time>2017-09-24T14:19:20Z</time>
      </trkpt>
      <trkpt lat="43.42978" lon="1.62143">
        <ele>178</ele>
        <time>2017-09-24T14:19:24Z</time>
      </trkpt>
      <trkpt lat="43.43005" lon="1.62119">
        <ele>178</ele>
        <time>2017-09-24T14:19:28Z</time>
      </trkpt>
      <trkpt lat="43.43032" lon="1.62102">
        <ele>178</ele>
        <time>2017-09-24T14:19:32Z</time>
      </trkpt>
      <trkpt lat="43.43062" lon="1.62096">
        <ele>178</ele>
        <time>2017-09-24T14:19:36Z</time>
      </trkpt>
      <trkpt lat="43.43093" lon="1.62096">
        <ele>178</ele>
        <time>2017-09-24T14:19:40Z</time>
      </trkpt>
      <trkpt lat="43.43123" lon="1.62099">
        <ele>178</ele>
        <time>2017-09-24T14:19:44Z</time>
      </trkpt>
      <trkpt lat="43.43153" lon="1.62102">
        <ele>177</ele>
        <time>2017-09-24T14:19:48Z</time>
      </trkpt>
      <trkpt lat="43.43183" lon="1.62102">
        <ele>177</ele>
        <time>2017-09-24T14:19:52Z</time>
      </trkpt>
      <trkpt lat="43.43213" lon="1.62095">
        <ele>177</ele>
        <time>2017-09-24T14:20:00Z</time>
      </trkpt>
      <trkpt lat="43.43241" lon="1.62081">
        <ele>177</ele>
        <time>2017-09-24T14:20:04Z</time>
      </trkpt>
      <trkpt lat="43.43268" lon="1.6206">
        <ele>177</ele>
        <time>2017-09-24T14:20:08Z</time>
      </trkpt>
      <trkpt lat="43.43315" lon="1.62021">
        <ele>176</ele>
        <time>2017-09-24T14:20:12Z</time>
      </trkpt>
      <trkpt lat="43.43337" lon="1.62001">
        <ele>176</ele>
        <time>2017-09-24T14:20:16Z</time>
      </trkpt>
      <trkpt lat="43.43362" lon="1.61976">
        <ele>177</ele>
        <time>2017-09-24T14:20:20Z</time>
      </trkpt>
      <trkpt lat="43.43387" lon="1.61955">
        <ele>177</ele>
        <time>2017-09-24T14:20:24Z</time>
      </trkpt>
      <trkpt lat="43.43409" lon="1.61932">
        <ele>178</ele>
        <time>2017-09-24T14:20:28Z</time>
      </trkpt>
      <trkpt lat="43.43432" lon="1.61907">
        <ele>178</ele>
        <time>2017-09-24T14:20:32Z</time>
      </trkpt>
      <trkpt lat="43.43453" lon="1.61883">
        <ele>177</ele>
        <time>2017-09-24T14:20:36Z</time>
      </trkpt>
      <trkpt lat="43.43474" lon="1.61857">
        <ele>177</ele>
        <time>2017-09-24T14:20:40Z</time>
      </trkpt>
      <trkpt lat="43.4349" lon="1.6183">
        <ele>177</ele>
        <time>2017-09-24T14:20:44Z</time>
      </trkpt>
      <trkpt lat="43.43509" lon="1.61804">
        <ele>177</ele>
        <time>2017-09-24T14:20:48Z</time>
      </trkpt>
      <trkpt lat="43.43529" lon="1.61777">
        <ele>177</ele>
        <time>2017-09-24T14:20:52Z</time>
      </trkpt>
      <trkpt lat="43.43548" lon="1.6175">
        <ele>177</ele>
        <time>2017-09-24T14:20:56Z</time>
      </trkpt>
      <trkpt lat="43.43567" lon="1.61722">
        <ele>177</ele>
        <time>2017-09-24T14:21:00Z</time>
      </trkpt>
      <trkpt lat="43.43587" lon="1.61697">
        <ele>177</ele>
        <time>2017-09-24T14:21:04Z</time>
      </trkpt>
      <trkpt lat="43.43608" lon="1.61674">
        <ele>177</ele>
        <time>2017-09-24T14:21:08Z</time>
      </trkpt>
      <trkpt lat="43.43629" lon="1.61654">
        <ele>176</ele>
        <time>2017-09-24T14:21:12Z</time>
      </trkpt>
      <trkpt lat="43.43655" lon="1.61631">
        <ele>177</ele>
        <time>2017-09-24T14:21:20Z</time>
      </trkpt>
      <trkpt lat="43.4368" lon="1.61604">
        <ele>177</ele>
        <time>2017-09-24T14:21:24Z</time>
      </trkpt>
      <trkpt lat="43.43726" lon="1.61548">
        <ele>177</ele>
        <time>2017-09-24T14:21:28Z</time>
      </trkpt>
      <trkpt lat="43.43748" lon="1.6152">
        <ele>177</ele>
        <time>2017-09-24T14:21:32Z</time>
      </trkpt>
      <trkpt lat="43.43764" lon="1.61493">
        <ele>177</ele>
        <time>2017-09-24T14:21:36Z</time>
      </trkpt>
      <trkpt lat="43.4378" lon="1.6147">
        <ele>177</ele>
        <time>2017-09-24T14:21:40Z</time>
      </trkpt>
      <trkpt lat="43.43798" lon="1.61444">
        <ele>177</ele>
        <time>2017-09-24T14:21:44Z</time>
      </trkpt>
      <trkpt lat="43.43819" lon="1.61417">
        <ele>177</ele>
        <time>2017-09-24T14:21:48Z</time>
      </trkpt>
      <trkpt lat="43.43841" lon="1.61389">
        <ele>177</ele>
        <time>2017-09-24T14:21:52Z</time>
      </trkpt>
      <trkpt lat="43.43863" lon="1.61366">
        <ele>177</ele>
        <time>2017-09-24T14:21:56Z</time>
      </trkpt>
      <trkpt lat="43.43888" lon="1.61348">
        <ele>176</ele>
        <time>2017-09-24T14:22:00Z</time>
      </trkpt>
      <trkpt lat="43.43912" lon="1.61329">
        <ele>176</ele>
        <time>2017-09-24T14:22:04Z</time>
      </trkpt>
      <trkpt lat="43.4394" lon="1.61303">
        <ele>176</ele>
        <time>2017-09-24T14:22:08Z</time>
      </trkpt>
      <trkpt lat="43.43964" lon="1.6129">
        <ele>176</ele>
        <time>2017-09-24T14:22:12Z</time>
      </trkpt>
      <trkpt lat="43.43993" lon="1.61279">
        <ele>176</ele>
        <time>2017-09-24T14:22:16Z</time>
      </trkpt>
      <trkpt lat="43.44024" lon="1.61261">
        <ele>174</ele>
        <time>2017-09-24T14:22:20Z</time>
      </trkpt>
      <trkpt lat="43.44051" lon="1.61239">
        <ele>174</ele>
        <time>2017-09-24T14:22:28Z</time>
      </trkpt>
      <trkpt lat="43.44076" lon="1.61208">
        <ele>175</ele>
        <time>2017-09-24T14:22:32Z</time>
      </trkpt>
      <trkpt lat="43.44097" lon="1.61176">
        <ele>175</ele>
        <time>2017-09-24T14:22:36Z</time>
      </trkpt>
      <trkpt lat="43.44113" lon="1.61145">
        <ele>174</ele>
        <time>2017-09-24T14:22:40Z</time>
      </trkpt>
      <trkpt lat="43.44135" lon="1.61071">
        <ele>174</ele>
        <time>2017-09-24T14:22:44Z</time>
      </trkpt>
      <trkpt lat="43.44149" lon="1.61033">
        <ele>173</ele>
        <time>2017-09-24T14:22:48Z</time>
      </trkpt>
      <trkpt lat="43.44166" lon="1.60993">
        <ele>173</ele>
        <time>2017-09-24T14:22:52Z</time>
      </trkpt>
      <trkpt lat="43.44185" lon="1.60954">
        <ele>173</ele>
        <time>2017-09-24T14:22:56Z</time>
      </trkpt>
      <trkpt lat="43.44209" lon="1.60921">
        <ele>173</ele>
        <time>2017-09-24T14:23:00Z</time>
      </trkpt>
      <trkpt lat="43.44232" lon="1.60889">
        <ele>173</ele>
        <time>2017-09-24T14:23:04Z</time>
      </trkpt>
      <trkpt lat="43.44251" lon="1.60863">
        <ele>173</ele>
        <time>2017-09-24T14:23:08Z</time>
      </trkpt>
      <trkpt lat="43.44274" lon="1.60837">
        <ele>173</ele>
        <time>2017-09-24T14:23:12Z</time>
      </trkpt>
      <trkpt lat="43.44298" lon="1.60816">
        <ele>174</ele>
        <time>2017-09-24T14:23:16Z</time>
      </trkpt>
      <trkpt lat="43.44322" lon="1.60796">
        <ele>172</ele>
        <time>2017-09-24T14:23:20Z</time>
      </trkpt>
      <trkpt lat="43.44348" lon="1.60775">
        <ele>173</ele>
        <time>2017-09-24T14:23:24Z</time>
      </trkpt>
      <trkpt lat="43.44374" lon="1.60755">
        <ele>174</ele>
        <time>2017-09-24T14:23:28Z</time>
      </trkpt>
      <trkpt lat="43.444" lon="1.6073">
        <ele>174</ele>
        <time>2017-09-24T14:23:32Z</time>
      </trkpt>
      <trkpt lat="43.4442" lon="1.60705">
        <ele>174</ele>
        <time>2017-09-24T14:23:36Z</time>
      </trkpt>
      <trkpt lat="43.44442" lon="1.60678">
        <ele>174</ele>
        <time>2017-09-24T14:23:44Z</time>
      </trkpt>
      <trkpt lat="43.44464" lon="1.60645">
        <ele>174</ele>
        <time>2017-09-24T14:23:48Z</time>
      </trkpt>
      <trkpt lat="43.44487" lon="1.60613">
        <ele>174</ele>
        <time>2017-09-24T14:23:52Z</time>
      </trkpt>
      <trkpt lat="43.44508" lon="1.60583">
        <ele>173</ele>
        <time>2017-09-24T14:23:56Z</time>
      </trkpt>
      <trkpt lat="43.44552" lon="1.60517">
        <ele>173</ele>
        <time>2017-09-24T14:24:00Z</time>
      </trkpt>
      <trkpt lat="43.44564" lon="1.6048">
        <ele>172</ele>
        <time>2017-09-24T14:24:04Z</time>
      </trkpt>
      <trkpt lat="43.4457" lon="1.60443">
        <ele>173</ele>
        <time>2017-09-24T14:24:08Z</time>
      </trkpt>
      <trkpt lat="43.44572" lon="1.60411">
        <ele>173</ele>
        <time>2017-09-24T14:24:12Z</time>
      </trkpt>
      <trkpt lat="43.44569" lon="1.6038">
        <ele>173</ele>
        <time>2017-09-24T14:24:16Z</time>
      </trkpt>
      <trkpt lat="43.44561" lon="1.6034">
        <ele>173</ele>
        <time>2017-09-24T14:24:20Z</time>
      </trkpt>
      <trkpt lat="43.44551" lon="1.60301">
        <ele>173</ele>
        <time>2017-09-24T14:24:24Z</time>
      </trkpt>
      <trkpt lat="43.44541" lon="1.60262">
        <ele>173</ele>
        <time>2017-09-24T14:24:28Z</time>
      </trkpt>
      <trkpt lat="43.44532" lon="1.60225">
        <ele>173</ele>
        <time>2017-09-24T14:24:32Z</time>
      </trkpt>
      <trkpt lat="43.44528" lon="1.60188">
        <ele>173</ele>
        <time>2017-09-24T14:24:36Z</time>
      </trkpt>
      <trkpt lat="43.44525" lon="1.60148">
        <ele>172</ele>
        <time>2017-09-24T14:24:40Z</time>
      </trkpt>
      <trkpt lat="43.44536" lon="1.60119">
        <ele>172</ele>
        <time>2017-09-24T14:24:44Z</time>
      </trkpt>
      <trkpt lat="43.44547" lon="1.60087">
        <ele>172</ele>
        <time>2017-09-24T14:24:48Z</time>
      </trkpt>
      <trkpt lat="43.4456" lon="1.60063">
        <ele>172</ele>
        <time>2017-09-24T14:24:52Z</time>
      </trkpt>
      <trkpt lat="43.44579" lon="1.60042">
        <ele>172</ele>
        <time>2017-09-24T14:25:00Z</time>
      </trkpt>
      <trkpt lat="43.44602" lon="1.60016">
        <ele>172</ele>
        <time>2017-09-24T14:25:04Z</time>
      </trkpt>
      <trkpt lat="43.44627" lon="1.59998">
        <ele>172</ele>
        <time>2017-09-24T14:25:08Z</time>
      </trkpt>
      <trkpt lat="43.44676" lon="1.59962">
        <ele>172</ele>
        <time>2017-09-24T14:25:12Z</time>
      </trkpt>
      <trkpt lat="43.44705" lon="1.59953">
        <ele>172</ele>
        <time>2017-09-24T14:25:16Z</time>
      </trkpt>
      <trkpt lat="43.44742" lon="1.59945">
        <ele>172</ele>
        <time>2017-09-24T14:25:20Z</time>
      </trkpt>
      <trkpt lat="43.44778" lon="1.59939">
        <ele>169</ele>
        <time>2017-09-24T14:25:24Z</time>
      </trkpt>
      <trkpt lat="43.44804" lon="1.59931">
        <ele>169</ele>
        <time>2017-09-24T14:25:28Z</time>
      </trkpt>
      <trkpt lat="43.44834" lon="1.5992">
        <ele>171</ele>
        <time>2017-09-24T14:25:32Z</time>
      </trkpt>
      <trkpt lat="43.44864" lon="1.5991">
        <ele>171</ele>
        <time>2017-09-24T14:25:36Z</time>
      </trkpt>
      <trkpt lat="43.44893" lon="1.59899">
        <ele>171</ele>
        <time>2017-09-24T14:25:40Z</time>
      </trkpt>
      <trkpt lat="43.44919" lon="1.59889">
        <ele>171</ele>
        <time>2017-09-24T14:25:44Z</time>
      </trkpt>
      <trkpt lat="43.44947" lon="1.59874">
        <ele>171</ele>
        <time>2017-09-24T14:25:48Z</time>
      </trkpt>
      <trkpt lat="43.44974" lon="1.5985">
        <ele>170</ele>
        <time>2017-09-24T14:25:52Z</time>
      </trkpt>
      <trkpt lat="43.44995" lon="1.59824">
        <ele>170</ele>
        <time>2017-09-24T14:25:56Z</time>
      </trkpt>
      <trkpt lat="43.45017" lon="1.59794">
        <ele>170</ele>
        <time>2017-09-24T14:26:00Z</time>
      </trkpt>
      <trkpt lat="43.45035" lon="1.59762">
        <ele>170</ele>
        <time>2017-09-24T14:26:04Z</time>
      </trkpt>
      <trkpt lat="43.45051" lon="1.59725">
        <ele>169</ele>
        <time>2017-09-24T14:26:08Z</time>
      </trkpt>
      <trkpt lat="43.45065" lon="1.59687">
        <ele>169</ele>
        <time>2017-09-24T14:26:12Z</time>
      </trkpt>
      <trkpt lat="43.45076" lon="1.59654">
        <ele>170</ele>
        <time>2017-09-24T14:26:16Z</time>
      </trkpt>
      <trkpt lat="43.4509" lon="1.5962">
        <ele>170</ele>
        <time>2017-09-24T14:26:24Z</time>
      </trkpt>
      <trkpt lat="43.45112" lon="1.59552">
        <ele>170</ele>
        <time>2017-09-24T14:26:28Z</time>
      </trkpt>
      <trkpt lat="43.45132" lon="1.59525">
        <ele>169</ele>
        <time>2017-09-24T14:26:32Z</time>
      </trkpt>
      <trkpt lat="43.45153" lon="1.59499">
        <ele>169</ele>
        <time>2017-09-24T14:26:36Z</time>
      </trkpt>
      <trkpt lat="43.45178" lon="1.59473">
        <ele>169</ele>
        <time>2017-09-24T14:26:40Z</time>
      </trkpt>
      <trkpt lat="43.45204" lon="1.59448">
        <ele>168</ele>
        <time>2017-09-24T14:26:44Z</time>
      </trkpt>
      <trkpt lat="43.45232" lon="1.59424">
        <ele>169</ele>
        <time>2017-09-24T14:26:48Z</time>
      </trkpt>
      <trkpt lat="43.45259" lon="1.59404">
        <ele>168</ele>
        <time>2017-09-24T14:26:52Z</time>
      </trkpt>
      <trkpt lat="43.45286" lon="1.59389">
        <ele>169</ele>
        <time>2017-09-24T14:26:56Z</time>
      </trkpt>
      <trkpt lat="43.45314" lon="1.59371">
        <ele>168</ele>
        <time>2017-09-24T14:27:00Z</time>
      </trkpt>
      <trkpt lat="43.45338" lon="1.59356">
        <ele>168</ele>
        <time>2017-09-24T14:27:04Z</time>
      </trkpt>
      <trkpt lat="43.45365" lon="1.59344">
        <ele>168</ele>
        <time>2017-09-24T14:27:08Z</time>
      </trkpt>
      <trkpt lat="43.45391" lon="1.59333">
        <ele>168</ele>
        <time>2017-09-24T14:27:12Z</time>
      </trkpt>
      <trkpt lat="43.4542" lon="1.59323">
        <ele>169</ele>
        <time>2017-09-24T14:27:16Z</time>
      </trkpt>
      <trkpt lat="43.45446" lon="1.59311">
        <ele>169</ele>
        <time>2017-09-24T14:27:20Z</time>
      </trkpt>
      <trkpt lat="43.45465" lon="1.59298">
        <ele>169</ele>
        <time>2017-09-24T14:27:24Z</time>
      </trkpt>
      <trkpt lat="43.45488" lon="1.59278">
        <ele>170</ele>
        <time>2017-09-24T14:27:28Z</time>
      </trkpt>
      <trkpt lat="43.45502" lon="1.59262">
        <ele>169</ele>
        <time>2017-09-24T14:27:32Z</time>
      </trkpt>
      <trkpt lat="43.45519" lon="1.59234">
        <ele>169</ele>
        <time>2017-09-24T14:27:36Z</time>
      </trkpt>
      <trkpt lat="43.45537" lon="1.59207">
        <ele>169</ele>
        <time>2017-09-24T14:27:40Z</time>
      </trkpt>
      <trkpt lat="43.45556" lon="1.59173">
        <ele>169</ele>
        <time>2017-09-24T14:27:44Z</time>
      </trkpt>
      <trkpt lat="43.45568" lon="1.59145">
        <ele>170</ele>
        <time>2017-09-24T14:27:48Z</time>
      </trkpt>
      <trkpt lat="43.45573" lon="1.59109">
        <ele>170</ele>
        <time>2017-09-24T14:27:52Z</time>
      </trkpt>
      <trkpt lat="43.45573" lon="1.59071">
        <ele>170</ele>
        <time>2017-09-24T14:27:56Z</time>
      </trkpt>
      <trkpt lat="43.45577" lon="1.59033">
        <ele>170</ele>
        <time>2017-09-24T14:28:00Z</time>
      </trkpt>
      <trkpt lat="43.4558" lon="1.58999">
        <ele>170</ele>
        <time>2017-09-24T14:28:04Z</time>
      </trkpt>
      <trkpt lat="43.45585" lon="1.58971">
        <ele>170</ele>
        <time>2017-09-24T14:28:08Z</time>
      </trkpt>
      <trkpt lat="43.45589" lon="1.58939">
        <ele>169</ele>
        <time>2017-09-24T14:28:12Z</time>
      </trkpt>
      <trkpt lat="43.45593" lon="1.58904">
        <ele>169</ele>
        <time>2017-09-24T14:28:16Z</time>
      </trkpt>
      <trkpt lat="43.45594" lon="1.58865">
        <ele>169</ele>
        <time>2017-09-24T14:28:20Z</time>
      </trkpt>
      <trkpt lat="43.45596" lon="1.58832">
        <ele>169</ele>
        <time>2017-09-24T14:28:24Z</time>
      </trkpt>
      <trkpt lat="43.45597" lon="1.58798">
        <ele>169</ele>
        <time>2017-09-24T14:28:28Z</time>
      </trkpt>
      <trkpt lat="43.45594" lon="1.58757">
        <ele>169</ele>
        <time>2017-09-24T14:28:32Z</time>
      </trkpt>
      <trkpt lat="43.45591" lon="1.5872">
        <ele>169</ele>
        <time>2017-09-24T14:28:36Z</time>
      </trkpt>
      <trkpt lat="43.45588" lon="1.58682">
        <ele>169</ele>
        <time>2017-09-24T14:28:40Z</time>
      </trkpt>
      <trkpt lat="43.45585" lon="1.58643">
        <ele>169</ele>
        <time>2017-09-24T14:28:44Z</time>
      </trkpt>
      <trkpt lat="43.45583" lon="1.58605">
        <ele>168</ele>
        <time>2017-09-24T14:28:48Z</time>
      </trkpt>
      <trkpt lat="43.45583" lon="1.5857">
        <ele>169</ele>
        <time>2017-09-24T14:28:56Z</time>
      </trkpt>
      <trkpt lat="43.45583" lon="1.58532">
        <ele>168</ele>
        <time>2017-09-24T14:29:00Z</time>
      </trkpt>
      <trkpt lat="43.45588" lon="1.58464">
        <ele>169</ele>
        <time>2017-09-24T14:29:04Z</time>
      </trkpt>
      <trkpt lat="43.45591" lon="1.58431">
        <ele>169</ele>
        <time>2017-09-24T14:29:08Z</time>
      </trkpt>
      <trkpt lat="43.45596" lon="1.58403">
        <ele>168</ele>
        <time>2017-09-24T14:29:12Z</time>
      </trkpt>
      <trkpt lat="43.45602" lon="1.58369">
        <ele>169</ele>
        <time>2017-09-24T14:29:16Z</time>
      </trkpt>
      <trkpt lat="43.45612" lon="1.58329">
        <ele>169</ele>
        <time>2017-09-24T14:29:20Z</time>
      </trkpt>
      <trkpt lat="43.45628" lon="1.58294">
        <ele>169</ele>
        <time>2017-09-24T14:29:24Z</time>
      </trkpt>
      <trkpt lat="43.45647" lon="1.58263">
        <ele>169</ele>
        <time>2017-09-24T14:29:28Z</time>
      </trkpt>
      <trkpt lat="43.45666" lon="1.58233">
        <ele>169</ele>
        <time>2017-09-24T14:29:32Z</time>
      </trkpt>
      <trkpt lat="43.45679" lon="1.58206">
        <ele>169</ele>
        <time>2017-09-24T14:29:36Z</time>
      </trkpt>
      <trkpt lat="43.45694" lon="1.58175">
        <ele>169</ele>
        <time>2017-09-24T14:29:40Z</time>
      </trkpt>
      <trkpt lat="43.45714" lon="1.5815">
        <ele>169</ele>
        <time>2017-09-24T14:29:44Z</time>
      </trkpt>
      <trkpt lat="43.45733" lon="1.58125">
        <ele>169</ele>
        <time>2017-09-24T14:29:48Z</time>
      </trkpt>
      <trkpt lat="43.45748" lon="1.581">
        <ele>169</ele>
        <time>2017-09-24T14:29:52Z</time>
      </trkpt>
      <trkpt lat="43.45765" lon="1.58071">
        <ele>169</ele>
        <time>2017-09-24T14:29:56Z</time>
      </trkpt>
      <trkpt lat="43.45787" lon="1.58046">
        <ele>170</ele>
        <time>2017-09-24T14:30:00Z</time>
      </trkpt>
      <trkpt lat="43.45807" lon="1.58013">
        <ele>170</ele>
        <time>2017-09-24T14:30:08Z</time>
      </trkpt>
      <trkpt lat="43.45823" lon="1.57977">
        <ele>170</ele>
        <time>2017-09-24T14:30:12Z</time>
      </trkpt>
      <trkpt lat="43.45833" lon="1.5795">
        <ele>170</ele>
        <time>2017-09-24T14:30:16Z</time>
      </trkpt>
      <trkpt lat="43.45844" lon="1.57924">
        <ele>171</ele>
        <time>2017-09-24T14:30:20Z</time>
      </trkpt>
      <trkpt lat="43.45857" lon="1.57889">
        <ele>171</ele>
        <time>2017-09-24T14:30:24Z</time>
      </trkpt>
      <trkpt lat="43.4588" lon="1.57819">
        <ele>171</ele>
        <time>2017-09-24T14:30:28Z</time>
      </trkpt>
      <trkpt lat="43.45887" lon="1.57782">
        <ele>171</ele>
        <time>2017-09-24T14:30:32Z</time>
      </trkpt>
      <trkpt lat="43.45901" lon="1.57743">
        <ele>170</ele>
        <time>2017-09-24T14:30:36Z</time>
      </trkpt>
      <trkpt lat="43.45914" lon="1.57701">
        <ele>170</ele>
        <time>2017-09-24T14:30:40Z</time>
      </trkpt>
      <trkpt lat="43.45931" lon="1.57664">
        <ele>170</ele>
        <time>2017-09-24T14:30:44Z</time>
      </trkpt>
      <trkpt lat="43.45951" lon="1.5763">
        <ele>170</ele>
        <time>2017-09-24T14:30:48Z</time>
      </trkpt>
      <trkpt lat="43.4597" lon="1.576">
        <ele>170</ele>
        <time>2017-09-24T14:30:52Z</time>
      </trkpt>
      <trkpt lat="43.45988" lon="1.57566">
        <ele>170</ele>
        <time>2017-09-24T14:30:56Z</time>
      </trkpt>
      <trkpt lat="43.46004" lon="1.57536">
        <ele>170</ele>
        <time>2017-09-24T14:31:00Z</time>
      </trkpt>
      <trkpt lat="43.4602" lon="1.57504">
        <ele>170</ele>
        <time>2017-09-24T14:31:04Z</time>
      </trkpt>
      <trkpt lat="43.46037" lon="1.57474">
        <ele>170</ele>
        <time>2017-09-24T14:31:08Z</time>
      </trkpt>
      <trkpt lat="43.46054" lon="1.57443">
        <ele>170</ele>
        <time>2017-09-24T14:31:12Z</time>
      </trkpt>
      <trkpt lat="43.4607" lon="1.57415">
        <ele>171</ele>
        <time>2017-09-24T14:31:20Z</time>
      </trkpt>
      <trkpt lat="43.46088" lon="1.57388">
        <ele>171</ele>
        <time>2017-09-24T14:31:24Z</time>
      </trkpt>
      <trkpt lat="43.46105" lon="1.57355">
        <ele>171</ele>
        <time>2017-09-24T14:31:28Z</time>
      </trkpt>
      <trkpt lat="43.46123" lon="1.57324">
        <ele>170</ele>
        <time>2017-09-24T14:31:32Z</time>
      </trkpt>
      <trkpt lat="43.46143" lon="1.57292">
        <ele>170</ele>
        <time>2017-09-24T14:31:36Z</time>
      </trkpt>
      <trkpt lat="43.46185" lon="1.57231">
        <ele>170</ele>
        <time>2017-09-24T14:31:40Z</time>
      </trkpt>
      <trkpt lat="43.46206" lon="1.57206">
        <ele>170</ele>
        <time>2017-09-24T14:31:44Z</time>
      </trkpt>
      <trkpt lat="43.46223" lon="1.57177">
        <ele>170</ele>
        <time>2017-09-24T14:31:48Z</time>
      </trkpt>
      <trkpt lat="43.46255" lon="1.5715">
        <ele>169</ele>
        <time>2017-09-24T14:31:52Z</time>
      </trkpt>
      <trkpt lat="43.46283" lon="1.57125">
        <ele>168</ele>
        <time>2017-09-24T14:31:56Z</time>
      </trkpt>
      <trkpt lat="43.46296" lon="1.57108">
        <ele>168</ele>
        <time>2017-09-24T14:32:00Z</time>
      </trkpt>
      <trkpt lat="43.46312" lon="1.57101">
        <ele>168</ele>
        <time>2017-09-24T14:32:04Z</time>
      </trkpt>
      <trkpt lat="43.46335" lon="1.57084">
        <ele>167</ele>
        <time>2017-09-24T14:32:08Z</time>
      </trkpt>
      <trkpt lat="43.46359" lon="1.57064">
        <ele>167</ele>
        <time>2017-09-24T14:32:12Z</time>
      </trkpt>
      <trkpt lat="43.46379" lon="1.57044">
        <ele>167</ele>
        <time>2017-09-24T14:32:16Z</time>
      </trkpt>
      <trkpt lat="43.46392" lon="1.57035">
        <ele>167</ele>
        <time>2017-09-24T14:32:20Z</time>
      </trkpt>
      <trkpt lat="43.46408" lon="1.5702">
        <ele>167</ele>
        <time>2017-09-24T14:32:24Z</time>
      </trkpt>
      <trkpt lat="43.46427" lon="1.57">
        <ele>167</ele>
        <time>2017-09-24T14:32:28Z</time>
      </trkpt>
      <trkpt lat="43.4644" lon="1.56984">
        <ele>169</ele>
        <time>2017-09-24T14:32:36Z</time>
      </trkpt>
      <trkpt lat="43.46451" lon="1.56967">
        <ele>169</ele>
        <time>2017-09-24T14:32:40Z</time>
      </trkpt>
      <trkpt lat="43.46462" lon="1.5694">
        <ele>169</ele>
        <time>2017-09-24T14:32:44Z</time>
      </trkpt>
      <trkpt lat="43.46478" lon="1.56912">
        <ele>168</ele>
        <time>2017-09-24T14:32:48Z</time>
      </trkpt>
      <trkpt lat="43.46519" lon="1.5685">
        <ele>168</ele>
        <time>2017-09-24T14:32:52Z</time>
      </trkpt>
      <trkpt lat="43.4654" lon="1.5681">
        <ele>168</ele>
        <time>2017-09-24T14:32:56Z</time>
      </trkpt>
      <trkpt lat="43.46559" lon="1.56769">
        <ele>168</ele>
        <time>2017-09-24T14:33:00Z</time>
      </trkpt>
      <trkpt lat="43.46572" lon="1.56727">
        <ele>167</ele>
        <time>2017-09-24T14:33:04Z</time>
      </trkpt>
      <trkpt lat="43.46584" lon="1.56687">
        <ele>167</ele>
        <time>2017-09-24T14:33:08Z</time>
      </trkpt>
      <trkpt lat="43.46601" lon="1.56652">
        <ele>167</ele>
        <time>2017-09-24T14:33:12Z</time>
      </trkpt>
      <trkpt lat="43.46616" lon="1.56613">
        <ele>167</ele>
        <time>2017-09-24T14:33:16Z</time>
      </trkpt>
      <trkpt lat="43.4663" lon="1.56578">
        <ele>167</ele>
        <time>2017-09-24T14:33:20Z</time>
      </trkpt>
      <trkpt lat="43.46645" lon="1.56542">
        <ele>167</ele>
        <time>2017-09-24T14:33:24Z</time>
      </trkpt>
      <trkpt lat="43.46657" lon="1.56509">
        <ele>167</ele>
        <time>2017-09-24T14:33:28Z</time>
      </trkpt>
      <trkpt lat="43.46669" lon="1.56477">
        <ele>167</ele>
        <time>2017-09-24T14:33:32Z</time>
      </trkpt>
      <trkpt lat="43.46681" lon="1.56447">
        <ele>167</ele>
        <time>2017-09-24T14:33:36Z</time>
      </trkpt>
      <trkpt lat="43.46692" lon="1.56413">
        <ele>167</ele>
        <time>2017-09-24T14:33:40Z</time>
      </trkpt>
      <trkpt lat="43.46708" lon="1.56375">
        <ele>167</ele>
        <time>2017-09-24T14:33:44Z</time>
      </trkpt>
      <trkpt lat="43.46727" lon="1.56335">
        <ele>167</ele>
        <time>2017-09-24T14:33:52Z</time>
      </trkpt>
      <trkpt lat="43.46742" lon="1.56295">
        <ele>167</ele>
        <time>2017-09-24T14:33:56Z</time>
      </trkpt>
      <trkpt lat="43.46759" lon="1.5626">
        <ele>167</ele>
        <time>2017-09-24T14:34:00Z</time>
      </trkpt>
      <trkpt lat="43.46776" lon="1.56228">
        <ele>167</ele>
        <time>2017-09-24T14:34:04Z</time>
      </trkpt>
      <trkpt lat="43.46794" lon="1.56194">
        <ele>167</ele>
        <time>2017-09-24T14:34:08Z</time>
      </trkpt>
      <trkpt lat="43.46811" lon="1.56158">
        <ele>167</ele>
        <time>2017-09-24T14:34:12Z</time>
      </trkpt>
      <trkpt lat="43.46846" lon="1.56089">
        <ele>167</ele>
        <time>2017-09-24T14:34:16Z</time>
      </trkpt>
      <trkpt lat="43.46864" lon="1.56058">
        <ele>167</ele>
        <time>2017-09-24T14:34:20Z</time>
      </trkpt>
      <trkpt lat="43.46881" lon="1.56029">
        <ele>167</ele>
        <time>2017-09-24T14:34:24Z</time>
      </trkpt>
      <trkpt lat="43.46896" lon="1.55996">
        <ele>167</ele>
        <time>2017-09-24T14:34:28Z</time>
      </trkpt>
      <trkpt lat="43.46908" lon="1.55959">
        <ele>167</ele>
        <time>2017-09-24T14:34:32Z</time>
      </trkpt>
      <trkpt lat="43.46924" lon="1.55928">
        <ele>167</ele>
        <time>2017-09-24T14:34:36Z</time>
      </trkpt>
      <trkpt lat="43.46943" lon="1.55897">
        <ele>167</ele>
        <time>2017-09-24T14:34:40Z</time>
      </trkpt>
      <trkpt lat="43.46961" lon="1.55868">
        <ele>167</ele>
        <time>2017-09-24T14:34:44Z</time>
      </trkpt>
      <trkpt lat="43.46981" lon="1.5584">
        <ele>167</ele>
        <time>2017-09-24T14:34:48Z</time>
      </trkpt>
      <trkpt lat="43.47003" lon="1.55814">
        <ele>167</ele>
        <time>2017-09-24T14:34:52Z</time>
      </trkpt>
      <trkpt lat="43.47029" lon="1.55794">
        <ele>167</ele>
        <time>2017-09-24T14:34:56Z</time>
      </trkpt>
      <trkpt lat="43.4706" lon="1.55774">
        <ele>167</ele>
        <time>2017-09-24T14:35:00Z</time>
      </trkpt>
      <trkpt lat="43.47089" lon="1.55759">
        <ele>166</ele>
        <time>2017-09-24T14:35:08Z</time>
      </trkpt>
      <trkpt lat="43.47115" lon="1.55748">
        <ele>167</ele>
        <time>2017-09-24T14:35:12Z</time>
      </trkpt>
      <trkpt lat="43.47137" lon="1.5574">
        <ele>167</ele>
        <time>2017-09-24T14:35:16Z</time>
      </trkpt>
      <trkpt lat="43.47155" lon="1.5573">
        <ele>167</ele>
        <time>2017-09-24T14:35:20Z</time>
      </trkpt>
      <trkpt lat="43.47176" lon="1.5572">
        <ele>167</ele>
        <time>2017-09-24T14:35:24Z</time>
      </trkpt>
      <trkpt lat="43.4722" lon="1.557">
        <ele>167</ele>
        <time>2017-09-24T14:35:28Z</time>
      </trkpt>
      <trkpt lat="43.47243" lon="1.55689">
        <ele>167</ele>
        <time>2017-09-24T14:35:32Z</time>
      </trkpt>
      <trkpt lat="43.47267" lon="1.55676">
        <ele>166</ele>
        <time>2017-09-24T14:35:36Z</time>
      </trkpt>
      <trkpt lat="43.47287" lon="1.55664">
        <ele>166</ele>
        <time>2017-09-24T14:35:40Z</time>
      </trkpt>
      <trkpt lat="43.47307" lon="1.55653">
        <ele>166</ele>
        <time>2017-09-24T14:35:44Z</time>
      </trkpt>
      <trkpt lat="43.47329" lon="1.55642">
        <ele>167</ele>
        <time>2017-09-24T14:35:48Z</time>
      </trkpt>
      <trkpt lat="43.47352" lon="1.55629">
        <ele>167</ele>
        <time>2017-09-24T14:35:52Z</time>
      </trkpt>
      <trkpt lat="43.47377" lon="1.55616">
        <ele>166</ele>
        <time>2017-09-24T14:35:56Z</time>
      </trkpt>
      <trkpt lat="43.47399" lon="1.55602">
        <ele>166</ele>
        <time>2017-09-24T14:36:00Z</time>
      </trkpt>
      <trkpt lat="43.47421" lon="1.55587">
        <ele>167</ele>
        <time>2017-09-24T14:36:04Z</time>
      </trkpt>
      <trkpt lat="43.47434" lon="1.5557">
        <ele>167</ele>
        <time>2017-09-24T14:36:08Z</time>
      </trkpt>
      <trkpt lat="43.4745" lon="1.5555">
        <ele>167</ele>
        <time>2017-09-24T14:36:12Z</time>
      </trkpt>
      <trkpt lat="43.47472" lon="1.55527">
        <ele>167</ele>
        <time>2017-09-24T14:36:16Z</time>
      </trkpt>
      <trkpt lat="43.47489" lon="1.55504">
        <ele>167</ele>
        <time>2017-09-24T14:36:24Z</time>
      </trkpt>
      <trkpt lat="43.47513" lon="1.55482">
        <ele>167</ele>
        <time>2017-09-24T14:36:28Z</time>
      </trkpt>
      <trkpt lat="43.47532" lon="1.55462">
        <ele>167</ele>
        <time>2017-09-24T14:36:32Z</time>
      </trkpt>
      <trkpt lat="43.47555" lon="1.55443">
        <ele>166</ele>
        <time>2017-09-24T14:36:36Z</time>
      </trkpt>
      <trkpt lat="43.47615" lon="1.5541">
        <ele>166</ele>
        <time>2017-09-24T14:36:40Z</time>
      </trkpt>
      <trkpt lat="43.47648" lon="1.55392">
        <ele>167</ele>
        <time>2017-09-24T14:36:44Z</time>
      </trkpt>
      <trkpt lat="43.47674" lon="1.5537">
        <ele>166</ele>
        <time>2017-09-24T14:36:48Z</time>
      </trkpt>
      <trkpt lat="43.47705" lon="1.55345">
        <ele>166</ele>
        <time>2017-09-24T14:36:52Z</time>
      </trkpt>
      <trkpt lat="43.47733" lon="1.55319">
        <ele>166</ele>
        <time>2017-09-24T14:36:56Z</time>
      </trkpt>
      <trkpt lat="43.47753" lon="1.553">
        <ele>166</ele>
        <time>2017-09-24T14:37:00Z</time>
      </trkpt>
      <trkpt lat="43.47767" lon="1.55282">
        <ele>168</ele>
        <time>2017-09-24T14:37:04Z</time>
      </trkpt>
      <trkpt lat="43.4779" lon="1.55262">
        <ele>166</ele>
        <time>2017-09-24T14:37:08Z</time>
      </trkpt>
      <trkpt lat="43.47812" lon="1.55233">
        <ele>167</ele>
        <time>2017-09-24T14:37:12Z</time>
      </trkpt>
      <trkpt lat="43.47828" lon="1.55209">
        <ele>167</ele>
        <time>2017-09-24T14:37:16Z</time>
      </trkpt>
      <trkpt lat="43.47848" lon="1.55184">
        <ele>167</ele>
        <time>2017-09-24T14:37:20Z</time>
      </trkpt>
      <trkpt lat="43.47873" lon="1.55159">
        <ele>166</ele>
        <time>2017-09-24T14:37:24Z</time>
      </trkpt>
      <trkpt lat="43.47892" lon="1.55138">
        <ele>166</ele>
        <time>2017-09-24T14:37:28Z</time>
      </trkpt>
      <trkpt lat="43.47911" lon="1.5512">
        <ele>166</ele>
        <time>2017-09-24T14:37:32Z</time>
      </trkpt>
      <trkpt lat="43.47932" lon="1.55103">
        <ele>166</ele>
        <time>2017-09-24T14:37:40Z</time>
      </trkpt>
      <trkpt lat="43.47958" lon="1.55082">
        <ele>167</ele>
        <time>2017-09-24T14:37:44Z</time>
      </trkpt>
      <trkpt lat="43.48016" lon="1.55038">
        <ele>166</ele>
        <time>2017-09-24T14:37:48Z</time>
      </trkpt>
      <trkpt lat="43.48053" lon="1.54974">
        <ele>167</ele>
        <time>2017-09-24T14:37:56Z</time>
      </trkpt>
      <trkpt lat="43.48063" lon="1.54939">
        <ele>167</ele>
        <time>2017-09-24T14:38:00Z</time>
      </trkpt>
      <trkpt lat="43.48074" lon="1.54909">
        <ele>167</ele>
        <time>2017-09-24T14:38:04Z</time>
      </trkpt>
      <trkpt lat="43.4809" lon="1.54872">
        <ele>166</ele>
        <time>2017-09-24T14:38:08Z</time>
      </trkpt>
      <trkpt lat="43.48113" lon="1.54851">
        <ele>165</ele>
        <time>2017-09-24T14:38:12Z</time>
      </trkpt>
      <trkpt lat="43.48139" lon="1.54844">
        <ele>165</ele>
        <time>2017-09-24T14:38:16Z</time>
      </trkpt>
      <trkpt lat="43.48144" lon="1.54824">
        <ele>165</ele>
        <time>2017-09-24T14:38:20Z</time>
      </trkpt>
      <trkpt lat="43.48159" lon="1.54803">
        <ele>166</ele>
        <time>2017-09-24T14:38:24Z</time>
      </trkpt>
      <trkpt lat="43.48178" lon="1.5478">
        <ele>166</ele>
        <time>2017-09-24T14:38:28Z</time>
      </trkpt>
      <trkpt lat="43.482" lon="1.5476">
        <ele>166</ele>
        <time>2017-09-24T14:38:32Z</time>
      </trkpt>
      <trkpt lat="43.4822" lon="1.54739">
        <ele>165</ele>
        <time>2017-09-24T14:38:36Z</time>
      </trkpt>
      <trkpt lat="43.4824" lon="1.54718">
        <ele>166</ele>
        <time>2017-09-24T14:38:40Z</time>
      </trkpt>
      <trkpt lat="43.48265" lon="1.547">
        <ele>166</ele>
        <time>2017-09-24T14:38:44Z</time>
      </trkpt>
      <trkpt lat="43.48286" lon="1.54691">
        <ele>166</ele>
        <time>2017-09-24T14:38:48Z</time>
      </trkpt>
      <trkpt lat="43.4831" lon="1.54691">
        <ele>166</ele>
        <time>2017-09-24T14:38:52Z</time>
      </trkpt>
      <trkpt lat="43.48341" lon="1.54694">
        <ele>166</ele>
        <time>2017-09-24T14:38:56Z</time>
      </trkpt>
      <trkpt lat="43.48401" lon="1.54686">
        <ele>166</ele>
        <time>2017-09-24T14:39:04Z</time>
      </trkpt>
      <trkpt lat="43.48431" lon="1.54672">
        <ele>166</ele>
        <time>2017-09-24T14:39:08Z</time>
      </trkpt>
      <trkpt lat="43.48454" lon="1.5466">
        <ele>166</ele>
        <time>2017-09-24T14:39:12Z</time>
      </trkpt>
      <trkpt lat="43.4848" lon="1.5465">
        <ele>166</ele>
        <time>2017-09-24T14:39:16Z</time>
      </trkpt>
      <trkpt lat="43.48512" lon="1.54648">
        <ele>165</ele>
        <time>2017-09-24T14:39:20Z</time>
      </trkpt>
      <trkpt lat="43.48544" lon="1.54641">
        <ele>165</ele>
        <time>2017-09-24T14:39:24Z</time>
      </trkpt>
      <trkpt lat="43.4857" lon="1.54635">
        <ele>166</ele>
        <time>2017-09-24T14:39:28Z</time>
      </trkpt>
      <trkpt lat="43.48595" lon="1.54626">
        <ele>166</ele>
        <time>2017-09-24T14:39:32Z</time>
      </trkpt>
      <trkpt lat="43.48618" lon="1.54617">
        <ele>165</ele>
        <time>2017-09-24T14:39:36Z</time>
      </trkpt>
      <trkpt lat="43.48638" lon="1.54605">
        <ele>165</ele>
        <time>2017-09-24T14:39:40Z</time>
      </trkpt>
      <trkpt lat="43.48658" lon="1.54587">
        <ele>165</ele>
        <time>2017-09-24T14:39:44Z</time>
      </trkpt>
      <trkpt lat="43.48683" lon="1.5457">
        <ele>166</ele>
        <time>2017-09-24T14:39:48Z</time>
      </trkpt>
      <trkpt lat="43.48706" lon="1.54551">
        <ele>165</ele>
        <time>2017-09-24T14:39:52Z</time>
      </trkpt>
      <trkpt lat="43.48726" lon="1.54526">
        <ele>165</ele>
        <time>2017-09-24T14:39:56Z</time>
      </trkpt>
      <trkpt lat="43.48745" lon="1.545">
        <ele>165</ele>
        <time>2017-09-24T14:40:00Z</time>
      </trkpt>
      <trkpt lat="43.48771" lon="1.54476">
        <ele>166</ele>
        <time>2017-09-24T14:40:04Z</time>
      </trkpt>
      <trkpt lat="43.488" lon="1.54452">
        <ele>165</ele>
        <time>2017-09-24T14:40:08Z</time>
      </trkpt>
      <trkpt lat="43.48828" lon="1.5443">
        <ele>165</ele>
        <time>2017-09-24T14:40:12Z</time>
      </trkpt>
      <trkpt lat="43.48853" lon="1.54409">
        <ele>165</ele>
        <time>2017-09-24T14:40:16Z</time>
      </trkpt>
      <trkpt lat="43.48873" lon="1.54386">
        <ele>165</ele>
        <time>2017-09-24T14:40:20Z</time>
      </trkpt>
      <trkpt lat="43.48889" lon="1.54357">
        <ele>165</ele>
        <time>2017-09-24T14:40:24Z</time>
      </trkpt>
      <trkpt lat="43.4891" lon="1.54328">
        <ele>164</ele>
        <time>2017-09-24T14:40:28Z</time>
      </trkpt>
      <trkpt lat="43.48929" lon="1.54302">
        <ele>165</ele>
        <time>2017-09-24T14:40:32Z</time>
      </trkpt>
      <trkpt lat="43.48945" lon="1.54274">
        <ele>165</ele>
        <time>2017-09-24T14:40:36Z</time>
      </trkpt>
      <trkpt lat="43.48961" lon="1.54236">
        <ele>165</ele>
        <time>2017-09-24T14:40:40Z</time>
      </trkpt>
      <trkpt lat="43.48973" lon="1.54199">
        <ele>166</ele>
        <time>2017-09-24T14:40:44Z</time>
      </trkpt>
      <trkpt lat="43.48977" lon="1.54153">
        <ele>165</ele>
        <time>2017-09-24T14:40:48Z</time>
      </trkpt>
      <trkpt lat="43.48978" lon="1.54106">
        <ele>166</ele>
        <time>2017-09-24T14:40:52Z</time>
      </trkpt>
      <trkpt lat="43.48979" lon="1.54062">
        <ele>166</ele>
        <time>2017-09-24T14:40:56Z</time>
      </trkpt>
      <trkpt lat="43.48979" lon="1.5402">
        <ele>166</ele>
        <time>2017-09-24T14:41:00Z</time>
      </trkpt>
      <trkpt lat="43.48978" lon="1.53979">
        <ele>166</ele>
        <time>2017-09-24T14:41:04Z</time>
      </trkpt>
      <trkpt lat="43.48976" lon="1.53941">
        <ele>166</ele>
        <time>2017-09-24T14:41:08Z</time>
      </trkpt>
      <trkpt lat="43.48973" lon="1.53904">
        <ele>166</ele>
        <time>2017-09-24T14:41:12Z</time>
      </trkpt>
      <trkpt lat="43.48966" lon="1.53863">
        <ele>166</ele>
        <time>2017-09-24T14:41:16Z</time>
      </trkpt>
      <trkpt lat="43.48963" lon="1.53823">
        <ele>166</ele>
        <time>2017-09-24T14:41:20Z</time>
      </trkpt>
      <trkpt lat="43.48962" lon="1.53786">
        <ele>166</ele>
        <time>2017-09-24T14:41:24Z</time>
      </trkpt>
      <trkpt lat="43.48961" lon="1.53746">
        <ele>166</ele>
        <time>2017-09-24T14:41:32Z</time>
      </trkpt>
      <trkpt lat="43.48977" lon="1.53669">
        <ele>166</ele>
        <time>2017-09-24T14:41:36Z</time>
      </trkpt>
      <trkpt lat="43.48999" lon="1.53644">
        <ele>166</ele>
        <time>2017-09-24T14:41:40Z</time>
      </trkpt>
      <trkpt lat="43.49026" lon="1.5363">
        <ele>166</ele>
        <time>2017-09-24T14:41:44Z</time>
      </trkpt>
      <trkpt lat="43.49057" lon="1.53631">
        <ele>165</ele>
        <time>2017-09-24T14:41:48Z</time>
      </trkpt>
      <trkpt lat="43.49085" lon="1.5364">
        <ele>165</ele>
        <time>2017-09-24T14:41:52Z</time>
      </trkpt>
      <trkpt lat="43.49114" lon="1.53649">
        <ele>165</ele>
        <time>2017-09-24T14:41:56Z</time>
      </trkpt>
      <trkpt lat="43.49141" lon="1.53657">
        <ele>165</ele>
        <time>2017-09-24T14:42:00Z</time>
      </trkpt>
      <trkpt lat="43.49166" lon="1.53662">
        <ele>165</ele>
        <time>2017-09-24T14:42:04Z</time>
      </trkpt>
      <trkpt lat="43.49188" lon="1.53667">
        <ele>166</ele>
        <time>2017-09-24T14:42:08Z</time>
      </trkpt>
      <trkpt lat="43.49214" lon="1.53669">
        <ele>166</ele>
        <time>2017-09-24T14:42:12Z</time>
      </trkpt>
      <trkpt lat="43.49243" lon="1.53669">
        <ele>166</ele>
        <time>2017-09-24T14:42:16Z</time>
      </trkpt>
      <trkpt lat="43.4927" lon="1.53669">
        <ele>166</ele>
        <time>2017-09-24T14:42:20Z</time>
      </trkpt>
      <trkpt lat="43.49298" lon="1.53667">
        <ele>166</ele>
        <time>2017-09-24T14:42:24Z</time>
      </trkpt>
      <trkpt lat="43.49323" lon="1.53665">
        <ele>166</ele>
        <time>2017-09-24T14:42:28Z</time>
      </trkpt>
      <trkpt lat="43.49352" lon="1.53662">
        <ele>165</ele>
        <time>2017-09-24T14:42:32Z</time>
      </trkpt>
      <trkpt lat="43.4938" lon="1.53658">
        <ele>165</ele>
        <time>2017-09-24T14:42:36Z</time>
      </trkpt>
      <trkpt lat="43.49403" lon="1.53649">
        <ele>166</ele>
        <time>2017-09-24T14:42:44Z</time>
      </trkpt>
      <trkpt lat="43.49427" lon="1.5364">
        <ele>166</ele>
        <time>2017-09-24T14:42:48Z</time>
      </trkpt>
      <trkpt lat="43.49452" lon="1.53634">
        <ele>166</ele>
        <time>2017-09-24T14:42:52Z</time>
      </trkpt>
      <trkpt lat="43.49479" lon="1.53624">
        <ele>165</ele>
        <time>2017-09-24T14:42:56Z</time>
      </trkpt>
      <trkpt lat="43.49507" lon="1.53613">
        <ele>165</ele>
        <time>2017-09-24T14:43:00Z</time>
      </trkpt>
      <trkpt lat="43.49563" lon="1.53593">
        <ele>165</ele>
        <time>2017-09-24T14:43:04Z</time>
      </trkpt>
      <trkpt lat="43.49589" lon="1.53583">
        <ele>166</ele>
        <time>2017-09-24T14:43:08Z</time>
      </trkpt>
      <trkpt lat="43.49602" lon="1.53575">
        <ele>166</ele>
        <time>2017-09-24T14:43:12Z</time>
      </trkpt>
      <trkpt lat="43.49622" lon="1.5356">
        <ele>166</ele>
        <time>2017-09-24T14:43:16Z</time>
      </trkpt>
      <trkpt lat="43.49644" lon="1.53543">
        <ele>165</ele>
        <time>2017-09-24T14:43:20Z</time>
      </trkpt>
      <trkpt lat="43.4966" lon="1.53526">
        <ele>165</ele>
        <time>2017-09-24T14:43:24Z</time>
      </trkpt>
      <trkpt lat="43.49675" lon="1.53504">
        <ele>165</ele>
        <time>2017-09-24T14:43:28Z</time>
      </trkpt>
      <trkpt lat="43.49697" lon="1.53483">
        <ele>165</ele>
        <time>2017-09-24T14:43:32Z</time>
      </trkpt>
      <trkpt lat="43.49716" lon="1.53467">
        <ele>165</ele>
        <time>2017-09-24T14:43:36Z</time>
      </trkpt>
      <trkpt lat="43.49731" lon="1.53445">
        <ele>165</ele>
        <time>2017-09-24T14:43:40Z</time>
      </trkpt>
      <trkpt lat="43.49745" lon="1.53422">
        <ele>164</ele>
        <time>2017-09-24T14:43:44Z</time>
      </trkpt>
      <trkpt lat="43.49763" lon="1.53385">
        <ele>165</ele>
        <time>2017-09-24T14:43:52Z</time>
      </trkpt>
      <trkpt lat="43.49781" lon="1.53356">
        <ele>164</ele>
        <time>2017-09-24T14:43:56Z</time>
      </trkpt>
      <trkpt lat="43.49805" lon="1.53336">
        <ele>165</ele>
        <time>2017-09-24T14:44:00Z</time>
      </trkpt>
      <trkpt lat="43.49827" lon="1.53313">
        <ele>165</ele>
        <time>2017-09-24T14:44:04Z</time>
      </trkpt>
      <trkpt lat="43.49857" lon="1.53247">
        <ele>164</ele>
        <time>2017-09-24T14:44:08Z</time>
      </trkpt>
      <trkpt lat="43.49875" lon="1.53219">
        <ele>164</ele>
        <time>2017-09-24T14:44:12Z</time>
      </trkpt>
      <trkpt lat="43.49893" lon="1.53193">
        <ele>164</ele>
        <time>2017-09-24T14:44:16Z</time>
      </trkpt>
      <trkpt lat="43.4992" lon="1.53168">
        <ele>165</ele>
        <time>2017-09-24T14:44:20Z</time>
      </trkpt>
      <trkpt lat="43.49946" lon="1.53142">
        <ele>165</ele>
        <time>2017-09-24T14:44:24Z</time>
      </trkpt>
      <trkpt lat="43.49968" lon="1.53122">
        <ele>165</ele>
        <time>2017-09-24T14:44:28Z</time>
      </trkpt>
      <trkpt lat="43.49992" lon="1.53102">
        <ele>165</ele>
        <time>2017-09-24T14:44:32Z</time>
      </trkpt>
      <trkpt lat="43.50016" lon="1.53082">
        <ele>164</ele>
        <time>2017-09-24T14:44:36Z</time>
      </trkpt>
      <trkpt lat="43.50031" lon="1.53053">
        <ele>164</ele>
        <time>2017-09-24T14:44:40Z</time>
      </trkpt>
      <trkpt lat="43.50057" lon="1.53028">
        <ele>164</ele>
        <time>2017-09-24T14:44:44Z</time>
      </trkpt>
      <trkpt lat="43.50079" lon="1.53005">
        <ele>164</ele>
        <time>2017-09-24T14:44:48Z</time>
      </trkpt>
      <trkpt lat="43.501" lon="1.5298">
        <ele>165</ele>
        <time>2017-09-24T14:44:52Z</time>
      </trkpt>
      <trkpt lat="43.50117" lon="1.52953">
        <ele>164</ele>
        <time>2017-09-24T14:44:56Z</time>
      </trkpt>
      <trkpt lat="43.50133" lon="1.52932">
        <ele>165</ele>
        <time>2017-09-24T14:45:00Z</time>
      </trkpt>
      <trkpt lat="43.50149" lon="1.52918">
        <ele>165</ele>
        <time>2017-09-24T14:45:04Z</time>
      </trkpt>
      <trkpt lat="43.50163" lon="1.529">
        <ele>165</ele>
        <time>2017-09-24T14:45:12Z</time>
      </trkpt>
      <trkpt lat="43.50181" lon="1.52883">
        <ele>164</ele>
        <time>2017-09-24T14:45:16Z</time>
      </trkpt>
      <trkpt lat="43.50209" lon="1.52845">
        <ele>165</ele>
        <time>2017-09-24T14:45:20Z</time>
      </trkpt>
      <trkpt lat="43.50229" lon="1.52822">
        <ele>165</ele>
        <time>2017-09-24T14:45:24Z</time>
      </trkpt>
      <trkpt lat="43.50249" lon="1.52799">
        <ele>164</ele>
        <time>2017-09-24T14:45:28Z</time>
      </trkpt>
      <trkpt lat="43.50268" lon="1.52777">
        <ele>164</ele>
        <time>2017-09-24T14:45:32Z</time>
      </trkpt>
      <trkpt lat="43.50293" lon="1.52751">
        <ele>165</ele>
        <time>2017-09-24T14:45:36Z</time>
      </trkpt>
      <trkpt lat="43.50308" lon="1.52728">
        <ele>164</ele>
        <time>2017-09-24T14:45:40Z</time>
      </trkpt>
      <trkpt lat="43.50326" lon="1.52711">
        <ele>164</ele>
        <time>2017-09-24T14:45:44Z</time>
      </trkpt>
      <trkpt lat="43.50361" lon="1.52693">
        <ele>164</ele>
        <time>2017-09-24T14:45:48Z</time>
      </trkpt>
      <trkpt lat="43.50385" lon="1.52662">
        <ele>164</ele>
        <time>2017-09-24T14:45:52Z</time>
      </trkpt>
      <trkpt lat="43.50399" lon="1.52626">
        <ele>164</ele>
        <time>2017-09-24T14:45:56Z</time>
      </trkpt>
      <trkpt lat="43.50411" lon="1.52587">
        <ele>164</ele>
        <time>2017-09-24T14:46:00Z</time>
      </trkpt>
      <trkpt lat="43.50419" lon="1.5255">
        <ele>164</ele>
        <time>2017-09-24T14:46:04Z</time>
      </trkpt>
      <trkpt lat="43.5043" lon="1.52516">
        <ele>164</ele>
        <time>2017-09-24T14:46:08Z</time>
      </trkpt>
      <trkpt lat="43.50441" lon="1.52479">
        <ele>164</ele>
        <time>2017-09-24T14:46:12Z</time>
      </trkpt>
      <trkpt lat="43.50441" lon="1.52433">
        <ele>164</ele>
        <time>2017-09-24T14:46:16Z</time>
      </trkpt>
      <trkpt lat="43.50437" lon="1.52382">
        <ele>164</ele>
        <time>2017-09-24T14:46:20Z</time>
      </trkpt>
      <trkpt lat="43.5044" lon="1.52336">
        <ele>164</ele>
        <time>2017-09-24T14:46:24Z</time>
      </trkpt>
      <trkpt lat="43.50438" lon="1.52293">
        <ele>164</ele>
        <time>2017-09-24T14:46:32Z</time>
      </trkpt>
      <trkpt lat="43.50439" lon="1.52252">
        <ele>164</ele>
        <time>2017-09-24T14:46:36Z</time>
      </trkpt>
      <trkpt lat="43.50447" lon="1.52212">
        <ele>164</ele>
        <time>2017-09-24T14:46:40Z</time>
      </trkpt>
      <trkpt lat="43.50482" lon="1.52149">
        <ele>164</ele>
        <time>2017-09-24T14:46:44Z</time>
      </trkpt>
      <trkpt lat="43.50504" lon="1.52126">
        <ele>164</ele>
        <time>2017-09-24T14:46:48Z</time>
      </trkpt>
      <trkpt lat="43.5053" lon="1.52109">
        <ele>164</ele>
        <time>2017-09-24T14:46:52Z</time>
      </trkpt>
      <trkpt lat="43.50555" lon="1.52098">
        <ele>164</ele>
        <time>2017-09-24T14:46:56Z</time>
      </trkpt>
      <trkpt lat="43.50582" lon="1.52092">
        <ele>164</ele>
        <time>2017-09-24T14:47:00Z</time>
      </trkpt>
      <trkpt lat="43.5061" lon="1.52088">
        <ele>164</ele>
        <time>2017-09-24T14:47:04Z</time>
      </trkpt>
      <trkpt lat="43.50637" lon="1.52083">
        <ele>164</ele>
        <time>2017-09-24T14:47:08Z</time>
      </trkpt>
      <trkpt lat="43.50659" lon="1.52078">
        <ele>164</ele>
        <time>2017-09-24T14:47:12Z</time>
      </trkpt>
      <trkpt lat="43.50685" lon="1.52066">
        <ele>164</ele>
        <time>2017-09-24T14:47:16Z</time>
      </trkpt>
      <trkpt lat="43.50707" lon="1.52055">
        <ele>164</ele>
        <time>2017-09-24T14:47:20Z</time>
      </trkpt>
      <trkpt lat="43.50731" lon="1.52044">
        <ele>164</ele>
        <time>2017-09-24T14:47:24Z</time>
      </trkpt>
      <trkpt lat="43.50759" lon="1.52028">
        <ele>164</ele>
        <time>2017-09-24T14:47:28Z</time>
      </trkpt>
      <trkpt lat="43.50785" lon="1.52014">
        <ele>164</ele>
        <time>2017-09-24T14:47:32Z</time>
      </trkpt>
      <trkpt lat="43.50806" lon="1.51987">
        <ele>164</ele>
        <time>2017-09-24T14:47:36Z</time>
      </trkpt>
      <trkpt lat="43.50826" lon="1.51961">
        <ele>165</ele>
        <time>2017-09-24T14:47:44Z</time>
      </trkpt>
      <trkpt lat="43.50847" lon="1.5194">
        <ele>165</ele>
        <time>2017-09-24T14:47:48Z</time>
      </trkpt>
      <trkpt lat="43.50868" lon="1.5192">
        <ele>165</ele>
        <time>2017-09-24T14:47:52Z</time>
      </trkpt>
      <trkpt lat="43.50885" lon="1.5189">
        <ele>165</ele>
        <time>2017-09-24T14:47:56Z</time>
      </trkpt>
      <trkpt lat="43.50927" lon="1.51846">
        <ele>165</ele>
        <time>2017-09-24T14:48:00Z</time>
      </trkpt>
      <trkpt lat="43.50953" lon="1.5183">
        <ele>164</ele>
        <time>2017-09-24T14:48:04Z</time>
      </trkpt>
      <trkpt lat="43.50976" lon="1.51815">
        <ele>164</ele>
        <time>2017-09-24T14:48:08Z</time>
      </trkpt>
      <trkpt lat="43.50993" lon="1.518">
        <ele>164</ele>
        <time>2017-09-24T14:48:12Z</time>
      </trkpt>
      <trkpt lat="43.51012" lon="1.51787">
        <ele>165</ele>
        <time>2017-09-24T14:48:16Z</time>
      </trkpt>
      <trkpt lat="43.51026" lon="1.51778">
        <ele>165</ele>
        <time>2017-09-24T14:48:20Z</time>
      </trkpt>
      <trkpt lat="43.51047" lon="1.51767">
        <ele>164</ele>
        <time>2017-09-24T14:48:24Z</time>
      </trkpt>
      <trkpt lat="43.51066" lon="1.51759">
        <ele>164</ele>
        <time>2017-09-24T14:48:28Z</time>
      </trkpt>
      <trkpt lat="43.51079" lon="1.51751">
        <ele>164</ele>
        <time>2017-09-24T14:48:32Z</time>
      </trkpt>
      <trkpt lat="43.51098" lon="1.51741">
        <ele>165</ele>
        <time>2017-09-24T14:48:36Z</time>
      </trkpt>
      <trkpt lat="43.51125" lon="1.51737">
        <ele>164</ele>
        <time>2017-09-24T14:48:40Z</time>
      </trkpt>
      <trkpt lat="43.51148" lon="1.51731">
        <ele>163</ele>
        <time>2017-09-24T14:48:44Z</time>
      </trkpt>
      <trkpt lat="43.5117" lon="1.51726">
        <ele>163</ele>
        <time>2017-09-24T14:48:48Z</time>
      </trkpt>
      <trkpt lat="43.51197" lon="1.51717">
        <ele>163</ele>
        <time>2017-09-24T14:48:52Z</time>
      </trkpt>
      <trkpt lat="43.51229" lon="1.51708">
        <ele>162</ele>
        <time>2017-09-24T14:48:56Z</time>
      </trkpt>
      <trkpt lat="43.5126" lon="1.517">
        <ele>162</ele>
        <time>2017-09-24T14:49:04Z</time>
      </trkpt>
      <trkpt lat="43.51288" lon="1.51691">
        <ele>163</ele>
        <time>2017-09-24T14:49:08Z</time>
      </trkpt>
      <trkpt lat="43.51352" lon="1.5167">
        <ele>163</ele>
        <time>2017-09-24T14:49:12Z</time>
      </trkpt>
      <trkpt lat="43.51386" lon="1.51661">
        <ele>163</ele>
        <time>2017-09-24T14:49:16Z</time>
      </trkpt>
      <trkpt lat="43.51426" lon="1.51667">
        <ele>162</ele>
        <time>2017-09-24T14:49:20Z</time>
      </trkpt>
      <trkpt lat="43.51454" lon="1.51693">
        <ele>163</ele>
        <time>2017-09-24T14:49:24Z</time>
      </trkpt>
      <trkpt lat="43.51472" lon="1.5173">
        <ele>163</ele>
        <time>2017-09-24T14:49:28Z</time>
      </trkpt>
      <trkpt lat="43.51474" lon="1.51766">
        <ele>162</ele>
        <time>2017-09-24T14:49:32Z</time>
      </trkpt>
      <trkpt lat="43.51468" lon="1.51803">
        <ele>163</ele>
        <time>2017-09-24T14:49:36Z</time>
      </trkpt>
      <trkpt lat="43.51471" lon="1.51835">
        <ele>163</ele>
        <time>2017-09-24T14:49:40Z</time>
      </trkpt>
      <trkpt lat="43.51473" lon="1.51868">
        <ele>162</ele>
        <time>2017-09-24T14:49:44Z</time>
      </trkpt>
      <trkpt lat="43.51477" lon="1.51906">
        <ele>162</ele>
        <time>2017-09-24T14:49:48Z</time>
      </trkpt>
      <trkpt lat="43.51491" lon="1.5194">
        <ele>162</ele>
        <time>2017-09-24T14:49:52Z</time>
      </trkpt>
      <trkpt lat="43.51508" lon="1.51966">
        <ele>162</ele>
        <time>2017-09-24T14:49:56Z</time>
      </trkpt>
      <trkpt lat="43.51527" lon="1.51989">
        <ele>162</ele>
        <time>2017-09-24T14:50:00Z</time>
      </trkpt>
      <trkpt lat="43.51543" lon="1.52015">
        <ele>162</ele>
        <time>2017-09-24T14:50:04Z</time>
      </trkpt>
      <trkpt lat="43.51563" lon="1.52044">
        <ele>163</ele>
        <time>2017-09-24T14:50:08Z</time>
      </trkpt>
      <trkpt lat="43.51584" lon="1.52061">
        <ele>162</ele>
        <time>2017-09-24T14:50:12Z</time>
      </trkpt>
      <trkpt lat="43.51618" lon="1.52063">
        <ele>162</ele>
        <time>2017-09-24T14:50:20Z</time>
      </trkpt>
      <trkpt lat="43.51648" lon="1.52057">
        <ele>162</ele>
        <time>2017-09-24T14:50:24Z</time>
      </trkpt>
      <trkpt lat="43.51679" lon="1.52045">
        <ele>162</ele>
        <time>2017-09-24T14:50:28Z</time>
      </trkpt>
      <trkpt lat="43.51704" lon="1.52035">
        <ele>162</ele>
        <time>2017-09-24T14:50:32Z</time>
      </trkpt>
      <trkpt lat="43.51759" lon="1.52007">
        <ele>162</ele>
        <time>2017-09-24T14:50:36Z</time>
      </trkpt>
      <trkpt lat="43.51785" lon="1.51994">
        <ele>162</ele>
        <time>2017-09-24T14:50:40Z</time>
      </trkpt>
      <trkpt lat="43.51812" lon="1.51989">
        <ele>162</ele>
        <time>2017-09-24T14:50:44Z</time>
      </trkpt>
      <trkpt lat="43.51839" lon="1.51995">
        <ele>162</ele>
        <time>2017-09-24T14:50:48Z</time>
      </trkpt>
      <trkpt lat="43.51865" lon="1.52004">
        <ele>162</ele>
        <time>2017-09-24T14:50:52Z</time>
      </trkpt>
      <trkpt lat="43.51898" lon="1.52014">
        <ele>162</ele>
        <time>2017-09-24T14:50:56Z</time>
      </trkpt>
      <trkpt lat="43.51927" lon="1.52024">
        <ele>162</ele>
        <time>2017-09-24T14:51:00Z</time>
      </trkpt>
      <trkpt lat="43.51951" lon="1.52027">
        <ele>162</ele>
        <time>2017-09-24T14:51:04Z</time>
      </trkpt>
      <trkpt lat="43.51972" lon="1.52026">
        <ele>162</ele>
        <time>2017-09-24T14:51:08Z</time>
      </trkpt>
      <trkpt lat="43.51995" lon="1.5202">
        <ele>162</ele>
        <time>2017-09-24T14:51:12Z</time>
      </trkpt>
      <trkpt lat="43.52016" lon="1.5201">
        <ele>163</ele>
        <time>2017-09-24T14:51:16Z</time>
      </trkpt>
      <trkpt lat="43.52041" lon="1.51994">
        <ele>162</ele>
        <time>2017-09-24T14:51:20Z</time>
      </trkpt>
      <trkpt lat="43.52068" lon="1.5198">
        <ele>162</ele>
        <time>2017-09-24T14:51:24Z</time>
      </trkpt>
      <trkpt lat="43.52098" lon="1.51971">
        <ele>162</ele>
        <time>2017-09-24T14:51:28Z</time>
      </trkpt>
      <trkpt lat="43.5213" lon="1.51968">
        <ele>162</ele>
        <time>2017-09-24T14:51:32Z</time>
      </trkpt>
      <trkpt lat="43.52158" lon="1.51967">
        <ele>162</ele>
        <time>2017-09-24T14:51:36Z</time>
      </trkpt>
      <trkpt lat="43.52186" lon="1.51962">
        <ele>162</ele>
        <time>2017-09-24T14:51:40Z</time>
      </trkpt>
      <trkpt lat="43.5222" lon="1.51952">
        <ele>162</ele>
        <time>2017-09-24T14:51:48Z</time>
      </trkpt>
      <trkpt lat="43.52278" lon="1.51928">
        <ele>163</ele>
        <time>2017-09-24T14:51:52Z</time>
      </trkpt>
      <trkpt lat="43.52304" lon="1.5192">
        <ele>163</ele>
        <time>2017-09-24T14:51:56Z</time>
      </trkpt>
      <trkpt lat="43.52322" lon="1.51908">
        <ele>162</ele>
        <time>2017-09-24T14:52:00Z</time>
      </trkpt>
      <trkpt lat="43.5234" lon="1.519">
        <ele>162</ele>
        <time>2017-09-24T14:52:04Z</time>
      </trkpt>
      <trkpt lat="43.52362" lon="1.51896">
        <ele>162</ele>
        <time>2017-09-24T14:52:08Z</time>
      </trkpt>
      <trkpt lat="43.52387" lon="1.5189">
        <ele>161</ele>
        <time>2017-09-24T14:52:12Z</time>
      </trkpt>
      <trkpt lat="43.52409" lon="1.51883">
        <ele>162</ele>
        <time>2017-09-24T14:52:16Z</time>
      </trkpt>
      <trkpt lat="43.52436" lon="1.51869">
        <ele>162</ele>
        <time>2017-09-24T14:52:20Z</time>
      </trkpt>
      <trkpt lat="43.52469" lon="1.5185">
        <ele>158</ele>
        <time>2017-09-24T14:52:24Z</time>
      </trkpt>
      <trkpt lat="43.52505" lon="1.51822">
        <ele>158</ele>
        <time>2017-09-24T14:52:28Z</time>
      </trkpt>
      <trkpt lat="43.52538" lon="1.51792">
        <ele>158</ele>
        <time>2017-09-24T14:52:32Z</time>
      </trkpt>
      <trkpt lat="43.52563" lon="1.5176">
        <ele>158</ele>
        <time>2017-09-24T14:52:36Z</time>
      </trkpt>
      <trkpt lat="43.52584" lon="1.51719">
        <ele>157</ele>
        <time>2017-09-24T14:52:40Z</time>
      </trkpt>
      <trkpt lat="43.526" lon="1.51674">
        <ele>158</ele>
        <time>2017-09-24T14:52:44Z</time>
      </trkpt>
      <trkpt lat="43.52615" lon="1.51629">
        <ele>158</ele>
        <time>2017-09-24T14:52:48Z</time>
      </trkpt>
      <trkpt lat="43.52621" lon="1.51588">
        <ele>158</ele>
        <time>2017-09-24T14:52:52Z</time>
      </trkpt>
      <trkpt lat="43.52631" lon="1.51548">
        <ele>157</ele>
        <time>2017-09-24T14:52:56Z</time>
      </trkpt>
      <trkpt lat="43.52637" lon="1.51503">
        <ele>158</ele>
        <time>2017-09-24T14:53:00Z</time>
      </trkpt>
      <trkpt lat="43.52647" lon="1.51468">
        <ele>158</ele>
        <time>2017-09-24T14:53:04Z</time>
      </trkpt>
      <trkpt lat="43.52651" lon="1.51431">
        <ele>158</ele>
        <time>2017-09-24T14:53:08Z</time>
      </trkpt>
      <trkpt lat="43.52653" lon="1.51395">
        <ele>158</ele>
        <time>2017-09-24T14:53:12Z</time>
      </trkpt>
      <trkpt lat="43.52656" lon="1.51365">
        <ele>159</ele>
        <time>2017-09-24T14:53:16Z</time>
      </trkpt>
      <trkpt lat="43.52658" lon="1.51327">
        <ele>159</ele>
        <time>2017-09-24T14:53:20Z</time>
      </trkpt>
      <trkpt lat="43.52662" lon="1.51286">
        <ele>159</ele>
        <time>2017-09-24T14:53:24Z</time>
      </trkpt>
      <trkpt lat="43.52666" lon="1.51243">
        <ele>158</ele>
        <time>2017-09-24T14:53:28Z</time>
      </trkpt>
      <trkpt lat="43.52667" lon="1.51196">
        <ele>158</ele>
        <time>2017-09-24T14:53:32Z</time>
      </trkpt>
      <trkpt lat="43.52676" lon="1.51152">
        <ele>158</ele>
        <time>2017-09-24T14:53:36Z</time>
      </trkpt>
      <trkpt lat="43.52686" lon="1.51111">
        <ele>158</ele>
        <time>2017-09-24T14:53:40Z</time>
      </trkpt>
      <trkpt lat="43.52696" lon="1.51073">
        <ele>159</ele>
        <time>2017-09-24T14:53:44Z</time>
      </trkpt>
      <trkpt lat="43.52705" lon="1.51043">
        <ele>159</ele>
        <time>2017-09-24T14:53:48Z</time>
      </trkpt>
      <trkpt lat="43.52719" lon="1.51009">
        <ele>159</ele>
        <time>2017-09-24T14:53:52Z</time>
      </trkpt>
      <trkpt lat="43.52735" lon="1.50979">
        <ele>159</ele>
        <time>2017-09-24T14:53:56Z</time>
      </trkpt>
      <trkpt lat="43.52754" lon="1.50954">
        <ele>158</ele>
        <time>2017-09-24T14:54:00Z</time>
      </trkpt>
      <trkpt lat="43.52775" lon="1.50925">
        <ele>158</ele>
        <time>2017-09-24T14:54:04Z</time>
      </trkpt>
      <trkpt lat="43.52798" lon="1.50906">
        <ele>158</ele>
        <time>2017-09-24T14:54:08Z</time>
      </trkpt>
      <trkpt lat="43.52817" lon="1.50893">
        <ele>159</ele>
        <time>2017-09-24T14:54:12Z</time>
      </trkpt>
      <trkpt lat="43.52838" lon="1.50875">
        <ele>158</ele>
        <time>2017-09-24T14:54:16Z</time>
      </trkpt>
      <trkpt lat="43.5286" lon="1.50858">
        <ele>158</ele>
        <time>2017-09-24T14:54:24Z</time>
      </trkpt>
      <trkpt lat="43.52881" lon="1.50842">
        <ele>159</ele>
        <time>2017-09-24T14:54:28Z</time>
      </trkpt>
      <trkpt lat="43.52901" lon="1.5082">
        <ele>159</ele>
        <time>2017-09-24T14:54:32Z</time>
      </trkpt>
      <trkpt lat="43.52946" lon="1.50774">
        <ele>158</ele>
        <time>2017-09-24T14:54:36Z</time>
      </trkpt>
      <trkpt lat="43.52977" lon="1.50743">
        <ele>158</ele>
        <time>2017-09-24T14:54:40Z</time>
      </trkpt>
      <trkpt lat="43.53008" lon="1.50711">
        <ele>159</ele>
        <time>2017-09-24T14:54:44Z</time>
      </trkpt>
      <trkpt lat="43.53037" lon="1.50684">
        <ele>159</ele>
        <time>2017-09-24T14:54:48Z</time>
      </trkpt>
      <trkpt lat="43.53064" lon="1.50662">
        <ele>159</ele>
        <time>2017-09-24T14:54:52Z</time>
      </trkpt>
      <trkpt lat="43.5309" lon="1.50643">
        <ele>158</ele>
        <time>2017-09-24T14:54:56Z</time>
      </trkpt>
      <trkpt lat="43.53112" lon="1.50621">
        <ele>158</ele>
        <time>2017-09-24T14:55:00Z</time>
      </trkpt>
      <trkpt lat="43.53137" lon="1.50605">
        <ele>158</ele>
        <time>2017-09-24T14:55:04Z</time>
      </trkpt>
      <trkpt lat="43.53164" lon="1.50594">
        <ele>158</ele>
        <time>2017-09-24T14:55:08Z</time>
      </trkpt>
      <trkpt lat="43.5319" lon="1.50583">
        <ele>158</ele>
        <time>2017-09-24T14:55:12Z</time>
      </trkpt>
      <trkpt lat="43.53216" lon="1.50576">
        <ele>158</ele>
        <time>2017-09-24T14:55:16Z</time>
      </trkpt>
      <trkpt lat="43.53242" lon="1.5057">
        <ele>158</ele>
        <time>2017-09-24T14:55:20Z</time>
      </trkpt>
      <trkpt lat="43.53269" lon="1.50566">
        <ele>158</ele>
        <time>2017-09-24T14:55:24Z</time>
      </trkpt>
      <trkpt lat="43.53295" lon="1.50561">
        <ele>158</ele>
        <time>2017-09-24T14:55:28Z</time>
      </trkpt>
      <trkpt lat="43.53322" lon="1.50557">
        <ele>158</ele>
        <time>2017-09-24T14:55:32Z</time>
      </trkpt>
      <trkpt lat="43.53348" lon="1.50553">
        <ele>158</ele>
        <time>2017-09-24T14:55:40Z</time>
      </trkpt>
      <trkpt lat="43.53375" lon="1.50548">
        <ele>158</ele>
        <time>2017-09-24T14:55:44Z</time>
      </trkpt>
      <trkpt lat="43.53427" lon="1.50529">
        <ele>158</ele>
        <time>2017-09-24T14:55:48Z</time>
      </trkpt>
      <trkpt lat="43.53451" lon="1.50514">
        <ele>158</ele>
        <time>2017-09-24T14:55:52Z</time>
      </trkpt>
      <trkpt lat="43.53476" lon="1.505">
        <ele>158</ele>
        <time>2017-09-24T14:55:56Z</time>
      </trkpt>
      <trkpt lat="43.535" lon="1.50481">
        <ele>158</ele>
        <time>2017-09-24T14:56:00Z</time>
      </trkpt>
      <trkpt lat="43.53523" lon="1.50462">
        <ele>158</ele>
        <time>2017-09-24T14:56:04Z</time>
      </trkpt>
      <trkpt lat="43.53544" lon="1.50443">
        <ele>158</ele>
        <time>2017-09-24T14:56:08Z</time>
      </trkpt>
      <trkpt lat="43.53568" lon="1.50424">
        <ele>158</ele>
        <time>2017-09-24T14:56:12Z</time>
      </trkpt>
      <trkpt lat="43.53587" lon="1.50401">
        <ele>158</ele>
        <time>2017-09-24T14:56:16Z</time>
      </trkpt>
      <trkpt lat="43.5361" lon="1.50376">
        <ele>158</ele>
        <time>2017-09-24T14:56:20Z</time>
      </trkpt>
      <trkpt lat="43.53633" lon="1.50351">
        <ele>158</ele>
        <time>2017-09-24T14:56:24Z</time>
      </trkpt>
      <trkpt lat="43.53654" lon="1.50325">
        <ele>158</ele>
        <time>2017-09-24T14:56:28Z</time>
      </trkpt>
      <trkpt lat="43.53674" lon="1.50299">
        <ele>159</ele>
        <time>2017-09-24T14:56:32Z</time>
      </trkpt>
      <trkpt lat="43.53694" lon="1.50274">
        <ele>158</ele>
        <time>2017-09-24T14:56:36Z</time>
      </trkpt>
      <trkpt lat="43.53714" lon="1.5025">
        <ele>158</ele>
        <time>2017-09-24T14:56:40Z</time>
      </trkpt>
      <trkpt lat="43.53735" lon="1.50224">
        <ele>158</ele>
        <time>2017-09-24T14:56:44Z</time>
      </trkpt>
      <trkpt lat="43.53749" lon="1.50193">
        <ele>157</ele>
        <time>2017-09-24T14:56:52Z</time>
      </trkpt>
      <trkpt lat="43.5376" lon="1.50166">
        <ele>158</ele>
        <time>2017-09-24T14:56:56Z</time>
      </trkpt>
      <trkpt lat="43.53772" lon="1.50135">
        <ele>158</ele>
        <time>2017-09-24T14:57:00Z</time>
      </trkpt>
      <trkpt lat="43.53808" lon="1.50077">
        <ele>158</ele>
        <time>2017-09-24T14:57:04Z</time>
      </trkpt>
      <trkpt lat="43.53827" lon="1.50049">
        <ele>158</ele>
        <time>2017-09-24T14:57:08Z</time>
      </trkpt>
      <trkpt lat="43.53845" lon="1.50019">
        <ele>158</ele>
        <time>2017-09-24T14:57:12Z</time>
      </trkpt>
      <trkpt lat="43.53862" lon="1.49991">
        <ele>158</ele>
        <time>2017-09-24T14:57:16Z</time>
      </trkpt>
      <trkpt lat="43.53872" lon="1.49962">
        <ele>158</ele>
        <time>2017-09-24T14:57:20Z</time>
      </trkpt>
      <trkpt lat="43.53882" lon="1.49936">
        <ele>158</ele>
        <time>2017-09-24T14:57:24Z</time>
      </trkpt>
      <trkpt lat="43.53894" lon="1.49898">
        <ele>159</ele>
        <time>2017-09-24T14:57:28Z</time>
      </trkpt>
      <trkpt lat="43.53904" lon="1.4986">
        <ele>158</ele>
        <time>2017-09-24T14:57:32Z</time>
      </trkpt>
      <trkpt lat="43.53909" lon="1.49819">
        <ele>159</ele>
        <time>2017-09-24T14:57:36Z</time>
      </trkpt>
      <trkpt lat="43.53912" lon="1.49778">
        <ele>158</ele>
        <time>2017-09-24T14:57:40Z</time>
      </trkpt>
      <trkpt lat="43.53912" lon="1.4974">
        <ele>158</ele>
        <time>2017-09-24T14:57:44Z</time>
      </trkpt>
      <trkpt lat="43.5391" lon="1.49704">
        <ele>158</ele>
        <time>2017-09-24T14:57:48Z</time>
      </trkpt>
      <trkpt lat="43.53906" lon="1.49669">
        <ele>158</ele>
        <time>2017-09-24T14:57:52Z</time>
      </trkpt>
      <trkpt lat="43.539" lon="1.49634">
        <ele>158</ele>
        <time>2017-09-24T14:57:56Z</time>
      </trkpt>
      <trkpt lat="43.53894" lon="1.496">
        <ele>158</ele>
        <time>2017-09-24T14:58:00Z</time>
      </trkpt>
      <trkpt lat="43.53887" lon="1.49561">
        <ele>158</ele>
        <time>2017-09-24T14:58:08Z</time>
      </trkpt>
      <trkpt lat="43.53881" lon="1.4952">
        <ele>158</ele>
        <time>2017-09-24T14:58:12Z</time>
      </trkpt>
      <trkpt lat="43.53877" lon="1.49481">
        <ele>158</ele>
        <time>2017-09-24T14:58:16Z</time>
      </trkpt>
      <trkpt lat="43.53872" lon="1.49444">
        <ele>158</ele>
        <time>2017-09-24T14:58:20Z</time>
      </trkpt>
      <trkpt lat="43.5387" lon="1.49401">
        <ele>158</ele>
        <time>2017-09-24T14:58:24Z</time>
      </trkpt>
      <trkpt lat="43.53886" lon="1.49328">
        <ele>158</ele>
        <time>2017-09-24T14:58:28Z</time>
      </trkpt>
      <trkpt lat="43.53905" lon="1.49302">
        <ele>159</ele>
        <time>2017-09-24T14:58:32Z</time>
      </trkpt>
      <trkpt lat="43.53926" lon="1.49289">
        <ele>158</ele>
        <time>2017-09-24T14:58:36Z</time>
      </trkpt>
      <trkpt lat="43.53938" lon="1.4928">
        <ele>158</ele>
        <time>2017-09-24T14:58:40Z</time>
      </trkpt>
      <trkpt lat="43.5395" lon="1.49271">
        <ele>158</ele>
        <time>2017-09-24T14:58:44Z</time>
      </trkpt>
      <trkpt lat="43.53974" lon="1.49263">
        <ele>158</ele>
        <time>2017-09-24T14:58:48Z</time>
      </trkpt>
      <trkpt lat="43.54008" lon="1.4925">
        <ele>158</ele>
        <time>2017-09-24T14:58:52Z</time>
      </trkpt>
      <trkpt lat="43.54032" lon="1.49238">
        <ele>158</ele>
        <time>2017-09-24T14:58:56Z</time>
      </trkpt>
      <trkpt lat="43.54054" lon="1.49226">
        <ele>158</ele>
        <time>2017-09-24T14:59:00Z</time>
      </trkpt>
      <trkpt lat="43.5408" lon="1.49211">
        <ele>158</ele>
        <time>2017-09-24T14:59:04Z</time>
      </trkpt>
      <trkpt lat="43.54101" lon="1.49195">
        <ele>158</ele>
        <time>2017-09-24T14:59:08Z</time>
      </trkpt>
      <trkpt lat="43.54121" lon="1.49185">
        <ele>158</ele>
        <time>2017-09-24T14:59:12Z</time>
      </trkpt>
      <trkpt lat="43.54134" lon="1.49171">
        <ele>158</ele>
        <time>2017-09-24T14:59:16Z</time>
      </trkpt>
      <trkpt lat="43.54154" lon="1.49158">
        <ele>158</ele>
        <time>2017-09-24T14:59:20Z</time>
      </trkpt>
      <trkpt lat="43.54178" lon="1.4914">
        <ele>159</ele>
        <time>2017-09-24T14:59:28Z</time>
      </trkpt>
      <trkpt lat="43.54204" lon="1.49128">
        <ele>159</ele>
        <time>2017-09-24T14:59:32Z</time>
      </trkpt>
      <trkpt lat="43.54229" lon="1.49116">
        <ele>158</ele>
        <time>2017-09-24T14:59:36Z</time>
      </trkpt>
      <trkpt lat="43.54278" lon="1.49089">
        <ele>158</ele>
        <time>2017-09-24T14:59:40Z</time>
      </trkpt>
      <trkpt lat="43.54305" lon="1.49076">
        <ele>159</ele>
        <time>2017-09-24T14:59:44Z</time>
      </trkpt>
      <trkpt lat="43.5433" lon="1.49066">
        <ele>158</ele>
        <time>2017-09-24T14:59:48Z</time>
      </trkpt>
      <trkpt lat="43.54359" lon="1.49055">
        <ele>158</ele>
        <time>2017-09-24T14:59:52Z</time>
      </trkpt>
      <trkpt lat="43.54382" lon="1.49042">
        <ele>159</ele>
        <time>2017-09-24T14:59:56Z</time>
      </trkpt>
      <trkpt lat="43.54408" lon="1.49027">
        <ele>159</ele>
        <time>2017-09-24T15:00:00Z</time>
      </trkpt>
      <trkpt lat="43.54425" lon="1.49006">
        <ele>159</ele>
        <time>2017-09-24T15:00:04Z</time>
      </trkpt>
      <trkpt lat="43.5446" lon="1.48971">
        <ele>159</ele>
        <time>2017-09-24T15:00:08Z</time>
      </trkpt>
      <trkpt lat="43.54488" lon="1.48937">
        <ele>159</ele>
        <time>2017-09-24T15:00:12Z</time>
      </trkpt>
      <trkpt lat="43.54508" lon="1.48902">
        <ele>159</ele>
        <time>2017-09-24T15:00:16Z</time>
      </trkpt>
      <trkpt lat="43.54523" lon="1.48868">
        <ele>158</ele>
        <time>2017-09-24T15:00:20Z</time>
      </trkpt>
      <trkpt lat="43.54536" lon="1.48835">
        <ele>158</ele>
        <time>2017-09-24T15:00:24Z</time>
      </trkpt>
      <trkpt lat="43.54548" lon="1.48803">
        <ele>158</ele>
        <time>2017-09-24T15:00:28Z</time>
      </trkpt>
      <trkpt lat="43.54562" lon="1.48768">
        <ele>158</ele>
        <time>2017-09-24T15:00:32Z</time>
      </trkpt>
      <trkpt lat="43.54576" lon="1.48734">
        <ele>158</ele>
        <time>2017-09-24T15:00:40Z</time>
      </trkpt>
      <trkpt lat="43.54591" lon="1.487">
        <ele>158</ele>
        <time>2017-09-24T15:00:44Z</time>
      </trkpt>
      <trkpt lat="43.54608" lon="1.48666">
        <ele>159</ele>
        <time>2017-09-24T15:00:48Z</time>
      </trkpt>
      <trkpt lat="43.54625" lon="1.48633">
        <ele>158</ele>
        <time>2017-09-24T15:00:52Z</time>
      </trkpt>
      <trkpt lat="43.5467" lon="1.48581">
        <ele>159</ele>
        <time>2017-09-24T15:00:56Z</time>
      </trkpt>
      <trkpt lat="43.54695" lon="1.48559">
        <ele>159</ele>
        <time>2017-09-24T15:01:00Z</time>
      </trkpt>
      <trkpt lat="43.54721" lon="1.48541">
        <ele>158</ele>
        <time>2017-09-24T15:01:04Z</time>
      </trkpt>
      <trkpt lat="43.54744" lon="1.48523">
        <ele>159</ele>
        <time>2017-09-24T15:01:08Z</time>
      </trkpt>
      <trkpt lat="43.54764" lon="1.48505">
        <ele>159</ele>
        <time>2017-09-24T15:01:12Z</time>
      </trkpt>
      <trkpt lat="43.54784" lon="1.48488">
        <ele>159</ele>
        <time>2017-09-24T15:01:16Z</time>
      </trkpt>
      <trkpt lat="43.54807" lon="1.48473">
        <ele>158</ele>
        <time>2017-09-24T15:01:20Z</time>
      </trkpt>
      <trkpt lat="43.54832" lon="1.48469">
        <ele>158</ele>
        <time>2017-09-24T15:01:24Z</time>
      </trkpt>
      <trkpt lat="43.5485" lon="1.48497">
        <ele>158</ele>
        <time>2017-09-24T15:01:28Z</time>
      </trkpt>
      <trkpt lat="43.54866" lon="1.48529">
        <ele>158</ele>
        <time>2017-09-24T15:01:32Z</time>
      </trkpt>
      <trkpt lat="43.54889" lon="1.48525">
        <ele>158</ele>
        <time>2017-09-24T15:01:36Z</time>
      </trkpt>
      <trkpt lat="43.5491" lon="1.485">
        <ele>157</ele>
        <time>2017-09-24T15:01:40Z</time>
      </trkpt>
      <trkpt lat="43.54932" lon="1.48481">
        <ele>158</ele>
        <time>2017-09-24T15:01:44Z</time>
      </trkpt>
      <trkpt lat="43.54954" lon="1.48462">
        <ele>158</ele>
        <time>2017-09-24T15:01:48Z</time>
      </trkpt>
      <trkpt lat="43.54973" lon="1.48441">
        <ele>158</ele>
        <time>2017-09-24T15:01:52Z</time>
      </trkpt>
      <trkpt lat="43.54973" lon="1.48408">
        <ele>158</ele>
        <time>2017-09-24T15:02:00Z</time>
      </trkpt>
      <trkpt lat="43.54969" lon="1.48374">
        <ele>158</ele>
        <time>2017-09-24T15:02:04Z</time>
      </trkpt>
      <trkpt lat="43.54969" lon="1.48352">
        <ele>158</ele>
        <time>2017-09-24T15:02:08Z</time>
      </trkpt>
      <trkpt lat="43.54977" lon="1.48337">
        <ele>159</ele>
        <time>2017-09-24T15:02:12Z</time>
      </trkpt>
      <trkpt lat="43.54994" lon="1.48304">
        <ele>160</ele>
        <time>2017-09-24T15:02:16Z</time>
      </trkpt>
      <trkpt lat="43.55012" lon="1.48285">
        <ele>160</ele>
        <time>2017-09-24T15:02:20Z</time>
      </trkpt>
      <trkpt lat="43.55032" lon="1.48263">
        <ele>160</ele>
        <time>2017-09-24T15:02:24Z</time>
      </trkpt>
      <trkpt lat="43.55053" lon="1.48244">
        <ele>160</ele>
        <time>2017-09-24T15:02:28Z</time>
      </trkpt>
      <trkpt lat="43.55075" lon="1.48226">
        <ele>159</ele>
        <time>2017-09-24T15:02:32Z</time>
      </trkpt>
      <trkpt lat="43.55095" lon="1.48216">
        <ele>159</ele>
        <time>2017-09-24T15:02:36Z</time>
      </trkpt>
      <trkpt lat="43.55119" lon="1.48206">
        <ele>160</ele>
        <time>2017-09-24T15:02:40Z</time>
      </trkpt>
      <trkpt lat="43.55146" lon="1.48194">
        <ele>159</ele>
        <time>2017-09-24T15:02:44Z</time>
      </trkpt>
      <trkpt lat="43.55171" lon="1.48184">
        <ele>159</ele>
        <time>2017-09-24T15:02:48Z</time>
      </trkpt>
      <trkpt lat="43.55196" lon="1.48177">
        <ele>159</ele>
        <time>2017-09-24T15:02:52Z</time>
      </trkpt>
      <trkpt lat="43.55223" lon="1.48167">
        <ele>158</ele>
        <time>2017-09-24T15:02:56Z</time>
      </trkpt>
      <trkpt lat="43.5525" lon="1.48159">
        <ele>158</ele>
        <time>2017-09-24T15:03:00Z</time>
      </trkpt>
      <trkpt lat="43.55278" lon="1.48149">
        <ele>158</ele>
        <time>2017-09-24T15:03:04Z</time>
      </trkpt>
      <trkpt lat="43.55303" lon="1.48142">
        <ele>158</ele>
        <time>2017-09-24T15:03:08Z</time>
      </trkpt>
      <trkpt lat="43.55335" lon="1.48137">
        <ele>157</ele>
        <time>2017-09-24T15:03:12Z</time>
      </trkpt>
      <trkpt lat="43.55366" lon="1.48132">
        <ele>158</ele>
        <time>2017-09-24T15:03:16Z</time>
      </trkpt>
      <trkpt lat="43.55404" lon="1.48132">
        <ele>158</ele>
        <time>2017-09-24T15:03:24Z</time>
      </trkpt>
      <trkpt lat="43.55433" lon="1.48131">
        <ele>158</ele>
        <time>2017-09-24T15:03:28Z</time>
      </trkpt>
      <trkpt lat="43.5549" lon="1.48123">
        <ele>157</ele>
        <time>2017-09-24T15:03:32Z</time>
      </trkpt>
      <trkpt lat="43.55517" lon="1.48116">
        <ele>157</ele>
        <time>2017-09-24T15:03:36Z</time>
      </trkpt>
      <trkpt lat="43.55544" lon="1.48104">
        <ele>157</ele>
        <time>2017-09-24T15:03:40Z</time>
      </trkpt>
      <trkpt lat="43.55572" lon="1.48102">
        <ele>157</ele>
        <time>2017-09-24T15:03:44Z</time>
      </trkpt>
      <trkpt lat="43.55597" lon="1.4811">
        <ele>157</ele>
        <time>2017-09-24T15:03:48Z</time>
      </trkpt>
      <trkpt lat="43.55619" lon="1.48131">
        <ele>157</ele>
        <time>2017-09-24T15:03:52Z</time>
      </trkpt>
      <trkpt lat="43.55633" lon="1.48159">
        <ele>158</ele>
        <time>2017-09-24T15:03:56Z</time>
      </trkpt>
      <trkpt lat="43.55638" lon="1.48191">
        <ele>158</ele>
        <time>2017-09-24T15:04:00Z</time>
      </trkpt>
      <trkpt lat="43.55656" lon="1.48203">
        <ele>158</ele>
        <time>2017-09-24T15:04:04Z</time>
      </trkpt>
      <trkpt lat="43.55665" lon="1.48215">
        <ele>157</ele>
        <time>2017-09-24T15:04:08Z</time>
      </trkpt>
      <trkpt lat="43.55647" lon="1.48232">
        <ele>157</ele>
        <time>2017-09-24T15:04:12Z</time>
      </trkpt>
      <trkpt lat="43.55625" lon="1.48244">
        <ele>156</ele>
        <time>2017-09-24T15:04:16Z</time>
      </trkpt>
      <trkpt lat="43.55602" lon="1.48255">
        <ele>156</ele>
        <time>2017-09-24T15:04:20Z</time>
      </trkpt>
      <trkpt lat="43.55587" lon="1.48279">
        <ele>157</ele>
        <time>2017-09-24T15:04:24Z</time>
      </trkpt>
      <trkpt lat="43.55592" lon="1.48314">
        <ele>157</ele>
        <time>2017-09-24T15:04:28Z</time>
      </trkpt>
      <trkpt lat="43.55601" lon="1.48348">
        <ele>156</ele>
        <time>2017-09-24T15:04:32Z</time>
      </trkpt>
      <trkpt lat="43.5561" lon="1.48382">
        <ele>156</ele>
        <time>2017-09-24T15:04:40Z</time>
      </trkpt>
      <trkpt lat="43.55616" lon="1.48413">
        <ele>157</ele>
        <time>2017-09-24T15:04:44Z</time>
      </trkpt>
      <trkpt lat="43.55632" lon="1.48466">
        <ele>159</ele>
        <time>2017-09-24T15:04:48Z</time>
      </trkpt>
      <trkpt lat="43.55646" lon="1.48496">
        <ele>159</ele>
        <time>2017-09-24T15:04:52Z</time>
      </trkpt>
      <trkpt lat="43.55663" lon="1.48532">
        <ele>158</ele>
        <time>2017-09-24T15:04:56Z</time>
      </trkpt>
      <trkpt lat="43.55677" lon="1.4857">
        <ele>156</ele>
        <time>2017-09-24T15:05:00Z</time>
      </trkpt>
      <trkpt lat="43.55691" lon="1.48608">
        <ele>155</ele>
        <time>2017-09-24T15:05:04Z</time>
      </trkpt>
      <trkpt lat="43.55706" lon="1.48646">
        <ele>155</ele>
        <time>2017-09-24T15:05:08Z</time>
      </trkpt>
      <trkpt lat="43.5572" lon="1.48682">
        <ele>155</ele>
        <time>2017-09-24T15:05:12Z</time>
      </trkpt>
      <trkpt lat="43.55738" lon="1.48718">
        <ele>155</ele>
        <time>2017-09-24T15:05:16Z</time>
      </trkpt>
      <trkpt lat="43.55758" lon="1.48752">
        <ele>154</ele>
        <time>2017-09-24T15:05:20Z</time>
      </trkpt>
      <trkpt lat="43.55779" lon="1.4878">
        <ele>154</ele>
        <time>2017-09-24T15:05:24Z</time>
      </trkpt>
      <trkpt lat="43.55802" lon="1.48805">
        <ele>154</ele>
        <time>2017-09-24T15:05:28Z</time>
      </trkpt>
      <trkpt lat="43.55827" lon="1.48825">
        <ele>154</ele>
        <time>2017-09-24T15:05:32Z</time>
      </trkpt>
      <trkpt lat="43.55854" lon="1.4884">
        <ele>154</ele>
        <time>2017-09-24T15:05:36Z</time>
      </trkpt>
      <trkpt lat="43.5588" lon="1.48853">
        <ele>154</ele>
        <time>2017-09-24T15:05:40Z</time>
      </trkpt>
      <trkpt lat="43.55905" lon="1.48867">
        <ele>154</ele>
        <time>2017-09-24T15:05:44Z</time>
      </trkpt>
      <trkpt lat="43.55924" lon="1.48892">
        <ele>154</ele>
        <time>2017-09-24T15:05:48Z</time>
      </trkpt>
      <trkpt lat="43.55953" lon="1.4889">
        <ele>153</ele>
        <time>2017-09-24T15:05:52Z</time>
      </trkpt>
      <trkpt lat="43.55983" lon="1.48887">
        <ele>152</ele>
        <time>2017-09-24T15:05:56Z</time>
      </trkpt>
      <trkpt lat="43.56004" lon="1.4891">
        <ele>152</ele>
        <time>2017-09-24T15:06:00Z</time>
      </trkpt>
      <trkpt lat="43.56011" lon="1.48948">
        <ele>152</ele>
        <time>2017-09-24T15:06:04Z</time>
      </trkpt>
      <trkpt lat="43.56016" lon="1.48978">
        <ele>152</ele>
        <time>2017-09-24T15:06:08Z</time>
      </trkpt>
      <trkpt lat="43.56029" lon="1.49016">
        <ele>152</ele>
        <time>2017-09-24T15:06:12Z</time>
      </trkpt>
      <trkpt lat="43.56031" lon="1.4905">
        <ele>152</ele>
        <time>2017-09-24T15:06:16Z</time>
      </trkpt>
      <trkpt lat="43.56039" lon="1.49082">
        <ele>152</ele>
        <time>2017-09-24T15:06:20Z</time>
      </trkpt>
      <trkpt lat="43.56051" lon="1.49112">
        <ele>152</ele>
        <time>2017-09-24T15:06:24Z</time>
      </trkpt>
      <trkpt lat="43.56067" lon="1.49136">
        <ele>152</ele>
        <time>2017-09-24T15:06:28Z</time>
      </trkpt>
      <trkpt lat="43.56084" lon="1.4916">
        <ele>152</ele>
        <time>2017-09-24T15:06:32Z</time>
      </trkpt>
      <trkpt lat="43.561" lon="1.49185">
        <ele>152</ele>
        <time>2017-09-24T15:06:36Z</time>
      </trkpt>
      <trkpt lat="43.56114" lon="1.49212">
        <ele>152</ele>
        <time>2017-09-24T15:06:40Z</time>
      </trkpt>
      <trkpt lat="43.56131" lon="1.49233">
        <ele>152</ele>
        <time>2017-09-24T15:06:44Z</time>
      </trkpt>
      <trkpt lat="43.5615" lon="1.49249">
        <ele>153</ele>
        <time>2017-09-24T15:06:48Z</time>
      </trkpt>
      <trkpt lat="43.56168" lon="1.49266">
        <ele>153</ele>
        <time>2017-09-24T15:06:52Z</time>
      </trkpt>
      <trkpt lat="43.5619" lon="1.49271">
        <ele>153</ele>
        <time>2017-09-24T15:06:56Z</time>
      </trkpt>
      <trkpt lat="43.56214" lon="1.49269">
        <ele>153</ele>
        <time>2017-09-24T15:07:00Z</time>
      </trkpt>
      <trkpt lat="43.56236" lon="1.49266">
        <ele>153</ele>
        <time>2017-09-24T15:07:04Z</time>
      </trkpt>
      <trkpt lat="43.56259" lon="1.49264">
        <ele>153</ele>
        <time>2017-09-24T15:07:08Z</time>
      </trkpt>
      <trkpt lat="43.56281" lon="1.49262">
        <ele>153</ele>
        <time>2017-09-24T15:07:12Z</time>
      </trkpt>
      <trkpt lat="43.56302" lon="1.49254">
        <ele>154</ele>
        <time>2017-09-24T15:07:16Z</time>
      </trkpt>
      <trkpt lat="43.5632" lon="1.49234">
        <ele>153</ele>
        <time>2017-09-24T15:07:20Z</time>
      </trkpt>
      <trkpt lat="43.56337" lon="1.49213">
        <ele>153</ele>
        <time>2017-09-24T15:07:28Z</time>
      </trkpt>
      <trkpt lat="43.56354" lon="1.49191">
        <ele>153</ele>
        <time>2017-09-24T15:07:32Z</time>
      </trkpt>
      <trkpt lat="43.56388" lon="1.49153">
        <ele>153</ele>
        <time>2017-09-24T15:07:36Z</time>
      </trkpt>
      <trkpt lat="43.56407" lon="1.49151">
        <ele>154</ele>
        <time>2017-09-24T15:07:40Z</time>
      </trkpt>
      <trkpt lat="43.56417" lon="1.49166">
        <ele>154</ele>
        <time>2017-09-24T15:07:44Z</time>
      </trkpt>
      <trkpt lat="43.56419" lon="1.49194">
        <ele>154</ele>
        <time>2017-09-24T15:07:48Z</time>
      </trkpt>
      <trkpt lat="43.56424" lon="1.49224">
        <ele>154</ele>
        <time>2017-09-24T15:07:52Z</time>
      </trkpt>
      <trkpt lat="43.56428" lon="1.49255">
        <ele>154</ele>
        <time>2017-09-24T15:07:56Z</time>
      </trkpt>
      <trkpt lat="43.56431" lon="1.49286">
        <ele>154</ele>
        <time>2017-09-24T15:08:00Z</time>
      </trkpt>
      <trkpt lat="43.56428" lon="1.49318">
        <ele>154</ele>
        <time>2017-09-24T15:08:04Z</time>
      </trkpt>
      <trkpt lat="43.56423" lon="1.49346">
        <ele>154</ele>
        <time>2017-09-24T15:08:08Z</time>
      </trkpt>
      <trkpt lat="43.56417" lon="1.4938">
        <ele>154</ele>
        <time>2017-09-24T15:08:12Z</time>
      </trkpt>
      <trkpt lat="43.56414" lon="1.49386">
        <ele>155</ele>
        <time>2017-09-24T15:08:16Z</time>
      </trkpt>
      <trkpt lat="43.56406" lon="1.4941">
        <ele>155</ele>
        <time>2017-09-24T15:08:20Z</time>
      </trkpt>
      <trkpt lat="43.56405" lon="1.49425">
        <ele>155</ele>
        <time>2017-09-24T15:08:28Z</time>
      </trkpt>
      <trkpt lat="43.56401" lon="1.49444">
        <ele>155</ele>
        <time>2017-09-24T15:08:32Z</time>
      </trkpt>
      <trkpt lat="43.56396" lon="1.49468">
        <ele>155</ele>
        <time>2017-09-24T15:08:36Z</time>
      </trkpt>
      <trkpt lat="43.56393" lon="1.49481">
        <ele>155</ele>
        <time>2017-09-24T15:08:44Z</time>
      </trkpt>
      <trkpt lat="43.56406" lon="1.49486">
        <ele>155</ele>
        <time>2017-09-24T15:08:48Z</time>
      </trkpt>
      <trkpt lat="43.56431" lon="1.49486">
        <ele>154</ele>
        <time>2017-09-24T15:08:52Z</time>
      </trkpt>
      <trkpt lat="43.56457" lon="1.49485">
        <ele>154</ele>
        <time>2017-09-24T15:08:56Z</time>
      </trkpt>
      <trkpt lat="43.56482" lon="1.49483">
        <ele>154</ele>
        <time>2017-09-24T15:09:00Z</time>
      </trkpt>
      <trkpt lat="43.56506" lon="1.49483">
        <ele>153</ele>
        <time>2017-09-24T15:09:04Z</time>
      </trkpt>
      <trkpt lat="43.56529" lon="1.49483">
        <ele>152</ele>
        <time>2017-09-24T15:09:08Z</time>
      </trkpt>
      <trkpt lat="43.56555" lon="1.49494">
        <ele>151</ele>
        <time>2017-09-24T15:09:12Z</time>
      </trkpt>
      <trkpt lat="43.56579" lon="1.49508">
        <ele>151</ele>
        <time>2017-09-24T15:09:16Z</time>
      </trkpt>
      <trkpt lat="43.56597" lon="1.49495">
        <ele>152</ele>
        <time>2017-09-24T15:09:20Z</time>
      </trkpt>
      <trkpt lat="43.56621" lon="1.49487">
        <ele>152</ele>
        <time>2017-09-24T15:09:24Z</time>
      </trkpt>
      <trkpt lat="43.56648" lon="1.49491">
        <ele>152</ele>
        <time>2017-09-24T15:09:28Z</time>
      </trkpt>
      <trkpt lat="43.56676" lon="1.49496">
        <ele>152</ele>
        <time>2017-09-24T15:09:32Z</time>
      </trkpt>
      <trkpt lat="43.56701" lon="1.49499">
        <ele>153</ele>
        <time>2017-09-24T15:09:36Z</time>
      </trkpt>
      <trkpt lat="43.56728" lon="1.49502">
        <ele>152</ele>
        <time>2017-09-24T15:09:40Z</time>
      </trkpt>
      <trkpt lat="43.56754" lon="1.49504">
        <ele>152</ele>
        <time>2017-09-24T15:09:44Z</time>
      </trkpt>
      <trkpt lat="43.5678" lon="1.49505">
        <ele>152</ele>
        <time>2017-09-24T15:09:48Z</time>
      </trkpt>
      <trkpt lat="43.56806" lon="1.49508">
        <ele>152</ele>
        <time>2017-09-24T15:09:52Z</time>
      </trkpt>
      <trkpt lat="43.56833" lon="1.4951">
        <ele>152</ele>
        <time>2017-09-24T15:09:56Z</time>
      </trkpt>
      <trkpt lat="43.5686" lon="1.49513">
        <ele>152</ele>
        <time>2017-09-24T15:10:00Z</time>
      </trkpt>
      <trkpt lat="43.56887" lon="1.49516">
        <ele>152</ele>
        <time>2017-09-24T15:10:04Z</time>
      </trkpt>
      <trkpt lat="43.56914" lon="1.49517">
        <ele>152</ele>
        <time>2017-09-24T15:10:08Z</time>
      </trkpt>
      <trkpt lat="43.56941" lon="1.49521">
        <ele>152</ele>
        <time>2017-09-24T15:10:12Z</time>
      </trkpt>
      <trkpt lat="43.56968" lon="1.49526">
        <ele>152</ele>
        <time>2017-09-24T15:10:16Z</time>
      </trkpt>
      <trkpt lat="43.56993" lon="1.49531">
        <ele>152</ele>
        <time>2017-09-24T15:10:20Z</time>
      </trkpt>
      <trkpt lat="43.57017" lon="1.49542">
        <ele>152</ele>
        <time>2017-09-24T15:10:24Z</time>
      </trkpt>
      <trkpt lat="43.57039" lon="1.49554">
        <ele>152</ele>
        <time>2017-09-24T15:10:28Z</time>
      </trkpt>
      <trkpt lat="43.57063" lon="1.49563">
        <ele>152</ele>
        <time>2017-09-24T15:10:32Z</time>
      </trkpt>
      <trkpt lat="43.57091" lon="1.49566">
        <ele>152</ele>
        <time>2017-09-24T15:10:36Z</time>
      </trkpt>
      <trkpt lat="43.57114" lon="1.49577">
        <ele>152</ele>
        <time>2017-09-24T15:10:40Z</time>
      </trkpt>
      <trkpt lat="43.57143" lon="1.49585">
        <ele>152</ele>
        <time>2017-09-24T15:10:44Z</time>
      </trkpt>
      <trkpt lat="43.57169" lon="1.49597">
        <ele>152</ele>
        <time>2017-09-24T15:10:48Z</time>
      </trkpt>
      <trkpt lat="43.57191" lon="1.49603">
        <ele>152</ele>
        <time>2017-09-24T15:10:52Z</time>
      </trkpt>
      <trkpt lat="43.57206" lon="1.49606">
        <ele>151</ele>
        <time>2017-09-24T15:10:56Z</time>
      </trkpt>
      <trkpt lat="43.57222" lon="1.49622">
        <ele>151</ele>
        <time>2017-09-24T15:11:00Z</time>
      </trkpt>
      <trkpt lat="43.57219" lon="1.49628">
        <ele>152</ele>
        <time>2017-09-24T15:11:04Z</time>
      </trkpt>
      <trkpt lat="43.57221" lon="1.49618">
        <ele>153</ele>
        <time>2017-09-24T15:11:08Z</time>
      </trkpt>
      <trkpt lat="43.5723" lon="1.49596">
        <ele>154</ele>
        <time>2017-09-24T15:11:16Z</time>
      </trkpt>
      <trkpt lat="43.5724" lon="1.49574">
        <ele>154</ele>
        <time>2017-09-24T15:11:20Z</time>
      </trkpt>
      <trkpt lat="43.57248" lon="1.49558">
        <ele>153</ele>
        <time>2017-09-24T15:11:24Z</time>
      </trkpt>
      <trkpt lat="43.57252" lon="1.49545">
        <ele>153</ele>
        <time>2017-09-24T15:11:28Z</time>
      </trkpt>
      <trkpt lat="43.57267" lon="1.49502">
        <ele>154</ele>
        <time>2017-09-24T15:11:32Z</time>
      </trkpt>
      <trkpt lat="43.57277" lon="1.49472">
        <ele>154</ele>
        <time>2017-09-24T15:11:36Z</time>
      </trkpt>
      <trkpt lat="43.57286" lon="1.4944">
        <ele>154</ele>
        <time>2017-09-24T15:11:40Z</time>
      </trkpt>
      <trkpt lat="43.57292" lon="1.49411">
        <ele>154</ele>
        <time>2017-09-24T15:11:44Z</time>
      </trkpt>
      <trkpt lat="43.57301" lon="1.49382">
        <ele>154</ele>
        <time>2017-09-24T15:11:48Z</time>
      </trkpt>
      <trkpt lat="43.57311" lon="1.49356">
        <ele>154</ele>
        <time>2017-09-24T15:11:52Z</time>
      </trkpt>
      <trkpt lat="43.57326" lon="1.49354">
        <ele>155</ele>
        <time>2017-09-24T15:11:56Z</time>
      </trkpt>
      <trkpt lat="43.57339" lon="1.49369">
        <ele>156</ele>
        <time>2017-09-24T15:12:00Z</time>
      </trkpt>
      <trkpt lat="43.57351" lon="1.4939">
        <ele>157</ele>
        <time>2017-09-24T15:12:04Z</time>
      </trkpt>
      <trkpt lat="43.57364" lon="1.49412">
        <ele>157</ele>
        <time>2017-09-24T15:12:08Z</time>
      </trkpt>
      <trkpt lat="43.57377" lon="1.49434">
        <ele>157</ele>
        <time>2017-09-24T15:12:12Z</time>
      </trkpt>
      <trkpt lat="43.57392" lon="1.49457">
        <ele>156</ele>
        <time>2017-09-24T15:12:16Z</time>
      </trkpt>
      <trkpt lat="43.57408" lon="1.4948">
        <ele>155</ele>
        <time>2017-09-24T15:12:20Z</time>
      </trkpt>
      <trkpt lat="43.57429" lon="1.49505">
        <ele>154</ele>
        <time>2017-09-24T15:12:24Z</time>
      </trkpt>
      <trkpt lat="43.57451" lon="1.49526">
        <ele>154</ele>
        <time>2017-09-24T15:12:32Z</time>
      </trkpt>
      <trkpt lat="43.57477" lon="1.49547">
        <ele>154</ele>
        <time>2017-09-24T15:12:36Z</time>
      </trkpt>
      <trkpt lat="43.57503" lon="1.49564">
        <ele>154</ele>
        <time>2017-09-24T15:12:40Z</time>
      </trkpt>
      <trkpt lat="43.57528" lon="1.49577">
        <ele>154</ele>
        <time>2017-09-24T15:12:44Z</time>
      </trkpt>
      <trkpt lat="43.57576" lon="1.49599">
        <ele>155</ele>
        <time>2017-09-24T15:12:48Z</time>
      </trkpt>
      <trkpt lat="43.576" lon="1.4961">
        <ele>155</ele>
        <time>2017-09-24T15:12:52Z</time>
      </trkpt>
      <trkpt lat="43.57624" lon="1.49621">
        <ele>156</ele>
        <time>2017-09-24T15:12:56Z</time>
      </trkpt>
      <trkpt lat="43.57651" lon="1.49632">
        <ele>156</ele>
        <time>2017-09-24T15:13:00Z</time>
      </trkpt>
      <trkpt lat="43.57681" lon="1.49642">
        <ele>155</ele>
        <time>2017-09-24T15:13:04Z</time>
      </trkpt>
      <trkpt lat="43.5771" lon="1.49648">
        <ele>155</ele>
        <time>2017-09-24T15:13:08Z</time>
      </trkpt>
      <trkpt lat="43.57739" lon="1.49654">
        <ele>155</ele>
        <time>2017-09-24T15:13:12Z</time>
      </trkpt>
      <trkpt lat="43.57769" lon="1.49661">
        <ele>155</ele>
        <time>2017-09-24T15:13:16Z</time>
      </trkpt>
      <trkpt lat="43.57798" lon="1.49669">
        <ele>154</ele>
        <time>2017-09-24T15:13:20Z</time>
      </trkpt>
      <trkpt lat="43.57825" lon="1.49687">
        <ele>154</ele>
        <time>2017-09-24T15:13:24Z</time>
      </trkpt>
      <trkpt lat="43.57856" lon="1.49695">
        <ele>154</ele>
        <time>2017-09-24T15:13:28Z</time>
      </trkpt>
      <trkpt lat="43.57888" lon="1.49697">
        <ele>154</ele>
        <time>2017-09-24T15:13:32Z</time>
      </trkpt>
      <trkpt lat="43.57923" lon="1.49702">
        <ele>153</ele>
        <time>2017-09-24T15:13:36Z</time>
      </trkpt>
      <trkpt lat="43.57956" lon="1.49692">
        <ele>153</ele>
        <time>2017-09-24T15:13:40Z</time>
      </trkpt>
      <trkpt lat="43.57987" lon="1.49683">
        <ele>154</ele>
        <time>2017-09-24T15:13:48Z</time>
      </trkpt>
      <trkpt lat="43.58017" lon="1.49672">
        <ele>154</ele>
        <time>2017-09-24T15:13:52Z</time>
      </trkpt>
      <trkpt lat="43.58045" lon="1.49664">
        <ele>154</ele>
        <time>2017-09-24T15:13:56Z</time>
      </trkpt>
      <trkpt lat="43.58072" lon="1.49654">
        <ele>154</ele>
        <time>2017-09-24T15:14:00Z</time>
      </trkpt>
      <trkpt lat="43.58125" lon="1.49634">
        <ele>154</ele>
        <time>2017-09-24T15:14:04Z</time>
      </trkpt>
      <trkpt lat="43.58153" lon="1.49623">
        <ele>154</ele>
        <time>2017-09-24T15:14:08Z</time>
      </trkpt>
      <trkpt lat="43.58181" lon="1.49612">
        <ele>154</ele>
        <time>2017-09-24T15:14:12Z</time>
      </trkpt>
      <trkpt lat="43.5821" lon="1.49603">
        <ele>154</ele>
        <time>2017-09-24T15:14:16Z</time>
      </trkpt>
      <trkpt lat="43.58237" lon="1.49593">
        <ele>155</ele>
        <time>2017-09-24T15:14:20Z</time>
      </trkpt>
      <trkpt lat="43.58264" lon="1.49582">
        <ele>155</ele>
        <time>2017-09-24T15:14:24Z</time>
      </trkpt>
      <trkpt lat="43.5829" lon="1.49572">
        <ele>154</ele>
        <time>2017-09-24T15:14:28Z</time>
      </trkpt>
      <trkpt lat="43.58318" lon="1.49561">
        <ele>154</ele>
        <time>2017-09-24T15:14:32Z</time>
      </trkpt>
      <trkpt lat="43.58346" lon="1.49551">
        <ele>154</ele>
        <time>2017-09-24T15:14:36Z</time>
      </trkpt>
      <trkpt lat="43.58375" lon="1.4954">
        <ele>153</ele>
        <time>2017-09-24T15:14:40Z</time>
      </trkpt>
      <trkpt lat="43.58403" lon="1.49529">
        <ele>153</ele>
        <time>2017-09-24T15:14:44Z</time>
      </trkpt>
      <trkpt lat="43.58432" lon="1.49517">
        <ele>153</ele>
        <time>2017-09-24T15:14:48Z</time>
      </trkpt>
      <trkpt lat="43.58461" lon="1.49505">
        <ele>153</ele>
        <time>2017-09-24T15:14:52Z</time>
      </trkpt>
      <trkpt lat="43.58487" lon="1.49495">
        <ele>153</ele>
        <time>2017-09-24T15:14:56Z</time>
      </trkpt>
      <trkpt lat="43.58511" lon="1.49487">
        <ele>153</ele>
        <time>2017-09-24T15:15:04Z</time>
      </trkpt>
      <trkpt lat="43.58533" lon="1.4948">
        <ele>153</ele>
        <time>2017-09-24T15:15:08Z</time>
      </trkpt>
      <trkpt lat="43.58563" lon="1.4947">
        <ele>154</ele>
        <time>2017-09-24T15:15:12Z</time>
      </trkpt>
      <trkpt lat="43.58592" lon="1.4946">
        <ele>154</ele>
        <time>2017-09-24T15:15:16Z</time>
      </trkpt>
      <trkpt lat="43.58621" lon="1.4945">
        <ele>154</ele>
        <time>2017-09-24T15:15:20Z</time>
      </trkpt>
      <trkpt lat="43.58678" lon="1.49433">
        <ele>154</ele>
        <time>2017-09-24T15:15:24Z</time>
      </trkpt>
      <trkpt lat="43.58707" lon="1.49424">
        <ele>153</ele>
        <time>2017-09-24T15:15:28Z</time>
      </trkpt>
      <trkpt lat="43.58737" lon="1.49417">
        <ele>153</ele>
        <time>2017-09-24T15:15:32Z</time>
      </trkpt>
      <trkpt lat="43.58768" lon="1.49409">
        <ele>152</ele>
        <time>2017-09-24T15:15:36Z</time>
      </trkpt>
      <trkpt lat="43.58798" lon="1.494">
        <ele>152</ele>
        <time>2017-09-24T15:15:40Z</time>
      </trkpt>
      <trkpt lat="43.58829" lon="1.49394">
        <ele>153</ele>
        <time>2017-09-24T15:15:44Z</time>
      </trkpt>
      <trkpt lat="43.58859" lon="1.49388">
        <ele>152</ele>
        <time>2017-09-24T15:15:48Z</time>
      </trkpt>
      <trkpt lat="43.58886" lon="1.4938">
        <ele>152</ele>
        <time>2017-09-24T15:15:52Z</time>
      </trkpt>
      <trkpt lat="43.58915" lon="1.4937">
        <ele>152</ele>
        <time>2017-09-24T15:15:56Z</time>
      </trkpt>
      <trkpt lat="43.58944" lon="1.49361">
        <ele>152</ele>
        <time>2017-09-24T15:16:00Z</time>
      </trkpt>
      <trkpt lat="43.58974" lon="1.49353">
        <ele>152</ele>
        <time>2017-09-24T15:16:04Z</time>
      </trkpt>
      <trkpt lat="43.59002" lon="1.49343">
        <ele>152</ele>
        <time>2017-09-24T15:16:08Z</time>
      </trkpt>
      <trkpt lat="43.5903" lon="1.49333">
        <ele>152</ele>
        <time>2017-09-24T15:16:12Z</time>
      </trkpt>
      <trkpt lat="43.59055" lon="1.49326">
        <ele>152</ele>
        <time>2017-09-24T15:16:16Z</time>
      </trkpt>
      <trkpt lat="43.59083" lon="1.49316">
        <ele>152</ele>
        <time>2017-09-24T15:16:24Z</time>
      </trkpt>
      <trkpt lat="43.5911" lon="1.49306">
        <ele>152</ele>
        <time>2017-09-24T15:16:28Z</time>
      </trkpt>
      <trkpt lat="43.59136" lon="1.49297">
        <ele>152</ele>
        <time>2017-09-24T15:16:32Z</time>
      </trkpt>
      <trkpt lat="43.59189" lon="1.4928">
        <ele>152</ele>
        <time>2017-09-24T15:16:36Z</time>
      </trkpt>
      <trkpt lat="43.59215" lon="1.4927">
        <ele>153</ele>
        <time>2017-09-24T15:16:40Z</time>
      </trkpt>
      <trkpt lat="43.5924" lon="1.49261">
        <ele>152</ele>
        <time>2017-09-24T15:16:44Z</time>
      </trkpt>
      <trkpt lat="43.59266" lon="1.4925">
        <ele>153</ele>
        <time>2017-09-24T15:16:48Z</time>
      </trkpt>
      <trkpt lat="43.59292" lon="1.4924">
        <ele>152</ele>
        <time>2017-09-24T15:16:52Z</time>
      </trkpt>
      <trkpt lat="43.59318" lon="1.49232">
        <ele>152</ele>
        <time>2017-09-24T15:16:56Z</time>
      </trkpt>
      <trkpt lat="43.59346" lon="1.49223">
        <ele>152</ele>
        <time>2017-09-24T15:17:00Z</time>
      </trkpt>
      <trkpt lat="43.59374" lon="1.49228">
        <ele>152</ele>
        <time>2017-09-24T15:17:04Z</time>
      </trkpt>
      <trkpt lat="43.59389" lon="1.49231">
        <ele>153</ele>
        <time>2017-09-24T15:17:08Z</time>
      </trkpt>
      <trkpt lat="43.59414" lon="1.49224">
        <ele>153</ele>
        <time>2017-09-24T15:17:12Z</time>
      </trkpt>
      <trkpt lat="43.59444" lon="1.49214">
        <ele>153</ele>
        <time>2017-09-24T15:17:16Z</time>
      </trkpt>
      <trkpt lat="43.59472" lon="1.49205">
        <ele>154</ele>
        <time>2017-09-24T15:17:20Z</time>
      </trkpt>
      <trkpt lat="43.59498" lon="1.49197">
        <ele>153</ele>
        <time>2017-09-24T15:17:24Z</time>
      </trkpt>
      <trkpt lat="43.59525" lon="1.4919">
        <ele>153</ele>
        <time>2017-09-24T15:17:28Z</time>
      </trkpt>
      <trkpt lat="43.59552" lon="1.49181">
        <ele>153</ele>
        <time>2017-09-24T15:17:32Z</time>
      </trkpt>
      <trkpt lat="43.5958" lon="1.49173">
        <ele>153</ele>
        <time>2017-09-24T15:17:40Z</time>
      </trkpt>
      <trkpt lat="43.59608" lon="1.49164">
        <ele>153</ele>
        <time>2017-09-24T15:17:44Z</time>
      </trkpt>
      <trkpt lat="43.59638" lon="1.49155">
        <ele>152</ele>
        <time>2017-09-24T15:17:48Z</time>
      </trkpt>
      <trkpt lat="43.59698" lon="1.49137">
        <ele>152</ele>
        <time>2017-09-24T15:17:52Z</time>
      </trkpt>
      <trkpt lat="43.5973" lon="1.49129">
        <ele>152</ele>
        <time>2017-09-24T15:17:56Z</time>
      </trkpt>
      <trkpt lat="43.59761" lon="1.49119">
        <ele>151</ele>
        <time>2017-09-24T15:18:00Z</time>
      </trkpt>
      <trkpt lat="43.59792" lon="1.49108">
        <ele>151</ele>
        <time>2017-09-24T15:18:04Z</time>
      </trkpt>
      <trkpt lat="43.59821" lon="1.49096">
        <ele>151</ele>
        <time>2017-09-24T15:18:08Z</time>
      </trkpt>
      <trkpt lat="43.5985" lon="1.4908">
        <ele>151</ele>
        <time>2017-09-24T15:18:12Z</time>
      </trkpt>
      <trkpt lat="43.5988" lon="1.49067">
        <ele>150</ele>
        <time>2017-09-24T15:18:16Z</time>
      </trkpt>
      <trkpt lat="43.59912" lon="1.49058">
        <ele>150</ele>
        <time>2017-09-24T15:18:20Z</time>
      </trkpt>
      <trkpt lat="43.59942" lon="1.49041">
        <ele>150</ele>
        <time>2017-09-24T15:18:24Z</time>
      </trkpt>
      <trkpt lat="43.59968" lon="1.49018">
        <ele>150</ele>
        <time>2017-09-24T15:18:28Z</time>
      </trkpt>
      <trkpt lat="43.59991" lon="1.48991">
        <ele>150</ele>
        <time>2017-09-24T15:18:32Z</time>
      </trkpt>
      <trkpt lat="43.60013" lon="1.48962">
        <ele>150</ele>
        <time>2017-09-24T15:18:36Z</time>
      </trkpt>
      <trkpt lat="43.60032" lon="1.48931">
        <ele>151</ele>
        <time>2017-09-24T15:18:40Z</time>
      </trkpt>
      <trkpt lat="43.6005" lon="1.48901">
        <ele>151</ele>
        <time>2017-09-24T15:18:44Z</time>
      </trkpt>
      <trkpt lat="43.60069" lon="1.48871">
        <ele>151</ele>
        <time>2017-09-24T15:18:48Z</time>
      </trkpt>
      <trkpt lat="43.60088" lon="1.48841">
        <ele>150</ele>
        <time>2017-09-24T15:18:52Z</time>
      </trkpt>
      <trkpt lat="43.60107" lon="1.48812">
        <ele>150</ele>
        <time>2017-09-24T15:18:56Z</time>
      </trkpt>
      <trkpt lat="43.60127" lon="1.48782">
        <ele>150</ele>
        <time>2017-09-24T15:19:00Z</time>
      </trkpt>
      <trkpt lat="43.60146" lon="1.48755">
        <ele>150</ele>
        <time>2017-09-24T15:19:04Z</time>
      </trkpt>
      <trkpt lat="43.60168" lon="1.48725">
        <ele>150</ele>
        <time>2017-09-24T15:19:08Z</time>
      </trkpt>
      <trkpt lat="43.60189" lon="1.48697">
        <ele>150</ele>
        <time>2017-09-24T15:19:12Z</time>
      </trkpt>
      <trkpt lat="43.60211" lon="1.48669">
        <ele>150</ele>
        <time>2017-09-24T15:19:16Z</time>
      </trkpt>
      <trkpt lat="43.60237" lon="1.48642">
        <ele>150</ele>
        <time>2017-09-24T15:19:20Z</time>
      </trkpt>
      <trkpt lat="43.60262" lon="1.48616">
        <ele>150</ele>
        <time>2017-09-24T15:19:24Z</time>
      </trkpt>
      <trkpt lat="43.60288" lon="1.48593">
        <ele>150</ele>
        <time>2017-09-24T15:19:28Z</time>
      </trkpt>
      <trkpt lat="43.60313" lon="1.48571">
        <ele>150</ele>
        <time>2017-09-24T15:19:32Z</time>
      </trkpt>
      <trkpt lat="43.60337" lon="1.4855">
        <ele>150</ele>
        <time>2017-09-24T15:19:36Z</time>
      </trkpt>
      <trkpt lat="43.60361" lon="1.48528">
        <ele>151</ele>
        <time>2017-09-24T15:19:40Z</time>
      </trkpt>
      <trkpt lat="43.60384" lon="1.48509">
        <ele>151</ele>
        <time>2017-09-24T15:19:44Z</time>
      </trkpt>
      <trkpt lat="43.60408" lon="1.48491">
        <ele>150</ele>
        <time>2017-09-24T15:19:48Z</time>
      </trkpt>
      <trkpt lat="43.60432" lon="1.48474">
        <ele>150</ele>
        <time>2017-09-24T15:19:52Z</time>
      </trkpt>
      <trkpt lat="43.60457" lon="1.48459">
        <ele>150</ele>
        <time>2017-09-24T15:19:56Z</time>
      </trkpt>
      <trkpt lat="43.60483" lon="1.48447">
        <ele>151</ele>
        <time>2017-09-24T15:20:00Z</time>
      </trkpt>
      <trkpt lat="43.60511" lon="1.48442">
        <ele>151</ele>
        <time>2017-09-24T15:20:04Z</time>
      </trkpt>
      <trkpt lat="43.60539" lon="1.48443">
        <ele>151</ele>
        <time>2017-09-24T15:20:08Z</time>
      </trkpt>
      <trkpt lat="43.60568" lon="1.48437">
        <ele>151</ele>
        <time>2017-09-24T15:20:12Z</time>
      </trkpt>
      <trkpt lat="43.60594" lon="1.48427">
        <ele>151</ele>
        <time>2017-09-24T15:20:16Z</time>
      </trkpt>
      <trkpt lat="43.60618" lon="1.48412">
        <ele>151</ele>
        <time>2017-09-24T15:20:24Z</time>
      </trkpt>
      <trkpt lat="43.60642" lon="1.48398">
        <ele>151</ele>
        <time>2017-09-24T15:20:28Z</time>
      </trkpt>
      <trkpt lat="43.60671" lon="1.48402">
        <ele>151</ele>
        <time>2017-09-24T15:20:32Z</time>
      </trkpt>
      <trkpt lat="43.60679" lon="1.48401">
        <ele>151</ele>
        <time>2017-09-24T15:20:40Z</time>
      </trkpt>
      <trkpt lat="43.60689" lon="1.484">
        <ele>151</ele>
        <time>2017-09-24T15:20:56Z</time>
      </trkpt>
      <trkpt lat="43.60704" lon="1.48398">
        <ele>151</ele>
        <time>2017-09-24T15:21:00Z</time>
      </trkpt>
      <trkpt lat="43.60725" lon="1.48395">
        <ele>151</ele>
        <time>2017-09-24T15:21:04Z</time>
      </trkpt>
      <trkpt lat="43.60748" lon="1.48394">
        <ele>151</ele>
        <time>2017-09-24T15:21:08Z</time>
      </trkpt>
      <trkpt lat="43.60773" lon="1.48394">
        <ele>151</ele>
        <time>2017-09-24T15:21:12Z</time>
      </trkpt>
      <trkpt lat="43.60797" lon="1.48395">
        <ele>151</ele>
        <time>2017-09-24T15:21:16Z</time>
      </trkpt>
      <trkpt lat="43.60823" lon="1.48398">
        <ele>150</ele>
        <time>2017-09-24T15:21:20Z</time>
      </trkpt>
      <trkpt lat="43.60851" lon="1.48401">
        <ele>150</ele>
        <time>2017-09-24T15:21:24Z</time>
      </trkpt>
      <trkpt lat="43.60879" lon="1.48404">
        <ele>150</ele>
        <time>2017-09-24T15:21:28Z</time>
      </trkpt>
      <trkpt lat="43.60907" lon="1.48408">
        <ele>150</ele>
        <time>2017-09-24T15:21:32Z</time>
      </trkpt>
      <trkpt lat="43.60936" lon="1.48413">
        <ele>150</ele>
        <time>2017-09-24T15:21:36Z</time>
      </trkpt>
      <trkpt lat="43.60963" lon="1.48415">
        <ele>150</ele>
        <time>2017-09-24T15:21:40Z</time>
      </trkpt>
      <trkpt lat="43.60992" lon="1.48414">
        <ele>150</ele>
        <time>2017-09-24T15:21:44Z</time>
      </trkpt>
      <trkpt lat="43.61019" lon="1.48413">
        <ele>149</ele>
        <time>2017-09-24T15:21:48Z</time>
      </trkpt>
      <trkpt lat="43.61048" lon="1.48415">
        <ele>149</ele>
        <time>2017-09-24T15:21:52Z</time>
      </trkpt>
      <trkpt lat="43.61074" lon="1.48413">
        <ele>149</ele>
        <time>2017-09-24T15:21:56Z</time>
      </trkpt>
      <trkpt lat="43.61102" lon="1.4841">
        <ele>149</ele>
        <time>2017-09-24T15:22:00Z</time>
      </trkpt>
      <trkpt lat="43.6113" lon="1.48407">
        <ele>149</ele>
        <time>2017-09-24T15:22:04Z</time>
      </trkpt>
      <trkpt lat="43.61158" lon="1.484">
        <ele>149</ele>
        <time>2017-09-24T15:22:08Z</time>
      </trkpt>
      <trkpt lat="43.61189" lon="1.4839">
        <ele>149</ele>
        <time>2017-09-24T15:22:12Z</time>
      </trkpt>
      <trkpt lat="43.61218" lon="1.4838">
        <ele>148</ele>
        <time>2017-09-24T15:22:16Z</time>
      </trkpt>
      <trkpt lat="43.61246" lon="1.4837">
        <ele>148</ele>
        <time>2017-09-24T15:22:20Z</time>
      </trkpt>
      <trkpt lat="43.61275" lon="1.48362">
        <ele>148</ele>
        <time>2017-09-24T15:22:24Z</time>
      </trkpt>
      <trkpt lat="43.61303" lon="1.48353">
        <ele>148</ele>
        <time>2017-09-24T15:22:28Z</time>
      </trkpt>
      <trkpt lat="43.61331" lon="1.48344">
        <ele>148</ele>
        <time>2017-09-24T15:22:32Z</time>
      </trkpt>
      <trkpt lat="43.61359" lon="1.48336">
        <ele>148</ele>
        <time>2017-09-24T15:22:36Z</time>
      </trkpt>
      <trkpt lat="43.61387" lon="1.48327">
        <ele>148</ele>
        <time>2017-09-24T15:22:40Z</time>
      </trkpt>
      <trkpt lat="43.61414" lon="1.48319">
        <ele>148</ele>
        <time>2017-09-24T15:22:44Z</time>
      </trkpt>
      <trkpt lat="43.61441" lon="1.4831">
        <ele>148</ele>
        <time>2017-09-24T15:22:48Z</time>
      </trkpt>
      <trkpt lat="43.61468" lon="1.48302">
        <ele>148</ele>
        <time>2017-09-24T15:22:52Z</time>
      </trkpt>
      <trkpt lat="43.61495" lon="1.48293">
        <ele>148</ele>
        <time>2017-09-24T15:22:56Z</time>
      </trkpt>
      <trkpt lat="43.61522" lon="1.48285">
        <ele>148</ele>
        <time>2017-09-24T15:23:00Z</time>
      </trkpt>
      <trkpt lat="43.61549" lon="1.48277">
        <ele>148</ele>
        <time>2017-09-24T15:23:04Z</time>
      </trkpt>
      <trkpt lat="43.61575" lon="1.48269">
        <ele>148</ele>
        <time>2017-09-24T15:23:08Z</time>
      </trkpt>
      <trkpt lat="43.61603" lon="1.4826">
        <ele>148</ele>
        <time>2017-09-24T15:23:12Z</time>
      </trkpt>
      <trkpt lat="43.61631" lon="1.48252">
        <ele>148</ele>
        <time>2017-09-24T15:23:16Z</time>
      </trkpt>
      <trkpt lat="43.61658" lon="1.48244">
        <ele>148</ele>
        <time>2017-09-24T15:23:20Z</time>
      </trkpt>
      <trkpt lat="43.61685" lon="1.48235">
        <ele>148</ele>
        <time>2017-09-24T15:23:24Z</time>
      </trkpt>
      <trkpt lat="43.61712" lon="1.48226">
        <ele>148</ele>
        <time>2017-09-24T15:23:28Z</time>
      </trkpt>
      <trkpt lat="43.61736" lon="1.48222">
        <ele>147</ele>
        <time>2017-09-24T15:23:32Z</time>
      </trkpt>
      <trkpt lat="43.61761" lon="1.48218">
        <ele>148</ele>
        <time>2017-09-24T15:23:36Z</time>
      </trkpt>
      <trkpt lat="43.61787" lon="1.48211">
        <ele>148</ele>
        <time>2017-09-24T15:23:40Z</time>
      </trkpt>
      <trkpt lat="43.61815" lon="1.48201">
        <ele>147</ele>
        <time>2017-09-24T15:23:44Z</time>
      </trkpt>
      <trkpt lat="43.61843" lon="1.48195">
        <ele>148</ele>
        <time>2017-09-24T15:23:48Z</time>
      </trkpt>
      <trkpt lat="43.61874" lon="1.48184">
        <ele>147</ele>
        <time>2017-09-24T15:23:52Z</time>
      </trkpt>
      <trkpt lat="43.619" lon="1.48174">
        <ele>148</ele>
        <time>2017-09-24T15:23:56Z</time>
      </trkpt>
      <trkpt lat="43.6192" lon="1.48169">
        <ele>147</ele>
        <time>2017-09-24T15:24:00Z</time>
      </trkpt>
      <trkpt lat="43.61947" lon="1.48162">
        <ele>147</ele>
        <time>2017-09-24T15:24:04Z</time>
      </trkpt>
      <trkpt lat="43.61974" lon="1.48153">
        <ele>147</ele>
        <time>2017-09-24T15:24:08Z</time>
      </trkpt>
      <trkpt lat="43.61999" lon="1.48146">
        <ele>147</ele>
        <time>2017-09-24T15:24:12Z</time>
      </trkpt>
      <trkpt lat="43.62029" lon="1.48138">
        <ele>147</ele>
        <time>2017-09-24T15:24:16Z</time>
      </trkpt>
      <trkpt lat="43.62057" lon="1.48129">
        <ele>147</ele>
        <time>2017-09-24T15:24:20Z</time>
      </trkpt>
      <trkpt lat="43.62084" lon="1.48121">
        <ele>147</ele>
        <time>2017-09-24T15:24:24Z</time>
      </trkpt>
      <trkpt lat="43.6211" lon="1.4811">
        <ele>148</ele>
        <time>2017-09-24T15:24:28Z</time>
      </trkpt>
      <trkpt lat="43.62143" lon="1.48099">
        <ele>147</ele>
        <time>2017-09-24T15:24:32Z</time>
      </trkpt>
      <trkpt lat="43.62173" lon="1.48086">
        <ele>147</ele>
        <time>2017-09-24T15:24:36Z</time>
      </trkpt>
      <trkpt lat="43.62194" lon="1.48077">
        <ele>148</ele>
        <time>2017-09-24T15:24:40Z</time>
      </trkpt>
      <trkpt lat="43.62214" lon="1.48066">
        <ele>148</ele>
        <time>2017-09-24T15:24:44Z</time>
      </trkpt>
      <trkpt lat="43.62239" lon="1.48051">
        <ele>148</ele>
        <time>2017-09-24T15:24:48Z</time>
      </trkpt>
      <trkpt lat="43.62263" lon="1.48036">
        <ele>149</ele>
        <time>2017-09-24T15:24:52Z</time>
      </trkpt>
      <trkpt lat="43.62287" lon="1.48022">
        <ele>148</ele>
        <time>2017-09-24T15:24:56Z</time>
      </trkpt>
      <trkpt lat="43.6231" lon="1.48006">
        <ele>148</ele>
        <time>2017-09-24T15:25:00Z</time>
      </trkpt>
      <trkpt lat="43.62333" lon="1.47989">
        <ele>148</ele>
        <time>2017-09-24T15:25:04Z</time>
      </trkpt>
      <trkpt lat="43.62358" lon="1.47979">
        <ele>148</ele>
        <time>2017-09-24T15:25:08Z</time>
      </trkpt>
      <trkpt lat="43.62384" lon="1.47971">
        <ele>148</ele>
        <time>2017-09-24T15:25:12Z</time>
      </trkpt>
      <trkpt lat="43.62409" lon="1.47963">
        <ele>148</ele>
        <time>2017-09-24T15:25:16Z</time>
      </trkpt>
      <trkpt lat="43.62434" lon="1.47953">
        <ele>148</ele>
        <time>2017-09-24T15:25:20Z</time>
      </trkpt>
      <trkpt lat="43.62459" lon="1.47947">
        <ele>148</ele>
        <time>2017-09-24T15:25:24Z</time>
      </trkpt>
      <trkpt lat="43.62486" lon="1.47938">
        <ele>148</ele>
        <time>2017-09-24T15:25:28Z</time>
      </trkpt>
      <trkpt lat="43.62512" lon="1.47928">
        <ele>148</ele>
        <time>2017-09-24T15:25:32Z</time>
      </trkpt>
      <trkpt lat="43.62536" lon="1.47915">
        <ele>148</ele>
        <time>2017-09-24T15:25:36Z</time>
      </trkpt>
      <trkpt lat="43.62559" lon="1.47894">
        <ele>148</ele>
        <time>2017-09-24T15:25:40Z</time>
      </trkpt>
      <trkpt lat="43.62577" lon="1.47864">
        <ele>149</ele>
        <time>2017-09-24T15:25:44Z</time>
      </trkpt>
      <trkpt lat="43.62598" lon="1.47841">
        <ele>149</ele>
        <time>2017-09-24T15:25:48Z</time>
      </trkpt>
      <trkpt lat="43.62615" lon="1.47812">
        <ele>149</ele>
        <time>2017-09-24T15:25:52Z</time>
      </trkpt>
      <trkpt lat="43.62628" lon="1.47784">
        <ele>149</ele>
        <time>2017-09-24T15:25:56Z</time>
      </trkpt>
      <trkpt lat="43.62647" lon="1.47779">
        <ele>150</ele>
        <time>2017-09-24T15:26:00Z</time>
      </trkpt>
      <trkpt lat="43.62667" lon="1.47775">
        <ele>151</ele>
        <time>2017-09-24T15:26:04Z</time>
      </trkpt>
      <trkpt lat="43.62691" lon="1.47779">
        <ele>151</ele>
        <time>2017-09-24T15:26:08Z</time>
      </trkpt>
      <trkpt lat="43.62715" lon="1.47763">
        <ele>152</ele>
        <time>2017-09-24T15:26:12Z</time>
      </trkpt>
      <trkpt lat="43.62737" lon="1.47733">
        <ele>150</ele>
        <time>2017-09-24T15:26:16Z</time>
      </trkpt>
      <trkpt lat="43.62767" lon="1.47719">
        <ele>150</ele>
        <time>2017-09-24T15:26:20Z</time>
      </trkpt>
      <trkpt lat="43.62796" lon="1.47706">
        <ele>150</ele>
        <time>2017-09-24T15:26:24Z</time>
      </trkpt>
      <trkpt lat="43.62823" lon="1.47693">
        <ele>150</ele>
        <time>2017-09-24T15:26:28Z</time>
      </trkpt>
      <trkpt lat="43.62848" lon="1.47679">
        <ele>150</ele>
        <time>2017-09-24T15:26:32Z</time>
      </trkpt>
      <trkpt lat="43.62872" lon="1.47666">
        <ele>150</ele>
        <time>2017-09-24T15:26:36Z</time>
      </trkpt>
      <trkpt lat="43.62894" lon="1.47652">
        <ele>150</ele>
        <time>2017-09-24T15:26:40Z</time>
      </trkpt>
      <trkpt lat="43.62906" lon="1.47626">
        <ele>150</ele>
        <time>2017-09-24T15:26:44Z</time>
      </trkpt>
      <trkpt lat="43.62925" lon="1.47625">
        <ele>150</ele>
        <time>2017-09-24T15:26:48Z</time>
      </trkpt>
      <trkpt lat="43.62947" lon="1.47618">
        <ele>150</ele>
        <time>2017-09-24T15:26:52Z</time>
      </trkpt>
      <trkpt lat="43.62969" lon="1.47609">
        <ele>151</ele>
        <time>2017-09-24T15:26:56Z</time>
      </trkpt>
      <trkpt lat="43.6299" lon="1.47598">
        <ele>151</ele>
        <time>2017-09-24T15:27:00Z</time>
      </trkpt>
      <trkpt lat="43.63011" lon="1.47587">
        <ele>151</ele>
        <time>2017-09-24T15:27:04Z</time>
      </trkpt>
      <trkpt lat="43.63031" lon="1.47576">
        <ele>151</ele>
        <time>2017-09-24T15:27:08Z</time>
      </trkpt>
      <trkpt lat="43.63051" lon="1.47563">
        <ele>151</ele>
        <time>2017-09-24T15:27:12Z</time>
      </trkpt>
      <trkpt lat="43.6307" lon="1.47547">
        <ele>151</ele>
        <time>2017-09-24T15:27:16Z</time>
      </trkpt>
      <trkpt lat="43.63088" lon="1.47531">
        <ele>151</ele>
        <time>2017-09-24T15:27:20Z</time>
      </trkpt>
      <trkpt lat="43.63109" lon="1.47524">
        <ele>151</ele>
        <time>2017-09-24T15:27:24Z</time>
      </trkpt>
      <trkpt lat="43.6313" lon="1.47515">
        <ele>151</ele>
        <time>2017-09-24T15:27:28Z</time>
      </trkpt>
      <trkpt lat="43.63152" lon="1.47506">
        <ele>151</ele>
        <time>2017-09-24T15:27:32Z</time>
      </trkpt>
      <trkpt lat="43.63172" lon="1.47495">
        <ele>152</ele>
        <time>2017-09-24T15:27:36Z</time>
      </trkpt>
      <trkpt lat="43.63193" lon="1.47485">
        <ele>152</ele>
        <time>2017-09-24T15:27:40Z</time>
      </trkpt>
      <trkpt lat="43.63213" lon="1.47473">
        <ele>153</ele>
        <time>2017-09-24T15:27:44Z</time>
      </trkpt>
      <trkpt lat="43.63234" lon="1.47463">
        <ele>155</ele>
        <time>2017-09-24T15:27:48Z</time>
      </trkpt>
      <trkpt lat="43.63252" lon="1.47453">
        <ele>155</ele>
        <time>2017-09-24T15:27:52Z</time>
      </trkpt>
      <trkpt lat="43.63269" lon="1.47443">
        <ele>155</ele>
        <time>2017-09-24T15:27:56Z</time>
      </trkpt>
      <trkpt lat="43.63285" lon="1.47434">
        <ele>157</ele>
        <time>2017-09-24T15:28:00Z</time>
      </trkpt>
      <trkpt lat="43.63302" lon="1.47426">
        <ele>157</ele>
        <time>2017-09-24T15:28:04Z</time>
      </trkpt>
      <trkpt lat="43.63319" lon="1.47416">
        <ele>157</ele>
        <time>2017-09-24T15:28:08Z</time>
      </trkpt>
      <trkpt lat="43.63337" lon="1.47405">
        <ele>158</ele>
        <time>2017-09-24T15:28:12Z</time>
      </trkpt>
      <trkpt lat="43.63356" lon="1.47395">
        <ele>158</ele>
        <time>2017-09-24T15:28:16Z</time>
      </trkpt>
      <trkpt lat="43.63377" lon="1.47385">
        <ele>158</ele>
        <time>2017-09-24T15:28:20Z</time>
      </trkpt>
      <trkpt lat="43.634" lon="1.47373">
        <ele>157</ele>
        <time>2017-09-24T15:28:24Z</time>
      </trkpt>
      <trkpt lat="43.63424" lon="1.4736">
        <ele>156</ele>
        <time>2017-09-24T15:28:28Z</time>
      </trkpt>
      <trkpt lat="43.6345" lon="1.47346">
        <ele>156</ele>
        <time>2017-09-24T15:28:32Z</time>
      </trkpt>
      <trkpt lat="43.63479" lon="1.4733">
        <ele>154</ele>
        <time>2017-09-24T15:28:36Z</time>
      </trkpt>
      <trkpt lat="43.63508" lon="1.47313">
        <ele>152</ele>
        <time>2017-09-24T15:28:40Z</time>
      </trkpt>
      <trkpt lat="43.63535" lon="1.47297">
        <ele>150</ele>
        <time>2017-09-24T15:28:44Z</time>
      </trkpt>
      <trkpt lat="43.6355" lon="1.47288">
        <ele>149</ele>
        <time>2017-09-24T15:28:48Z</time>
      </trkpt>
      <trkpt lat="43.63567" lon="1.4728">
        <ele>149</ele>
        <time>2017-09-24T15:28:52Z</time>
      </trkpt>
      <trkpt lat="43.63591" lon="1.47273">
        <ele>150</ele>
        <time>2017-09-24T15:28:56Z</time>
      </trkpt>
      <trkpt lat="43.63616" lon="1.47267">
        <ele>150</ele>
        <time>2017-09-24T15:29:00Z</time>
      </trkpt>
      <trkpt lat="43.63641" lon="1.4726">
        <ele>149</ele>
        <time>2017-09-24T15:29:04Z</time>
      </trkpt>
      <trkpt lat="43.63665" lon="1.47253">
        <ele>150</ele>
        <time>2017-09-24T15:29:08Z</time>
      </trkpt>
      <trkpt lat="43.63689" lon="1.47246">
        <ele>150</ele>
        <time>2017-09-24T15:29:12Z</time>
      </trkpt>
      <trkpt lat="43.63714" lon="1.47239">
        <ele>150</ele>
        <time>2017-09-24T15:29:16Z</time>
      </trkpt>
      <trkpt lat="43.63738" lon="1.47231">
        <ele>150</ele>
        <time>2017-09-24T15:29:20Z</time>
      </trkpt>
      <trkpt lat="43.63762" lon="1.47221">
        <ele>150</ele>
        <time>2017-09-24T15:29:24Z</time>
      </trkpt>
      <trkpt lat="43.63784" lon="1.47207">
        <ele>150</ele>
        <time>2017-09-24T15:29:28Z</time>
      </trkpt>
      <trkpt lat="43.63806" lon="1.47187">
        <ele>150</ele>
        <time>2017-09-24T15:29:32Z</time>
      </trkpt>
      <trkpt lat="43.63824" lon="1.47162">
        <ele>150</ele>
        <time>2017-09-24T15:29:36Z</time>
      </trkpt>
      <trkpt lat="43.6384" lon="1.47135">
        <ele>149</ele>
        <time>2017-09-24T15:29:40Z</time>
      </trkpt>
      <trkpt lat="43.63854" lon="1.47115">
        <ele>149</ele>
        <time>2017-09-24T15:29:44Z</time>
      </trkpt>
      <trkpt lat="43.63872" lon="1.47095">
        <ele>149</ele>
        <time>2017-09-24T15:29:48Z</time>
      </trkpt>
      <trkpt lat="43.63891" lon="1.47075">
        <ele>149</ele>
        <time>2017-09-24T15:29:52Z</time>
      </trkpt>
      <trkpt lat="43.63911" lon="1.47055">
        <ele>149</ele>
        <time>2017-09-24T15:29:56Z</time>
      </trkpt>
      <trkpt lat="43.63933" lon="1.47032">
        <ele>149</ele>
        <time>2017-09-24T15:30:00Z</time>
      </trkpt>
      <trkpt lat="43.63954" lon="1.47011">
        <ele>149</ele>
        <time>2017-09-24T15:30:04Z</time>
      </trkpt>
      <trkpt lat="43.63976" lon="1.46992">
        <ele>149</ele>
        <time>2017-09-24T15:30:08Z</time>
      </trkpt>
      <trkpt lat="43.63996" lon="1.46976">
        <ele>149</ele>
        <time>2017-09-24T15:30:12Z</time>
      </trkpt>
      <trkpt lat="43.64017" lon="1.4696">
        <ele>148</ele>
        <time>2017-09-24T15:30:16Z</time>
      </trkpt>
      <trkpt lat="43.64039" lon="1.46937">
        <ele>149</ele>
        <time>2017-09-24T15:30:20Z</time>
      </trkpt>
      <trkpt lat="43.64061" lon="1.46915">
        <ele>150</ele>
        <time>2017-09-24T15:30:24Z</time>
      </trkpt>
      <trkpt lat="43.64082" lon="1.46891">
        <ele>150</ele>
        <time>2017-09-24T15:30:28Z</time>
      </trkpt>
      <trkpt lat="43.64101" lon="1.46865">
        <ele>149</ele>
        <time>2017-09-24T15:30:32Z</time>
      </trkpt>
      <trkpt lat="43.64118" lon="1.46837">
        <ele>149</ele>
        <time>2017-09-24T15:30:36Z</time>
      </trkpt>
      <trkpt lat="43.64137" lon="1.46811">
        <ele>150</ele>
        <time>2017-09-24T15:30:40Z</time>
      </trkpt>
      <trkpt lat="43.64152" lon="1.46783">
        <ele>150</ele>
        <time>2017-09-24T15:30:44Z</time>
      </trkpt>
      <trkpt lat="43.64166" lon="1.46756">
        <ele>150</ele>
        <time>2017-09-24T15:30:48Z</time>
      </trkpt>
      <trkpt lat="43.64173" lon="1.4673">
        <ele>150</ele>
        <time>2017-09-24T15:30:52Z</time>
      </trkpt>
      <trkpt lat="43.64169" lon="1.46704">
        <ele>150</ele>
        <time>2017-09-24T15:30:56Z</time>
      </trkpt>
      <trkpt lat="43.64175" lon="1.46694">
        <ele>150</ele>
        <time>2017-09-24T15:31:00Z</time>
      </trkpt>
      <trkpt lat="43.64189" lon="1.46686">
        <ele>150</ele>
        <time>2017-09-24T15:31:04Z</time>
      </trkpt>
      <trkpt lat="43.64202" lon="1.46677">
        <ele>150</ele>
        <time>2017-09-24T15:31:08Z</time>
      </trkpt>
      <trkpt lat="43.64213" lon="1.46667">
        <ele>149</ele>
        <time>2017-09-24T15:31:12Z</time>
      </trkpt>
      <trkpt lat="43.64223" lon="1.4664">
        <ele>149</ele>
        <time>2017-09-24T15:31:16Z</time>
      </trkpt>
      <trkpt lat="43.64235" lon="1.46605">
        <ele>150</ele>
        <time>2017-09-24T15:31:20Z</time>
      </trkpt>
      <trkpt lat="43.64247" lon="1.46568">
        <ele>150</ele>
        <time>2017-09-24T15:31:24Z</time>
      </trkpt>
      <trkpt lat="43.64259" lon="1.46533">
        <ele>150</ele>
        <time>2017-09-24T15:31:28Z</time>
      </trkpt>
      <trkpt lat="43.64271" lon="1.46498">
        <ele>150</ele>
        <time>2017-09-24T15:31:32Z</time>
      </trkpt>
      <trkpt lat="43.64281" lon="1.46462">
        <ele>150</ele>
        <time>2017-09-24T15:31:36Z</time>
      </trkpt>
      <trkpt lat="43.6429" lon="1.46424">
        <ele>150</ele>
        <time>2017-09-24T15:31:40Z</time>
      </trkpt>
      <trkpt lat="43.64298" lon="1.46386">
        <ele>150</ele>
        <time>2017-09-24T15:31:44Z</time>
      </trkpt>
      <trkpt lat="43.64304" lon="1.46348">
        <ele>150</ele>
        <time>2017-09-24T15:31:48Z</time>
      </trkpt>
      <trkpt lat="43.64309" lon="1.46309">
        <ele>150</ele>
        <time>2017-09-24T15:31:52Z</time>
      </trkpt>
      <trkpt lat="43.64312" lon="1.46269">
        <ele>150</ele>
        <time>2017-09-24T15:31:56Z</time>
      </trkpt>
      <trkpt lat="43.64313" lon="1.46229">
        <ele>149</ele>
        <time>2017-09-24T15:32:00Z</time>
      </trkpt>
      <trkpt lat="43.64313" lon="1.46188">
        <ele>149</ele>
        <time>2017-09-24T15:32:04Z</time>
      </trkpt>
      <trkpt lat="43.64322" lon="1.46152">
        <ele>149</ele>
        <time>2017-09-24T15:32:08Z</time>
      </trkpt>
      <trkpt lat="43.64323" lon="1.46116">
        <ele>149</ele>
        <time>2017-09-24T15:32:12Z</time>
      </trkpt>
      <trkpt lat="43.6431" lon="1.46089">
        <ele>149</ele>
        <time>2017-09-24T15:32:16Z</time>
      </trkpt>
      <trkpt lat="43.64311" lon="1.46058">
        <ele>149</ele>
        <time>2017-09-24T15:32:20Z</time>
      </trkpt>
      <trkpt lat="43.64307" lon="1.46023">
        <ele>149</ele>
        <time>2017-09-24T15:32:24Z</time>
      </trkpt>
      <trkpt lat="43.64306" lon="1.45986">
        <ele>149</ele>
        <time>2017-09-24T15:32:28Z</time>
      </trkpt>
      <trkpt lat="43.64305" lon="1.45948">
        <ele>149</ele>
        <time>2017-09-24T15:32:32Z</time>
      </trkpt>
      <trkpt lat="43.64304" lon="1.4591">
        <ele>149</ele>
        <time>2017-09-24T15:32:36Z</time>
      </trkpt>
      <trkpt lat="43.64302" lon="1.45872">
        <ele>148</ele>
        <time>2017-09-24T15:32:40Z</time>
      </trkpt>
      <trkpt lat="43.643" lon="1.45834">
        <ele>148</ele>
        <time>2017-09-24T15:32:44Z</time>
      </trkpt>
      <trkpt lat="43.64299" lon="1.45796">
        <ele>149</ele>
        <time>2017-09-24T15:32:48Z</time>
      </trkpt>
      <trkpt lat="43.64302" lon="1.4576">
        <ele>149</ele>
        <time>2017-09-24T15:32:52Z</time>
      </trkpt>
      <trkpt lat="43.64309" lon="1.45722">
        <ele>148</ele>
        <time>2017-09-24T15:32:56Z</time>
      </trkpt>
      <trkpt lat="43.64316" lon="1.45683">
        <ele>149</ele>
        <time>2017-09-24T15:33:00Z</time>
      </trkpt>
      <trkpt lat="43.64323" lon="1.45644">
        <ele>148</ele>
        <time>2017-09-24T15:33:04Z</time>
      </trkpt>
      <trkpt lat="43.64327" lon="1.45619">
        <ele>148</ele>
        <time>2017-09-24T15:33:08Z</time>
      </trkpt>
      <trkpt lat="43.64341" lon="1.45603">
        <ele>148</ele>
        <time>2017-09-24T15:33:12Z</time>
      </trkpt>
      <trkpt lat="43.64365" lon="1.45586">
        <ele>148</ele>
        <time>2017-09-24T15:33:16Z</time>
      </trkpt>
      <trkpt lat="43.64392" lon="1.45569">
        <ele>147</ele>
        <time>2017-09-24T15:33:20Z</time>
      </trkpt>
      <trkpt lat="43.64419" lon="1.45553">
        <ele>147</ele>
        <time>2017-09-24T15:33:24Z</time>
      </trkpt>
      <trkpt lat="43.64447" lon="1.45536">
        <ele>147</ele>
        <time>2017-09-24T15:33:28Z</time>
      </trkpt>
      <trkpt lat="43.64475" lon="1.45528">
        <ele>147</ele>
        <time>2017-09-24T15:33:32Z</time>
      </trkpt>
      <trkpt lat="43.64499" lon="1.45523">
        <ele>147</ele>
        <time>2017-09-24T15:33:36Z</time>
      </trkpt>
      <trkpt lat="43.64504" lon="1.45503">
        <ele>148</ele>
        <time>2017-09-24T15:33:40Z</time>
      </trkpt>
      <trkpt lat="43.6452" lon="1.45501">
        <ele>148</ele>
        <time>2017-09-24T15:33:44Z</time>
      </trkpt>
      <trkpt lat="43.64522" lon="1.45492">
        <ele>147</ele>
        <time>2017-09-24T15:33:56Z</time>
      </trkpt>
      <trkpt lat="43.64506" lon="1.45464">
        <ele>148</ele>
        <time>2017-09-24T15:34:00Z</time>
      </trkpt>
      <trkpt lat="43.64495" lon="1.45432">
        <ele>147</ele>
        <time>2017-09-24T15:34:04Z</time>
      </trkpt>
      <trkpt lat="43.64483" lon="1.45399">
        <ele>148</ele>
        <time>2017-09-24T15:34:08Z</time>
      </trkpt>
      <trkpt lat="43.64469" lon="1.45365">
        <ele>147</ele>
        <time>2017-09-24T15:34:12Z</time>
      </trkpt>
      <trkpt lat="43.64455" lon="1.4533">
        <ele>147</ele>
        <time>2017-09-24T15:34:16Z</time>
      </trkpt>
      <trkpt lat="43.64444" lon="1.45293">
        <ele>147</ele>
        <time>2017-09-24T15:34:20Z</time>
      </trkpt>
      <trkpt lat="43.64432" lon="1.45259">
        <ele>147</ele>
        <time>2017-09-24T15:34:24Z</time>
      </trkpt>
      <trkpt lat="43.64433" lon="1.45232">
        <ele>147</ele>
        <time>2017-09-24T15:34:28Z</time>
      </trkpt>
      <trkpt lat="43.6445" lon="1.45209">
        <ele>147</ele>
        <time>2017-09-24T15:34:32Z</time>
      </trkpt>
      <trkpt lat="43.64469" lon="1.45182">
        <ele>147</ele>
        <time>2017-09-24T15:34:36Z</time>
      </trkpt>
      <trkpt lat="43.64489" lon="1.45153">
        <ele>147</ele>
        <time>2017-09-24T15:34:40Z</time>
      </trkpt>
      <trkpt lat="43.64509" lon="1.45124">
        <ele>147</ele>
        <time>2017-09-24T15:34:44Z</time>
      </trkpt>
      <trkpt lat="43.64529" lon="1.45094">
        <ele>147</ele>
        <time>2017-09-24T15:34:48Z</time>
      </trkpt>
      <trkpt lat="43.6455" lon="1.45064">
        <ele>147</ele>
        <time>2017-09-24T15:34:52Z</time>
      </trkpt>
      <trkpt lat="43.64564" lon="1.4503">
        <ele>147</ele>
        <time>2017-09-24T15:34:56Z</time>
      </trkpt>
      <trkpt lat="43.64573" lon="1.44993">
        <ele>147</ele>
        <time>2017-09-24T15:35:00Z</time>
      </trkpt>
      <trkpt lat="43.64582" lon="1.44956">
        <ele>147</ele>
        <time>2017-09-24T15:35:04Z</time>
      </trkpt>
      <trkpt lat="43.64592" lon="1.44919">
        <ele>146</ele>
        <time>2017-09-24T15:35:08Z</time>
      </trkpt>
      <trkpt lat="43.64601" lon="1.44881">
        <ele>147</ele>
        <time>2017-09-24T15:35:12Z</time>
      </trkpt>
      <trkpt lat="43.6461" lon="1.44844">
        <ele>147</ele>
        <time>2017-09-24T15:35:16Z</time>
      </trkpt>
      <trkpt lat="43.64609" lon="1.44806">
        <ele>147</ele>
        <time>2017-09-24T15:35:20Z</time>
      </trkpt>
      <trkpt lat="43.64598" lon="1.4477">
        <ele>147</ele>
        <time>2017-09-24T15:35:24Z</time>
      </trkpt>
      <trkpt lat="43.64601" lon="1.44732">
        <ele>147</ele>
        <time>2017-09-24T15:35:28Z</time>
      </trkpt>
      <trkpt lat="43.64611" lon="1.44697">
        <ele>147</ele>
        <time>2017-09-24T15:35:32Z</time>
      </trkpt>
      <trkpt lat="43.64613" lon="1.4466">
        <ele>147</ele>
        <time>2017-09-24T15:35:36Z</time>
      </trkpt>
      <trkpt lat="43.64612" lon="1.44621">
        <ele>147</ele>
        <time>2017-09-24T15:35:40Z</time>
      </trkpt>
      <trkpt lat="43.64619" lon="1.44587">
        <ele>147</ele>
        <time>2017-09-24T15:35:44Z</time>
      </trkpt>
      <trkpt lat="43.6463" lon="1.44563">
        <ele>147</ele>
        <time>2017-09-24T15:35:48Z</time>
      </trkpt>
      <trkpt lat="43.64631" lon="1.44535">
        <ele>147</ele>
        <time>2017-09-24T15:35:52Z</time>
      </trkpt>
      <trkpt lat="43.64614" lon="1.44503">
        <ele>147</ele>
        <time>2017-09-24T15:35:56Z</time>
      </trkpt>
      <trkpt lat="43.64594" lon="1.44473">
        <ele>147</ele>
        <time>2017-09-24T15:36:00Z</time>
      </trkpt>
      <trkpt lat="43.64574" lon="1.44442">
        <ele>147</ele>
        <time>2017-09-24T15:36:04Z</time>
      </trkpt>
      <trkpt lat="43.64556" lon="1.44414">
        <ele>147</ele>
        <time>2017-09-24T15:36:08Z</time>
      </trkpt>
      <trkpt lat="43.64545" lon="1.44398">
        <ele>147</ele>
        <time>2017-09-24T15:36:12Z</time>
      </trkpt>
      <trkpt lat="43.64523" lon="1.44394">
        <ele>147</ele>
        <time>2017-09-24T15:36:16Z</time>
      </trkpt>
      <trkpt lat="43.64495" lon="1.44398">
        <ele>147</ele>
        <time>2017-09-24T15:36:20Z</time>
      </trkpt>
      <trkpt lat="43.64468" lon="1.44406">
        <ele>147</ele>
        <time>2017-09-24T15:36:24Z</time>
      </trkpt>
      <trkpt lat="43.64441" lon="1.44419">
        <ele>147</ele>
        <time>2017-09-24T15:36:28Z</time>
      </trkpt>
      <trkpt lat="43.64428" lon="1.44447">
        <ele>146</ele>
        <time>2017-09-24T15:36:32Z</time>
      </trkpt>
      <trkpt lat="43.6442" lon="1.44482">
        <ele>147</ele>
        <time>2017-09-24T15:36:36Z</time>
      </trkpt>
      <trkpt lat="43.64407" lon="1.44512">
        <ele>147</ele>
        <time>2017-09-24T15:36:40Z</time>
      </trkpt>
      <trkpt lat="43.64388" lon="1.44536">
        <ele>147</ele>
        <time>2017-09-24T15:36:44Z</time>
      </trkpt>
      <trkpt lat="43.64369" lon="1.4456">
        <ele>147</ele>
        <time>2017-09-24T15:36:48Z</time>
      </trkpt>
      <trkpt lat="43.64349" lon="1.44584">
        <ele>147</ele>
        <time>2017-09-24T15:36:52Z</time>
      </trkpt>
      <trkpt lat="43.6433" lon="1.44609">
        <ele>147</ele>
        <time>2017-09-24T15:36:56Z</time>
      </trkpt>
      <trkpt lat="43.64308" lon="1.44625">
        <ele>147</ele>
        <time>2017-09-24T15:37:00Z</time>
      </trkpt>
      <trkpt lat="43.64288" lon="1.44624">
        <ele>147</ele>
        <time>2017-09-24T15:37:04Z</time>
      </trkpt>
      <trkpt lat="43.64274" lon="1.4462">
        <ele>146</ele>
        <time>2017-09-24T15:37:08Z</time>
      </trkpt>
      <trkpt lat="43.6427" lon="1.44604">
        <ele>147</ele>
        <time>2017-09-24T15:37:28Z</time>
      </trkpt>
      <trkpt lat="43.64276" lon="1.44594">
        <ele>147</ele>
        <time>2017-09-24T15:37:32Z</time>
      </trkpt>
      <trkpt lat="43.64292" lon="1.44592">
        <ele>147</ele>
        <time>2017-09-24T15:37:36Z</time>
      </trkpt>
      <trkpt lat="43.64313" lon="1.44588">
        <ele>148</ele>
        <time>2017-09-24T15:37:40Z</time>
      </trkpt>
      <trkpt lat="43.6433" lon="1.44567">
        <ele>148</ele>
        <time>2017-09-24T15:37:44Z</time>
      </trkpt>
      <trkpt lat="43.64346" lon="1.44546">
        <ele>147</ele>
        <time>2017-09-24T15:37:48Z</time>
      </trkpt>
      <trkpt lat="43.64359" lon="1.44531">
        <ele>147</ele>
        <time>2017-09-24T15:37:52Z</time>
      </trkpt>
    </trkseg>
  </trk>
  <rte>
    <name><![CDATA[2017/09/24 13:47]]></name>
      <rtept lat="43.64352" lon="1.44489">
        <ele>135</ele>
      </rtept>
      <rtept lat="43.64359" lon="1.44531">
        <ele>135</ele>
      </rtept>
    </rte>
</gpx>